<?xml version="1.0" encoding="UTF-8" standalone="no" ?>
<gpx xmlns="http://www.topografix.com/GPX/1/1" xmlns:xsi="http://www.w3.org/2001/XMLSchema-instance" xsi:schemaLocation="http://www.topografix.com/GPX/1/1 http://www.topografix.com/GPX/1/1/gpx.xsd" version="1.1" creator="VisuGPX - https://www.visugpx.com">
  <metadata>
    <name>Autour de Pignan et Murviel les Montpellier</name>
    <desc><![CDATA[Virée VTT facile avec du dénivellé fractionné tout de même. De jolies monotraces sympas et de beaux points de vue. A faire.]]></desc>
  </metadata>
  <trk>
    <name><![CDATA[2011-02-20-01]]></name>
    <trkseg>
      <trkpt lat="43.58476" lon="3.75733">
        <ele>60.099998</ele>
        <time>2011-02-20T08:04:33Z</time>
      </trkpt>
      <trkpt lat="43.58476" lon="3.75733">
        <ele>59.599998</ele>
        <time>2011-02-20T08:04:34Z</time>
      </trkpt>
      <trkpt lat="43.58473" lon="3.75752">
        <ele>57.1</ele>
        <time>2011-02-20T08:04:59Z</time>
      </trkpt>
      <trkpt lat="43.58467" lon="3.75759">
        <ele>56.3</ele>
        <time>2011-02-20T08:05:02Z</time>
      </trkpt>
      <trkpt lat="43.58466" lon="3.75767">
        <ele>55.9</ele>
        <time>2011-02-20T08:05:04Z</time>
      </trkpt>
      <trkpt lat="43.58468" lon="3.75776">
        <ele>55.8</ele>
        <time>2011-02-20T08:05:06Z</time>
      </trkpt>
      <trkpt lat="43.58471" lon="3.75784">
        <ele>55.9</ele>
        <time>2011-02-20T08:05:08Z</time>
      </trkpt>
      <trkpt lat="43.58475" lon="3.75792">
        <ele>56.1</ele>
        <time>2011-02-20T08:05:10Z</time>
      </trkpt>
      <trkpt lat="43.58479" lon="3.75801">
        <ele>56.3</ele>
        <time>2011-02-20T08:05:12Z</time>
      </trkpt>
      <trkpt lat="43.58482" lon="3.75809">
        <ele>56.6</ele>
        <time>2011-02-20T08:05:14Z</time>
      </trkpt>
      <trkpt lat="43.58486" lon="3.75818">
        <ele>56.9</ele>
        <time>2011-02-20T08:05:16Z</time>
      </trkpt>
      <trkpt lat="43.5849" lon="3.75827">
        <ele>56.8</ele>
        <time>2011-02-20T08:05:18Z</time>
      </trkpt>
      <trkpt lat="43.58494" lon="3.75836">
        <ele>56.6</ele>
        <time>2011-02-20T08:05:20Z</time>
      </trkpt>
      <trkpt lat="43.58499" lon="3.75845">
        <ele>56.5</ele>
        <time>2011-02-20T08:05:22Z</time>
      </trkpt>
      <trkpt lat="43.58504" lon="3.75854">
        <ele>56.6</ele>
        <time>2011-02-20T08:05:24Z</time>
      </trkpt>
      <trkpt lat="43.58509" lon="3.75863">
        <ele>56.9</ele>
        <time>2011-02-20T08:05:26Z</time>
      </trkpt>
      <trkpt lat="43.58514" lon="3.75872">
        <ele>57.2</ele>
        <time>2011-02-20T08:05:28Z</time>
      </trkpt>
      <trkpt lat="43.58519" lon="3.75881">
        <ele>57.6</ele>
        <time>2011-02-20T08:05:30Z</time>
      </trkpt>
      <trkpt lat="43.58525" lon="3.75891">
        <ele>58.1</ele>
        <time>2011-02-20T08:05:32Z</time>
      </trkpt>
      <trkpt lat="43.5853" lon="3.75901">
        <ele>58.6</ele>
        <time>2011-02-20T08:05:34Z</time>
      </trkpt>
      <trkpt lat="43.58533" lon="3.75906">
        <ele>58.8</ele>
        <time>2011-02-20T08:05:35Z</time>
      </trkpt>
      <trkpt lat="43.5854" lon="3.75921">
        <ele>59.5</ele>
        <time>2011-02-20T08:05:38Z</time>
      </trkpt>
      <trkpt lat="43.58544" lon="3.75931">
        <ele>60</ele>
        <time>2011-02-20T08:05:40Z</time>
      </trkpt>
      <trkpt lat="43.58549" lon="3.75941">
        <ele>60.4</ele>
        <time>2011-02-20T08:05:42Z</time>
      </trkpt>
      <trkpt lat="43.58553" lon="3.75951">
        <ele>60.8</ele>
        <time>2011-02-20T08:05:44Z</time>
      </trkpt>
      <trkpt lat="43.58558" lon="3.75962">
        <ele>61.2</ele>
        <time>2011-02-20T08:05:46Z</time>
      </trkpt>
      <trkpt lat="43.58562" lon="3.75972">
        <ele>61.6</ele>
        <time>2011-02-20T08:05:48Z</time>
      </trkpt>
      <trkpt lat="43.58565" lon="3.75978">
        <ele>61.8</ele>
        <time>2011-02-20T08:05:49Z</time>
      </trkpt>
      <trkpt lat="43.58569" lon="3.75988">
        <ele>62.1</ele>
        <time>2011-02-20T08:05:51Z</time>
      </trkpt>
      <trkpt lat="43.58574" lon="3.75999">
        <ele>62.5</ele>
        <time>2011-02-20T08:05:53Z</time>
      </trkpt>
      <trkpt lat="43.58577" lon="3.76009">
        <ele>62.9</ele>
        <time>2011-02-20T08:05:55Z</time>
      </trkpt>
      <trkpt lat="43.58579" lon="3.7602">
        <ele>63.3</ele>
        <time>2011-02-20T08:05:57Z</time>
      </trkpt>
      <trkpt lat="43.58578" lon="3.76032">
        <ele>63.5</ele>
        <time>2011-02-20T08:05:59Z</time>
      </trkpt>
      <trkpt lat="43.58577" lon="3.76039">
        <ele>63.5</ele>
        <time>2011-02-20T08:06:00Z</time>
      </trkpt>
      <trkpt lat="43.58576" lon="3.76045">
        <ele>63.5</ele>
        <time>2011-02-20T08:06:01Z</time>
      </trkpt>
      <trkpt lat="43.58575" lon="3.76052">
        <ele>63.4</ele>
        <time>2011-02-20T08:06:02Z</time>
      </trkpt>
      <trkpt lat="43.58577" lon="3.76059">
        <ele>63.3</ele>
        <time>2011-02-20T08:06:03Z</time>
      </trkpt>
      <trkpt lat="43.58579" lon="3.76065">
        <ele>63.2</ele>
        <time>2011-02-20T08:06:04Z</time>
      </trkpt>
      <trkpt lat="43.58582" lon="3.76071">
        <ele>63.2</ele>
        <time>2011-02-20T08:06:05Z</time>
      </trkpt>
      <trkpt lat="43.58585" lon="3.76076">
        <ele>63.1</ele>
        <time>2011-02-20T08:06:06Z</time>
      </trkpt>
      <trkpt lat="43.58588" lon="3.76082">
        <ele>63</ele>
        <time>2011-02-20T08:06:07Z</time>
      </trkpt>
      <trkpt lat="43.58591" lon="3.76088">
        <ele>63</ele>
        <time>2011-02-20T08:06:08Z</time>
      </trkpt>
      <trkpt lat="43.58595" lon="3.76093">
        <ele>62.9</ele>
        <time>2011-02-20T08:06:09Z</time>
      </trkpt>
      <trkpt lat="43.58598" lon="3.76099">
        <ele>62.9</ele>
        <time>2011-02-20T08:06:10Z</time>
      </trkpt>
      <trkpt lat="43.58601" lon="3.76104">
        <ele>62.8</ele>
        <time>2011-02-20T08:06:11Z</time>
      </trkpt>
      <trkpt lat="43.58604" lon="3.7611">
        <ele>62.8</ele>
        <time>2011-02-20T08:06:12Z</time>
      </trkpt>
      <trkpt lat="43.58607" lon="3.76115">
        <ele>62.8</ele>
        <time>2011-02-20T08:06:13Z</time>
      </trkpt>
      <trkpt lat="43.5861" lon="3.7612">
        <ele>62.7</ele>
        <time>2011-02-20T08:06:14Z</time>
      </trkpt>
      <trkpt lat="43.58613" lon="3.76125">
        <ele>62.7</ele>
        <time>2011-02-20T08:06:15Z</time>
      </trkpt>
      <trkpt lat="43.58615" lon="3.76131">
        <ele>62.7</ele>
        <time>2011-02-20T08:06:16Z</time>
      </trkpt>
      <trkpt lat="43.58618" lon="3.76136">
        <ele>62.7</ele>
        <time>2011-02-20T08:06:17Z</time>
      </trkpt>
      <trkpt lat="43.58621" lon="3.76142">
        <ele>62.7</ele>
        <time>2011-02-20T08:06:18Z</time>
      </trkpt>
      <trkpt lat="43.58624" lon="3.76147">
        <ele>62.8</ele>
        <time>2011-02-20T08:06:19Z</time>
      </trkpt>
      <trkpt lat="43.58626" lon="3.76152">
        <ele>62.8</ele>
        <time>2011-02-20T08:06:20Z</time>
      </trkpt>
      <trkpt lat="43.58629" lon="3.76158">
        <ele>62.8</ele>
        <time>2011-02-20T08:06:21Z</time>
      </trkpt>
      <trkpt lat="43.58632" lon="3.76163">
        <ele>62.9</ele>
        <time>2011-02-20T08:06:22Z</time>
      </trkpt>
      <trkpt lat="43.58635" lon="3.76168">
        <ele>62.9</ele>
        <time>2011-02-20T08:06:23Z</time>
      </trkpt>
      <trkpt lat="43.58637" lon="3.76174">
        <ele>63</ele>
        <time>2011-02-20T08:06:24Z</time>
      </trkpt>
      <trkpt lat="43.5864" lon="3.76179">
        <ele>63</ele>
        <time>2011-02-20T08:06:25Z</time>
      </trkpt>
      <trkpt lat="43.58642" lon="3.76184">
        <ele>63.1</ele>
        <time>2011-02-20T08:06:26Z</time>
      </trkpt>
      <trkpt lat="43.58645" lon="3.76189">
        <ele>63.1</ele>
        <time>2011-02-20T08:06:27Z</time>
      </trkpt>
      <trkpt lat="43.58648" lon="3.76195">
        <ele>63.2</ele>
        <time>2011-02-20T08:06:28Z</time>
      </trkpt>
      <trkpt lat="43.5865" lon="3.762">
        <ele>63.2</ele>
        <time>2011-02-20T08:06:29Z</time>
      </trkpt>
      <trkpt lat="43.58653" lon="3.76205">
        <ele>63.3</ele>
        <time>2011-02-20T08:06:30Z</time>
      </trkpt>
      <trkpt lat="43.58656" lon="3.7621">
        <ele>63.3</ele>
        <time>2011-02-20T08:06:31Z</time>
      </trkpt>
      <trkpt lat="43.58658" lon="3.76216">
        <ele>63.4</ele>
        <time>2011-02-20T08:06:32Z</time>
      </trkpt>
      <trkpt lat="43.58661" lon="3.76221">
        <ele>63.4</ele>
        <time>2011-02-20T08:06:33Z</time>
      </trkpt>
      <trkpt lat="43.58664" lon="3.76226">
        <ele>63.4</ele>
        <time>2011-02-20T08:06:34Z</time>
      </trkpt>
      <trkpt lat="43.58666" lon="3.76232">
        <ele>63.4</ele>
        <time>2011-02-20T08:06:35Z</time>
      </trkpt>
      <trkpt lat="43.58669" lon="3.76238">
        <ele>63.4</ele>
        <time>2011-02-20T08:06:36Z</time>
      </trkpt>
      <trkpt lat="43.58672" lon="3.76243">
        <ele>63.4</ele>
        <time>2011-02-20T08:06:37Z</time>
      </trkpt>
      <trkpt lat="43.58674" lon="3.7625">
        <ele>63.4</ele>
        <time>2011-02-20T08:06:38Z</time>
      </trkpt>
      <trkpt lat="43.58677" lon="3.76256">
        <ele>63.4</ele>
        <time>2011-02-20T08:06:39Z</time>
      </trkpt>
      <trkpt lat="43.5868" lon="3.76262">
        <ele>63.3</ele>
        <time>2011-02-20T08:06:40Z</time>
      </trkpt>
      <trkpt lat="43.58683" lon="3.76268">
        <ele>63.3</ele>
        <time>2011-02-20T08:06:41Z</time>
      </trkpt>
      <trkpt lat="43.58686" lon="3.76274">
        <ele>63.3</ele>
        <time>2011-02-20T08:06:42Z</time>
      </trkpt>
      <trkpt lat="43.58689" lon="3.7628">
        <ele>63.2</ele>
        <time>2011-02-20T08:06:43Z</time>
      </trkpt>
      <trkpt lat="43.58692" lon="3.76286">
        <ele>63.2</ele>
        <time>2011-02-20T08:06:44Z</time>
      </trkpt>
      <trkpt lat="43.58696" lon="3.76292">
        <ele>63.1</ele>
        <time>2011-02-20T08:06:45Z</time>
      </trkpt>
      <trkpt lat="43.58698" lon="3.76299">
        <ele>63.1</ele>
        <time>2011-02-20T08:06:46Z</time>
      </trkpt>
      <trkpt lat="43.58701" lon="3.76306">
        <ele>63</ele>
        <time>2011-02-20T08:06:47Z</time>
      </trkpt>
      <trkpt lat="43.58703" lon="3.76314">
        <ele>62.9</ele>
        <time>2011-02-20T08:06:48Z</time>
      </trkpt>
      <trkpt lat="43.58705" lon="3.76321">
        <ele>62.9</ele>
        <time>2011-02-20T08:06:49Z</time>
      </trkpt>
      <trkpt lat="43.58708" lon="3.76329">
        <ele>62.8</ele>
        <time>2011-02-20T08:06:50Z</time>
      </trkpt>
      <trkpt lat="43.5871" lon="3.76336">
        <ele>62.8</ele>
        <time>2011-02-20T08:06:51Z</time>
      </trkpt>
      <trkpt lat="43.58713" lon="3.76342">
        <ele>62.7</ele>
        <time>2011-02-20T08:06:52Z</time>
      </trkpt>
      <trkpt lat="43.58716" lon="3.76349">
        <ele>62.7</ele>
        <time>2011-02-20T08:06:53Z</time>
      </trkpt>
      <trkpt lat="43.5872" lon="3.76356">
        <ele>62.6</ele>
        <time>2011-02-20T08:06:54Z</time>
      </trkpt>
      <trkpt lat="43.58723" lon="3.76363">
        <ele>62.5</ele>
        <time>2011-02-20T08:06:55Z</time>
      </trkpt>
      <trkpt lat="43.58726" lon="3.7637">
        <ele>62.5</ele>
        <time>2011-02-20T08:06:56Z</time>
      </trkpt>
      <trkpt lat="43.58728" lon="3.76376">
        <ele>62.4</ele>
        <time>2011-02-20T08:06:57Z</time>
      </trkpt>
      <trkpt lat="43.58731" lon="3.76383">
        <ele>62.4</ele>
        <time>2011-02-20T08:06:58Z</time>
      </trkpt>
      <trkpt lat="43.58734" lon="3.7639">
        <ele>62.3</ele>
        <time>2011-02-20T08:06:59Z</time>
      </trkpt>
      <trkpt lat="43.58737" lon="3.76396">
        <ele>62.3</ele>
        <time>2011-02-20T08:07:00Z</time>
      </trkpt>
      <trkpt lat="43.5874" lon="3.76402">
        <ele>62.3</ele>
        <time>2011-02-20T08:07:01Z</time>
      </trkpt>
      <trkpt lat="43.58743" lon="3.76409">
        <ele>62.2</ele>
        <time>2011-02-20T08:07:02Z</time>
      </trkpt>
      <trkpt lat="43.58746" lon="3.76415">
        <ele>62.2</ele>
        <time>2011-02-20T08:07:03Z</time>
      </trkpt>
      <trkpt lat="43.58749" lon="3.76422">
        <ele>62.2</ele>
        <time>2011-02-20T08:07:04Z</time>
      </trkpt>
      <trkpt lat="43.58752" lon="3.76429">
        <ele>62.1</ele>
        <time>2011-02-20T08:07:05Z</time>
      </trkpt>
      <trkpt lat="43.58755" lon="3.76435">
        <ele>62.1</ele>
        <time>2011-02-20T08:07:06Z</time>
      </trkpt>
      <trkpt lat="43.58758" lon="3.76442">
        <ele>62.1</ele>
        <time>2011-02-20T08:07:07Z</time>
      </trkpt>
      <trkpt lat="43.58761" lon="3.76449">
        <ele>62.1</ele>
        <time>2011-02-20T08:07:08Z</time>
      </trkpt>
      <trkpt lat="43.58763" lon="3.76456">
        <ele>62.1</ele>
        <time>2011-02-20T08:07:09Z</time>
      </trkpt>
      <trkpt lat="43.58766" lon="3.76463">
        <ele>62.1</ele>
        <time>2011-02-20T08:07:10Z</time>
      </trkpt>
      <trkpt lat="43.58769" lon="3.76469">
        <ele>62.1</ele>
        <time>2011-02-20T08:07:11Z</time>
      </trkpt>
      <trkpt lat="43.58772" lon="3.76476">
        <ele>62.1</ele>
        <time>2011-02-20T08:07:12Z</time>
      </trkpt>
      <trkpt lat="43.58775" lon="3.76483">
        <ele>62.1</ele>
        <time>2011-02-20T08:07:13Z</time>
      </trkpt>
      <trkpt lat="43.58778" lon="3.76489">
        <ele>62.1</ele>
        <time>2011-02-20T08:07:14Z</time>
      </trkpt>
      <trkpt lat="43.58781" lon="3.76496">
        <ele>62.2</ele>
        <time>2011-02-20T08:07:15Z</time>
      </trkpt>
      <trkpt lat="43.58784" lon="3.76502">
        <ele>62.2</ele>
        <time>2011-02-20T08:07:16Z</time>
      </trkpt>
      <trkpt lat="43.58787" lon="3.76509">
        <ele>62.3</ele>
        <time>2011-02-20T08:07:17Z</time>
      </trkpt>
      <trkpt lat="43.58789" lon="3.76515">
        <ele>62.3</ele>
        <time>2011-02-20T08:07:18Z</time>
      </trkpt>
      <trkpt lat="43.58792" lon="3.76521">
        <ele>62.4</ele>
        <time>2011-02-20T08:07:19Z</time>
      </trkpt>
      <trkpt lat="43.58795" lon="3.76527">
        <ele>62.4</ele>
        <time>2011-02-20T08:07:20Z</time>
      </trkpt>
      <trkpt lat="43.58798" lon="3.76534">
        <ele>62.4</ele>
        <time>2011-02-20T08:07:21Z</time>
      </trkpt>
      <trkpt lat="43.588" lon="3.7654">
        <ele>62.4</ele>
        <time>2011-02-20T08:07:22Z</time>
      </trkpt>
      <trkpt lat="43.58803" lon="3.76547">
        <ele>62.4</ele>
        <time>2011-02-20T08:07:23Z</time>
      </trkpt>
      <trkpt lat="43.58806" lon="3.76554">
        <ele>62.4</ele>
        <time>2011-02-20T08:07:24Z</time>
      </trkpt>
      <trkpt lat="43.58808" lon="3.7656">
        <ele>62.4</ele>
        <time>2011-02-20T08:07:25Z</time>
      </trkpt>
      <trkpt lat="43.58811" lon="3.76567">
        <ele>62.4</ele>
        <time>2011-02-20T08:07:26Z</time>
      </trkpt>
      <trkpt lat="43.58813" lon="3.76573">
        <ele>62.3</ele>
        <time>2011-02-20T08:07:27Z</time>
      </trkpt>
      <trkpt lat="43.58816" lon="3.7658">
        <ele>62.3</ele>
        <time>2011-02-20T08:07:28Z</time>
      </trkpt>
      <trkpt lat="43.58818" lon="3.76586">
        <ele>62.3</ele>
        <time>2011-02-20T08:07:29Z</time>
      </trkpt>
      <trkpt lat="43.5882" lon="3.76592">
        <ele>62.3</ele>
        <time>2011-02-20T08:07:30Z</time>
      </trkpt>
      <trkpt lat="43.58823" lon="3.76599">
        <ele>62.3</ele>
        <time>2011-02-20T08:07:31Z</time>
      </trkpt>
      <trkpt lat="43.58825" lon="3.76606">
        <ele>62.3</ele>
        <time>2011-02-20T08:07:32Z</time>
      </trkpt>
      <trkpt lat="43.58827" lon="3.76612">
        <ele>62.3</ele>
        <time>2011-02-20T08:07:33Z</time>
      </trkpt>
      <trkpt lat="43.5883" lon="3.76619">
        <ele>62.3</ele>
        <time>2011-02-20T08:07:34Z</time>
      </trkpt>
      <trkpt lat="43.58832" lon="3.76626">
        <ele>62.3</ele>
        <time>2011-02-20T08:07:35Z</time>
      </trkpt>
      <trkpt lat="43.58834" lon="3.76633">
        <ele>62.3</ele>
        <time>2011-02-20T08:07:36Z</time>
      </trkpt>
      <trkpt lat="43.58836" lon="3.7664">
        <ele>62.3</ele>
        <time>2011-02-20T08:07:37Z</time>
      </trkpt>
      <trkpt lat="43.58838" lon="3.76646">
        <ele>62.3</ele>
        <time>2011-02-20T08:07:38Z</time>
      </trkpt>
      <trkpt lat="43.5884" lon="3.76653">
        <ele>62.3</ele>
        <time>2011-02-20T08:07:39Z</time>
      </trkpt>
      <trkpt lat="43.58841" lon="3.76661">
        <ele>62.3</ele>
        <time>2011-02-20T08:07:40Z</time>
      </trkpt>
      <trkpt lat="43.58842" lon="3.76668">
        <ele>62.3</ele>
        <time>2011-02-20T08:07:41Z</time>
      </trkpt>
      <trkpt lat="43.58844" lon="3.76674">
        <ele>62.1</ele>
        <time>2011-02-20T08:07:42Z</time>
      </trkpt>
      <trkpt lat="43.58845" lon="3.76682">
        <ele>61.9</ele>
        <time>2011-02-20T08:07:43Z</time>
      </trkpt>
      <trkpt lat="43.58845" lon="3.76689">
        <ele>61.7</ele>
        <time>2011-02-20T08:07:44Z</time>
      </trkpt>
      <trkpt lat="43.58846" lon="3.76696">
        <ele>61.5</ele>
        <time>2011-02-20T08:07:45Z</time>
      </trkpt>
      <trkpt lat="43.58847" lon="3.76704">
        <ele>61.4</ele>
        <time>2011-02-20T08:07:46Z</time>
      </trkpt>
      <trkpt lat="43.58848" lon="3.76711">
        <ele>61.3</ele>
        <time>2011-02-20T08:07:47Z</time>
      </trkpt>
      <trkpt lat="43.58848" lon="3.76718">
        <ele>61.2</ele>
        <time>2011-02-20T08:07:48Z</time>
      </trkpt>
      <trkpt lat="43.58849" lon="3.76725">
        <ele>61.1</ele>
        <time>2011-02-20T08:07:49Z</time>
      </trkpt>
      <trkpt lat="43.5885" lon="3.76732">
        <ele>61</ele>
        <time>2011-02-20T08:07:50Z</time>
      </trkpt>
      <trkpt lat="43.5885" lon="3.7674">
        <ele>60.9</ele>
        <time>2011-02-20T08:07:51Z</time>
      </trkpt>
      <trkpt lat="43.58851" lon="3.76747">
        <ele>60.9</ele>
        <time>2011-02-20T08:07:52Z</time>
      </trkpt>
      <trkpt lat="43.58851" lon="3.76754">
        <ele>60.8</ele>
        <time>2011-02-20T08:07:53Z</time>
      </trkpt>
      <trkpt lat="43.58851" lon="3.76761">
        <ele>60.7</ele>
        <time>2011-02-20T08:07:54Z</time>
      </trkpt>
      <trkpt lat="43.5885" lon="3.76768">
        <ele>60.6</ele>
        <time>2011-02-20T08:07:55Z</time>
      </trkpt>
      <trkpt lat="43.58848" lon="3.76775">
        <ele>60.5</ele>
        <time>2011-02-20T08:07:56Z</time>
      </trkpt>
      <trkpt lat="43.58848" lon="3.76782">
        <ele>60.3</ele>
        <time>2011-02-20T08:07:57Z</time>
      </trkpt>
      <trkpt lat="43.58849" lon="3.76788">
        <ele>60.2</ele>
        <time>2011-02-20T08:07:58Z</time>
      </trkpt>
      <trkpt lat="43.5885" lon="3.76795">
        <ele>60.1</ele>
        <time>2011-02-20T08:07:59Z</time>
      </trkpt>
      <trkpt lat="43.5885" lon="3.76802">
        <ele>59.9</ele>
        <time>2011-02-20T08:08:00Z</time>
      </trkpt>
      <trkpt lat="43.5885" lon="3.76809">
        <ele>59.8</ele>
        <time>2011-02-20T08:08:01Z</time>
      </trkpt>
      <trkpt lat="43.5885" lon="3.76817">
        <ele>59.6</ele>
        <time>2011-02-20T08:08:02Z</time>
      </trkpt>
      <trkpt lat="43.58849" lon="3.76824">
        <ele>59.5</ele>
        <time>2011-02-20T08:08:03Z</time>
      </trkpt>
      <trkpt lat="43.58848" lon="3.76832">
        <ele>59.3</ele>
        <time>2011-02-20T08:08:04Z</time>
      </trkpt>
      <trkpt lat="43.58846" lon="3.76839">
        <ele>59.2</ele>
        <time>2011-02-20T08:08:05Z</time>
      </trkpt>
      <trkpt lat="43.58845" lon="3.76847">
        <ele>59</ele>
        <time>2011-02-20T08:08:06Z</time>
      </trkpt>
      <trkpt lat="43.58844" lon="3.76854">
        <ele>58.8</ele>
        <time>2011-02-20T08:08:07Z</time>
      </trkpt>
      <trkpt lat="43.58842" lon="3.76862">
        <ele>58.7</ele>
        <time>2011-02-20T08:08:08Z</time>
      </trkpt>
      <trkpt lat="43.58841" lon="3.76869">
        <ele>58.5</ele>
        <time>2011-02-20T08:08:09Z</time>
      </trkpt>
      <trkpt lat="43.58839" lon="3.76876">
        <ele>58.4</ele>
        <time>2011-02-20T08:08:10Z</time>
      </trkpt>
      <trkpt lat="43.58837" lon="3.76884">
        <ele>58.3</ele>
        <time>2011-02-20T08:08:11Z</time>
      </trkpt>
      <trkpt lat="43.58836" lon="3.7689">
        <ele>58.2</ele>
        <time>2011-02-20T08:08:12Z</time>
      </trkpt>
      <trkpt lat="43.58834" lon="3.76898">
        <ele>58.1</ele>
        <time>2011-02-20T08:08:13Z</time>
      </trkpt>
      <trkpt lat="43.58832" lon="3.76905">
        <ele>58</ele>
        <time>2011-02-20T08:08:14Z</time>
      </trkpt>
      <trkpt lat="43.58831" lon="3.76912">
        <ele>58</ele>
        <time>2011-02-20T08:08:15Z</time>
      </trkpt>
      <trkpt lat="43.58829" lon="3.76919">
        <ele>58</ele>
        <time>2011-02-20T08:08:16Z</time>
      </trkpt>
      <trkpt lat="43.58828" lon="3.76926">
        <ele>57.9</ele>
        <time>2011-02-20T08:08:17Z</time>
      </trkpt>
      <trkpt lat="43.58826" lon="3.76933">
        <ele>57.9</ele>
        <time>2011-02-20T08:08:18Z</time>
      </trkpt>
      <trkpt lat="43.58825" lon="3.76939">
        <ele>57.8</ele>
        <time>2011-02-20T08:08:19Z</time>
      </trkpt>
      <trkpt lat="43.58823" lon="3.76946">
        <ele>57.8</ele>
        <time>2011-02-20T08:08:20Z</time>
      </trkpt>
      <trkpt lat="43.58821" lon="3.76953">
        <ele>57.7</ele>
        <time>2011-02-20T08:08:21Z</time>
      </trkpt>
      <trkpt lat="43.58819" lon="3.7696">
        <ele>57.7</ele>
        <time>2011-02-20T08:08:22Z</time>
      </trkpt>
      <trkpt lat="43.58818" lon="3.76967">
        <ele>57.6</ele>
        <time>2011-02-20T08:08:23Z</time>
      </trkpt>
      <trkpt lat="43.58816" lon="3.76973">
        <ele>57.6</ele>
        <time>2011-02-20T08:08:24Z</time>
      </trkpt>
      <trkpt lat="43.58815" lon="3.7698">
        <ele>57.5</ele>
        <time>2011-02-20T08:08:25Z</time>
      </trkpt>
      <trkpt lat="43.58813" lon="3.76987">
        <ele>57.4</ele>
        <time>2011-02-20T08:08:26Z</time>
      </trkpt>
      <trkpt lat="43.58811" lon="3.76994">
        <ele>57.4</ele>
        <time>2011-02-20T08:08:27Z</time>
      </trkpt>
      <trkpt lat="43.5881" lon="3.77">
        <ele>57.3</ele>
        <time>2011-02-20T08:08:28Z</time>
      </trkpt>
      <trkpt lat="43.58808" lon="3.77007">
        <ele>57.2</ele>
        <time>2011-02-20T08:08:29Z</time>
      </trkpt>
      <trkpt lat="43.58807" lon="3.77014">
        <ele>57.1</ele>
        <time>2011-02-20T08:08:30Z</time>
      </trkpt>
      <trkpt lat="43.58805" lon="3.77021">
        <ele>57</ele>
        <time>2011-02-20T08:08:31Z</time>
      </trkpt>
      <trkpt lat="43.58803" lon="3.77027">
        <ele>56.5</ele>
        <time>2011-02-20T08:08:32Z</time>
      </trkpt>
      <trkpt lat="43.58801" lon="3.77034">
        <ele>56.1</ele>
        <time>2011-02-20T08:08:33Z</time>
      </trkpt>
      <trkpt lat="43.588" lon="3.77041">
        <ele>55.8</ele>
        <time>2011-02-20T08:08:34Z</time>
      </trkpt>
      <trkpt lat="43.58798" lon="3.77048">
        <ele>55.6</ele>
        <time>2011-02-20T08:08:35Z</time>
      </trkpt>
      <trkpt lat="43.58797" lon="3.77055">
        <ele>55.4</ele>
        <time>2011-02-20T08:08:36Z</time>
      </trkpt>
      <trkpt lat="43.58795" lon="3.77062">
        <ele>55.3</ele>
        <time>2011-02-20T08:08:37Z</time>
      </trkpt>
      <trkpt lat="43.58794" lon="3.77069">
        <ele>55.2</ele>
        <time>2011-02-20T08:08:38Z</time>
      </trkpt>
      <trkpt lat="43.58792" lon="3.77076">
        <ele>55.1</ele>
        <time>2011-02-20T08:08:39Z</time>
      </trkpt>
      <trkpt lat="43.5879" lon="3.77083">
        <ele>55</ele>
        <time>2011-02-20T08:08:40Z</time>
      </trkpt>
      <trkpt lat="43.58789" lon="3.7709">
        <ele>55</ele>
        <time>2011-02-20T08:08:41Z</time>
      </trkpt>
      <trkpt lat="43.58787" lon="3.77097">
        <ele>55</ele>
        <time>2011-02-20T08:08:42Z</time>
      </trkpt>
      <trkpt lat="43.58786" lon="3.77104">
        <ele>54.9</ele>
        <time>2011-02-20T08:08:43Z</time>
      </trkpt>
      <trkpt lat="43.58784" lon="3.77111">
        <ele>54.9</ele>
        <time>2011-02-20T08:08:44Z</time>
      </trkpt>
      <trkpt lat="43.58782" lon="3.77118">
        <ele>54.9</ele>
        <time>2011-02-20T08:08:45Z</time>
      </trkpt>
      <trkpt lat="43.58781" lon="3.77125">
        <ele>54.9</ele>
        <time>2011-02-20T08:08:46Z</time>
      </trkpt>
      <trkpt lat="43.58779" lon="3.77132">
        <ele>54.8</ele>
        <time>2011-02-20T08:08:47Z</time>
      </trkpt>
      <trkpt lat="43.58777" lon="3.7714">
        <ele>54.7</ele>
        <time>2011-02-20T08:08:48Z</time>
      </trkpt>
      <trkpt lat="43.58776" lon="3.77147">
        <ele>54.7</ele>
        <time>2011-02-20T08:08:49Z</time>
      </trkpt>
      <trkpt lat="43.58774" lon="3.77154">
        <ele>54.6</ele>
        <time>2011-02-20T08:08:50Z</time>
      </trkpt>
      <trkpt lat="43.58772" lon="3.77161">
        <ele>54.6</ele>
        <time>2011-02-20T08:08:51Z</time>
      </trkpt>
      <trkpt lat="43.58771" lon="3.77168">
        <ele>54.5</ele>
        <time>2011-02-20T08:08:52Z</time>
      </trkpt>
      <trkpt lat="43.58769" lon="3.77176">
        <ele>54.4</ele>
        <time>2011-02-20T08:08:53Z</time>
      </trkpt>
      <trkpt lat="43.58767" lon="3.77183">
        <ele>54.3</ele>
        <time>2011-02-20T08:08:54Z</time>
      </trkpt>
      <trkpt lat="43.58765" lon="3.7719">
        <ele>54.2</ele>
        <time>2011-02-20T08:08:55Z</time>
      </trkpt>
      <trkpt lat="43.58763" lon="3.77198">
        <ele>54.1</ele>
        <time>2011-02-20T08:08:56Z</time>
      </trkpt>
      <trkpt lat="43.58761" lon="3.77205">
        <ele>54</ele>
        <time>2011-02-20T08:08:57Z</time>
      </trkpt>
      <trkpt lat="43.58759" lon="3.77213">
        <ele>53.8</ele>
        <time>2011-02-20T08:08:58Z</time>
      </trkpt>
      <trkpt lat="43.58758" lon="3.77221">
        <ele>53.7</ele>
        <time>2011-02-20T08:08:59Z</time>
      </trkpt>
      <trkpt lat="43.58756" lon="3.77229">
        <ele>53.6</ele>
        <time>2011-02-20T08:09:00Z</time>
      </trkpt>
      <trkpt lat="43.58755" lon="3.77237">
        <ele>53.5</ele>
        <time>2011-02-20T08:09:01Z</time>
      </trkpt>
      <trkpt lat="43.58753" lon="3.77245">
        <ele>53.4</ele>
        <time>2011-02-20T08:09:02Z</time>
      </trkpt>
      <trkpt lat="43.58751" lon="3.77253">
        <ele>53.3</ele>
        <time>2011-02-20T08:09:03Z</time>
      </trkpt>
      <trkpt lat="43.58749" lon="3.77261">
        <ele>53.1</ele>
        <time>2011-02-20T08:09:04Z</time>
      </trkpt>
      <trkpt lat="43.58748" lon="3.77268">
        <ele>53</ele>
        <time>2011-02-20T08:09:05Z</time>
      </trkpt>
      <trkpt lat="43.58746" lon="3.77276">
        <ele>52.9</ele>
        <time>2011-02-20T08:09:06Z</time>
      </trkpt>
      <trkpt lat="43.58744" lon="3.77284">
        <ele>52.8</ele>
        <time>2011-02-20T08:09:07Z</time>
      </trkpt>
      <trkpt lat="43.58743" lon="3.77292">
        <ele>52.6</ele>
        <time>2011-02-20T08:09:08Z</time>
      </trkpt>
      <trkpt lat="43.58741" lon="3.773">
        <ele>52.5</ele>
        <time>2011-02-20T08:09:09Z</time>
      </trkpt>
      <trkpt lat="43.58739" lon="3.77307">
        <ele>52.4</ele>
        <time>2011-02-20T08:09:10Z</time>
      </trkpt>
      <trkpt lat="43.58738" lon="3.77315">
        <ele>52.3</ele>
        <time>2011-02-20T08:09:11Z</time>
      </trkpt>
      <trkpt lat="43.58736" lon="3.77323">
        <ele>52.1</ele>
        <time>2011-02-20T08:09:12Z</time>
      </trkpt>
      <trkpt lat="43.58734" lon="3.77331">
        <ele>52</ele>
        <time>2011-02-20T08:09:13Z</time>
      </trkpt>
      <trkpt lat="43.58732" lon="3.77338">
        <ele>51.9</ele>
        <time>2011-02-20T08:09:14Z</time>
      </trkpt>
      <trkpt lat="43.58731" lon="3.77346">
        <ele>51.7</ele>
        <time>2011-02-20T08:09:15Z</time>
      </trkpt>
      <trkpt lat="43.58729" lon="3.77354">
        <ele>51.6</ele>
        <time>2011-02-20T08:09:16Z</time>
      </trkpt>
      <trkpt lat="43.58727" lon="3.77361">
        <ele>51.5</ele>
        <time>2011-02-20T08:09:17Z</time>
      </trkpt>
      <trkpt lat="43.58726" lon="3.77369">
        <ele>51.3</ele>
        <time>2011-02-20T08:09:18Z</time>
      </trkpt>
      <trkpt lat="43.58724" lon="3.77377">
        <ele>51.2</ele>
        <time>2011-02-20T08:09:19Z</time>
      </trkpt>
      <trkpt lat="43.58722" lon="3.77385">
        <ele>51.1</ele>
        <time>2011-02-20T08:09:20Z</time>
      </trkpt>
      <trkpt lat="43.5872" lon="3.77392">
        <ele>50.9</ele>
        <time>2011-02-20T08:09:21Z</time>
      </trkpt>
      <trkpt lat="43.58719" lon="3.774">
        <ele>50.8</ele>
        <time>2011-02-20T08:09:22Z</time>
      </trkpt>
      <trkpt lat="43.58717" lon="3.77407">
        <ele>50.7</ele>
        <time>2011-02-20T08:09:23Z</time>
      </trkpt>
      <trkpt lat="43.58715" lon="3.77415">
        <ele>50.5</ele>
        <time>2011-02-20T08:09:24Z</time>
      </trkpt>
      <trkpt lat="43.58713" lon="3.77422">
        <ele>50.4</ele>
        <time>2011-02-20T08:09:25Z</time>
      </trkpt>
      <trkpt lat="43.58711" lon="3.7743">
        <ele>50.2</ele>
        <time>2011-02-20T08:09:26Z</time>
      </trkpt>
      <trkpt lat="43.58709" lon="3.77437">
        <ele>50.1</ele>
        <time>2011-02-20T08:09:27Z</time>
      </trkpt>
      <trkpt lat="43.58707" lon="3.77444">
        <ele>49.9</ele>
        <time>2011-02-20T08:09:28Z</time>
      </trkpt>
      <trkpt lat="43.58705" lon="3.77451">
        <ele>49.8</ele>
        <time>2011-02-20T08:09:29Z</time>
      </trkpt>
      <trkpt lat="43.58703" lon="3.77458">
        <ele>49.6</ele>
        <time>2011-02-20T08:09:30Z</time>
      </trkpt>
      <trkpt lat="43.58701" lon="3.77465">
        <ele>49.4</ele>
        <time>2011-02-20T08:09:31Z</time>
      </trkpt>
      <trkpt lat="43.58698" lon="3.77472">
        <ele>49.2</ele>
        <time>2011-02-20T08:09:32Z</time>
      </trkpt>
      <trkpt lat="43.58696" lon="3.77479">
        <ele>49</ele>
        <time>2011-02-20T08:09:33Z</time>
      </trkpt>
      <trkpt lat="43.58694" lon="3.77487">
        <ele>48.9</ele>
        <time>2011-02-20T08:09:34Z</time>
      </trkpt>
      <trkpt lat="43.58692" lon="3.77494">
        <ele>48.8</ele>
        <time>2011-02-20T08:09:35Z</time>
      </trkpt>
      <trkpt lat="43.58689" lon="3.77501">
        <ele>48.7</ele>
        <time>2011-02-20T08:09:36Z</time>
      </trkpt>
      <trkpt lat="43.58687" lon="3.77508">
        <ele>48.6</ele>
        <time>2011-02-20T08:09:37Z</time>
      </trkpt>
      <trkpt lat="43.58684" lon="3.77515">
        <ele>48.5</ele>
        <time>2011-02-20T08:09:38Z</time>
      </trkpt>
      <trkpt lat="43.58681" lon="3.77521">
        <ele>48.4</ele>
        <time>2011-02-20T08:09:39Z</time>
      </trkpt>
      <trkpt lat="43.58678" lon="3.77528">
        <ele>48.2</ele>
        <time>2011-02-20T08:09:40Z</time>
      </trkpt>
      <trkpt lat="43.58675" lon="3.77535">
        <ele>48.1</ele>
        <time>2011-02-20T08:09:41Z</time>
      </trkpt>
      <trkpt lat="43.58672" lon="3.77542">
        <ele>48</ele>
        <time>2011-02-20T08:09:42Z</time>
      </trkpt>
      <trkpt lat="43.58669" lon="3.77549">
        <ele>47.9</ele>
        <time>2011-02-20T08:09:43Z</time>
      </trkpt>
      <trkpt lat="43.58666" lon="3.77556">
        <ele>47.8</ele>
        <time>2011-02-20T08:09:44Z</time>
      </trkpt>
      <trkpt lat="43.58663" lon="3.77563">
        <ele>47.7</ele>
        <time>2011-02-20T08:09:45Z</time>
      </trkpt>
      <trkpt lat="43.58659" lon="3.7757">
        <ele>47.6</ele>
        <time>2011-02-20T08:09:46Z</time>
      </trkpt>
      <trkpt lat="43.58656" lon="3.77577">
        <ele>47.5</ele>
        <time>2011-02-20T08:09:47Z</time>
      </trkpt>
      <trkpt lat="43.58653" lon="3.77583">
        <ele>47.4</ele>
        <time>2011-02-20T08:09:48Z</time>
      </trkpt>
      <trkpt lat="43.5865" lon="3.7759">
        <ele>47.3</ele>
        <time>2011-02-20T08:09:49Z</time>
      </trkpt>
      <trkpt lat="43.58646" lon="3.77596">
        <ele>47.3</ele>
        <time>2011-02-20T08:09:50Z</time>
      </trkpt>
      <trkpt lat="43.58643" lon="3.77603">
        <ele>47.2</ele>
        <time>2011-02-20T08:09:51Z</time>
      </trkpt>
      <trkpt lat="43.5864" lon="3.77609">
        <ele>47.1</ele>
        <time>2011-02-20T08:09:52Z</time>
      </trkpt>
      <trkpt lat="43.58636" lon="3.77616">
        <ele>47.1</ele>
        <time>2011-02-20T08:09:53Z</time>
      </trkpt>
      <trkpt lat="43.58633" lon="3.77622">
        <ele>47</ele>
        <time>2011-02-20T08:09:54Z</time>
      </trkpt>
      <trkpt lat="43.5863" lon="3.77628">
        <ele>46.9</ele>
        <time>2011-02-20T08:09:55Z</time>
      </trkpt>
      <trkpt lat="43.58627" lon="3.77635">
        <ele>46.9</ele>
        <time>2011-02-20T08:09:56Z</time>
      </trkpt>
      <trkpt lat="43.58623" lon="3.77641">
        <ele>46.8</ele>
        <time>2011-02-20T08:09:57Z</time>
      </trkpt>
      <trkpt lat="43.5862" lon="3.77648">
        <ele>46.7</ele>
        <time>2011-02-20T08:09:58Z</time>
      </trkpt>
      <trkpt lat="43.58617" lon="3.77654">
        <ele>46.7</ele>
        <time>2011-02-20T08:09:59Z</time>
      </trkpt>
      <trkpt lat="43.58613" lon="3.77661">
        <ele>46.6</ele>
        <time>2011-02-20T08:10:00Z</time>
      </trkpt>
      <trkpt lat="43.5861" lon="3.77667">
        <ele>46.6</ele>
        <time>2011-02-20T08:10:01Z</time>
      </trkpt>
      <trkpt lat="43.58607" lon="3.77674">
        <ele>46.5</ele>
        <time>2011-02-20T08:10:02Z</time>
      </trkpt>
      <trkpt lat="43.58603" lon="3.7768">
        <ele>46.4</ele>
        <time>2011-02-20T08:10:03Z</time>
      </trkpt>
      <trkpt lat="43.586" lon="3.77686">
        <ele>46.3</ele>
        <time>2011-02-20T08:10:04Z</time>
      </trkpt>
      <trkpt lat="43.58596" lon="3.77693">
        <ele>46.3</ele>
        <time>2011-02-20T08:10:05Z</time>
      </trkpt>
      <trkpt lat="43.58593" lon="3.77699">
        <ele>46.2</ele>
        <time>2011-02-20T08:10:06Z</time>
      </trkpt>
      <trkpt lat="43.5859" lon="3.77706">
        <ele>46.1</ele>
        <time>2011-02-20T08:10:07Z</time>
      </trkpt>
      <trkpt lat="43.58586" lon="3.77712">
        <ele>46</ele>
        <time>2011-02-20T08:10:08Z</time>
      </trkpt>
      <trkpt lat="43.58583" lon="3.77719">
        <ele>45.9</ele>
        <time>2011-02-20T08:10:09Z</time>
      </trkpt>
      <trkpt lat="43.58579" lon="3.77725">
        <ele>45.9</ele>
        <time>2011-02-20T08:10:10Z</time>
      </trkpt>
      <trkpt lat="43.58576" lon="3.77731">
        <ele>45.8</ele>
        <time>2011-02-20T08:10:11Z</time>
      </trkpt>
      <trkpt lat="43.58573" lon="3.77738">
        <ele>45.8</ele>
        <time>2011-02-20T08:10:12Z</time>
      </trkpt>
      <trkpt lat="43.58569" lon="3.77744">
        <ele>45.7</ele>
        <time>2011-02-20T08:10:13Z</time>
      </trkpt>
      <trkpt lat="43.58566" lon="3.7775">
        <ele>45.6</ele>
        <time>2011-02-20T08:10:14Z</time>
      </trkpt>
      <trkpt lat="43.58563" lon="3.77757">
        <ele>45.6</ele>
        <time>2011-02-20T08:10:15Z</time>
      </trkpt>
      <trkpt lat="43.58559" lon="3.77763">
        <ele>45.5</ele>
        <time>2011-02-20T08:10:16Z</time>
      </trkpt>
      <trkpt lat="43.58556" lon="3.77769">
        <ele>45.4</ele>
        <time>2011-02-20T08:10:17Z</time>
      </trkpt>
      <trkpt lat="43.58553" lon="3.77776">
        <ele>45.4</ele>
        <time>2011-02-20T08:10:18Z</time>
      </trkpt>
      <trkpt lat="43.5855" lon="3.77782">
        <ele>45.3</ele>
        <time>2011-02-20T08:10:19Z</time>
      </trkpt>
      <trkpt lat="43.58547" lon="3.77789">
        <ele>45.3</ele>
        <time>2011-02-20T08:10:20Z</time>
      </trkpt>
      <trkpt lat="43.58544" lon="3.77796">
        <ele>45.3</ele>
        <time>2011-02-20T08:10:21Z</time>
      </trkpt>
      <trkpt lat="43.58541" lon="3.77802">
        <ele>45.2</ele>
        <time>2011-02-20T08:10:22Z</time>
      </trkpt>
      <trkpt lat="43.58538" lon="3.77809">
        <ele>45.2</ele>
        <time>2011-02-20T08:10:23Z</time>
      </trkpt>
      <trkpt lat="43.58536" lon="3.77816">
        <ele>45.1</ele>
        <time>2011-02-20T08:10:24Z</time>
      </trkpt>
      <trkpt lat="43.58533" lon="3.77823">
        <ele>45.1</ele>
        <time>2011-02-20T08:10:25Z</time>
      </trkpt>
      <trkpt lat="43.58531" lon="3.7783">
        <ele>45.1</ele>
        <time>2011-02-20T08:10:26Z</time>
      </trkpt>
      <trkpt lat="43.58528" lon="3.77836">
        <ele>45.1</ele>
        <time>2011-02-20T08:10:27Z</time>
      </trkpt>
      <trkpt lat="43.58526" lon="3.77843">
        <ele>45.1</ele>
        <time>2011-02-20T08:10:28Z</time>
      </trkpt>
      <trkpt lat="43.58523" lon="3.7785">
        <ele>45.1</ele>
        <time>2011-02-20T08:10:29Z</time>
      </trkpt>
      <trkpt lat="43.58521" lon="3.77856">
        <ele>45.1</ele>
        <time>2011-02-20T08:10:30Z</time>
      </trkpt>
      <trkpt lat="43.58518" lon="3.77863">
        <ele>45.2</ele>
        <time>2011-02-20T08:10:31Z</time>
      </trkpt>
      <trkpt lat="43.58516" lon="3.7787">
        <ele>45.2</ele>
        <time>2011-02-20T08:10:32Z</time>
      </trkpt>
      <trkpt lat="43.58514" lon="3.77877">
        <ele>45.2</ele>
        <time>2011-02-20T08:10:33Z</time>
      </trkpt>
      <trkpt lat="43.58512" lon="3.77884">
        <ele>45.2</ele>
        <time>2011-02-20T08:10:34Z</time>
      </trkpt>
      <trkpt lat="43.5851" lon="3.77891">
        <ele>45.2</ele>
        <time>2011-02-20T08:10:35Z</time>
      </trkpt>
      <trkpt lat="43.58508" lon="3.77898">
        <ele>45.2</ele>
        <time>2011-02-20T08:10:36Z</time>
      </trkpt>
      <trkpt lat="43.58507" lon="3.77905">
        <ele>45.3</ele>
        <time>2011-02-20T08:10:37Z</time>
      </trkpt>
      <trkpt lat="43.58505" lon="3.77912">
        <ele>45.3</ele>
        <time>2011-02-20T08:10:38Z</time>
      </trkpt>
      <trkpt lat="43.58504" lon="3.77919">
        <ele>45.3</ele>
        <time>2011-02-20T08:10:39Z</time>
      </trkpt>
      <trkpt lat="43.58502" lon="3.77927">
        <ele>45.3</ele>
        <time>2011-02-20T08:10:40Z</time>
      </trkpt>
      <trkpt lat="43.58501" lon="3.77934">
        <ele>45.3</ele>
        <time>2011-02-20T08:10:41Z</time>
      </trkpt>
      <trkpt lat="43.58499" lon="3.77941">
        <ele>45.2</ele>
        <time>2011-02-20T08:10:42Z</time>
      </trkpt>
      <trkpt lat="43.58498" lon="3.77949">
        <ele>45.2</ele>
        <time>2011-02-20T08:10:43Z</time>
      </trkpt>
      <trkpt lat="43.58496" lon="3.77956">
        <ele>45.2</ele>
        <time>2011-02-20T08:10:44Z</time>
      </trkpt>
      <trkpt lat="43.58495" lon="3.77964">
        <ele>45.2</ele>
        <time>2011-02-20T08:10:45Z</time>
      </trkpt>
      <trkpt lat="43.58494" lon="3.77971">
        <ele>45.2</ele>
        <time>2011-02-20T08:10:46Z</time>
      </trkpt>
      <trkpt lat="43.58493" lon="3.77978">
        <ele>45.2</ele>
        <time>2011-02-20T08:10:47Z</time>
      </trkpt>
      <trkpt lat="43.58492" lon="3.77985">
        <ele>45.2</ele>
        <time>2011-02-20T08:10:48Z</time>
      </trkpt>
      <trkpt lat="43.58491" lon="3.77992">
        <ele>45.2</ele>
        <time>2011-02-20T08:10:49Z</time>
      </trkpt>
      <trkpt lat="43.58491" lon="3.77999">
        <ele>45.2</ele>
        <time>2011-02-20T08:10:50Z</time>
      </trkpt>
      <trkpt lat="43.5849" lon="3.78006">
        <ele>45.2</ele>
        <time>2011-02-20T08:10:51Z</time>
      </trkpt>
      <trkpt lat="43.58489" lon="3.78013">
        <ele>45.2</ele>
        <time>2011-02-20T08:10:52Z</time>
      </trkpt>
      <trkpt lat="43.58489" lon="3.78019">
        <ele>45.2</ele>
        <time>2011-02-20T08:10:53Z</time>
      </trkpt>
      <trkpt lat="43.58488" lon="3.78026">
        <ele>45.2</ele>
        <time>2011-02-20T08:10:54Z</time>
      </trkpt>
      <trkpt lat="43.58488" lon="3.78032">
        <ele>45.2</ele>
        <time>2011-02-20T08:10:55Z</time>
      </trkpt>
      <trkpt lat="43.58488" lon="3.78039">
        <ele>45.2</ele>
        <time>2011-02-20T08:10:56Z</time>
      </trkpt>
      <trkpt lat="43.58488" lon="3.78046">
        <ele>45.3</ele>
        <time>2011-02-20T08:10:57Z</time>
      </trkpt>
      <trkpt lat="43.58488" lon="3.78052">
        <ele>45.3</ele>
        <time>2011-02-20T08:10:58Z</time>
      </trkpt>
      <trkpt lat="43.58488" lon="3.78059">
        <ele>45.3</ele>
        <time>2011-02-20T08:10:59Z</time>
      </trkpt>
      <trkpt lat="43.58488" lon="3.78066">
        <ele>45.3</ele>
        <time>2011-02-20T08:11:00Z</time>
      </trkpt>
      <trkpt lat="43.58488" lon="3.78072">
        <ele>45.4</ele>
        <time>2011-02-20T08:11:01Z</time>
      </trkpt>
      <trkpt lat="43.58488" lon="3.78079">
        <ele>45.4</ele>
        <time>2011-02-20T08:11:02Z</time>
      </trkpt>
      <trkpt lat="43.58488" lon="3.78086">
        <ele>45.4</ele>
        <time>2011-02-20T08:11:03Z</time>
      </trkpt>
      <trkpt lat="43.58488" lon="3.78093">
        <ele>45.5</ele>
        <time>2011-02-20T08:11:04Z</time>
      </trkpt>
      <trkpt lat="43.58488" lon="3.78099">
        <ele>45.5</ele>
        <time>2011-02-20T08:11:05Z</time>
      </trkpt>
      <trkpt lat="43.58488" lon="3.78106">
        <ele>45.6</ele>
        <time>2011-02-20T08:11:06Z</time>
      </trkpt>
      <trkpt lat="43.58488" lon="3.78113">
        <ele>45.6</ele>
        <time>2011-02-20T08:11:07Z</time>
      </trkpt>
      <trkpt lat="43.58488" lon="3.78119">
        <ele>45.7</ele>
        <time>2011-02-20T08:11:08Z</time>
      </trkpt>
      <trkpt lat="43.58488" lon="3.78126">
        <ele>45.8</ele>
        <time>2011-02-20T08:11:09Z</time>
      </trkpt>
      <trkpt lat="43.58489" lon="3.78133">
        <ele>45.8</ele>
        <time>2011-02-20T08:11:10Z</time>
      </trkpt>
      <trkpt lat="43.58489" lon="3.78139">
        <ele>45.9</ele>
        <time>2011-02-20T08:11:11Z</time>
      </trkpt>
      <trkpt lat="43.58489" lon="3.78146">
        <ele>45.9</ele>
        <time>2011-02-20T08:11:12Z</time>
      </trkpt>
      <trkpt lat="43.58489" lon="3.78152">
        <ele>46</ele>
        <time>2011-02-20T08:11:13Z</time>
      </trkpt>
      <trkpt lat="43.58489" lon="3.78159">
        <ele>46</ele>
        <time>2011-02-20T08:11:14Z</time>
      </trkpt>
      <trkpt lat="43.58489" lon="3.78165">
        <ele>46.1</ele>
        <time>2011-02-20T08:11:15Z</time>
      </trkpt>
      <trkpt lat="43.58489" lon="3.78171">
        <ele>46.2</ele>
        <time>2011-02-20T08:11:16Z</time>
      </trkpt>
      <trkpt lat="43.58489" lon="3.78177">
        <ele>46.3</ele>
        <time>2011-02-20T08:11:17Z</time>
      </trkpt>
      <trkpt lat="43.58489" lon="3.78184">
        <ele>46.4</ele>
        <time>2011-02-20T08:11:18Z</time>
      </trkpt>
      <trkpt lat="43.58489" lon="3.7819">
        <ele>46.4</ele>
        <time>2011-02-20T08:11:19Z</time>
      </trkpt>
      <trkpt lat="43.5849" lon="3.78196">
        <ele>46.5</ele>
        <time>2011-02-20T08:11:20Z</time>
      </trkpt>
      <trkpt lat="43.5849" lon="3.78203">
        <ele>46.6</ele>
        <time>2011-02-20T08:11:21Z</time>
      </trkpt>
      <trkpt lat="43.5849" lon="3.78209">
        <ele>46.7</ele>
        <time>2011-02-20T08:11:22Z</time>
      </trkpt>
      <trkpt lat="43.5849" lon="3.78215">
        <ele>46.7</ele>
        <time>2011-02-20T08:11:23Z</time>
      </trkpt>
      <trkpt lat="43.58492" lon="3.78227">
        <ele>46.9</ele>
        <time>2011-02-20T08:11:25Z</time>
      </trkpt>
      <trkpt lat="43.58497" lon="3.78236">
        <ele>47.2</ele>
        <time>2011-02-20T08:11:27Z</time>
      </trkpt>
      <trkpt lat="43.58502" lon="3.78244">
        <ele>47.5</ele>
        <time>2011-02-20T08:11:29Z</time>
      </trkpt>
      <trkpt lat="43.58508" lon="3.78251">
        <ele>47.9</ele>
        <time>2011-02-20T08:11:31Z</time>
      </trkpt>
      <trkpt lat="43.58512" lon="3.78259">
        <ele>48.2</ele>
        <time>2011-02-20T08:11:33Z</time>
      </trkpt>
      <trkpt lat="43.58515" lon="3.78267">
        <ele>48.6</ele>
        <time>2011-02-20T08:11:35Z</time>
      </trkpt>
      <trkpt lat="43.58522" lon="3.78273">
        <ele>49</ele>
        <time>2011-02-20T08:11:37Z</time>
      </trkpt>
      <trkpt lat="43.58529" lon="3.78273">
        <ele>49.4</ele>
        <time>2011-02-20T08:11:39Z</time>
      </trkpt>
      <trkpt lat="43.58535" lon="3.7827">
        <ele>49.8</ele>
        <time>2011-02-20T08:11:41Z</time>
      </trkpt>
      <trkpt lat="43.58538" lon="3.7827">
        <ele>50</ele>
        <time>2011-02-20T08:11:42Z</time>
      </trkpt>
      <trkpt lat="43.58547" lon="3.78268">
        <ele>50.7</ele>
        <time>2011-02-20T08:11:45Z</time>
      </trkpt>
      <trkpt lat="43.58555" lon="3.78265">
        <ele>51.9</ele>
        <time>2011-02-20T08:11:48Z</time>
      </trkpt>
      <trkpt lat="43.58561" lon="3.78261">
        <ele>53.1</ele>
        <time>2011-02-20T08:11:51Z</time>
      </trkpt>
      <trkpt lat="43.58569" lon="3.7826">
        <ele>54.1</ele>
        <time>2011-02-20T08:11:54Z</time>
      </trkpt>
      <trkpt lat="43.58575" lon="3.78256">
        <ele>55</ele>
        <time>2011-02-20T08:11:57Z</time>
      </trkpt>
      <trkpt lat="43.58583" lon="3.78257">
        <ele>55.7</ele>
        <time>2011-02-20T08:12:00Z</time>
      </trkpt>
      <trkpt lat="43.5859" lon="3.78258">
        <ele>56.4</ele>
        <time>2011-02-20T08:12:03Z</time>
      </trkpt>
      <trkpt lat="43.58597" lon="3.7826">
        <ele>56.9</ele>
        <time>2011-02-20T08:12:06Z</time>
      </trkpt>
      <trkpt lat="43.58603" lon="3.78264">
        <ele>57.4</ele>
        <time>2011-02-20T08:12:09Z</time>
      </trkpt>
      <trkpt lat="43.5861" lon="3.78268">
        <ele>58</ele>
        <time>2011-02-20T08:12:12Z</time>
      </trkpt>
      <trkpt lat="43.58616" lon="3.78272">
        <ele>58.5</ele>
        <time>2011-02-20T08:12:15Z</time>
      </trkpt>
      <trkpt lat="43.58622" lon="3.78279">
        <ele>58.8</ele>
        <time>2011-02-20T08:12:18Z</time>
      </trkpt>
      <trkpt lat="43.58628" lon="3.78287">
        <ele>59.1</ele>
        <time>2011-02-20T08:12:21Z</time>
      </trkpt>
      <trkpt lat="43.58636" lon="3.78291">
        <ele>59.5</ele>
        <time>2011-02-20T08:12:24Z</time>
      </trkpt>
      <trkpt lat="43.58644" lon="3.78291">
        <ele>60</ele>
        <time>2011-02-20T08:12:27Z</time>
      </trkpt>
      <trkpt lat="43.58649" lon="3.78284">
        <ele>60.5</ele>
        <time>2011-02-20T08:12:30Z</time>
      </trkpt>
      <trkpt lat="43.58653" lon="3.78274">
        <ele>60.9</ele>
        <time>2011-02-20T08:12:33Z</time>
      </trkpt>
      <trkpt lat="43.58658" lon="3.78266">
        <ele>60.8</ele>
        <time>2011-02-20T08:12:36Z</time>
      </trkpt>
      <trkpt lat="43.58663" lon="3.78259">
        <ele>60.1</ele>
        <time>2011-02-20T08:12:39Z</time>
      </trkpt>
      <trkpt lat="43.58669" lon="3.78252">
        <ele>61.2</ele>
        <time>2011-02-20T08:12:42Z</time>
      </trkpt>
      <trkpt lat="43.5867" lon="3.78249">
        <ele>61.7</ele>
        <time>2011-02-20T08:12:43Z</time>
      </trkpt>
      <trkpt lat="43.58675" lon="3.78235">
        <ele>63.4</ele>
        <time>2011-02-20T08:12:48Z</time>
      </trkpt>
      <trkpt lat="43.58682" lon="3.78231">
        <ele>64.3</ele>
        <time>2011-02-20T08:12:51Z</time>
      </trkpt>
      <trkpt lat="43.58689" lon="3.78231">
        <ele>65.3</ele>
        <time>2011-02-20T08:12:54Z</time>
      </trkpt>
      <trkpt lat="43.58697" lon="3.7823">
        <ele>66.1</ele>
        <time>2011-02-20T08:12:58Z</time>
      </trkpt>
      <trkpt lat="43.58706" lon="3.78227">
        <ele>66.2</ele>
        <time>2011-02-20T08:13:02Z</time>
      </trkpt>
      <trkpt lat="43.58715" lon="3.78225">
        <ele>65.7</ele>
        <time>2011-02-20T08:13:06Z</time>
      </trkpt>
      <trkpt lat="43.58722" lon="3.78226">
        <ele>66.9</ele>
        <time>2011-02-20T08:13:09Z</time>
      </trkpt>
      <trkpt lat="43.58728" lon="3.78222">
        <ele>67.6</ele>
        <time>2011-02-20T08:13:12Z</time>
      </trkpt>
      <trkpt lat="43.58735" lon="3.78217">
        <ele>67.4</ele>
        <time>2011-02-20T08:13:15Z</time>
      </trkpt>
      <trkpt lat="43.58743" lon="3.78216">
        <ele>67.8</ele>
        <time>2011-02-20T08:13:18Z</time>
      </trkpt>
      <trkpt lat="43.58749" lon="3.78214">
        <ele>67.6</ele>
        <time>2011-02-20T08:13:20Z</time>
      </trkpt>
      <trkpt lat="43.58756" lon="3.78214">
        <ele>67.2</ele>
        <time>2011-02-20T08:13:22Z</time>
      </trkpt>
      <trkpt lat="43.58762" lon="3.78212">
        <ele>66.6</ele>
        <time>2011-02-20T08:13:24Z</time>
      </trkpt>
      <trkpt lat="43.58769" lon="3.78213">
        <ele>66.9</ele>
        <time>2011-02-20T08:13:26Z</time>
      </trkpt>
      <trkpt lat="43.58775" lon="3.78217">
        <ele>67.5</ele>
        <time>2011-02-20T08:13:28Z</time>
      </trkpt>
      <trkpt lat="43.58781" lon="3.78219">
        <ele>67.4</ele>
        <time>2011-02-20T08:13:30Z</time>
      </trkpt>
      <trkpt lat="43.58787" lon="3.78218">
        <ele>67.1</ele>
        <time>2011-02-20T08:13:32Z</time>
      </trkpt>
      <trkpt lat="43.58795" lon="3.78212">
        <ele>67</ele>
        <time>2011-02-20T08:13:35Z</time>
      </trkpt>
      <trkpt lat="43.58802" lon="3.78208">
        <ele>68.1</ele>
        <time>2011-02-20T08:13:38Z</time>
      </trkpt>
      <trkpt lat="43.58811" lon="3.78205">
        <ele>67.3</ele>
        <time>2011-02-20T08:13:41Z</time>
      </trkpt>
      <trkpt lat="43.58816" lon="3.78202">
        <ele>68.1</ele>
        <time>2011-02-20T08:13:43Z</time>
      </trkpt>
      <trkpt lat="43.58819" lon="3.78201">
        <ele>68.3</ele>
        <time>2011-02-20T08:13:44Z</time>
      </trkpt>
      <trkpt lat="43.58829" lon="3.78199">
        <ele>68.2</ele>
        <time>2011-02-20T08:13:47Z</time>
      </trkpt>
      <trkpt lat="43.58837" lon="3.78198">
        <ele>68.4</ele>
        <time>2011-02-20T08:13:50Z</time>
      </trkpt>
      <trkpt lat="43.58846" lon="3.78197">
        <ele>69.1</ele>
        <time>2011-02-20T08:13:53Z</time>
      </trkpt>
      <trkpt lat="43.58854" lon="3.78199">
        <ele>69.4</ele>
        <time>2011-02-20T08:13:56Z</time>
      </trkpt>
      <trkpt lat="43.58861" lon="3.782">
        <ele>69.3</ele>
        <time>2011-02-20T08:13:58Z</time>
      </trkpt>
      <trkpt lat="43.58867" lon="3.78202">
        <ele>69.2</ele>
        <time>2011-02-20T08:14:00Z</time>
      </trkpt>
      <trkpt lat="43.58875" lon="3.78199">
        <ele>69.8</ele>
        <time>2011-02-20T08:14:03Z</time>
      </trkpt>
      <trkpt lat="43.58882" lon="3.78193">
        <ele>70.8</ele>
        <time>2011-02-20T08:14:06Z</time>
      </trkpt>
      <trkpt lat="43.58888" lon="3.78192">
        <ele>71.1</ele>
        <time>2011-02-20T08:14:08Z</time>
      </trkpt>
      <trkpt lat="43.58894" lon="3.78193">
        <ele>71.2</ele>
        <time>2011-02-20T08:14:10Z</time>
      </trkpt>
      <trkpt lat="43.589" lon="3.78197">
        <ele>71.2</ele>
        <time>2011-02-20T08:14:12Z</time>
      </trkpt>
      <trkpt lat="43.58909" lon="3.78198">
        <ele>71.6</ele>
        <time>2011-02-20T08:14:15Z</time>
      </trkpt>
      <trkpt lat="43.58917" lon="3.78194">
        <ele>72.5</ele>
        <time>2011-02-20T08:14:18Z</time>
      </trkpt>
      <trkpt lat="43.58926" lon="3.7819">
        <ele>73.4</ele>
        <time>2011-02-20T08:14:21Z</time>
      </trkpt>
      <trkpt lat="43.58932" lon="3.78189">
        <ele>74.1</ele>
        <time>2011-02-20T08:14:23Z</time>
      </trkpt>
      <trkpt lat="43.58941" lon="3.78187">
        <ele>74.6</ele>
        <time>2011-02-20T08:14:26Z</time>
      </trkpt>
      <trkpt lat="43.58949" lon="3.78184">
        <ele>74.6</ele>
        <time>2011-02-20T08:14:29Z</time>
      </trkpt>
      <trkpt lat="43.58958" lon="3.78185">
        <ele>75.2</ele>
        <time>2011-02-20T08:14:32Z</time>
      </trkpt>
      <trkpt lat="43.58964" lon="3.78193">
        <ele>76.1</ele>
        <time>2011-02-20T08:14:35Z</time>
      </trkpt>
      <trkpt lat="43.58971" lon="3.78199">
        <ele>76.8</ele>
        <time>2011-02-20T08:14:38Z</time>
      </trkpt>
      <trkpt lat="43.58978" lon="3.78205">
        <ele>76.7</ele>
        <time>2011-02-20T08:14:41Z</time>
      </trkpt>
      <trkpt lat="43.58985" lon="3.78213">
        <ele>76.9</ele>
        <time>2011-02-20T08:14:44Z</time>
      </trkpt>
      <trkpt lat="43.58988" lon="3.78215">
        <ele>77.1</ele>
        <time>2011-02-20T08:14:45Z</time>
      </trkpt>
      <trkpt lat="43.58992" lon="3.78227">
        <ele>76.6</ele>
        <time>2011-02-20T08:14:48Z</time>
      </trkpt>
      <trkpt lat="43.58995" lon="3.78235">
        <ele>76</ele>
        <time>2011-02-20T08:14:50Z</time>
      </trkpt>
      <trkpt lat="43.59002" lon="3.78241">
        <ele>75.3</ele>
        <time>2011-02-20T08:14:54Z</time>
      </trkpt>
      <trkpt lat="43.5901" lon="3.78235">
        <ele>75.2</ele>
        <time>2011-02-20T08:15:49Z</time>
      </trkpt>
      <trkpt lat="43.59013" lon="3.78234">
        <ele>75</ele>
        <time>2011-02-20T08:15:50Z</time>
      </trkpt>
      <trkpt lat="43.59022" lon="3.78231">
        <ele>74.8</ele>
        <time>2011-02-20T08:15:52Z</time>
      </trkpt>
      <trkpt lat="43.59027" lon="3.78232">
        <ele>74.1</ele>
        <time>2011-02-20T08:15:53Z</time>
      </trkpt>
      <trkpt lat="43.59031" lon="3.78234">
        <ele>73.6</ele>
        <time>2011-02-20T08:15:54Z</time>
      </trkpt>
      <trkpt lat="43.59036" lon="3.78236">
        <ele>73.2</ele>
        <time>2011-02-20T08:15:55Z</time>
      </trkpt>
      <trkpt lat="43.5904" lon="3.7824">
        <ele>72.9</ele>
        <time>2011-02-20T08:15:56Z</time>
      </trkpt>
      <trkpt lat="43.59045" lon="3.78249">
        <ele>72.7</ele>
        <time>2011-02-20T08:15:58Z</time>
      </trkpt>
      <trkpt lat="43.59047" lon="3.78254">
        <ele>72.7</ele>
        <time>2011-02-20T08:15:59Z</time>
      </trkpt>
      <trkpt lat="43.5905" lon="3.7826">
        <ele>72.7</ele>
        <time>2011-02-20T08:16:00Z</time>
      </trkpt>
      <trkpt lat="43.59053" lon="3.78265">
        <ele>72.7</ele>
        <time>2011-02-20T08:16:01Z</time>
      </trkpt>
      <trkpt lat="43.59056" lon="3.78269">
        <ele>72.7</ele>
        <time>2011-02-20T08:16:02Z</time>
      </trkpt>
      <trkpt lat="43.59062" lon="3.78278">
        <ele>72.8</ele>
        <time>2011-02-20T08:16:04Z</time>
      </trkpt>
      <trkpt lat="43.59065" lon="3.78283">
        <ele>72.9</ele>
        <time>2011-02-20T08:16:05Z</time>
      </trkpt>
      <trkpt lat="43.59068" lon="3.78288">
        <ele>72.7</ele>
        <time>2011-02-20T08:16:06Z</time>
      </trkpt>
      <trkpt lat="43.5907" lon="3.78293">
        <ele>72.5</ele>
        <time>2011-02-20T08:16:07Z</time>
      </trkpt>
      <trkpt lat="43.59073" lon="3.78298">
        <ele>72.4</ele>
        <time>2011-02-20T08:16:08Z</time>
      </trkpt>
      <trkpt lat="43.59077" lon="3.78308">
        <ele>72.6</ele>
        <time>2011-02-20T08:16:10Z</time>
      </trkpt>
      <trkpt lat="43.59081" lon="3.78319">
        <ele>72.5</ele>
        <time>2011-02-20T08:16:12Z</time>
      </trkpt>
      <trkpt lat="43.59086" lon="3.7833">
        <ele>72.2</ele>
        <time>2011-02-20T08:16:14Z</time>
      </trkpt>
      <trkpt lat="43.59088" lon="3.78336">
        <ele>72</ele>
        <time>2011-02-20T08:16:15Z</time>
      </trkpt>
      <trkpt lat="43.5909" lon="3.78342">
        <ele>71.9</ele>
        <time>2011-02-20T08:16:16Z</time>
      </trkpt>
      <trkpt lat="43.59092" lon="3.78348">
        <ele>71.8</ele>
        <time>2011-02-20T08:16:17Z</time>
      </trkpt>
      <trkpt lat="43.59093" lon="3.78355">
        <ele>71.7</ele>
        <time>2011-02-20T08:16:18Z</time>
      </trkpt>
      <trkpt lat="43.59093" lon="3.78361">
        <ele>71.6</ele>
        <time>2011-02-20T08:16:19Z</time>
      </trkpt>
      <trkpt lat="43.59093" lon="3.78373">
        <ele>71.6</ele>
        <time>2011-02-20T08:16:21Z</time>
      </trkpt>
      <trkpt lat="43.59096" lon="3.78383">
        <ele>71.3</ele>
        <time>2011-02-20T08:16:23Z</time>
      </trkpt>
      <trkpt lat="43.59098" lon="3.78388">
        <ele>71.3</ele>
        <time>2011-02-20T08:16:24Z</time>
      </trkpt>
      <trkpt lat="43.59098" lon="3.78395">
        <ele>70.7</ele>
        <time>2011-02-20T08:16:25Z</time>
      </trkpt>
      <trkpt lat="43.59099" lon="3.78401">
        <ele>70.2</ele>
        <time>2011-02-20T08:16:26Z</time>
      </trkpt>
      <trkpt lat="43.59099" lon="3.78408">
        <ele>69.9</ele>
        <time>2011-02-20T08:16:27Z</time>
      </trkpt>
      <trkpt lat="43.591" lon="3.78416">
        <ele>68.7</ele>
        <time>2011-02-20T08:16:28Z</time>
      </trkpt>
      <trkpt lat="43.59101" lon="3.78425">
        <ele>67.7</ele>
        <time>2011-02-20T08:16:29Z</time>
      </trkpt>
      <trkpt lat="43.591" lon="3.78434">
        <ele>67</ele>
        <time>2011-02-20T08:16:30Z</time>
      </trkpt>
      <trkpt lat="43.591" lon="3.78441">
        <ele>65.9</ele>
        <time>2011-02-20T08:16:31Z</time>
      </trkpt>
      <trkpt lat="43.591" lon="3.78449">
        <ele>65.1</ele>
        <time>2011-02-20T08:16:32Z</time>
      </trkpt>
      <trkpt lat="43.59101" lon="3.78458">
        <ele>64.4</ele>
        <time>2011-02-20T08:16:33Z</time>
      </trkpt>
      <trkpt lat="43.59102" lon="3.78466">
        <ele>64</ele>
        <time>2011-02-20T08:16:34Z</time>
      </trkpt>
      <trkpt lat="43.59103" lon="3.78474">
        <ele>63.7</ele>
        <time>2011-02-20T08:16:35Z</time>
      </trkpt>
      <trkpt lat="43.59104" lon="3.78483">
        <ele>63.5</ele>
        <time>2011-02-20T08:16:36Z</time>
      </trkpt>
      <trkpt lat="43.59104" lon="3.78491">
        <ele>63.3</ele>
        <time>2011-02-20T08:16:37Z</time>
      </trkpt>
      <trkpt lat="43.59103" lon="3.785">
        <ele>63</ele>
        <time>2011-02-20T08:16:38Z</time>
      </trkpt>
      <trkpt lat="43.59103" lon="3.78509">
        <ele>62.7</ele>
        <time>2011-02-20T08:16:39Z</time>
      </trkpt>
      <trkpt lat="43.59103" lon="3.78517">
        <ele>62.5</ele>
        <time>2011-02-20T08:16:40Z</time>
      </trkpt>
      <trkpt lat="43.59103" lon="3.78525">
        <ele>62.2</ele>
        <time>2011-02-20T08:16:41Z</time>
      </trkpt>
      <trkpt lat="43.59103" lon="3.78534">
        <ele>62</ele>
        <time>2011-02-20T08:16:42Z</time>
      </trkpt>
      <trkpt lat="43.59103" lon="3.78543">
        <ele>61.8</ele>
        <time>2011-02-20T08:16:43Z</time>
      </trkpt>
      <trkpt lat="43.59103" lon="3.78552">
        <ele>61.3</ele>
        <time>2011-02-20T08:16:44Z</time>
      </trkpt>
      <trkpt lat="43.59102" lon="3.7856">
        <ele>61</ele>
        <time>2011-02-20T08:16:45Z</time>
      </trkpt>
      <trkpt lat="43.59102" lon="3.78569">
        <ele>60.7</ele>
        <time>2011-02-20T08:16:46Z</time>
      </trkpt>
      <trkpt lat="43.59101" lon="3.78577">
        <ele>60.3</ele>
        <time>2011-02-20T08:16:47Z</time>
      </trkpt>
      <trkpt lat="43.59101" lon="3.78586">
        <ele>60.1</ele>
        <time>2011-02-20T08:16:48Z</time>
      </trkpt>
      <trkpt lat="43.591" lon="3.78596">
        <ele>59.9</ele>
        <time>2011-02-20T08:16:49Z</time>
      </trkpt>
      <trkpt lat="43.59098" lon="3.78605">
        <ele>59.8</ele>
        <time>2011-02-20T08:16:50Z</time>
      </trkpt>
      <trkpt lat="43.59095" lon="3.78614">
        <ele>59.5</ele>
        <time>2011-02-20T08:16:51Z</time>
      </trkpt>
      <trkpt lat="43.59092" lon="3.78623">
        <ele>59.2</ele>
        <time>2011-02-20T08:16:52Z</time>
      </trkpt>
      <trkpt lat="43.5909" lon="3.78632">
        <ele>59.1</ele>
        <time>2011-02-20T08:16:53Z</time>
      </trkpt>
      <trkpt lat="43.59086" lon="3.78641">
        <ele>58.3</ele>
        <time>2011-02-20T08:16:54Z</time>
      </trkpt>
      <trkpt lat="43.59083" lon="3.7865">
        <ele>57.8</ele>
        <time>2011-02-20T08:16:55Z</time>
      </trkpt>
      <trkpt lat="43.59081" lon="3.78658">
        <ele>57.3</ele>
        <time>2011-02-20T08:16:56Z</time>
      </trkpt>
      <trkpt lat="43.59078" lon="3.78667">
        <ele>57.2</ele>
        <time>2011-02-20T08:16:57Z</time>
      </trkpt>
      <trkpt lat="43.59075" lon="3.78675">
        <ele>57.1</ele>
        <time>2011-02-20T08:16:58Z</time>
      </trkpt>
      <trkpt lat="43.59072" lon="3.78683">
        <ele>57</ele>
        <time>2011-02-20T08:16:59Z</time>
      </trkpt>
      <trkpt lat="43.59069" lon="3.78691">
        <ele>56.8</ele>
        <time>2011-02-20T08:17:00Z</time>
      </trkpt>
      <trkpt lat="43.59066" lon="3.787">
        <ele>56.8</ele>
        <time>2011-02-20T08:17:01Z</time>
      </trkpt>
      <trkpt lat="43.59065" lon="3.78708">
        <ele>56.7</ele>
        <time>2011-02-20T08:17:02Z</time>
      </trkpt>
      <trkpt lat="43.59065" lon="3.78718">
        <ele>56.2</ele>
        <time>2011-02-20T08:17:03Z</time>
      </trkpt>
      <trkpt lat="43.59067" lon="3.78726">
        <ele>55.9</ele>
        <time>2011-02-20T08:17:04Z</time>
      </trkpt>
      <trkpt lat="43.5907" lon="3.78735">
        <ele>55.6</ele>
        <time>2011-02-20T08:17:05Z</time>
      </trkpt>
      <trkpt lat="43.59073" lon="3.78743">
        <ele>55.4</ele>
        <time>2011-02-20T08:17:06Z</time>
      </trkpt>
      <trkpt lat="43.59077" lon="3.78751">
        <ele>55.5</ele>
        <time>2011-02-20T08:17:07Z</time>
      </trkpt>
      <trkpt lat="43.5908" lon="3.7876">
        <ele>55.5</ele>
        <time>2011-02-20T08:17:08Z</time>
      </trkpt>
      <trkpt lat="43.59082" lon="3.78769">
        <ele>55.5</ele>
        <time>2011-02-20T08:17:09Z</time>
      </trkpt>
      <trkpt lat="43.59085" lon="3.78778">
        <ele>55.1</ele>
        <time>2011-02-20T08:17:10Z</time>
      </trkpt>
      <trkpt lat="43.59086" lon="3.78787">
        <ele>54.8</ele>
        <time>2011-02-20T08:17:11Z</time>
      </trkpt>
      <trkpt lat="43.59088" lon="3.78796">
        <ele>54.6</ele>
        <time>2011-02-20T08:17:12Z</time>
      </trkpt>
      <trkpt lat="43.59091" lon="3.78804">
        <ele>54.3</ele>
        <time>2011-02-20T08:17:13Z</time>
      </trkpt>
      <trkpt lat="43.59094" lon="3.78813">
        <ele>54</ele>
        <time>2011-02-20T08:17:14Z</time>
      </trkpt>
      <trkpt lat="43.59097" lon="3.78822">
        <ele>53.8</ele>
        <time>2011-02-20T08:17:15Z</time>
      </trkpt>
      <trkpt lat="43.59101" lon="3.78831">
        <ele>52.7</ele>
        <time>2011-02-20T08:17:16Z</time>
      </trkpt>
      <trkpt lat="43.59103" lon="3.7884">
        <ele>51.8</ele>
        <time>2011-02-20T08:17:17Z</time>
      </trkpt>
      <trkpt lat="43.59105" lon="3.7885">
        <ele>51.2</ele>
        <time>2011-02-20T08:17:18Z</time>
      </trkpt>
      <trkpt lat="43.59107" lon="3.78857">
        <ele>51</ele>
        <time>2011-02-20T08:17:19Z</time>
      </trkpt>
      <trkpt lat="43.59112" lon="3.78863">
        <ele>50.7</ele>
        <time>2011-02-20T08:17:21Z</time>
      </trkpt>
      <trkpt lat="43.59119" lon="3.78869">
        <ele>50.4</ele>
        <time>2011-02-20T08:17:24Z</time>
      </trkpt>
      <trkpt lat="43.59125" lon="3.78878">
        <ele>49.8</ele>
        <time>2011-02-20T08:17:27Z</time>
      </trkpt>
      <trkpt lat="43.5913" lon="3.78871">
        <ele>48.4</ele>
        <time>2011-02-20T08:17:31Z</time>
      </trkpt>
      <trkpt lat="43.59134" lon="3.7886">
        <ele>49.2</ele>
        <time>2011-02-20T08:17:36Z</time>
      </trkpt>
      <trkpt lat="43.59137" lon="3.78851">
        <ele>49.8</ele>
        <time>2011-02-20T08:17:40Z</time>
      </trkpt>
      <trkpt lat="43.59141" lon="3.78843">
        <ele>50</ele>
        <time>2011-02-20T08:17:43Z</time>
      </trkpt>
      <trkpt lat="43.59144" lon="3.78834">
        <ele>49.1</ele>
        <time>2011-02-20T08:17:46Z</time>
      </trkpt>
      <trkpt lat="43.59147" lon="3.78823">
        <ele>49</ele>
        <time>2011-02-20T08:17:49Z</time>
      </trkpt>
      <trkpt lat="43.5915" lon="3.78816">
        <ele>49.1</ele>
        <time>2011-02-20T08:17:51Z</time>
      </trkpt>
      <trkpt lat="43.59151" lon="3.78812">
        <ele>49.2</ele>
        <time>2011-02-20T08:17:52Z</time>
      </trkpt>
      <trkpt lat="43.59155" lon="3.78799">
        <ele>49.5</ele>
        <time>2011-02-20T08:17:55Z</time>
      </trkpt>
      <trkpt lat="43.59157" lon="3.7879">
        <ele>49.7</ele>
        <time>2011-02-20T08:17:57Z</time>
      </trkpt>
      <trkpt lat="43.5916" lon="3.78781">
        <ele>49.4</ele>
        <time>2011-02-20T08:17:59Z</time>
      </trkpt>
      <trkpt lat="43.59162" lon="3.78772">
        <ele>49.7</ele>
        <time>2011-02-20T08:18:01Z</time>
      </trkpt>
      <trkpt lat="43.59163" lon="3.78763">
        <ele>50.2</ele>
        <time>2011-02-20T08:18:03Z</time>
      </trkpt>
      <trkpt lat="43.59164" lon="3.78753">
        <ele>50.3</ele>
        <time>2011-02-20T08:18:05Z</time>
      </trkpt>
      <trkpt lat="43.59165" lon="3.78744">
        <ele>50.3</ele>
        <time>2011-02-20T08:18:07Z</time>
      </trkpt>
      <trkpt lat="43.59167" lon="3.78735">
        <ele>50.3</ele>
        <time>2011-02-20T08:18:09Z</time>
      </trkpt>
      <trkpt lat="43.59168" lon="3.78726">
        <ele>50.4</ele>
        <time>2011-02-20T08:18:11Z</time>
      </trkpt>
      <trkpt lat="43.5917" lon="3.78717">
        <ele>50.5</ele>
        <time>2011-02-20T08:18:13Z</time>
      </trkpt>
      <trkpt lat="43.59172" lon="3.78708">
        <ele>49.9</ele>
        <time>2011-02-20T08:18:15Z</time>
      </trkpt>
      <trkpt lat="43.59175" lon="3.78699">
        <ele>49.9</ele>
        <time>2011-02-20T08:18:17Z</time>
      </trkpt>
      <trkpt lat="43.59177" lon="3.7869">
        <ele>50.1</ele>
        <time>2011-02-20T08:18:19Z</time>
      </trkpt>
      <trkpt lat="43.59179" lon="3.78681">
        <ele>50.9</ele>
        <time>2011-02-20T08:18:21Z</time>
      </trkpt>
      <trkpt lat="43.59182" lon="3.78672">
        <ele>51.3</ele>
        <time>2011-02-20T08:18:23Z</time>
      </trkpt>
      <trkpt lat="43.59185" lon="3.78663">
        <ele>51.5</ele>
        <time>2011-02-20T08:18:25Z</time>
      </trkpt>
      <trkpt lat="43.59188" lon="3.78654">
        <ele>51.4</ele>
        <time>2011-02-20T08:18:27Z</time>
      </trkpt>
      <trkpt lat="43.59192" lon="3.78645">
        <ele>51.4</ele>
        <time>2011-02-20T08:18:29Z</time>
      </trkpt>
      <trkpt lat="43.59195" lon="3.78635">
        <ele>51.4</ele>
        <time>2011-02-20T08:18:31Z</time>
      </trkpt>
      <trkpt lat="43.59198" lon="3.78625">
        <ele>51.2</ele>
        <time>2011-02-20T08:18:33Z</time>
      </trkpt>
      <trkpt lat="43.59201" lon="3.78616">
        <ele>50.9</ele>
        <time>2011-02-20T08:18:35Z</time>
      </trkpt>
      <trkpt lat="43.59204" lon="3.78607">
        <ele>50.9</ele>
        <time>2011-02-20T08:18:37Z</time>
      </trkpt>
      <trkpt lat="43.59207" lon="3.78597">
        <ele>50.9</ele>
        <time>2011-02-20T08:18:39Z</time>
      </trkpt>
      <trkpt lat="43.5921" lon="3.78588">
        <ele>50.9</ele>
        <time>2011-02-20T08:18:41Z</time>
      </trkpt>
      <trkpt lat="43.59212" lon="3.78579">
        <ele>50.9</ele>
        <time>2011-02-20T08:18:43Z</time>
      </trkpt>
      <trkpt lat="43.59215" lon="3.7857">
        <ele>50.9</ele>
        <time>2011-02-20T08:18:45Z</time>
      </trkpt>
      <trkpt lat="43.59218" lon="3.78561">
        <ele>50.8</ele>
        <time>2011-02-20T08:18:47Z</time>
      </trkpt>
      <trkpt lat="43.59221" lon="3.78551">
        <ele>51.2</ele>
        <time>2011-02-20T08:18:49Z</time>
      </trkpt>
      <trkpt lat="43.59223" lon="3.78542">
        <ele>51.8</ele>
        <time>2011-02-20T08:18:51Z</time>
      </trkpt>
      <trkpt lat="43.59224" lon="3.78532">
        <ele>51.8</ele>
        <time>2011-02-20T08:18:53Z</time>
      </trkpt>
      <trkpt lat="43.59224" lon="3.78526">
        <ele>51.9</ele>
        <time>2011-02-20T08:18:54Z</time>
      </trkpt>
      <trkpt lat="43.59225" lon="3.78511">
        <ele>52.7</ele>
        <time>2011-02-20T08:18:57Z</time>
      </trkpt>
      <trkpt lat="43.59226" lon="3.78501">
        <ele>52.1</ele>
        <time>2011-02-20T08:18:59Z</time>
      </trkpt>
      <trkpt lat="43.59226" lon="3.78491">
        <ele>52.2</ele>
        <time>2011-02-20T08:19:01Z</time>
      </trkpt>
      <trkpt lat="43.59227" lon="3.78481">
        <ele>52.6</ele>
        <time>2011-02-20T08:19:03Z</time>
      </trkpt>
      <trkpt lat="43.59227" lon="3.78471">
        <ele>52.5</ele>
        <time>2011-02-20T08:19:05Z</time>
      </trkpt>
      <trkpt lat="43.59228" lon="3.78461">
        <ele>52.1</ele>
        <time>2011-02-20T08:19:07Z</time>
      </trkpt>
      <trkpt lat="43.59229" lon="3.78451">
        <ele>52.2</ele>
        <time>2011-02-20T08:19:09Z</time>
      </trkpt>
      <trkpt lat="43.5923" lon="3.78442">
        <ele>52.3</ele>
        <time>2011-02-20T08:19:11Z</time>
      </trkpt>
      <trkpt lat="43.59231" lon="3.78432">
        <ele>52.5</ele>
        <time>2011-02-20T08:19:13Z</time>
      </trkpt>
      <trkpt lat="43.59233" lon="3.78423">
        <ele>52.6</ele>
        <time>2011-02-20T08:19:15Z</time>
      </trkpt>
      <trkpt lat="43.59235" lon="3.78413">
        <ele>52.8</ele>
        <time>2011-02-20T08:19:17Z</time>
      </trkpt>
      <trkpt lat="43.59236" lon="3.78404">
        <ele>53.2</ele>
        <time>2011-02-20T08:19:19Z</time>
      </trkpt>
      <trkpt lat="43.59238" lon="3.78394">
        <ele>52.9</ele>
        <time>2011-02-20T08:19:21Z</time>
      </trkpt>
      <trkpt lat="43.59239" lon="3.78384">
        <ele>52.4</ele>
        <time>2011-02-20T08:19:23Z</time>
      </trkpt>
      <trkpt lat="43.59241" lon="3.78375">
        <ele>53.1</ele>
        <time>2011-02-20T08:19:25Z</time>
      </trkpt>
      <trkpt lat="43.59242" lon="3.78365">
        <ele>53.4</ele>
        <time>2011-02-20T08:19:27Z</time>
      </trkpt>
      <trkpt lat="43.59244" lon="3.78355">
        <ele>53.5</ele>
        <time>2011-02-20T08:19:29Z</time>
      </trkpt>
      <trkpt lat="43.59245" lon="3.78345">
        <ele>53.6</ele>
        <time>2011-02-20T08:19:31Z</time>
      </trkpt>
      <trkpt lat="43.59246" lon="3.78335">
        <ele>53.4</ele>
        <time>2011-02-20T08:19:33Z</time>
      </trkpt>
      <trkpt lat="43.59247" lon="3.78325">
        <ele>52.9</ele>
        <time>2011-02-20T08:19:35Z</time>
      </trkpt>
      <trkpt lat="43.59248" lon="3.78315">
        <ele>52.9</ele>
        <time>2011-02-20T08:19:37Z</time>
      </trkpt>
      <trkpt lat="43.59249" lon="3.78305">
        <ele>53.1</ele>
        <time>2011-02-20T08:19:39Z</time>
      </trkpt>
      <trkpt lat="43.5925" lon="3.78296">
        <ele>54</ele>
        <time>2011-02-20T08:19:41Z</time>
      </trkpt>
      <trkpt lat="43.5925" lon="3.78285">
        <ele>54.3</ele>
        <time>2011-02-20T08:19:43Z</time>
      </trkpt>
      <trkpt lat="43.59251" lon="3.78275">
        <ele>54.3</ele>
        <time>2011-02-20T08:19:45Z</time>
      </trkpt>
      <trkpt lat="43.59253" lon="3.78265">
        <ele>54.4</ele>
        <time>2011-02-20T08:19:47Z</time>
      </trkpt>
      <trkpt lat="43.59254" lon="3.78256">
        <ele>54</ele>
        <time>2011-02-20T08:19:49Z</time>
      </trkpt>
      <trkpt lat="43.59255" lon="3.78246">
        <ele>53.5</ele>
        <time>2011-02-20T08:19:51Z</time>
      </trkpt>
      <trkpt lat="43.59257" lon="3.78236">
        <ele>53.6</ele>
        <time>2011-02-20T08:19:53Z</time>
      </trkpt>
      <trkpt lat="43.59259" lon="3.78225">
        <ele>54</ele>
        <time>2011-02-20T08:19:55Z</time>
      </trkpt>
      <trkpt lat="43.5926" lon="3.7822">
        <ele>54.2</ele>
        <time>2011-02-20T08:19:56Z</time>
      </trkpt>
      <trkpt lat="43.59264" lon="3.78206">
        <ele>54.5</ele>
        <time>2011-02-20T08:19:59Z</time>
      </trkpt>
      <trkpt lat="43.59267" lon="3.78196">
        <ele>54.6</ele>
        <time>2011-02-20T08:20:01Z</time>
      </trkpt>
      <trkpt lat="43.5927" lon="3.78186">
        <ele>54.5</ele>
        <time>2011-02-20T08:20:03Z</time>
      </trkpt>
      <trkpt lat="43.59273" lon="3.78177">
        <ele>54.7</ele>
        <time>2011-02-20T08:20:05Z</time>
      </trkpt>
      <trkpt lat="43.59276" lon="3.78167">
        <ele>55</ele>
        <time>2011-02-20T08:20:07Z</time>
      </trkpt>
      <trkpt lat="43.59282" lon="3.7816">
        <ele>54.6</ele>
        <time>2011-02-20T08:20:09Z</time>
      </trkpt>
      <trkpt lat="43.59289" lon="3.78161">
        <ele>54.4</ele>
        <time>2011-02-20T08:20:11Z</time>
      </trkpt>
      <trkpt lat="43.59296" lon="3.78165">
        <ele>55</ele>
        <time>2011-02-20T08:20:13Z</time>
      </trkpt>
      <trkpt lat="43.59303" lon="3.7817">
        <ele>55.3</ele>
        <time>2011-02-20T08:20:15Z</time>
      </trkpt>
      <trkpt lat="43.59309" lon="3.78174">
        <ele>55.5</ele>
        <time>2011-02-20T08:20:17Z</time>
      </trkpt>
      <trkpt lat="43.59316" lon="3.78173">
        <ele>55.8</ele>
        <time>2011-02-20T08:20:19Z</time>
      </trkpt>
      <trkpt lat="43.5932" lon="3.78166">
        <ele>56.2</ele>
        <time>2011-02-20T08:20:21Z</time>
      </trkpt>
      <trkpt lat="43.59322" lon="3.78157">
        <ele>56.6</ele>
        <time>2011-02-20T08:20:23Z</time>
      </trkpt>
      <trkpt lat="43.59325" lon="3.78148">
        <ele>56.1</ele>
        <time>2011-02-20T08:20:25Z</time>
      </trkpt>
      <trkpt lat="43.59328" lon="3.78138">
        <ele>55.8</ele>
        <time>2011-02-20T08:20:27Z</time>
      </trkpt>
      <trkpt lat="43.59331" lon="3.78129">
        <ele>56.2</ele>
        <time>2011-02-20T08:20:29Z</time>
      </trkpt>
      <trkpt lat="43.59333" lon="3.78119">
        <ele>56.4</ele>
        <time>2011-02-20T08:20:31Z</time>
      </trkpt>
      <trkpt lat="43.59335" lon="3.7811">
        <ele>56.5</ele>
        <time>2011-02-20T08:20:33Z</time>
      </trkpt>
      <trkpt lat="43.59337" lon="3.78099">
        <ele>56.7</ele>
        <time>2011-02-20T08:20:35Z</time>
      </trkpt>
      <trkpt lat="43.59337" lon="3.78089">
        <ele>56.8</ele>
        <time>2011-02-20T08:20:37Z</time>
      </trkpt>
      <trkpt lat="43.59336" lon="3.78078">
        <ele>56.8</ele>
        <time>2011-02-20T08:20:39Z</time>
      </trkpt>
      <trkpt lat="43.59336" lon="3.78068">
        <ele>56.6</ele>
        <time>2011-02-20T08:20:41Z</time>
      </trkpt>
      <trkpt lat="43.59335" lon="3.78058">
        <ele>56.4</ele>
        <time>2011-02-20T08:20:43Z</time>
      </trkpt>
      <trkpt lat="43.59334" lon="3.78047">
        <ele>56.3</ele>
        <time>2011-02-20T08:20:45Z</time>
      </trkpt>
      <trkpt lat="43.59334" lon="3.78037">
        <ele>56.3</ele>
        <time>2011-02-20T08:20:47Z</time>
      </trkpt>
      <trkpt lat="43.59333" lon="3.78026">
        <ele>56.3</ele>
        <time>2011-02-20T08:20:49Z</time>
      </trkpt>
      <trkpt lat="43.59333" lon="3.78015">
        <ele>57.2</ele>
        <time>2011-02-20T08:20:51Z</time>
      </trkpt>
      <trkpt lat="43.59333" lon="3.78005">
        <ele>57.5</ele>
        <time>2011-02-20T08:20:53Z</time>
      </trkpt>
      <trkpt lat="43.59332" lon="3.77994">
        <ele>57.5</ele>
        <time>2011-02-20T08:20:55Z</time>
      </trkpt>
      <trkpt lat="43.59332" lon="3.77984">
        <ele>57.3</ele>
        <time>2011-02-20T08:20:57Z</time>
      </trkpt>
      <trkpt lat="43.59332" lon="3.77978">
        <ele>57.2</ele>
        <time>2011-02-20T08:20:58Z</time>
      </trkpt>
      <trkpt lat="43.59333" lon="3.77963">
        <ele>57.8</ele>
        <time>2011-02-20T08:21:01Z</time>
      </trkpt>
      <trkpt lat="43.59334" lon="3.77952">
        <ele>58.1</ele>
        <time>2011-02-20T08:21:03Z</time>
      </trkpt>
      <trkpt lat="43.59335" lon="3.77942">
        <ele>58.2</ele>
        <time>2011-02-20T08:21:05Z</time>
      </trkpt>
      <trkpt lat="43.59336" lon="3.77932">
        <ele>58.4</ele>
        <time>2011-02-20T08:21:07Z</time>
      </trkpt>
      <trkpt lat="43.59337" lon="3.77922">
        <ele>58.7</ele>
        <time>2011-02-20T08:21:09Z</time>
      </trkpt>
      <trkpt lat="43.59338" lon="3.77911">
        <ele>59.2</ele>
        <time>2011-02-20T08:21:11Z</time>
      </trkpt>
      <trkpt lat="43.5934" lon="3.77901">
        <ele>59.8</ele>
        <time>2011-02-20T08:21:13Z</time>
      </trkpt>
      <trkpt lat="43.59341" lon="3.7789">
        <ele>59.9</ele>
        <time>2011-02-20T08:21:15Z</time>
      </trkpt>
      <trkpt lat="43.59342" lon="3.77879">
        <ele>59.8</ele>
        <time>2011-02-20T08:21:17Z</time>
      </trkpt>
      <trkpt lat="43.59343" lon="3.77868">
        <ele>59.7</ele>
        <time>2011-02-20T08:21:19Z</time>
      </trkpt>
      <trkpt lat="43.59345" lon="3.77857">
        <ele>59.6</ele>
        <time>2011-02-20T08:21:21Z</time>
      </trkpt>
      <trkpt lat="43.59346" lon="3.77846">
        <ele>59.4</ele>
        <time>2011-02-20T08:21:23Z</time>
      </trkpt>
      <trkpt lat="43.59348" lon="3.77836">
        <ele>59.3</ele>
        <time>2011-02-20T08:21:25Z</time>
      </trkpt>
      <trkpt lat="43.5935" lon="3.77825">
        <ele>59.2</ele>
        <time>2011-02-20T08:21:27Z</time>
      </trkpt>
      <trkpt lat="43.59353" lon="3.77815">
        <ele>59.4</ele>
        <time>2011-02-20T08:21:29Z</time>
      </trkpt>
      <trkpt lat="43.59357" lon="3.77806">
        <ele>60</ele>
        <time>2011-02-20T08:21:31Z</time>
      </trkpt>
      <trkpt lat="43.59361" lon="3.77797">
        <ele>60.7</ele>
        <time>2011-02-20T08:21:33Z</time>
      </trkpt>
      <trkpt lat="43.59366" lon="3.77789">
        <ele>60.5</ele>
        <time>2011-02-20T08:21:35Z</time>
      </trkpt>
      <trkpt lat="43.59371" lon="3.7778">
        <ele>60</ele>
        <time>2011-02-20T08:21:37Z</time>
      </trkpt>
      <trkpt lat="43.59376" lon="3.77773">
        <ele>60.4</ele>
        <time>2011-02-20T08:21:39Z</time>
      </trkpt>
      <trkpt lat="43.59381" lon="3.77765">
        <ele>60.8</ele>
        <time>2011-02-20T08:21:41Z</time>
      </trkpt>
      <trkpt lat="43.59387" lon="3.77758">
        <ele>61.1</ele>
        <time>2011-02-20T08:21:43Z</time>
      </trkpt>
      <trkpt lat="43.59392" lon="3.77751">
        <ele>60.9</ele>
        <time>2011-02-20T08:21:45Z</time>
      </trkpt>
      <trkpt lat="43.59397" lon="3.77743">
        <ele>60.5</ele>
        <time>2011-02-20T08:21:47Z</time>
      </trkpt>
      <trkpt lat="43.59403" lon="3.77736">
        <ele>60.2</ele>
        <time>2011-02-20T08:21:49Z</time>
      </trkpt>
      <trkpt lat="43.59408" lon="3.77729">
        <ele>60</ele>
        <time>2011-02-20T08:21:51Z</time>
      </trkpt>
      <trkpt lat="43.59414" lon="3.77721">
        <ele>59.9</ele>
        <time>2011-02-20T08:21:53Z</time>
      </trkpt>
      <trkpt lat="43.59419" lon="3.77714">
        <ele>60.6</ele>
        <time>2011-02-20T08:21:55Z</time>
      </trkpt>
      <trkpt lat="43.59425" lon="3.77707">
        <ele>60.7</ele>
        <time>2011-02-20T08:21:57Z</time>
      </trkpt>
      <trkpt lat="43.59429" lon="3.77699">
        <ele>60.7</ele>
        <time>2011-02-20T08:21:59Z</time>
      </trkpt>
      <trkpt lat="43.59428" lon="3.77693">
        <ele>60.9</ele>
        <time>2011-02-20T08:22:00Z</time>
      </trkpt>
      <trkpt lat="43.59424" lon="3.77679">
        <ele>61.1</ele>
        <time>2011-02-20T08:22:03Z</time>
      </trkpt>
      <trkpt lat="43.59419" lon="3.77669">
        <ele>61</ele>
        <time>2011-02-20T08:22:05Z</time>
      </trkpt>
      <trkpt lat="43.59415" lon="3.7766">
        <ele>61.3</ele>
        <time>2011-02-20T08:22:07Z</time>
      </trkpt>
      <trkpt lat="43.59413" lon="3.77651">
        <ele>61.6</ele>
        <time>2011-02-20T08:22:09Z</time>
      </trkpt>
      <trkpt lat="43.59411" lon="3.7764">
        <ele>62.1</ele>
        <time>2011-02-20T08:22:11Z</time>
      </trkpt>
      <trkpt lat="43.59408" lon="3.77629">
        <ele>62.5</ele>
        <time>2011-02-20T08:22:13Z</time>
      </trkpt>
      <trkpt lat="43.59406" lon="3.77619">
        <ele>62.9</ele>
        <time>2011-02-20T08:22:15Z</time>
      </trkpt>
      <trkpt lat="43.59404" lon="3.77608">
        <ele>62.1</ele>
        <time>2011-02-20T08:22:17Z</time>
      </trkpt>
      <trkpt lat="43.59401" lon="3.77597">
        <ele>62.5</ele>
        <time>2011-02-20T08:22:19Z</time>
      </trkpt>
      <trkpt lat="43.59399" lon="3.77587">
        <ele>63.2</ele>
        <time>2011-02-20T08:22:21Z</time>
      </trkpt>
      <trkpt lat="43.594" lon="3.77578">
        <ele>63.3</ele>
        <time>2011-02-20T08:22:23Z</time>
      </trkpt>
      <trkpt lat="43.59405" lon="3.77572">
        <ele>63.3</ele>
        <time>2011-02-20T08:22:25Z</time>
      </trkpt>
      <trkpt lat="43.59409" lon="3.77566">
        <ele>63.6</ele>
        <time>2011-02-20T08:22:27Z</time>
      </trkpt>
      <trkpt lat="43.59416" lon="3.77559">
        <ele>63.5</ele>
        <time>2011-02-20T08:22:30Z</time>
      </trkpt>
      <trkpt lat="43.59423" lon="3.77551">
        <ele>64</ele>
        <time>2011-02-20T08:22:33Z</time>
      </trkpt>
      <trkpt lat="43.59428" lon="3.77546">
        <ele>64.2</ele>
        <time>2011-02-20T08:22:35Z</time>
      </trkpt>
      <trkpt lat="43.59433" lon="3.7754">
        <ele>64.2</ele>
        <time>2011-02-20T08:22:37Z</time>
      </trkpt>
      <trkpt lat="43.59438" lon="3.77534">
        <ele>64.2</ele>
        <time>2011-02-20T08:22:39Z</time>
      </trkpt>
      <trkpt lat="43.59443" lon="3.77528">
        <ele>64.2</ele>
        <time>2011-02-20T08:22:41Z</time>
      </trkpt>
      <trkpt lat="43.59449" lon="3.77522">
        <ele>63.8</ele>
        <time>2011-02-20T08:22:43Z</time>
      </trkpt>
      <trkpt lat="43.59454" lon="3.77516">
        <ele>63.5</ele>
        <time>2011-02-20T08:22:45Z</time>
      </trkpt>
      <trkpt lat="43.59459" lon="3.77509">
        <ele>63.3</ele>
        <time>2011-02-20T08:22:47Z</time>
      </trkpt>
      <trkpt lat="43.59463" lon="3.77501">
        <ele>63.7</ele>
        <time>2011-02-20T08:22:49Z</time>
      </trkpt>
      <trkpt lat="43.59466" lon="3.77492">
        <ele>64</ele>
        <time>2011-02-20T08:22:51Z</time>
      </trkpt>
      <trkpt lat="43.59467" lon="3.77482">
        <ele>64.2</ele>
        <time>2011-02-20T08:22:53Z</time>
      </trkpt>
      <trkpt lat="43.59467" lon="3.77472">
        <ele>64.8</ele>
        <time>2011-02-20T08:22:55Z</time>
      </trkpt>
      <trkpt lat="43.59466" lon="3.77461">
        <ele>65.1</ele>
        <time>2011-02-20T08:22:57Z</time>
      </trkpt>
      <trkpt lat="43.59465" lon="3.77451">
        <ele>64.4</ele>
        <time>2011-02-20T08:22:59Z</time>
      </trkpt>
      <trkpt lat="43.59464" lon="3.77441">
        <ele>64.7</ele>
        <time>2011-02-20T08:23:01Z</time>
      </trkpt>
      <trkpt lat="43.59465" lon="3.77436">
        <ele>65.1</ele>
        <time>2011-02-20T08:23:02Z</time>
      </trkpt>
      <trkpt lat="43.59469" lon="3.77422">
        <ele>65.1</ele>
        <time>2011-02-20T08:23:05Z</time>
      </trkpt>
      <trkpt lat="43.59473" lon="3.77414">
        <ele>65.2</ele>
        <time>2011-02-20T08:23:07Z</time>
      </trkpt>
      <trkpt lat="43.59478" lon="3.77407">
        <ele>65.4</ele>
        <time>2011-02-20T08:23:09Z</time>
      </trkpt>
      <trkpt lat="43.59482" lon="3.77399">
        <ele>66.3</ele>
        <time>2011-02-20T08:23:11Z</time>
      </trkpt>
      <trkpt lat="43.59486" lon="3.77392">
        <ele>66.8</ele>
        <time>2011-02-20T08:23:13Z</time>
      </trkpt>
      <trkpt lat="43.5949" lon="3.77384">
        <ele>67.4</ele>
        <time>2011-02-20T08:23:15Z</time>
      </trkpt>
      <trkpt lat="43.59495" lon="3.77377">
        <ele>67.6</ele>
        <time>2011-02-20T08:23:17Z</time>
      </trkpt>
      <trkpt lat="43.59499" lon="3.7737">
        <ele>67.5</ele>
        <time>2011-02-20T08:23:19Z</time>
      </trkpt>
      <trkpt lat="43.59504" lon="3.77364">
        <ele>67.2</ele>
        <time>2011-02-20T08:23:21Z</time>
      </trkpt>
      <trkpt lat="43.5951" lon="3.77358">
        <ele>67.1</ele>
        <time>2011-02-20T08:23:23Z</time>
      </trkpt>
      <trkpt lat="43.59517" lon="3.77354">
        <ele>67.1</ele>
        <time>2011-02-20T08:23:25Z</time>
      </trkpt>
      <trkpt lat="43.59525" lon="3.77351">
        <ele>67.8</ele>
        <time>2011-02-20T08:23:27Z</time>
      </trkpt>
      <trkpt lat="43.59533" lon="3.77348">
        <ele>68.2</ele>
        <time>2011-02-20T08:23:29Z</time>
      </trkpt>
      <trkpt lat="43.5954" lon="3.77344">
        <ele>67.5</ele>
        <time>2011-02-20T08:23:31Z</time>
      </trkpt>
      <trkpt lat="43.59547" lon="3.77338">
        <ele>67.1</ele>
        <time>2011-02-20T08:23:33Z</time>
      </trkpt>
      <trkpt lat="43.59554" lon="3.77332">
        <ele>66.9</ele>
        <time>2011-02-20T08:23:35Z</time>
      </trkpt>
      <trkpt lat="43.59561" lon="3.77325">
        <ele>67.5</ele>
        <time>2011-02-20T08:23:37Z</time>
      </trkpt>
      <trkpt lat="43.59567" lon="3.77319">
        <ele>67.8</ele>
        <time>2011-02-20T08:23:39Z</time>
      </trkpt>
      <trkpt lat="43.59573" lon="3.77312">
        <ele>67.9</ele>
        <time>2011-02-20T08:23:41Z</time>
      </trkpt>
      <trkpt lat="43.5958" lon="3.77306">
        <ele>68.3</ele>
        <time>2011-02-20T08:23:43Z</time>
      </trkpt>
      <trkpt lat="43.59587" lon="3.77299">
        <ele>68.5</ele>
        <time>2011-02-20T08:23:45Z</time>
      </trkpt>
      <trkpt lat="43.59593" lon="3.77292">
        <ele>68.6</ele>
        <time>2011-02-20T08:23:47Z</time>
      </trkpt>
      <trkpt lat="43.596" lon="3.77286">
        <ele>68.9</ele>
        <time>2011-02-20T08:23:49Z</time>
      </trkpt>
      <trkpt lat="43.59607" lon="3.77281">
        <ele>69.2</ele>
        <time>2011-02-20T08:23:51Z</time>
      </trkpt>
      <trkpt lat="43.59614" lon="3.77275">
        <ele>68.9</ele>
        <time>2011-02-20T08:23:53Z</time>
      </trkpt>
      <trkpt lat="43.59621" lon="3.77269">
        <ele>69</ele>
        <time>2011-02-20T08:23:55Z</time>
      </trkpt>
      <trkpt lat="43.59628" lon="3.77264">
        <ele>69.1</ele>
        <time>2011-02-20T08:23:57Z</time>
      </trkpt>
      <trkpt lat="43.59635" lon="3.77259">
        <ele>69.9</ele>
        <time>2011-02-20T08:23:59Z</time>
      </trkpt>
      <trkpt lat="43.59642" lon="3.77255">
        <ele>70.3</ele>
        <time>2011-02-20T08:24:01Z</time>
      </trkpt>
      <trkpt lat="43.5965" lon="3.7725">
        <ele>70.4</ele>
        <time>2011-02-20T08:24:03Z</time>
      </trkpt>
      <trkpt lat="43.59654" lon="3.77248">
        <ele>70.4</ele>
        <time>2011-02-20T08:24:04Z</time>
      </trkpt>
      <trkpt lat="43.59664" lon="3.77241">
        <ele>70.3</ele>
        <time>2011-02-20T08:24:07Z</time>
      </trkpt>
      <trkpt lat="43.59671" lon="3.77235">
        <ele>70.5</ele>
        <time>2011-02-20T08:24:09Z</time>
      </trkpt>
      <trkpt lat="43.59678" lon="3.7723">
        <ele>70.4</ele>
        <time>2011-02-20T08:24:11Z</time>
      </trkpt>
      <trkpt lat="43.59685" lon="3.77223">
        <ele>70.3</ele>
        <time>2011-02-20T08:24:13Z</time>
      </trkpt>
      <trkpt lat="43.59692" lon="3.77217">
        <ele>70.7</ele>
        <time>2011-02-20T08:24:15Z</time>
      </trkpt>
      <trkpt lat="43.59699" lon="3.77211">
        <ele>70.9</ele>
        <time>2011-02-20T08:24:17Z</time>
      </trkpt>
      <trkpt lat="43.59705" lon="3.77204">
        <ele>70.4</ele>
        <time>2011-02-20T08:24:19Z</time>
      </trkpt>
      <trkpt lat="43.59712" lon="3.77198">
        <ele>70.2</ele>
        <time>2011-02-20T08:24:21Z</time>
      </trkpt>
      <trkpt lat="43.59718" lon="3.77191">
        <ele>70.1</ele>
        <time>2011-02-20T08:24:23Z</time>
      </trkpt>
      <trkpt lat="43.59725" lon="3.77185">
        <ele>70.2</ele>
        <time>2011-02-20T08:24:25Z</time>
      </trkpt>
      <trkpt lat="43.59732" lon="3.77184">
        <ele>70.1</ele>
        <time>2011-02-20T08:24:27Z</time>
      </trkpt>
      <trkpt lat="43.59739" lon="3.7719">
        <ele>69.8</ele>
        <time>2011-02-20T08:24:29Z</time>
      </trkpt>
      <trkpt lat="43.59746" lon="3.77195">
        <ele>70.4</ele>
        <time>2011-02-20T08:24:31Z</time>
      </trkpt>
      <trkpt lat="43.59753" lon="3.77202">
        <ele>71</ele>
        <time>2011-02-20T08:24:33Z</time>
      </trkpt>
      <trkpt lat="43.59759" lon="3.77208">
        <ele>71.4</ele>
        <time>2011-02-20T08:24:35Z</time>
      </trkpt>
      <trkpt lat="43.59765" lon="3.77214">
        <ele>71.3</ele>
        <time>2011-02-20T08:24:37Z</time>
      </trkpt>
      <trkpt lat="43.59772" lon="3.77221">
        <ele>71.1</ele>
        <time>2011-02-20T08:24:39Z</time>
      </trkpt>
      <trkpt lat="43.59778" lon="3.77228">
        <ele>71.4</ele>
        <time>2011-02-20T08:24:41Z</time>
      </trkpt>
      <trkpt lat="43.59785" lon="3.77234">
        <ele>71.3</ele>
        <time>2011-02-20T08:24:43Z</time>
      </trkpt>
      <trkpt lat="43.59791" lon="3.7724">
        <ele>71.1</ele>
        <time>2011-02-20T08:24:45Z</time>
      </trkpt>
      <trkpt lat="43.59798" lon="3.77246">
        <ele>71.8</ele>
        <time>2011-02-20T08:24:47Z</time>
      </trkpt>
      <trkpt lat="43.59805" lon="3.77252">
        <ele>72.1</ele>
        <time>2011-02-20T08:24:49Z</time>
      </trkpt>
      <trkpt lat="43.59811" lon="3.77258">
        <ele>72.2</ele>
        <time>2011-02-20T08:24:51Z</time>
      </trkpt>
      <trkpt lat="43.59818" lon="3.77263">
        <ele>72.3</ele>
        <time>2011-02-20T08:24:53Z</time>
      </trkpt>
      <trkpt lat="43.59824" lon="3.77269">
        <ele>72.4</ele>
        <time>2011-02-20T08:24:55Z</time>
      </trkpt>
      <trkpt lat="43.59831" lon="3.77274">
        <ele>72</ele>
        <time>2011-02-20T08:24:57Z</time>
      </trkpt>
      <trkpt lat="43.59838" lon="3.7728">
        <ele>72</ele>
        <time>2011-02-20T08:24:59Z</time>
      </trkpt>
      <trkpt lat="43.59846" lon="3.77284">
        <ele>72.1</ele>
        <time>2011-02-20T08:25:01Z</time>
      </trkpt>
      <trkpt lat="43.59853" lon="3.77288">
        <ele>72.5</ele>
        <time>2011-02-20T08:25:03Z</time>
      </trkpt>
      <trkpt lat="43.59861" lon="3.77286">
        <ele>72.9</ele>
        <time>2011-02-20T08:25:05Z</time>
      </trkpt>
      <trkpt lat="43.59864" lon="3.77283">
        <ele>73</ele>
        <time>2011-02-20T08:25:06Z</time>
      </trkpt>
      <trkpt lat="43.59872" lon="3.77272">
        <ele>73.3</ele>
        <time>2011-02-20T08:25:09Z</time>
      </trkpt>
      <trkpt lat="43.59876" lon="3.77263">
        <ele>73.5</ele>
        <time>2011-02-20T08:25:11Z</time>
      </trkpt>
      <trkpt lat="43.59879" lon="3.77254">
        <ele>74.1</ele>
        <time>2011-02-20T08:25:13Z</time>
      </trkpt>
      <trkpt lat="43.59883" lon="3.77246">
        <ele>74.4</ele>
        <time>2011-02-20T08:25:15Z</time>
      </trkpt>
      <trkpt lat="43.59888" lon="3.77239">
        <ele>74.7</ele>
        <time>2011-02-20T08:25:17Z</time>
      </trkpt>
      <trkpt lat="43.59894" lon="3.77234">
        <ele>75.6</ele>
        <time>2011-02-20T08:25:19Z</time>
      </trkpt>
      <trkpt lat="43.59901" lon="3.77231">
        <ele>76.1</ele>
        <time>2011-02-20T08:25:21Z</time>
      </trkpt>
      <trkpt lat="43.59908" lon="3.77229">
        <ele>76.6</ele>
        <time>2011-02-20T08:25:23Z</time>
      </trkpt>
      <trkpt lat="43.59915" lon="3.77229">
        <ele>77.4</ele>
        <time>2011-02-20T08:25:25Z</time>
      </trkpt>
      <trkpt lat="43.59922" lon="3.77226">
        <ele>78.4</ele>
        <time>2011-02-20T08:25:27Z</time>
      </trkpt>
      <trkpt lat="43.59929" lon="3.77224">
        <ele>78.8</ele>
        <time>2011-02-20T08:25:29Z</time>
      </trkpt>
      <trkpt lat="43.59936" lon="3.77223">
        <ele>79.2</ele>
        <time>2011-02-20T08:25:31Z</time>
      </trkpt>
      <trkpt lat="43.59944" lon="3.77225">
        <ele>79.4</ele>
        <time>2011-02-20T08:25:33Z</time>
      </trkpt>
      <trkpt lat="43.59951" lon="3.77227">
        <ele>79.2</ele>
        <time>2011-02-20T08:25:35Z</time>
      </trkpt>
      <trkpt lat="43.59958" lon="3.77231">
        <ele>79.7</ele>
        <time>2011-02-20T08:25:37Z</time>
      </trkpt>
      <trkpt lat="43.59965" lon="3.77235">
        <ele>80.5</ele>
        <time>2011-02-20T08:25:39Z</time>
      </trkpt>
      <trkpt lat="43.59971" lon="3.7724">
        <ele>80.8</ele>
        <time>2011-02-20T08:25:41Z</time>
      </trkpt>
      <trkpt lat="43.59977" lon="3.77245">
        <ele>81</ele>
        <time>2011-02-20T08:25:43Z</time>
      </trkpt>
      <trkpt lat="43.59982" lon="3.77249">
        <ele>81.8</ele>
        <time>2011-02-20T08:25:45Z</time>
      </trkpt>
      <trkpt lat="43.59988" lon="3.77254">
        <ele>81.9</ele>
        <time>2011-02-20T08:25:47Z</time>
      </trkpt>
      <trkpt lat="43.59994" lon="3.77258">
        <ele>81.7</ele>
        <time>2011-02-20T08:25:49Z</time>
      </trkpt>
      <trkpt lat="43.6" lon="3.77263">
        <ele>82.6</ele>
        <time>2011-02-20T08:25:51Z</time>
      </trkpt>
      <trkpt lat="43.60005" lon="3.77266">
        <ele>83.5</ele>
        <time>2011-02-20T08:25:53Z</time>
      </trkpt>
      <trkpt lat="43.60011" lon="3.7727">
        <ele>84.4</ele>
        <time>2011-02-20T08:25:55Z</time>
      </trkpt>
      <trkpt lat="43.60017" lon="3.77272">
        <ele>84.8</ele>
        <time>2011-02-20T08:25:57Z</time>
      </trkpt>
      <trkpt lat="43.60024" lon="3.77273">
        <ele>85.1</ele>
        <time>2011-02-20T08:25:59Z</time>
      </trkpt>
      <trkpt lat="43.6003" lon="3.77274">
        <ele>85.3</ele>
        <time>2011-02-20T08:26:01Z</time>
      </trkpt>
      <trkpt lat="43.60037" lon="3.77274">
        <ele>86.1</ele>
        <time>2011-02-20T08:26:03Z</time>
      </trkpt>
      <trkpt lat="43.60043" lon="3.77275">
        <ele>86.9</ele>
        <time>2011-02-20T08:26:05Z</time>
      </trkpt>
      <trkpt lat="43.60049" lon="3.77276">
        <ele>87.1</ele>
        <time>2011-02-20T08:26:07Z</time>
      </trkpt>
      <trkpt lat="43.60052" lon="3.77277">
        <ele>87.2</ele>
        <time>2011-02-20T08:26:08Z</time>
      </trkpt>
      <trkpt lat="43.60061" lon="3.7728">
        <ele>87.4</ele>
        <time>2011-02-20T08:26:11Z</time>
      </trkpt>
      <trkpt lat="43.60067" lon="3.77283">
        <ele>87.5</ele>
        <time>2011-02-20T08:26:13Z</time>
      </trkpt>
      <trkpt lat="43.60073" lon="3.77285">
        <ele>87.5</ele>
        <time>2011-02-20T08:26:15Z</time>
      </trkpt>
      <trkpt lat="43.6008" lon="3.77288">
        <ele>87.3</ele>
        <time>2011-02-20T08:26:17Z</time>
      </trkpt>
      <trkpt lat="43.60086" lon="3.77291">
        <ele>87.2</ele>
        <time>2011-02-20T08:26:19Z</time>
      </trkpt>
      <trkpt lat="43.60093" lon="3.77296">
        <ele>87.1</ele>
        <time>2011-02-20T08:26:21Z</time>
      </trkpt>
      <trkpt lat="43.60097" lon="3.77299">
        <ele>86.9</ele>
        <time>2011-02-20T08:26:22Z</time>
      </trkpt>
      <trkpt lat="43.60102" lon="3.77302">
        <ele>86.7</ele>
        <time>2011-02-20T08:26:23Z</time>
      </trkpt>
      <trkpt lat="43.60106" lon="3.77305">
        <ele>86.6</ele>
        <time>2011-02-20T08:26:24Z</time>
      </trkpt>
      <trkpt lat="43.60111" lon="3.77308">
        <ele>86.1</ele>
        <time>2011-02-20T08:26:25Z</time>
      </trkpt>
      <trkpt lat="43.60115" lon="3.7731">
        <ele>85.8</ele>
        <time>2011-02-20T08:26:26Z</time>
      </trkpt>
      <trkpt lat="43.6012" lon="3.77313">
        <ele>85.5</ele>
        <time>2011-02-20T08:26:27Z</time>
      </trkpt>
      <trkpt lat="43.60125" lon="3.77315">
        <ele>85.5</ele>
        <time>2011-02-20T08:26:28Z</time>
      </trkpt>
      <trkpt lat="43.6013" lon="3.77317">
        <ele>85.6</ele>
        <time>2011-02-20T08:26:29Z</time>
      </trkpt>
      <trkpt lat="43.60135" lon="3.77319">
        <ele>85.6</ele>
        <time>2011-02-20T08:26:30Z</time>
      </trkpt>
      <trkpt lat="43.60139" lon="3.77321">
        <ele>85.6</ele>
        <time>2011-02-20T08:26:31Z</time>
      </trkpt>
      <trkpt lat="43.60143" lon="3.77322">
        <ele>85.4</ele>
        <time>2011-02-20T08:26:32Z</time>
      </trkpt>
      <trkpt lat="43.60148" lon="3.77323">
        <ele>85.2</ele>
        <time>2011-02-20T08:26:33Z</time>
      </trkpt>
      <trkpt lat="43.60153" lon="3.77325">
        <ele>85.1</ele>
        <time>2011-02-20T08:26:34Z</time>
      </trkpt>
      <trkpt lat="43.60157" lon="3.77325">
        <ele>85</ele>
        <time>2011-02-20T08:26:35Z</time>
      </trkpt>
      <trkpt lat="43.60162" lon="3.77326">
        <ele>84.8</ele>
        <time>2011-02-20T08:26:36Z</time>
      </trkpt>
      <trkpt lat="43.60167" lon="3.77327">
        <ele>84.7</ele>
        <time>2011-02-20T08:26:37Z</time>
      </trkpt>
      <trkpt lat="43.60172" lon="3.77328">
        <ele>85</ele>
        <time>2011-02-20T08:26:38Z</time>
      </trkpt>
      <trkpt lat="43.60177" lon="3.77329">
        <ele>85.2</ele>
        <time>2011-02-20T08:26:39Z</time>
      </trkpt>
      <trkpt lat="43.60183" lon="3.77329">
        <ele>85.4</ele>
        <time>2011-02-20T08:26:40Z</time>
      </trkpt>
      <trkpt lat="43.60188" lon="3.7733">
        <ele>84.8</ele>
        <time>2011-02-20T08:26:41Z</time>
      </trkpt>
      <trkpt lat="43.60194" lon="3.7733">
        <ele>84.4</ele>
        <time>2011-02-20T08:26:42Z</time>
      </trkpt>
      <trkpt lat="43.60199" lon="3.77331">
        <ele>84</ele>
        <time>2011-02-20T08:26:43Z</time>
      </trkpt>
      <trkpt lat="43.60205" lon="3.77331">
        <ele>83.2</ele>
        <time>2011-02-20T08:26:44Z</time>
      </trkpt>
      <trkpt lat="43.60211" lon="3.77331">
        <ele>82.6</ele>
        <time>2011-02-20T08:26:45Z</time>
      </trkpt>
      <trkpt lat="43.60217" lon="3.77331">
        <ele>82.1</ele>
        <time>2011-02-20T08:26:46Z</time>
      </trkpt>
      <trkpt lat="43.60222" lon="3.77331">
        <ele>81.8</ele>
        <time>2011-02-20T08:26:47Z</time>
      </trkpt>
      <trkpt lat="43.60227" lon="3.77331">
        <ele>81.9</ele>
        <time>2011-02-20T08:26:48Z</time>
      </trkpt>
      <trkpt lat="43.60233" lon="3.77333">
        <ele>82</ele>
        <time>2011-02-20T08:26:49Z</time>
      </trkpt>
      <trkpt lat="43.60238" lon="3.77334">
        <ele>82.1</ele>
        <time>2011-02-20T08:26:50Z</time>
      </trkpt>
      <trkpt lat="43.60244" lon="3.77336">
        <ele>81.8</ele>
        <time>2011-02-20T08:26:51Z</time>
      </trkpt>
      <trkpt lat="43.60249" lon="3.77339">
        <ele>81.6</ele>
        <time>2011-02-20T08:26:52Z</time>
      </trkpt>
      <trkpt lat="43.60254" lon="3.77342">
        <ele>81.5</ele>
        <time>2011-02-20T08:26:53Z</time>
      </trkpt>
      <trkpt lat="43.60259" lon="3.77345">
        <ele>81.4</ele>
        <time>2011-02-20T08:26:54Z</time>
      </trkpt>
      <trkpt lat="43.60263" lon="3.77348">
        <ele>81.3</ele>
        <time>2011-02-20T08:26:55Z</time>
      </trkpt>
      <trkpt lat="43.60268" lon="3.77351">
        <ele>81.2</ele>
        <time>2011-02-20T08:26:56Z</time>
      </trkpt>
      <trkpt lat="43.60273" lon="3.77354">
        <ele>81.1</ele>
        <time>2011-02-20T08:26:57Z</time>
      </trkpt>
      <trkpt lat="43.60276" lon="3.77359">
        <ele>81</ele>
        <time>2011-02-20T08:26:58Z</time>
      </trkpt>
      <trkpt lat="43.6028" lon="3.77363">
        <ele>80.9</ele>
        <time>2011-02-20T08:26:59Z</time>
      </trkpt>
      <trkpt lat="43.60285" lon="3.77365">
        <ele>80.9</ele>
        <time>2011-02-20T08:27:00Z</time>
      </trkpt>
      <trkpt lat="43.60293" lon="3.77364">
        <ele>80.8</ele>
        <time>2011-02-20T08:27:02Z</time>
      </trkpt>
      <trkpt lat="43.60298" lon="3.77357">
        <ele>81.2</ele>
        <time>2011-02-20T08:27:04Z</time>
      </trkpt>
      <trkpt lat="43.60302" lon="3.77349">
        <ele>81.6</ele>
        <time>2011-02-20T08:27:06Z</time>
      </trkpt>
      <trkpt lat="43.60306" lon="3.77342">
        <ele>82.4</ele>
        <time>2011-02-20T08:27:08Z</time>
      </trkpt>
      <trkpt lat="43.60307" lon="3.77338">
        <ele>82.6</ele>
        <time>2011-02-20T08:27:09Z</time>
      </trkpt>
      <trkpt lat="43.60311" lon="3.77323">
        <ele>83.9</ele>
        <time>2011-02-20T08:27:13Z</time>
      </trkpt>
      <trkpt lat="43.60314" lon="3.77312">
        <ele>84.6</ele>
        <time>2011-02-20T08:27:16Z</time>
      </trkpt>
      <trkpt lat="43.60317" lon="3.77302">
        <ele>84.8</ele>
        <time>2011-02-20T08:27:19Z</time>
      </trkpt>
      <trkpt lat="43.60321" lon="3.77291">
        <ele>85.4</ele>
        <time>2011-02-20T08:27:22Z</time>
      </trkpt>
      <trkpt lat="43.60324" lon="3.77281">
        <ele>86.4</ele>
        <time>2011-02-20T08:27:25Z</time>
      </trkpt>
      <trkpt lat="43.60327" lon="3.77271">
        <ele>86.7</ele>
        <time>2011-02-20T08:27:28Z</time>
      </trkpt>
      <trkpt lat="43.60331" lon="3.77261">
        <ele>88.3</ele>
        <time>2011-02-20T08:27:31Z</time>
      </trkpt>
      <trkpt lat="43.60333" lon="3.77254">
        <ele>88.9</ele>
        <time>2011-02-20T08:27:33Z</time>
      </trkpt>
      <trkpt lat="43.60335" lon="3.77245">
        <ele>89</ele>
        <time>2011-02-20T08:27:35Z</time>
      </trkpt>
      <trkpt lat="43.60338" lon="3.77235">
        <ele>88.9</ele>
        <time>2011-02-20T08:27:38Z</time>
      </trkpt>
      <trkpt lat="43.60341" lon="3.77224">
        <ele>89.5</ele>
        <time>2011-02-20T08:27:41Z</time>
      </trkpt>
      <trkpt lat="43.60345" lon="3.77214">
        <ele>90</ele>
        <time>2011-02-20T08:27:44Z</time>
      </trkpt>
      <trkpt lat="43.6035" lon="3.77204">
        <ele>91</ele>
        <time>2011-02-20T08:27:47Z</time>
      </trkpt>
      <trkpt lat="43.60354" lon="3.77194">
        <ele>91.5</ele>
        <time>2011-02-20T08:27:50Z</time>
      </trkpt>
      <trkpt lat="43.60357" lon="3.77184">
        <ele>92.4</ele>
        <time>2011-02-20T08:27:53Z</time>
      </trkpt>
      <trkpt lat="43.60358" lon="3.77174">
        <ele>92.7</ele>
        <time>2011-02-20T08:27:56Z</time>
      </trkpt>
      <trkpt lat="43.6036" lon="3.77165">
        <ele>93.5</ele>
        <time>2011-02-20T08:27:59Z</time>
      </trkpt>
      <trkpt lat="43.60362" lon="3.77155">
        <ele>93.8</ele>
        <time>2011-02-20T08:28:02Z</time>
      </trkpt>
      <trkpt lat="43.60363" lon="3.77145">
        <ele>93.5</ele>
        <time>2011-02-20T08:28:05Z</time>
      </trkpt>
      <trkpt lat="43.60365" lon="3.77135">
        <ele>94.2</ele>
        <time>2011-02-20T08:28:08Z</time>
      </trkpt>
      <trkpt lat="43.60366" lon="3.77123">
        <ele>95.8</ele>
        <time>2011-02-20T08:28:12Z</time>
      </trkpt>
      <trkpt lat="43.60366" lon="3.7712">
        <ele>96.2</ele>
        <time>2011-02-20T08:28:13Z</time>
      </trkpt>
      <trkpt lat="43.60368" lon="3.77102">
        <ele>96.9</ele>
        <time>2011-02-20T08:28:18Z</time>
      </trkpt>
      <trkpt lat="43.6037" lon="3.77091">
        <ele>97.9</ele>
        <time>2011-02-20T08:28:23Z</time>
      </trkpt>
      <trkpt lat="43.6037" lon="3.77079">
        <ele>98.4</ele>
        <time>2011-02-20T08:28:28Z</time>
      </trkpt>
      <trkpt lat="43.60368" lon="3.77067">
        <ele>99.2</ele>
        <time>2011-02-20T08:28:32Z</time>
      </trkpt>
      <trkpt lat="43.60367" lon="3.77056">
        <ele>100</ele>
        <time>2011-02-20T08:28:36Z</time>
      </trkpt>
      <trkpt lat="43.60366" lon="3.77047">
        <ele>100.9</ele>
        <time>2011-02-20T08:28:39Z</time>
      </trkpt>
      <trkpt lat="43.60365" lon="3.77037">
        <ele>101.5</ele>
        <time>2011-02-20T08:28:42Z</time>
      </trkpt>
      <trkpt lat="43.60363" lon="3.77028">
        <ele>101.9</ele>
        <time>2011-02-20T08:28:45Z</time>
      </trkpt>
      <trkpt lat="43.60364" lon="3.77016">
        <ele>101.9</ele>
        <time>2011-02-20T08:28:48Z</time>
      </trkpt>
      <trkpt lat="43.60362" lon="3.77008">
        <ele>102.7</ele>
        <time>2011-02-20T08:28:50Z</time>
      </trkpt>
      <trkpt lat="43.60361" lon="3.76996">
        <ele>103.8</ele>
        <time>2011-02-20T08:28:53Z</time>
      </trkpt>
      <trkpt lat="43.6036" lon="3.76986">
        <ele>104.4</ele>
        <time>2011-02-20T08:28:56Z</time>
      </trkpt>
      <trkpt lat="43.60361" lon="3.76974">
        <ele>104.7</ele>
        <time>2011-02-20T08:28:59Z</time>
      </trkpt>
      <trkpt lat="43.60361" lon="3.76962">
        <ele>104.8</ele>
        <time>2011-02-20T08:29:02Z</time>
      </trkpt>
      <trkpt lat="43.6036" lon="3.76954">
        <ele>104.8</ele>
        <time>2011-02-20T08:29:04Z</time>
      </trkpt>
      <trkpt lat="43.6036" lon="3.76946">
        <ele>105.8</ele>
        <time>2011-02-20T08:29:06Z</time>
      </trkpt>
      <trkpt lat="43.60359" lon="3.76937">
        <ele>106</ele>
        <time>2011-02-20T08:29:08Z</time>
      </trkpt>
      <trkpt lat="43.60359" lon="3.76929">
        <ele>105.8</ele>
        <time>2011-02-20T08:29:10Z</time>
      </trkpt>
      <trkpt lat="43.60357" lon="3.76916">
        <ele>105.9</ele>
        <time>2011-02-20T08:29:13Z</time>
      </trkpt>
      <trkpt lat="43.60357" lon="3.76913">
        <ele>106.3</ele>
        <time>2011-02-20T08:29:14Z</time>
      </trkpt>
      <trkpt lat="43.60359" lon="3.76895">
        <ele>107.2</ele>
        <time>2011-02-20T08:29:19Z</time>
      </trkpt>
      <trkpt lat="43.60361" lon="3.76884">
        <ele>107.8</ele>
        <time>2011-02-20T08:29:22Z</time>
      </trkpt>
      <trkpt lat="43.60363" lon="3.76872">
        <ele>107.2</ele>
        <time>2011-02-20T08:29:25Z</time>
      </trkpt>
      <trkpt lat="43.60365" lon="3.76864">
        <ele>106.9</ele>
        <time>2011-02-20T08:29:27Z</time>
      </trkpt>
      <trkpt lat="43.60366" lon="3.76855">
        <ele>106.8</ele>
        <time>2011-02-20T08:29:29Z</time>
      </trkpt>
      <trkpt lat="43.60369" lon="3.76844">
        <ele>106.9</ele>
        <time>2011-02-20T08:29:32Z</time>
      </trkpt>
      <trkpt lat="43.60372" lon="3.76833">
        <ele>107</ele>
        <time>2011-02-20T08:29:35Z</time>
      </trkpt>
      <trkpt lat="43.60376" lon="3.76823">
        <ele>107</ele>
        <time>2011-02-20T08:29:38Z</time>
      </trkpt>
      <trkpt lat="43.60382" lon="3.76814">
        <ele>107.3</ele>
        <time>2011-02-20T08:29:41Z</time>
      </trkpt>
      <trkpt lat="43.60387" lon="3.76806">
        <ele>107.7</ele>
        <time>2011-02-20T08:29:44Z</time>
      </trkpt>
      <trkpt lat="43.60392" lon="3.76798">
        <ele>108.6</ele>
        <time>2011-02-20T08:29:47Z</time>
      </trkpt>
      <trkpt lat="43.60398" lon="3.76789">
        <ele>109.3</ele>
        <time>2011-02-20T08:29:50Z</time>
      </trkpt>
      <trkpt lat="43.60404" lon="3.76781">
        <ele>109.7</ele>
        <time>2011-02-20T08:29:54Z</time>
      </trkpt>
      <trkpt lat="43.6041" lon="3.76774">
        <ele>110.8</ele>
        <time>2011-02-20T08:29:57Z</time>
      </trkpt>
      <trkpt lat="43.60416" lon="3.76767">
        <ele>110.5</ele>
        <time>2011-02-20T08:30:00Z</time>
      </trkpt>
      <trkpt lat="43.60421" lon="3.76762">
        <ele>110.6</ele>
        <time>2011-02-20T08:30:02Z</time>
      </trkpt>
      <trkpt lat="43.60425" lon="3.76755">
        <ele>111.1</ele>
        <time>2011-02-20T08:30:04Z</time>
      </trkpt>
      <trkpt lat="43.60428" lon="3.76746">
        <ele>111.6</ele>
        <time>2011-02-20T08:30:06Z</time>
      </trkpt>
      <trkpt lat="43.60431" lon="3.76735">
        <ele>112.2</ele>
        <time>2011-02-20T08:30:09Z</time>
      </trkpt>
      <trkpt lat="43.60429" lon="3.76723">
        <ele>113.1</ele>
        <time>2011-02-20T08:30:12Z</time>
      </trkpt>
      <trkpt lat="43.60424" lon="3.76715">
        <ele>114.5</ele>
        <time>2011-02-20T08:30:15Z</time>
      </trkpt>
      <trkpt lat="43.60423" lon="3.76714">
        <ele>114.8</ele>
        <time>2011-02-20T08:30:16Z</time>
      </trkpt>
      <trkpt lat="43.60422" lon="3.76691">
        <ele>116.7</ele>
        <time>2011-02-20T08:32:32Z</time>
      </trkpt>
      <trkpt lat="43.60421" lon="3.7669">
        <ele>116.9</ele>
        <time>2011-02-20T08:32:33Z</time>
      </trkpt>
      <trkpt lat="43.60408" lon="3.7668">
        <ele>116.6</ele>
        <time>2011-02-20T08:32:42Z</time>
      </trkpt>
      <trkpt lat="43.60402" lon="3.76675">
        <ele>117.3</ele>
        <time>2011-02-20T08:32:46Z</time>
      </trkpt>
      <trkpt lat="43.60395" lon="3.76668">
        <ele>117.3</ele>
        <time>2011-02-20T08:32:50Z</time>
      </trkpt>
      <trkpt lat="43.6039" lon="3.76661">
        <ele>117.2</ele>
        <time>2011-02-20T08:32:53Z</time>
      </trkpt>
      <trkpt lat="43.60387" lon="3.76652">
        <ele>117</ele>
        <time>2011-02-20T08:32:56Z</time>
      </trkpt>
      <trkpt lat="43.60389" lon="3.76641">
        <ele>117</ele>
        <time>2011-02-20T08:32:59Z</time>
      </trkpt>
      <trkpt lat="43.60392" lon="3.76634">
        <ele>116.9</ele>
        <time>2011-02-20T08:33:01Z</time>
      </trkpt>
      <trkpt lat="43.60397" lon="3.76629">
        <ele>116.6</ele>
        <time>2011-02-20T08:33:03Z</time>
      </trkpt>
      <trkpt lat="43.60402" lon="3.76625">
        <ele>116.8</ele>
        <time>2011-02-20T08:33:05Z</time>
      </trkpt>
      <trkpt lat="43.60408" lon="3.76622">
        <ele>116.7</ele>
        <time>2011-02-20T08:33:07Z</time>
      </trkpt>
      <trkpt lat="43.60414" lon="3.76621">
        <ele>116.5</ele>
        <time>2011-02-20T08:33:09Z</time>
      </trkpt>
      <trkpt lat="43.60421" lon="3.76622">
        <ele>116</ele>
        <time>2011-02-20T08:33:11Z</time>
      </trkpt>
      <trkpt lat="43.60428" lon="3.76623">
        <ele>115.6</ele>
        <time>2011-02-20T08:33:13Z</time>
      </trkpt>
      <trkpt lat="43.60434" lon="3.76622">
        <ele>115</ele>
        <time>2011-02-20T08:33:15Z</time>
      </trkpt>
      <trkpt lat="43.60441" lon="3.76622">
        <ele>114.2</ele>
        <time>2011-02-20T08:33:17Z</time>
      </trkpt>
      <trkpt lat="43.60449" lon="3.7662">
        <ele>113.4</ele>
        <time>2011-02-20T08:33:19Z</time>
      </trkpt>
      <trkpt lat="43.60456" lon="3.76615">
        <ele>114</ele>
        <time>2011-02-20T08:33:21Z</time>
      </trkpt>
      <trkpt lat="43.60464" lon="3.76609">
        <ele>114.2</ele>
        <time>2011-02-20T08:33:23Z</time>
      </trkpt>
      <trkpt lat="43.60469" lon="3.76601">
        <ele>114.2</ele>
        <time>2011-02-20T08:33:25Z</time>
      </trkpt>
      <trkpt lat="43.60472" lon="3.76596">
        <ele>114.2</ele>
        <time>2011-02-20T08:33:26Z</time>
      </trkpt>
      <trkpt lat="43.60475" lon="3.76591">
        <ele>113.8</ele>
        <time>2011-02-20T08:33:27Z</time>
      </trkpt>
      <trkpt lat="43.6048" lon="3.76581">
        <ele>113.3</ele>
        <time>2011-02-20T08:33:29Z</time>
      </trkpt>
      <trkpt lat="43.60475" lon="3.76573">
        <ele>111.9</ele>
        <time>2011-02-20T08:33:33Z</time>
      </trkpt>
      <trkpt lat="43.60472" lon="3.76571">
        <ele>111.6</ele>
        <time>2011-02-20T08:33:34Z</time>
      </trkpt>
      <trkpt lat="43.60468" lon="3.76561">
        <ele>110.9</ele>
        <time>2011-02-20T08:33:36Z</time>
      </trkpt>
      <trkpt lat="43.60465" lon="3.76555">
        <ele>110.6</ele>
        <time>2011-02-20T08:33:37Z</time>
      </trkpt>
      <trkpt lat="43.60461" lon="3.7655">
        <ele>110.3</ele>
        <time>2011-02-20T08:33:38Z</time>
      </trkpt>
      <trkpt lat="43.60458" lon="3.76545">
        <ele>110.2</ele>
        <time>2011-02-20T08:33:39Z</time>
      </trkpt>
      <trkpt lat="43.60455" lon="3.7654">
        <ele>110.1</ele>
        <time>2011-02-20T08:33:40Z</time>
      </trkpt>
      <trkpt lat="43.6045" lon="3.7653">
        <ele>110</ele>
        <time>2011-02-20T08:33:42Z</time>
      </trkpt>
      <trkpt lat="43.60446" lon="3.76523">
        <ele>110</ele>
        <time>2011-02-20T08:33:44Z</time>
      </trkpt>
      <trkpt lat="43.60442" lon="3.76516">
        <ele>110.2</ele>
        <time>2011-02-20T08:33:46Z</time>
      </trkpt>
      <trkpt lat="43.60438" lon="3.76509">
        <ele>110.6</ele>
        <time>2011-02-20T08:33:48Z</time>
      </trkpt>
      <trkpt lat="43.60433" lon="3.76504">
        <ele>111.7</ele>
        <time>2011-02-20T08:33:50Z</time>
      </trkpt>
      <trkpt lat="43.60427" lon="3.76496">
        <ele>113.1</ele>
        <time>2011-02-20T08:33:53Z</time>
      </trkpt>
      <trkpt lat="43.60424" lon="3.76485">
        <ele>114.9</ele>
        <time>2011-02-20T08:33:58Z</time>
      </trkpt>
      <trkpt lat="43.6042" lon="3.76475">
        <ele>115.8</ele>
        <time>2011-02-20T08:34:05Z</time>
      </trkpt>
      <trkpt lat="43.60416" lon="3.76466">
        <ele>116.4</ele>
        <time>2011-02-20T08:34:10Z</time>
      </trkpt>
      <trkpt lat="43.60413" lon="3.76457">
        <ele>117.3</ele>
        <time>2011-02-20T08:34:14Z</time>
      </trkpt>
      <trkpt lat="43.60408" lon="3.76449">
        <ele>117.9</ele>
        <time>2011-02-20T08:34:18Z</time>
      </trkpt>
      <trkpt lat="43.60404" lon="3.7644">
        <ele>119.3</ele>
        <time>2011-02-20T08:34:22Z</time>
      </trkpt>
      <trkpt lat="43.60398" lon="3.76432">
        <ele>119.5</ele>
        <time>2011-02-20T08:34:27Z</time>
      </trkpt>
      <trkpt lat="43.60397" lon="3.76422">
        <ele>120.3</ele>
        <time>2011-02-20T08:34:31Z</time>
      </trkpt>
      <trkpt lat="43.60393" lon="3.76412">
        <ele>120</ele>
        <time>2011-02-20T08:34:35Z</time>
      </trkpt>
      <trkpt lat="43.60393" lon="3.7641">
        <ele>119.8</ele>
        <time>2011-02-20T08:34:36Z</time>
      </trkpt>
      <trkpt lat="43.60395" lon="3.7639">
        <ele>120.7</ele>
        <time>2011-02-20T08:34:46Z</time>
      </trkpt>
      <trkpt lat="43.6039" lon="3.76382">
        <ele>119.1</ele>
        <time>2011-02-20T08:34:50Z</time>
      </trkpt>
      <trkpt lat="43.60382" lon="3.76383">
        <ele>118.5</ele>
        <time>2011-02-20T08:34:54Z</time>
      </trkpt>
      <trkpt lat="43.60373" lon="3.76382">
        <ele>118.1</ele>
        <time>2011-02-20T08:34:58Z</time>
      </trkpt>
      <trkpt lat="43.60366" lon="3.7638">
        <ele>117.4</ele>
        <time>2011-02-20T08:35:02Z</time>
      </trkpt>
      <trkpt lat="43.6036" lon="3.76378">
        <ele>117.1</ele>
        <time>2011-02-20T08:35:04Z</time>
      </trkpt>
      <trkpt lat="43.60354" lon="3.76373">
        <ele>116.9</ele>
        <time>2011-02-20T08:35:06Z</time>
      </trkpt>
      <trkpt lat="43.60348" lon="3.76368">
        <ele>116.7</ele>
        <time>2011-02-20T08:35:08Z</time>
      </trkpt>
      <trkpt lat="43.60343" lon="3.76362">
        <ele>115.9</ele>
        <time>2011-02-20T08:35:10Z</time>
      </trkpt>
      <trkpt lat="43.60337" lon="3.76355">
        <ele>116.2</ele>
        <time>2011-02-20T08:35:13Z</time>
      </trkpt>
      <trkpt lat="43.60331" lon="3.76347">
        <ele>116.4</ele>
        <time>2011-02-20T08:35:17Z</time>
      </trkpt>
      <trkpt lat="43.60322" lon="3.76349">
        <ele>115.2</ele>
        <time>2011-02-20T08:35:24Z</time>
      </trkpt>
      <trkpt lat="43.60316" lon="3.76357">
        <ele>118.9</ele>
        <time>2011-02-20T08:37:03Z</time>
      </trkpt>
      <trkpt lat="43.60315" lon="3.76359">
        <ele>119</ele>
        <time>2011-02-20T08:37:04Z</time>
      </trkpt>
      <trkpt lat="43.60306" lon="3.76371">
        <ele>119.3</ele>
        <time>2011-02-20T08:37:09Z</time>
      </trkpt>
      <trkpt lat="43.60298" lon="3.76376">
        <ele>119.8</ele>
        <time>2011-02-20T08:37:12Z</time>
      </trkpt>
      <trkpt lat="43.60292" lon="3.76382">
        <ele>120.2</ele>
        <time>2011-02-20T08:37:14Z</time>
      </trkpt>
      <trkpt lat="43.60286" lon="3.76391">
        <ele>119.8</ele>
        <time>2011-02-20T08:37:16Z</time>
      </trkpt>
      <trkpt lat="43.60283" lon="3.76396">
        <ele>119.5</ele>
        <time>2011-02-20T08:37:17Z</time>
      </trkpt>
      <trkpt lat="43.60281" lon="3.76402">
        <ele>119.2</ele>
        <time>2011-02-20T08:37:18Z</time>
      </trkpt>
      <trkpt lat="43.60278" lon="3.76408">
        <ele>119</ele>
        <time>2011-02-20T08:37:19Z</time>
      </trkpt>
      <trkpt lat="43.60275" lon="3.76414">
        <ele>118.3</ele>
        <time>2011-02-20T08:37:20Z</time>
      </trkpt>
      <trkpt lat="43.60272" lon="3.76421">
        <ele>117.7</ele>
        <time>2011-02-20T08:37:21Z</time>
      </trkpt>
      <trkpt lat="43.60269" lon="3.76426">
        <ele>117.3</ele>
        <time>2011-02-20T08:37:22Z</time>
      </trkpt>
      <trkpt lat="43.60264" lon="3.76436">
        <ele>117.3</ele>
        <time>2011-02-20T08:37:24Z</time>
      </trkpt>
      <trkpt lat="43.60258" lon="3.76445">
        <ele>116.3</ele>
        <time>2011-02-20T08:37:28Z</time>
      </trkpt>
      <trkpt lat="43.60252" lon="3.76437">
        <ele>116.2</ele>
        <time>2011-02-20T08:37:39Z</time>
      </trkpt>
      <trkpt lat="43.60249" lon="3.76427">
        <ele>115.8</ele>
        <time>2011-02-20T08:37:41Z</time>
      </trkpt>
      <trkpt lat="43.60247" lon="3.76416">
        <ele>114.6</ele>
        <time>2011-02-20T08:37:43Z</time>
      </trkpt>
      <trkpt lat="43.60249" lon="3.76404">
        <ele>114</ele>
        <time>2011-02-20T08:37:45Z</time>
      </trkpt>
      <trkpt lat="43.6025" lon="3.76393">
        <ele>113.8</ele>
        <time>2011-02-20T08:37:47Z</time>
      </trkpt>
      <trkpt lat="43.6025" lon="3.76383">
        <ele>113.6</ele>
        <time>2011-02-20T08:37:49Z</time>
      </trkpt>
      <trkpt lat="43.60245" lon="3.76374">
        <ele>113.5</ele>
        <time>2011-02-20T08:37:51Z</time>
      </trkpt>
      <trkpt lat="43.60239" lon="3.76367">
        <ele>113.2</ele>
        <time>2011-02-20T08:37:53Z</time>
      </trkpt>
      <trkpt lat="43.60231" lon="3.76361">
        <ele>112.7</ele>
        <time>2011-02-20T08:37:55Z</time>
      </trkpt>
      <trkpt lat="43.60223" lon="3.76362">
        <ele>112.1</ele>
        <time>2011-02-20T08:37:57Z</time>
      </trkpt>
      <trkpt lat="43.60215" lon="3.76363">
        <ele>110</ele>
        <time>2011-02-20T08:37:59Z</time>
      </trkpt>
      <trkpt lat="43.6021" lon="3.76355">
        <ele>107.2</ele>
        <time>2011-02-20T08:38:02Z</time>
      </trkpt>
      <trkpt lat="43.60203" lon="3.76356">
        <ele>106.2</ele>
        <time>2011-02-20T08:38:04Z</time>
      </trkpt>
      <trkpt lat="43.602" lon="3.76357">
        <ele>105.9</ele>
        <time>2011-02-20T08:38:05Z</time>
      </trkpt>
      <trkpt lat="43.60189" lon="3.76366">
        <ele>103.8</ele>
        <time>2011-02-20T08:38:10Z</time>
      </trkpt>
      <trkpt lat="43.60186" lon="3.76373">
        <ele>103</ele>
        <time>2011-02-20T08:38:12Z</time>
      </trkpt>
      <trkpt lat="43.60179" lon="3.7638">
        <ele>101.2</ele>
        <time>2011-02-20T08:38:15Z</time>
      </trkpt>
      <trkpt lat="43.60174" lon="3.76379">
        <ele>99.8</ele>
        <time>2011-02-20T08:38:17Z</time>
      </trkpt>
      <trkpt lat="43.60167" lon="3.76373">
        <ele>98.7</ele>
        <time>2011-02-20T08:38:19Z</time>
      </trkpt>
      <trkpt lat="43.60159" lon="3.76369">
        <ele>96.6</ele>
        <time>2011-02-20T08:38:22Z</time>
      </trkpt>
      <trkpt lat="43.60153" lon="3.76373">
        <ele>93.9</ele>
        <time>2011-02-20T08:38:25Z</time>
      </trkpt>
      <trkpt lat="43.60145" lon="3.76372">
        <ele>93.4</ele>
        <time>2011-02-20T08:38:28Z</time>
      </trkpt>
      <trkpt lat="43.60137" lon="3.76368">
        <ele>93</ele>
        <time>2011-02-20T08:38:35Z</time>
      </trkpt>
      <trkpt lat="43.60139" lon="3.76356">
        <ele>93.6</ele>
        <time>2011-02-20T08:38:42Z</time>
      </trkpt>
      <trkpt lat="43.60142" lon="3.76347">
        <ele>94</ele>
        <time>2011-02-20T08:38:46Z</time>
      </trkpt>
      <trkpt lat="43.60146" lon="3.76336">
        <ele>94.9</ele>
        <time>2011-02-20T08:38:50Z</time>
      </trkpt>
      <trkpt lat="43.60146" lon="3.76324">
        <ele>95.1</ele>
        <time>2011-02-20T08:39:10Z</time>
      </trkpt>
      <trkpt lat="43.60146" lon="3.76322">
        <ele>94.7</ele>
        <time>2011-02-20T08:39:11Z</time>
      </trkpt>
      <trkpt lat="43.6015" lon="3.76305">
        <ele>94.7</ele>
        <time>2011-02-20T08:39:17Z</time>
      </trkpt>
      <trkpt lat="43.60151" lon="3.76296">
        <ele>95.4</ele>
        <time>2011-02-20T08:39:20Z</time>
      </trkpt>
      <trkpt lat="43.60151" lon="3.76286">
        <ele>95.9</ele>
        <time>2011-02-20T08:39:23Z</time>
      </trkpt>
      <trkpt lat="43.60151" lon="3.76274">
        <ele>96.1</ele>
        <time>2011-02-20T08:39:27Z</time>
      </trkpt>
      <trkpt lat="43.6015" lon="3.76264">
        <ele>96.6</ele>
        <time>2011-02-20T08:39:30Z</time>
      </trkpt>
      <trkpt lat="43.60149" lon="3.76253">
        <ele>96.2</ele>
        <time>2011-02-20T08:39:33Z</time>
      </trkpt>
      <trkpt lat="43.60147" lon="3.76243">
        <ele>96</ele>
        <time>2011-02-20T08:39:36Z</time>
      </trkpt>
      <trkpt lat="43.60144" lon="3.76233">
        <ele>96.2</ele>
        <time>2011-02-20T08:39:39Z</time>
      </trkpt>
      <trkpt lat="43.60141" lon="3.76223">
        <ele>96.2</ele>
        <time>2011-02-20T08:39:42Z</time>
      </trkpt>
      <trkpt lat="43.60137" lon="3.76213">
        <ele>96.7</ele>
        <time>2011-02-20T08:39:45Z</time>
      </trkpt>
      <trkpt lat="43.60132" lon="3.76205">
        <ele>97.2</ele>
        <time>2011-02-20T08:39:48Z</time>
      </trkpt>
      <trkpt lat="43.60127" lon="3.76198">
        <ele>97.4</ele>
        <time>2011-02-20T08:39:51Z</time>
      </trkpt>
      <trkpt lat="43.60122" lon="3.76191">
        <ele>98.3</ele>
        <time>2011-02-20T08:39:54Z</time>
      </trkpt>
      <trkpt lat="43.60116" lon="3.76183">
        <ele>98.9</ele>
        <time>2011-02-20T08:39:57Z</time>
      </trkpt>
      <trkpt lat="43.60111" lon="3.76175">
        <ele>99.2</ele>
        <time>2011-02-20T08:40:00Z</time>
      </trkpt>
      <trkpt lat="43.60108" lon="3.76168">
        <ele>98.8</ele>
        <time>2011-02-20T08:40:02Z</time>
      </trkpt>
      <trkpt lat="43.60104" lon="3.76161">
        <ele>98.2</ele>
        <time>2011-02-20T08:40:04Z</time>
      </trkpt>
      <trkpt lat="43.60099" lon="3.76155">
        <ele>97.9</ele>
        <time>2011-02-20T08:40:06Z</time>
      </trkpt>
      <trkpt lat="43.60094" lon="3.76149">
        <ele>97.7</ele>
        <time>2011-02-20T08:40:08Z</time>
      </trkpt>
      <trkpt lat="43.60089" lon="3.76142">
        <ele>98.1</ele>
        <time>2011-02-20T08:40:10Z</time>
      </trkpt>
      <trkpt lat="43.60084" lon="3.76135">
        <ele>98.3</ele>
        <time>2011-02-20T08:40:12Z</time>
      </trkpt>
      <trkpt lat="43.60082" lon="3.76132">
        <ele>98.4</ele>
        <time>2011-02-20T08:40:13Z</time>
      </trkpt>
      <trkpt lat="43.60076" lon="3.7612">
        <ele>98.2</ele>
        <time>2011-02-20T08:40:16Z</time>
      </trkpt>
      <trkpt lat="43.60073" lon="3.76112">
        <ele>98.1</ele>
        <time>2011-02-20T08:40:18Z</time>
      </trkpt>
      <trkpt lat="43.60071" lon="3.76104">
        <ele>98.1</ele>
        <time>2011-02-20T08:40:20Z</time>
      </trkpt>
      <trkpt lat="43.60069" lon="3.76095">
        <ele>98.3</ele>
        <time>2011-02-20T08:40:22Z</time>
      </trkpt>
      <trkpt lat="43.60067" lon="3.76086">
        <ele>98.5</ele>
        <time>2011-02-20T08:40:24Z</time>
      </trkpt>
      <trkpt lat="43.60065" lon="3.76077">
        <ele>98.5</ele>
        <time>2011-02-20T08:40:26Z</time>
      </trkpt>
      <trkpt lat="43.60065" lon="3.76069">
        <ele>98.9</ele>
        <time>2011-02-20T08:40:28Z</time>
      </trkpt>
      <trkpt lat="43.60064" lon="3.7606">
        <ele>99.4</ele>
        <time>2011-02-20T08:40:30Z</time>
      </trkpt>
      <trkpt lat="43.60065" lon="3.76051">
        <ele>99.7</ele>
        <time>2011-02-20T08:40:32Z</time>
      </trkpt>
      <trkpt lat="43.60068" lon="3.76043">
        <ele>99.6</ele>
        <time>2011-02-20T08:40:34Z</time>
      </trkpt>
      <trkpt lat="43.60072" lon="3.76037">
        <ele>99.3</ele>
        <time>2011-02-20T08:40:36Z</time>
      </trkpt>
      <trkpt lat="43.60077" lon="3.7603">
        <ele>99.6</ele>
        <time>2011-02-20T08:40:38Z</time>
      </trkpt>
      <trkpt lat="43.6008" lon="3.7602">
        <ele>100</ele>
        <time>2011-02-20T08:40:40Z</time>
      </trkpt>
      <trkpt lat="43.60081" lon="3.76011">
        <ele>99.9</ele>
        <time>2011-02-20T08:40:42Z</time>
      </trkpt>
      <trkpt lat="43.60083" lon="3.76001">
        <ele>99.5</ele>
        <time>2011-02-20T08:40:44Z</time>
      </trkpt>
      <trkpt lat="43.60084" lon="3.75991">
        <ele>99</ele>
        <time>2011-02-20T08:40:46Z</time>
      </trkpt>
      <trkpt lat="43.60086" lon="3.75982">
        <ele>99.6</ele>
        <time>2011-02-20T08:40:48Z</time>
      </trkpt>
      <trkpt lat="43.60089" lon="3.75973">
        <ele>99.6</ele>
        <time>2011-02-20T08:40:50Z</time>
      </trkpt>
      <trkpt lat="43.60092" lon="3.75964">
        <ele>99.3</ele>
        <time>2011-02-20T08:40:52Z</time>
      </trkpt>
      <trkpt lat="43.60095" lon="3.75955">
        <ele>99.2</ele>
        <time>2011-02-20T08:40:54Z</time>
      </trkpt>
      <trkpt lat="43.60099" lon="3.75947">
        <ele>99.2</ele>
        <time>2011-02-20T08:40:56Z</time>
      </trkpt>
      <trkpt lat="43.60103" lon="3.75939">
        <ele>99.8</ele>
        <time>2011-02-20T08:40:58Z</time>
      </trkpt>
      <trkpt lat="43.60107" lon="3.75931">
        <ele>99.9</ele>
        <time>2011-02-20T08:41:00Z</time>
      </trkpt>
      <trkpt lat="43.60112" lon="3.75923">
        <ele>99.8</ele>
        <time>2011-02-20T08:41:02Z</time>
      </trkpt>
      <trkpt lat="43.60117" lon="3.75916">
        <ele>99.7</ele>
        <time>2011-02-20T08:41:04Z</time>
      </trkpt>
      <trkpt lat="43.60122" lon="3.75909">
        <ele>100.1</ele>
        <time>2011-02-20T08:41:06Z</time>
      </trkpt>
      <trkpt lat="43.60128" lon="3.75904">
        <ele>100.6</ele>
        <time>2011-02-20T08:41:08Z</time>
      </trkpt>
      <trkpt lat="43.60134" lon="3.75898">
        <ele>101.4</ele>
        <time>2011-02-20T08:41:10Z</time>
      </trkpt>
      <trkpt lat="43.6014" lon="3.75894">
        <ele>101.8</ele>
        <time>2011-02-20T08:41:12Z</time>
      </trkpt>
      <trkpt lat="43.60146" lon="3.75889">
        <ele>101.5</ele>
        <time>2011-02-20T08:41:14Z</time>
      </trkpt>
      <trkpt lat="43.60149" lon="3.75885">
        <ele>101.4</ele>
        <time>2011-02-20T08:41:15Z</time>
      </trkpt>
      <trkpt lat="43.60145" lon="3.75872">
        <ele>102.2</ele>
        <time>2011-02-20T08:41:19Z</time>
      </trkpt>
      <trkpt lat="43.6014" lon="3.75866">
        <ele>102.8</ele>
        <time>2011-02-20T08:41:21Z</time>
      </trkpt>
      <trkpt lat="43.60135" lon="3.75861">
        <ele>103</ele>
        <time>2011-02-20T08:41:23Z</time>
      </trkpt>
      <trkpt lat="43.60129" lon="3.75855">
        <ele>103.4</ele>
        <time>2011-02-20T08:41:25Z</time>
      </trkpt>
      <trkpt lat="43.60123" lon="3.7585">
        <ele>103.9</ele>
        <time>2011-02-20T08:41:27Z</time>
      </trkpt>
      <trkpt lat="43.60118" lon="3.75845">
        <ele>104.2</ele>
        <time>2011-02-20T08:41:29Z</time>
      </trkpt>
      <trkpt lat="43.60111" lon="3.75841">
        <ele>104.5</ele>
        <time>2011-02-20T08:41:31Z</time>
      </trkpt>
      <trkpt lat="43.60105" lon="3.75839">
        <ele>104.5</ele>
        <time>2011-02-20T08:41:33Z</time>
      </trkpt>
      <trkpt lat="43.60097" lon="3.75837">
        <ele>104.8</ele>
        <time>2011-02-20T08:41:36Z</time>
      </trkpt>
      <trkpt lat="43.60091" lon="3.75837">
        <ele>105.1</ele>
        <time>2011-02-20T08:41:38Z</time>
      </trkpt>
      <trkpt lat="43.60082" lon="3.7584">
        <ele>105.6</ele>
        <time>2011-02-20T08:41:41Z</time>
      </trkpt>
      <trkpt lat="43.60075" lon="3.75848">
        <ele>105.8</ele>
        <time>2011-02-20T08:41:44Z</time>
      </trkpt>
      <trkpt lat="43.60072" lon="3.75855">
        <ele>105.8</ele>
        <time>2011-02-20T08:41:46Z</time>
      </trkpt>
      <trkpt lat="43.60069" lon="3.75862">
        <ele>105.8</ele>
        <time>2011-02-20T08:41:48Z</time>
      </trkpt>
      <trkpt lat="43.60065" lon="3.75871">
        <ele>105.7</ele>
        <time>2011-02-20T08:41:50Z</time>
      </trkpt>
      <trkpt lat="43.60062" lon="3.75879">
        <ele>105</ele>
        <time>2011-02-20T08:41:52Z</time>
      </trkpt>
      <trkpt lat="43.60058" lon="3.75887">
        <ele>104.9</ele>
        <time>2011-02-20T08:41:54Z</time>
      </trkpt>
      <trkpt lat="43.60055" lon="3.75895">
        <ele>105</ele>
        <time>2011-02-20T08:41:56Z</time>
      </trkpt>
      <trkpt lat="43.6005" lon="3.75902">
        <ele>105.2</ele>
        <time>2011-02-20T08:41:58Z</time>
      </trkpt>
      <trkpt lat="43.60046" lon="3.75908">
        <ele>105.3</ele>
        <time>2011-02-20T08:42:00Z</time>
      </trkpt>
      <trkpt lat="43.60042" lon="3.75918">
        <ele>106.1</ele>
        <time>2011-02-20T08:42:03Z</time>
      </trkpt>
      <trkpt lat="43.60039" lon="3.75928">
        <ele>106.9</ele>
        <time>2011-02-20T08:42:06Z</time>
      </trkpt>
      <trkpt lat="43.60036" lon="3.7594">
        <ele>107.7</ele>
        <time>2011-02-20T08:42:09Z</time>
      </trkpt>
      <trkpt lat="43.60035" lon="3.75948">
        <ele>108</ele>
        <time>2011-02-20T08:42:11Z</time>
      </trkpt>
      <trkpt lat="43.60033" lon="3.75957">
        <ele>108.3</ele>
        <time>2011-02-20T08:42:13Z</time>
      </trkpt>
      <trkpt lat="43.60032" lon="3.75967">
        <ele>108.5</ele>
        <time>2011-02-20T08:42:15Z</time>
      </trkpt>
      <trkpt lat="43.60031" lon="3.75972">
        <ele>108.5</ele>
        <time>2011-02-20T08:42:16Z</time>
      </trkpt>
      <trkpt lat="43.60027" lon="3.75985">
        <ele>108.4</ele>
        <time>2011-02-20T08:42:19Z</time>
      </trkpt>
      <trkpt lat="43.60025" lon="3.75994">
        <ele>108.7</ele>
        <time>2011-02-20T08:42:21Z</time>
      </trkpt>
      <trkpt lat="43.60022" lon="3.76002">
        <ele>109.3</ele>
        <time>2011-02-20T08:42:23Z</time>
      </trkpt>
      <trkpt lat="43.60019" lon="3.76009">
        <ele>109.9</ele>
        <time>2011-02-20T08:42:25Z</time>
      </trkpt>
      <trkpt lat="43.60014" lon="3.76019">
        <ele>110.1</ele>
        <time>2011-02-20T08:42:28Z</time>
      </trkpt>
      <trkpt lat="43.60006" lon="3.76024">
        <ele>111.3</ele>
        <time>2011-02-20T08:42:31Z</time>
      </trkpt>
      <trkpt lat="43.59998" lon="3.76024">
        <ele>111</ele>
        <time>2011-02-20T08:42:34Z</time>
      </trkpt>
      <trkpt lat="43.5999" lon="3.76025">
        <ele>111.5</ele>
        <time>2011-02-20T08:42:37Z</time>
      </trkpt>
      <trkpt lat="43.59985" lon="3.76033">
        <ele>112.9</ele>
        <time>2011-02-20T08:42:40Z</time>
      </trkpt>
      <trkpt lat="43.59985" lon="3.76045">
        <ele>114</ele>
        <time>2011-02-20T08:42:43Z</time>
      </trkpt>
      <trkpt lat="43.59987" lon="3.76054">
        <ele>114.2</ele>
        <time>2011-02-20T08:42:45Z</time>
      </trkpt>
      <trkpt lat="43.59989" lon="3.76065">
        <ele>114.2</ele>
        <time>2011-02-20T08:42:47Z</time>
      </trkpt>
      <trkpt lat="43.59991" lon="3.76077">
        <ele>113.3</ele>
        <time>2011-02-20T08:42:49Z</time>
      </trkpt>
      <trkpt lat="43.59992" lon="3.76083">
        <ele>113</ele>
        <time>2011-02-20T08:42:50Z</time>
      </trkpt>
      <trkpt lat="43.59993" lon="3.76089">
        <ele>112.8</ele>
        <time>2011-02-20T08:42:51Z</time>
      </trkpt>
      <trkpt lat="43.59994" lon="3.76096">
        <ele>112.3</ele>
        <time>2011-02-20T08:42:52Z</time>
      </trkpt>
      <trkpt lat="43.59994" lon="3.76103">
        <ele>111.9</ele>
        <time>2011-02-20T08:42:53Z</time>
      </trkpt>
      <trkpt lat="43.59994" lon="3.7611">
        <ele>111.5</ele>
        <time>2011-02-20T08:42:54Z</time>
      </trkpt>
      <trkpt lat="43.59991" lon="3.7612">
        <ele>111.4</ele>
        <time>2011-02-20T08:42:56Z</time>
      </trkpt>
      <trkpt lat="43.59982" lon="3.76122">
        <ele>110.9</ele>
        <time>2011-02-20T08:42:59Z</time>
      </trkpt>
      <trkpt lat="43.59974" lon="3.7612">
        <ele>110.7</ele>
        <time>2011-02-20T08:43:03Z</time>
      </trkpt>
      <trkpt lat="43.59968" lon="3.76122">
        <ele>110.1</ele>
        <time>2011-02-20T08:43:06Z</time>
      </trkpt>
      <trkpt lat="43.59962" lon="3.76126">
        <ele>109.9</ele>
        <time>2011-02-20T08:43:08Z</time>
      </trkpt>
      <trkpt lat="43.59954" lon="3.7613">
        <ele>109.8</ele>
        <time>2011-02-20T08:43:10Z</time>
      </trkpt>
      <trkpt lat="43.59949" lon="3.7613">
        <ele>109.1</ele>
        <time>2011-02-20T08:43:11Z</time>
      </trkpt>
      <trkpt lat="43.59943" lon="3.76131">
        <ele>108.6</ele>
        <time>2011-02-20T08:43:12Z</time>
      </trkpt>
      <trkpt lat="43.59937" lon="3.76132">
        <ele>108.3</ele>
        <time>2011-02-20T08:43:13Z</time>
      </trkpt>
      <trkpt lat="43.5993" lon="3.76135">
        <ele>107.7</ele>
        <time>2011-02-20T08:43:14Z</time>
      </trkpt>
      <trkpt lat="43.59924" lon="3.76137">
        <ele>107.3</ele>
        <time>2011-02-20T08:43:15Z</time>
      </trkpt>
      <trkpt lat="43.59918" lon="3.76141">
        <ele>107</ele>
        <time>2011-02-20T08:43:16Z</time>
      </trkpt>
      <trkpt lat="43.59912" lon="3.76144">
        <ele>106.3</ele>
        <time>2011-02-20T08:43:17Z</time>
      </trkpt>
      <trkpt lat="43.59906" lon="3.76146">
        <ele>105.7</ele>
        <time>2011-02-20T08:43:18Z</time>
      </trkpt>
      <trkpt lat="43.59901" lon="3.76149">
        <ele>105.3</ele>
        <time>2011-02-20T08:43:19Z</time>
      </trkpt>
      <trkpt lat="43.59896" lon="3.7615">
        <ele>104.9</ele>
        <time>2011-02-20T08:43:20Z</time>
      </trkpt>
      <trkpt lat="43.59888" lon="3.7615">
        <ele>104.3</ele>
        <time>2011-02-20T08:43:22Z</time>
      </trkpt>
      <trkpt lat="43.59885" lon="3.76142">
        <ele>104.9</ele>
        <time>2011-02-20T08:43:25Z</time>
      </trkpt>
      <trkpt lat="43.59884" lon="3.76133">
        <ele>105.7</ele>
        <time>2011-02-20T08:43:27Z</time>
      </trkpt>
      <trkpt lat="43.59881" lon="3.76124">
        <ele>106.3</ele>
        <time>2011-02-20T08:43:29Z</time>
      </trkpt>
      <trkpt lat="43.59879" lon="3.76115">
        <ele>106.6</ele>
        <time>2011-02-20T08:43:31Z</time>
      </trkpt>
      <trkpt lat="43.59877" lon="3.76105">
        <ele>106.9</ele>
        <time>2011-02-20T08:43:33Z</time>
      </trkpt>
      <trkpt lat="43.59874" lon="3.76096">
        <ele>107.1</ele>
        <time>2011-02-20T08:43:35Z</time>
      </trkpt>
      <trkpt lat="43.59871" lon="3.76087">
        <ele>106.4</ele>
        <time>2011-02-20T08:43:37Z</time>
      </trkpt>
      <trkpt lat="43.59868" lon="3.76079">
        <ele>106.1</ele>
        <time>2011-02-20T08:43:39Z</time>
      </trkpt>
      <trkpt lat="43.59865" lon="3.76071">
        <ele>107.2</ele>
        <time>2011-02-20T08:43:41Z</time>
      </trkpt>
      <trkpt lat="43.5986" lon="3.76062">
        <ele>108.3</ele>
        <time>2011-02-20T08:43:44Z</time>
      </trkpt>
      <trkpt lat="43.59857" lon="3.76055">
        <ele>109</ele>
        <time>2011-02-20T08:43:46Z</time>
      </trkpt>
      <trkpt lat="43.59854" lon="3.76047">
        <ele>109.7</ele>
        <time>2011-02-20T08:43:48Z</time>
      </trkpt>
      <trkpt lat="43.59851" lon="3.76039">
        <ele>110</ele>
        <time>2011-02-20T08:43:50Z</time>
      </trkpt>
      <trkpt lat="43.59849" lon="3.76031">
        <ele>109.8</ele>
        <time>2011-02-20T08:43:52Z</time>
      </trkpt>
      <trkpt lat="43.59846" lon="3.76023">
        <ele>109.4</ele>
        <time>2011-02-20T08:43:54Z</time>
      </trkpt>
      <trkpt lat="43.59843" lon="3.76015">
        <ele>109.7</ele>
        <time>2011-02-20T08:43:56Z</time>
      </trkpt>
      <trkpt lat="43.5984" lon="3.76007">
        <ele>109.9</ele>
        <time>2011-02-20T08:43:58Z</time>
      </trkpt>
      <trkpt lat="43.59837" lon="3.75999">
        <ele>110.1</ele>
        <time>2011-02-20T08:44:00Z</time>
      </trkpt>
      <trkpt lat="43.59834" lon="3.75991">
        <ele>110.6</ele>
        <time>2011-02-20T08:44:02Z</time>
      </trkpt>
      <trkpt lat="43.5983" lon="3.75983">
        <ele>111.2</ele>
        <time>2011-02-20T08:44:04Z</time>
      </trkpt>
      <trkpt lat="43.59825" lon="3.75977">
        <ele>111.7</ele>
        <time>2011-02-20T08:44:06Z</time>
      </trkpt>
      <trkpt lat="43.59818" lon="3.75977">
        <ele>112.1</ele>
        <time>2011-02-20T08:44:08Z</time>
      </trkpt>
      <trkpt lat="43.5981" lon="3.75981">
        <ele>113.3</ele>
        <time>2011-02-20T08:44:11Z</time>
      </trkpt>
      <trkpt lat="43.59801" lon="3.75983">
        <ele>114.6</ele>
        <time>2011-02-20T08:44:14Z</time>
      </trkpt>
      <trkpt lat="43.59795" lon="3.75984">
        <ele>115</ele>
        <time>2011-02-20T08:44:16Z</time>
      </trkpt>
      <trkpt lat="43.59787" lon="3.7598">
        <ele>115.5</ele>
        <time>2011-02-20T08:44:19Z</time>
      </trkpt>
      <trkpt lat="43.59785" lon="3.75978">
        <ele>115.6</ele>
        <time>2011-02-20T08:44:20Z</time>
      </trkpt>
      <trkpt lat="43.59776" lon="3.75965">
        <ele>116.8</ele>
        <time>2011-02-20T08:44:26Z</time>
      </trkpt>
      <trkpt lat="43.59776" lon="3.75954">
        <ele>117.1</ele>
        <time>2011-02-20T08:44:30Z</time>
      </trkpt>
      <trkpt lat="43.59776" lon="3.75944">
        <ele>116.8</ele>
        <time>2011-02-20T08:44:33Z</time>
      </trkpt>
      <trkpt lat="43.59776" lon="3.75933">
        <ele>117.9</ele>
        <time>2011-02-20T08:44:36Z</time>
      </trkpt>
      <trkpt lat="43.59777" lon="3.75922">
        <ele>117.2</ele>
        <time>2011-02-20T08:44:39Z</time>
      </trkpt>
      <trkpt lat="43.59779" lon="3.75914">
        <ele>116.3</ele>
        <time>2011-02-20T08:44:41Z</time>
      </trkpt>
      <trkpt lat="43.59783" lon="3.75903">
        <ele>115.9</ele>
        <time>2011-02-20T08:44:44Z</time>
      </trkpt>
      <trkpt lat="43.5979" lon="3.75896">
        <ele>115.7</ele>
        <time>2011-02-20T08:44:47Z</time>
      </trkpt>
      <trkpt lat="43.59796" lon="3.75889">
        <ele>115.9</ele>
        <time>2011-02-20T08:44:50Z</time>
      </trkpt>
      <trkpt lat="43.59802" lon="3.75881">
        <ele>116.3</ele>
        <time>2011-02-20T08:44:53Z</time>
      </trkpt>
      <trkpt lat="43.59809" lon="3.75873">
        <ele>116.5</ele>
        <time>2011-02-20T08:44:56Z</time>
      </trkpt>
      <trkpt lat="43.59814" lon="3.75868">
        <ele>116.9</ele>
        <time>2011-02-20T08:44:58Z</time>
      </trkpt>
      <trkpt lat="43.59819" lon="3.75863">
        <ele>116.4</ele>
        <time>2011-02-20T08:45:00Z</time>
      </trkpt>
      <trkpt lat="43.59824" lon="3.75857">
        <ele>116.2</ele>
        <time>2011-02-20T08:45:02Z</time>
      </trkpt>
      <trkpt lat="43.59829" lon="3.75851">
        <ele>116.1</ele>
        <time>2011-02-20T08:45:04Z</time>
      </trkpt>
      <trkpt lat="43.59833" lon="3.75845">
        <ele>116.3</ele>
        <time>2011-02-20T08:45:06Z</time>
      </trkpt>
      <trkpt lat="43.59838" lon="3.75839">
        <ele>116.5</ele>
        <time>2011-02-20T08:45:08Z</time>
      </trkpt>
      <trkpt lat="43.59842" lon="3.75832">
        <ele>115.9</ele>
        <time>2011-02-20T08:45:10Z</time>
      </trkpt>
      <trkpt lat="43.59846" lon="3.75826">
        <ele>115.6</ele>
        <time>2011-02-20T08:45:12Z</time>
      </trkpt>
      <trkpt lat="43.5985" lon="3.75819">
        <ele>115.6</ele>
        <time>2011-02-20T08:45:14Z</time>
      </trkpt>
      <trkpt lat="43.59854" lon="3.75812">
        <ele>116.1</ele>
        <time>2011-02-20T08:45:16Z</time>
      </trkpt>
      <trkpt lat="43.59858" lon="3.75806">
        <ele>116.5</ele>
        <time>2011-02-20T08:45:18Z</time>
      </trkpt>
      <trkpt lat="43.59862" lon="3.75799">
        <ele>116.9</ele>
        <time>2011-02-20T08:45:20Z</time>
      </trkpt>
      <trkpt lat="43.59864" lon="3.75796">
        <ele>117</ele>
        <time>2011-02-20T08:45:21Z</time>
      </trkpt>
      <trkpt lat="43.59872" lon="3.75783">
        <ele>117.3</ele>
        <time>2011-02-20T08:45:25Z</time>
      </trkpt>
      <trkpt lat="43.59877" lon="3.75774">
        <ele>117.5</ele>
        <time>2011-02-20T08:45:28Z</time>
      </trkpt>
      <trkpt lat="43.59884" lon="3.75765">
        <ele>117.9</ele>
        <time>2011-02-20T08:45:31Z</time>
      </trkpt>
      <trkpt lat="43.59888" lon="3.75759">
        <ele>118.8</ele>
        <time>2011-02-20T08:45:33Z</time>
      </trkpt>
      <trkpt lat="43.59892" lon="3.75753">
        <ele>118.9</ele>
        <time>2011-02-20T08:45:35Z</time>
      </trkpt>
      <trkpt lat="43.59896" lon="3.75747">
        <ele>118.9</ele>
        <time>2011-02-20T08:45:37Z</time>
      </trkpt>
      <trkpt lat="43.599" lon="3.7574">
        <ele>119.4</ele>
        <time>2011-02-20T08:45:39Z</time>
      </trkpt>
      <trkpt lat="43.59907" lon="3.75731">
        <ele>120.9</ele>
        <time>2011-02-20T08:45:42Z</time>
      </trkpt>
      <trkpt lat="43.59914" lon="3.75724">
        <ele>122.1</ele>
        <time>2011-02-20T08:45:45Z</time>
      </trkpt>
      <trkpt lat="43.5992" lon="3.75717">
        <ele>122.2</ele>
        <time>2011-02-20T08:45:48Z</time>
      </trkpt>
      <trkpt lat="43.59927" lon="3.75711">
        <ele>122.4</ele>
        <time>2011-02-20T08:45:51Z</time>
      </trkpt>
      <trkpt lat="43.59934" lon="3.75706">
        <ele>122.7</ele>
        <time>2011-02-20T08:45:54Z</time>
      </trkpt>
      <trkpt lat="43.59941" lon="3.75702">
        <ele>123.6</ele>
        <time>2011-02-20T08:45:57Z</time>
      </trkpt>
      <trkpt lat="43.59947" lon="3.75697">
        <ele>124.4</ele>
        <time>2011-02-20T08:46:00Z</time>
      </trkpt>
      <trkpt lat="43.59954" lon="3.7569">
        <ele>124.4</ele>
        <time>2011-02-20T08:46:03Z</time>
      </trkpt>
      <trkpt lat="43.59958" lon="3.75684">
        <ele>124.9</ele>
        <time>2011-02-20T08:46:05Z</time>
      </trkpt>
      <trkpt lat="43.59963" lon="3.75678">
        <ele>125.5</ele>
        <time>2011-02-20T08:46:07Z</time>
      </trkpt>
      <trkpt lat="43.59968" lon="3.75672">
        <ele>125.1</ele>
        <time>2011-02-20T08:46:09Z</time>
      </trkpt>
      <trkpt lat="43.59974" lon="3.75667">
        <ele>124.5</ele>
        <time>2011-02-20T08:46:11Z</time>
      </trkpt>
      <trkpt lat="43.5998" lon="3.75661">
        <ele>124.2</ele>
        <time>2011-02-20T08:46:13Z</time>
      </trkpt>
      <trkpt lat="43.59986" lon="3.75654">
        <ele>124.1</ele>
        <time>2011-02-20T08:46:15Z</time>
      </trkpt>
      <trkpt lat="43.59991" lon="3.75646">
        <ele>123.8</ele>
        <time>2011-02-20T08:46:17Z</time>
      </trkpt>
      <trkpt lat="43.59994" lon="3.75636">
        <ele>123.2</ele>
        <time>2011-02-20T08:46:19Z</time>
      </trkpt>
      <trkpt lat="43.59999" lon="3.75628">
        <ele>122.6</ele>
        <time>2011-02-20T08:46:21Z</time>
      </trkpt>
      <trkpt lat="43.60001" lon="3.75624">
        <ele>122.6</ele>
        <time>2011-02-20T08:46:22Z</time>
      </trkpt>
      <trkpt lat="43.60007" lon="3.75613">
        <ele>122.6</ele>
        <time>2011-02-20T08:46:25Z</time>
      </trkpt>
      <trkpt lat="43.6001" lon="3.75606">
        <ele>122.2</ele>
        <time>2011-02-20T08:46:27Z</time>
      </trkpt>
      <trkpt lat="43.60014" lon="3.75599">
        <ele>121.8</ele>
        <time>2011-02-20T08:46:29Z</time>
      </trkpt>
      <trkpt lat="43.60019" lon="3.75591">
        <ele>121.4</ele>
        <time>2011-02-20T08:46:31Z</time>
      </trkpt>
      <trkpt lat="43.60024" lon="3.75583">
        <ele>121.3</ele>
        <time>2011-02-20T08:46:33Z</time>
      </trkpt>
      <trkpt lat="43.6003" lon="3.75576">
        <ele>120.8</ele>
        <time>2011-02-20T08:46:35Z</time>
      </trkpt>
      <trkpt lat="43.60036" lon="3.75569">
        <ele>120.1</ele>
        <time>2011-02-20T08:46:37Z</time>
      </trkpt>
      <trkpt lat="43.60042" lon="3.75562">
        <ele>119.2</ele>
        <time>2011-02-20T08:46:39Z</time>
      </trkpt>
      <trkpt lat="43.60049" lon="3.75555">
        <ele>118.8</ele>
        <time>2011-02-20T08:46:41Z</time>
      </trkpt>
      <trkpt lat="43.60055" lon="3.75548">
        <ele>118.6</ele>
        <time>2011-02-20T08:46:43Z</time>
      </trkpt>
      <trkpt lat="43.60061" lon="3.75541">
        <ele>118.2</ele>
        <time>2011-02-20T08:46:45Z</time>
      </trkpt>
      <trkpt lat="43.60067" lon="3.75535">
        <ele>117.9</ele>
        <time>2011-02-20T08:46:47Z</time>
      </trkpt>
      <trkpt lat="43.60072" lon="3.75528">
        <ele>118.4</ele>
        <time>2011-02-20T08:46:49Z</time>
      </trkpt>
      <trkpt lat="43.60078" lon="3.75522">
        <ele>118.6</ele>
        <time>2011-02-20T08:46:51Z</time>
      </trkpt>
      <trkpt lat="43.60084" lon="3.75515">
        <ele>118.8</ele>
        <time>2011-02-20T08:46:53Z</time>
      </trkpt>
      <trkpt lat="43.6009" lon="3.75508">
        <ele>118.9</ele>
        <time>2011-02-20T08:46:55Z</time>
      </trkpt>
      <trkpt lat="43.60096" lon="3.75501">
        <ele>118.8</ele>
        <time>2011-02-20T08:46:57Z</time>
      </trkpt>
      <trkpt lat="43.60102" lon="3.75494">
        <ele>118.5</ele>
        <time>2011-02-20T08:46:59Z</time>
      </trkpt>
      <trkpt lat="43.60109" lon="3.75488">
        <ele>118.5</ele>
        <time>2011-02-20T08:47:01Z</time>
      </trkpt>
      <trkpt lat="43.60114" lon="3.75481">
        <ele>118.6</ele>
        <time>2011-02-20T08:47:03Z</time>
      </trkpt>
      <trkpt lat="43.6012" lon="3.75474">
        <ele>117.7</ele>
        <time>2011-02-20T08:47:05Z</time>
      </trkpt>
      <trkpt lat="43.60126" lon="3.75465">
        <ele>117.9</ele>
        <time>2011-02-20T08:47:07Z</time>
      </trkpt>
      <trkpt lat="43.60131" lon="3.75458">
        <ele>118.4</ele>
        <time>2011-02-20T08:47:09Z</time>
      </trkpt>
      <trkpt lat="43.60137" lon="3.75451">
        <ele>118.1</ele>
        <time>2011-02-20T08:47:11Z</time>
      </trkpt>
      <trkpt lat="43.60143" lon="3.75446">
        <ele>118.3</ele>
        <time>2011-02-20T08:47:13Z</time>
      </trkpt>
      <trkpt lat="43.60149" lon="3.75442">
        <ele>118.6</ele>
        <time>2011-02-20T08:47:15Z</time>
      </trkpt>
      <trkpt lat="43.60155" lon="3.75437">
        <ele>118.9</ele>
        <time>2011-02-20T08:47:17Z</time>
      </trkpt>
      <trkpt lat="43.60161" lon="3.75432">
        <ele>119.2</ele>
        <time>2011-02-20T08:47:19Z</time>
      </trkpt>
      <trkpt lat="43.60167" lon="3.75424">
        <ele>119</ele>
        <time>2011-02-20T08:47:21Z</time>
      </trkpt>
      <trkpt lat="43.60171" lon="3.75421">
        <ele>118.9</ele>
        <time>2011-02-20T08:47:22Z</time>
      </trkpt>
      <trkpt lat="43.60175" lon="3.75416">
        <ele>118.1</ele>
        <time>2011-02-20T08:47:23Z</time>
      </trkpt>
      <trkpt lat="43.60178" lon="3.75412">
        <ele>117.5</ele>
        <time>2011-02-20T08:47:24Z</time>
      </trkpt>
      <trkpt lat="43.60182" lon="3.75407">
        <ele>117</ele>
        <time>2011-02-20T08:47:25Z</time>
      </trkpt>
      <trkpt lat="43.60187" lon="3.75401">
        <ele>116.1</ele>
        <time>2011-02-20T08:47:26Z</time>
      </trkpt>
      <trkpt lat="43.60191" lon="3.75396">
        <ele>115.4</ele>
        <time>2011-02-20T08:47:27Z</time>
      </trkpt>
      <trkpt lat="43.60196" lon="3.7539">
        <ele>114.9</ele>
        <time>2011-02-20T08:47:28Z</time>
      </trkpt>
      <trkpt lat="43.60201" lon="3.75385">
        <ele>114.1</ele>
        <time>2011-02-20T08:47:29Z</time>
      </trkpt>
      <trkpt lat="43.60206" lon="3.75379">
        <ele>113.5</ele>
        <time>2011-02-20T08:47:30Z</time>
      </trkpt>
      <trkpt lat="43.60211" lon="3.75373">
        <ele>113</ele>
        <time>2011-02-20T08:47:31Z</time>
      </trkpt>
      <trkpt lat="43.60216" lon="3.75366">
        <ele>112.7</ele>
        <time>2011-02-20T08:47:32Z</time>
      </trkpt>
      <trkpt lat="43.60221" lon="3.7536">
        <ele>112.5</ele>
        <time>2011-02-20T08:47:33Z</time>
      </trkpt>
      <trkpt lat="43.60227" lon="3.75354">
        <ele>112.4</ele>
        <time>2011-02-20T08:47:34Z</time>
      </trkpt>
      <trkpt lat="43.60232" lon="3.75348">
        <ele>112.3</ele>
        <time>2011-02-20T08:47:35Z</time>
      </trkpt>
      <trkpt lat="43.60238" lon="3.75342">
        <ele>112</ele>
        <time>2011-02-20T08:47:36Z</time>
      </trkpt>
      <trkpt lat="43.60244" lon="3.75336">
        <ele>111.8</ele>
        <time>2011-02-20T08:47:37Z</time>
      </trkpt>
      <trkpt lat="43.6025" lon="3.7533">
        <ele>111.7</ele>
        <time>2011-02-20T08:47:38Z</time>
      </trkpt>
      <trkpt lat="43.60255" lon="3.75324">
        <ele>111.4</ele>
        <time>2011-02-20T08:47:39Z</time>
      </trkpt>
      <trkpt lat="43.60261" lon="3.75319">
        <ele>111.2</ele>
        <time>2011-02-20T08:47:40Z</time>
      </trkpt>
      <trkpt lat="43.60266" lon="3.75314">
        <ele>111</ele>
        <time>2011-02-20T08:47:41Z</time>
      </trkpt>
      <trkpt lat="43.60271" lon="3.75308">
        <ele>110.4</ele>
        <time>2011-02-20T08:47:42Z</time>
      </trkpt>
      <trkpt lat="43.60276" lon="3.75302">
        <ele>110</ele>
        <time>2011-02-20T08:47:43Z</time>
      </trkpt>
      <trkpt lat="43.60281" lon="3.75297">
        <ele>109.7</ele>
        <time>2011-02-20T08:47:44Z</time>
      </trkpt>
      <trkpt lat="43.60285" lon="3.75291">
        <ele>109.5</ele>
        <time>2011-02-20T08:47:45Z</time>
      </trkpt>
      <trkpt lat="43.60289" lon="3.75285">
        <ele>109.4</ele>
        <time>2011-02-20T08:47:46Z</time>
      </trkpt>
      <trkpt lat="43.60294" lon="3.75279">
        <ele>109.4</ele>
        <time>2011-02-20T08:47:47Z</time>
      </trkpt>
      <trkpt lat="43.60299" lon="3.75273">
        <ele>109.4</ele>
        <time>2011-02-20T08:47:48Z</time>
      </trkpt>
      <trkpt lat="43.60303" lon="3.75267">
        <ele>109.5</ele>
        <time>2011-02-20T08:47:49Z</time>
      </trkpt>
      <trkpt lat="43.60307" lon="3.75261">
        <ele>109.5</ele>
        <time>2011-02-20T08:47:50Z</time>
      </trkpt>
      <trkpt lat="43.60311" lon="3.75255">
        <ele>109.6</ele>
        <time>2011-02-20T08:47:51Z</time>
      </trkpt>
      <trkpt lat="43.60315" lon="3.7525">
        <ele>109.5</ele>
        <time>2011-02-20T08:47:52Z</time>
      </trkpt>
      <trkpt lat="43.60318" lon="3.75244">
        <ele>109.5</ele>
        <time>2011-02-20T08:47:53Z</time>
      </trkpt>
      <trkpt lat="43.60321" lon="3.75239">
        <ele>109.5</ele>
        <time>2011-02-20T08:47:54Z</time>
      </trkpt>
      <trkpt lat="43.60325" lon="3.75234">
        <ele>109.7</ele>
        <time>2011-02-20T08:47:55Z</time>
      </trkpt>
      <trkpt lat="43.60328" lon="3.75229">
        <ele>109.8</ele>
        <time>2011-02-20T08:47:56Z</time>
      </trkpt>
      <trkpt lat="43.60332" lon="3.75224">
        <ele>109.9</ele>
        <time>2011-02-20T08:47:57Z</time>
      </trkpt>
      <trkpt lat="43.60335" lon="3.7522">
        <ele>109.9</ele>
        <time>2011-02-20T08:47:58Z</time>
      </trkpt>
      <trkpt lat="43.60339" lon="3.75216">
        <ele>109.8</ele>
        <time>2011-02-20T08:47:59Z</time>
      </trkpt>
      <trkpt lat="43.60345" lon="3.75207">
        <ele>109.8</ele>
        <time>2011-02-20T08:48:01Z</time>
      </trkpt>
      <trkpt lat="43.60348" lon="3.75202">
        <ele>109.8</ele>
        <time>2011-02-20T08:48:02Z</time>
      </trkpt>
      <trkpt lat="43.60351" lon="3.75198">
        <ele>109.8</ele>
        <time>2011-02-20T08:48:03Z</time>
      </trkpt>
      <trkpt lat="43.60354" lon="3.75193">
        <ele>109.7</ele>
        <time>2011-02-20T08:48:04Z</time>
      </trkpt>
      <trkpt lat="43.60358" lon="3.75189">
        <ele>109.6</ele>
        <time>2011-02-20T08:48:05Z</time>
      </trkpt>
      <trkpt lat="43.60361" lon="3.75184">
        <ele>109.6</ele>
        <time>2011-02-20T08:48:06Z</time>
      </trkpt>
      <trkpt lat="43.60364" lon="3.75179">
        <ele>109.5</ele>
        <time>2011-02-20T08:48:07Z</time>
      </trkpt>
      <trkpt lat="43.60367" lon="3.75175">
        <ele>110</ele>
        <time>2011-02-20T08:48:08Z</time>
      </trkpt>
      <trkpt lat="43.6037" lon="3.7517">
        <ele>110.3</ele>
        <time>2011-02-20T08:48:09Z</time>
      </trkpt>
      <trkpt lat="43.60373" lon="3.75165">
        <ele>110.6</ele>
        <time>2011-02-20T08:48:10Z</time>
      </trkpt>
      <trkpt lat="43.60377" lon="3.75161">
        <ele>110.2</ele>
        <time>2011-02-20T08:48:11Z</time>
      </trkpt>
      <trkpt lat="43.6038" lon="3.75156">
        <ele>109.9</ele>
        <time>2011-02-20T08:48:12Z</time>
      </trkpt>
      <trkpt lat="43.60383" lon="3.75152">
        <ele>109.7</ele>
        <time>2011-02-20T08:48:13Z</time>
      </trkpt>
      <trkpt lat="43.60387" lon="3.75148">
        <ele>109.5</ele>
        <time>2011-02-20T08:48:14Z</time>
      </trkpt>
      <trkpt lat="43.60393" lon="3.75139">
        <ele>109.3</ele>
        <time>2011-02-20T08:48:16Z</time>
      </trkpt>
      <trkpt lat="43.60397" lon="3.75135">
        <ele>109.5</ele>
        <time>2011-02-20T08:48:17Z</time>
      </trkpt>
      <trkpt lat="43.604" lon="3.75131">
        <ele>109.6</ele>
        <time>2011-02-20T08:48:18Z</time>
      </trkpt>
      <trkpt lat="43.60404" lon="3.75127">
        <ele>109.7</ele>
        <time>2011-02-20T08:48:19Z</time>
      </trkpt>
      <trkpt lat="43.60407" lon="3.75122">
        <ele>110.1</ele>
        <time>2011-02-20T08:48:20Z</time>
      </trkpt>
      <trkpt lat="43.6041" lon="3.75118">
        <ele>110.4</ele>
        <time>2011-02-20T08:48:21Z</time>
      </trkpt>
      <trkpt lat="43.60414" lon="3.75113">
        <ele>110.6</ele>
        <time>2011-02-20T08:48:22Z</time>
      </trkpt>
      <trkpt lat="43.60417" lon="3.75109">
        <ele>110.7</ele>
        <time>2011-02-20T08:48:23Z</time>
      </trkpt>
      <trkpt lat="43.6042" lon="3.75104">
        <ele>110.6</ele>
        <time>2011-02-20T08:48:24Z</time>
      </trkpt>
      <trkpt lat="43.60428" lon="3.75091">
        <ele>110.2</ele>
        <time>2011-02-20T08:48:27Z</time>
      </trkpt>
      <trkpt lat="43.60434" lon="3.75081">
        <ele>109.9</ele>
        <time>2011-02-20T08:48:29Z</time>
      </trkpt>
      <trkpt lat="43.60437" lon="3.75076">
        <ele>109.8</ele>
        <time>2011-02-20T08:48:30Z</time>
      </trkpt>
      <trkpt lat="43.6044" lon="3.75071">
        <ele>109.8</ele>
        <time>2011-02-20T08:48:31Z</time>
      </trkpt>
      <trkpt lat="43.60442" lon="3.75066">
        <ele>109.8</ele>
        <time>2011-02-20T08:48:32Z</time>
      </trkpt>
      <trkpt lat="43.60445" lon="3.75061">
        <ele>109.3</ele>
        <time>2011-02-20T08:48:33Z</time>
      </trkpt>
      <trkpt lat="43.60449" lon="3.75055">
        <ele>108.9</ele>
        <time>2011-02-20T08:48:34Z</time>
      </trkpt>
      <trkpt lat="43.60452" lon="3.75049">
        <ele>108.7</ele>
        <time>2011-02-20T08:48:35Z</time>
      </trkpt>
      <trkpt lat="43.60455" lon="3.75043">
        <ele>108.6</ele>
        <time>2011-02-20T08:48:36Z</time>
      </trkpt>
      <trkpt lat="43.60459" lon="3.75035">
        <ele>108.6</ele>
        <time>2011-02-20T08:48:38Z</time>
      </trkpt>
      <trkpt lat="43.60467" lon="3.75031">
        <ele>108.6</ele>
        <time>2011-02-20T08:48:42Z</time>
      </trkpt>
      <trkpt lat="43.60473" lon="3.75027">
        <ele>114.6</ele>
        <time>2011-02-20T08:48:45Z</time>
      </trkpt>
      <trkpt lat="43.6048" lon="3.75022">
        <ele>111.8</ele>
        <time>2011-02-20T08:48:48Z</time>
      </trkpt>
      <trkpt lat="43.60485" lon="3.75017">
        <ele>110.5</ele>
        <time>2011-02-20T08:48:50Z</time>
      </trkpt>
      <trkpt lat="43.60491" lon="3.75011">
        <ele>109.4</ele>
        <time>2011-02-20T08:48:52Z</time>
      </trkpt>
      <trkpt lat="43.60497" lon="3.75006">
        <ele>108.5</ele>
        <time>2011-02-20T08:48:54Z</time>
      </trkpt>
      <trkpt lat="43.60503" lon="3.75001">
        <ele>108.5</ele>
        <time>2011-02-20T08:48:56Z</time>
      </trkpt>
      <trkpt lat="43.60509" lon="3.74996">
        <ele>108.5</ele>
        <time>2011-02-20T08:48:58Z</time>
      </trkpt>
      <trkpt lat="43.60515" lon="3.7499">
        <ele>108.9</ele>
        <time>2011-02-20T08:49:00Z</time>
      </trkpt>
      <trkpt lat="43.60521" lon="3.74984">
        <ele>109.1</ele>
        <time>2011-02-20T08:49:02Z</time>
      </trkpt>
      <trkpt lat="43.60527" lon="3.74979">
        <ele>109.3</ele>
        <time>2011-02-20T08:49:04Z</time>
      </trkpt>
      <trkpt lat="43.60533" lon="3.74973">
        <ele>109.5</ele>
        <time>2011-02-20T08:49:06Z</time>
      </trkpt>
      <trkpt lat="43.60539" lon="3.74965">
        <ele>109.8</ele>
        <time>2011-02-20T08:49:08Z</time>
      </trkpt>
      <trkpt lat="43.60543" lon="3.74957">
        <ele>110</ele>
        <time>2011-02-20T08:49:10Z</time>
      </trkpt>
      <trkpt lat="43.60547" lon="3.74949">
        <ele>109.9</ele>
        <time>2011-02-20T08:49:12Z</time>
      </trkpt>
      <trkpt lat="43.6055" lon="3.7494">
        <ele>109.7</ele>
        <time>2011-02-20T08:49:14Z</time>
      </trkpt>
      <trkpt lat="43.60552" lon="3.74932">
        <ele>110.9</ele>
        <time>2011-02-20T08:49:16Z</time>
      </trkpt>
      <trkpt lat="43.60554" lon="3.74924">
        <ele>111.6</ele>
        <time>2011-02-20T08:49:18Z</time>
      </trkpt>
      <trkpt lat="43.60556" lon="3.74915">
        <ele>112</ele>
        <time>2011-02-20T08:49:20Z</time>
      </trkpt>
      <trkpt lat="43.60559" lon="3.74908">
        <ele>112.4</ele>
        <time>2011-02-20T08:49:22Z</time>
      </trkpt>
      <trkpt lat="43.60562" lon="3.749">
        <ele>113.5</ele>
        <time>2011-02-20T08:49:24Z</time>
      </trkpt>
      <trkpt lat="43.60563" lon="3.74896">
        <ele>114.2</ele>
        <time>2011-02-20T08:49:25Z</time>
      </trkpt>
      <trkpt lat="43.60565" lon="3.7488">
        <ele>114.7</ele>
        <time>2011-02-20T08:49:29Z</time>
      </trkpt>
      <trkpt lat="43.60567" lon="3.74872">
        <ele>114.7</ele>
        <time>2011-02-20T08:49:31Z</time>
      </trkpt>
      <trkpt lat="43.6057" lon="3.7486">
        <ele>115.3</ele>
        <time>2011-02-20T08:49:34Z</time>
      </trkpt>
      <trkpt lat="43.60573" lon="3.7485">
        <ele>116.6</ele>
        <time>2011-02-20T08:49:37Z</time>
      </trkpt>
      <trkpt lat="43.60576" lon="3.74842">
        <ele>117.1</ele>
        <time>2011-02-20T08:49:39Z</time>
      </trkpt>
      <trkpt lat="43.60578" lon="3.74834">
        <ele>117.4</ele>
        <time>2011-02-20T08:49:41Z</time>
      </trkpt>
      <trkpt lat="43.60581" lon="3.74826">
        <ele>117.7</ele>
        <time>2011-02-20T08:49:43Z</time>
      </trkpt>
      <trkpt lat="43.60584" lon="3.74819">
        <ele>118</ele>
        <time>2011-02-20T08:49:45Z</time>
      </trkpt>
      <trkpt lat="43.60587" lon="3.74811">
        <ele>118</ele>
        <time>2011-02-20T08:49:47Z</time>
      </trkpt>
      <trkpt lat="43.60589" lon="3.74799">
        <ele>118</ele>
        <time>2011-02-20T08:49:50Z</time>
      </trkpt>
      <trkpt lat="43.60591" lon="3.74788">
        <ele>118.8</ele>
        <time>2011-02-20T08:49:53Z</time>
      </trkpt>
      <trkpt lat="43.60592" lon="3.74775">
        <ele>119.2</ele>
        <time>2011-02-20T08:49:56Z</time>
      </trkpt>
      <trkpt lat="43.60594" lon="3.74763">
        <ele>119.5</ele>
        <time>2011-02-20T08:49:59Z</time>
      </trkpt>
      <trkpt lat="43.60594" lon="3.74752">
        <ele>119.9</ele>
        <time>2011-02-20T08:50:02Z</time>
      </trkpt>
      <trkpt lat="43.60593" lon="3.7474">
        <ele>120.3</ele>
        <time>2011-02-20T08:50:05Z</time>
      </trkpt>
      <trkpt lat="43.60591" lon="3.74728">
        <ele>122</ele>
        <time>2011-02-20T08:50:08Z</time>
      </trkpt>
      <trkpt lat="43.60591" lon="3.74716">
        <ele>121.6</ele>
        <time>2011-02-20T08:50:11Z</time>
      </trkpt>
      <trkpt lat="43.60591" lon="3.74704">
        <ele>122.1</ele>
        <time>2011-02-20T08:50:14Z</time>
      </trkpt>
      <trkpt lat="43.60592" lon="3.74692">
        <ele>121.9</ele>
        <time>2011-02-20T08:50:17Z</time>
      </trkpt>
      <trkpt lat="43.60594" lon="3.74681">
        <ele>122.4</ele>
        <time>2011-02-20T08:50:20Z</time>
      </trkpt>
      <trkpt lat="43.60596" lon="3.7467">
        <ele>122.6</ele>
        <time>2011-02-20T08:50:23Z</time>
      </trkpt>
      <trkpt lat="43.606" lon="3.74658">
        <ele>123</ele>
        <time>2011-02-20T08:50:26Z</time>
      </trkpt>
      <trkpt lat="43.60601" lon="3.74654">
        <ele>123.2</ele>
        <time>2011-02-20T08:50:27Z</time>
      </trkpt>
      <trkpt lat="43.60605" lon="3.74638">
        <ele>123.1</ele>
        <time>2011-02-20T08:50:31Z</time>
      </trkpt>
      <trkpt lat="43.60608" lon="3.7463">
        <ele>123.5</ele>
        <time>2011-02-20T08:50:33Z</time>
      </trkpt>
      <trkpt lat="43.6061" lon="3.74622">
        <ele>123.3</ele>
        <time>2011-02-20T08:50:35Z</time>
      </trkpt>
      <trkpt lat="43.60613" lon="3.74613">
        <ele>123.2</ele>
        <time>2011-02-20T08:50:37Z</time>
      </trkpt>
      <trkpt lat="43.60616" lon="3.74604">
        <ele>122.6</ele>
        <time>2011-02-20T08:50:39Z</time>
      </trkpt>
      <trkpt lat="43.60619" lon="3.74595">
        <ele>122.5</ele>
        <time>2011-02-20T08:50:41Z</time>
      </trkpt>
      <trkpt lat="43.60623" lon="3.74587">
        <ele>122.6</ele>
        <time>2011-02-20T08:50:43Z</time>
      </trkpt>
      <trkpt lat="43.60629" lon="3.74587">
        <ele>122.7</ele>
        <time>2011-02-20T08:50:45Z</time>
      </trkpt>
      <trkpt lat="43.60635" lon="3.74594">
        <ele>122.6</ele>
        <time>2011-02-20T08:50:47Z</time>
      </trkpt>
      <trkpt lat="43.60639" lon="3.74596">
        <ele>122.5</ele>
        <time>2011-02-20T08:50:48Z</time>
      </trkpt>
      <trkpt lat="43.60644" lon="3.74597">
        <ele>122.4</ele>
        <time>2011-02-20T08:50:49Z</time>
      </trkpt>
      <trkpt lat="43.60649" lon="3.74599">
        <ele>121.7</ele>
        <time>2011-02-20T08:50:50Z</time>
      </trkpt>
      <trkpt lat="43.60655" lon="3.74601">
        <ele>121.1</ele>
        <time>2011-02-20T08:50:51Z</time>
      </trkpt>
      <trkpt lat="43.6066" lon="3.74604">
        <ele>120.7</ele>
        <time>2011-02-20T08:50:52Z</time>
      </trkpt>
      <trkpt lat="43.60665" lon="3.74607">
        <ele>120.4</ele>
        <time>2011-02-20T08:50:53Z</time>
      </trkpt>
      <trkpt lat="43.60671" lon="3.74609">
        <ele>119.9</ele>
        <time>2011-02-20T08:50:54Z</time>
      </trkpt>
      <trkpt lat="43.60677" lon="3.74613">
        <ele>119.5</ele>
        <time>2011-02-20T08:50:55Z</time>
      </trkpt>
      <trkpt lat="43.60682" lon="3.74616">
        <ele>119.2</ele>
        <time>2011-02-20T08:50:56Z</time>
      </trkpt>
      <trkpt lat="43.60688" lon="3.7462">
        <ele>118.7</ele>
        <time>2011-02-20T08:50:57Z</time>
      </trkpt>
      <trkpt lat="43.60694" lon="3.74623">
        <ele>118.4</ele>
        <time>2011-02-20T08:50:58Z</time>
      </trkpt>
      <trkpt lat="43.607" lon="3.74626">
        <ele>118.1</ele>
        <time>2011-02-20T08:50:59Z</time>
      </trkpt>
      <trkpt lat="43.60706" lon="3.74629">
        <ele>117.2</ele>
        <time>2011-02-20T08:51:00Z</time>
      </trkpt>
      <trkpt lat="43.60712" lon="3.74631">
        <ele>116.5</ele>
        <time>2011-02-20T08:51:01Z</time>
      </trkpt>
      <trkpt lat="43.60718" lon="3.74633">
        <ele>116</ele>
        <time>2011-02-20T08:51:02Z</time>
      </trkpt>
      <trkpt lat="43.60724" lon="3.74636">
        <ele>115.4</ele>
        <time>2011-02-20T08:51:03Z</time>
      </trkpt>
      <trkpt lat="43.60729" lon="3.74641">
        <ele>114.9</ele>
        <time>2011-02-20T08:51:04Z</time>
      </trkpt>
      <trkpt lat="43.60734" lon="3.74645">
        <ele>114.5</ele>
        <time>2011-02-20T08:51:05Z</time>
      </trkpt>
      <trkpt lat="43.60739" lon="3.74649">
        <ele>114.2</ele>
        <time>2011-02-20T08:51:06Z</time>
      </trkpt>
      <trkpt lat="43.60744" lon="3.74653">
        <ele>113.9</ele>
        <time>2011-02-20T08:51:07Z</time>
      </trkpt>
      <trkpt lat="43.60748" lon="3.74657">
        <ele>113.7</ele>
        <time>2011-02-20T08:51:08Z</time>
      </trkpt>
      <trkpt lat="43.60752" lon="3.74662">
        <ele>113.6</ele>
        <time>2011-02-20T08:51:09Z</time>
      </trkpt>
      <trkpt lat="43.60756" lon="3.74666">
        <ele>113.6</ele>
        <time>2011-02-20T08:51:10Z</time>
      </trkpt>
      <trkpt lat="43.60759" lon="3.74676">
        <ele>113.6</ele>
        <time>2011-02-20T08:51:12Z</time>
      </trkpt>
      <trkpt lat="43.60761" lon="3.74686">
        <ele>115.3</ele>
        <time>2011-02-20T08:51:14Z</time>
      </trkpt>
      <trkpt lat="43.60764" lon="3.74697">
        <ele>117</ele>
        <time>2011-02-20T08:51:17Z</time>
      </trkpt>
      <trkpt lat="43.60772" lon="3.74693">
        <ele>118.9</ele>
        <time>2011-02-20T08:51:21Z</time>
      </trkpt>
      <trkpt lat="43.6078" lon="3.74694">
        <ele>121.9</ele>
        <time>2011-02-20T08:51:30Z</time>
      </trkpt>
      <trkpt lat="43.60782" lon="3.74694">
        <ele>122</ele>
        <time>2011-02-20T08:51:31Z</time>
      </trkpt>
      <trkpt lat="43.60794" lon="3.74693">
        <ele>122.4</ele>
        <time>2011-02-20T08:51:37Z</time>
      </trkpt>
      <trkpt lat="43.60801" lon="3.74692">
        <ele>122.3</ele>
        <time>2011-02-20T08:51:40Z</time>
      </trkpt>
      <trkpt lat="43.60808" lon="3.74691">
        <ele>122.7</ele>
        <time>2011-02-20T08:51:43Z</time>
      </trkpt>
      <trkpt lat="43.60815" lon="3.7469">
        <ele>123.3</ele>
        <time>2011-02-20T08:51:46Z</time>
      </trkpt>
      <trkpt lat="43.60822" lon="3.74689">
        <ele>123.4</ele>
        <time>2011-02-20T08:51:49Z</time>
      </trkpt>
      <trkpt lat="43.60829" lon="3.7469">
        <ele>124.3</ele>
        <time>2011-02-20T08:51:52Z</time>
      </trkpt>
      <trkpt lat="43.60837" lon="3.74691">
        <ele>124.9</ele>
        <time>2011-02-20T08:51:55Z</time>
      </trkpt>
      <trkpt lat="43.60844" lon="3.74692">
        <ele>124.6</ele>
        <time>2011-02-20T08:51:58Z</time>
      </trkpt>
      <trkpt lat="43.60851" lon="3.74691">
        <ele>124.7</ele>
        <time>2011-02-20T08:52:01Z</time>
      </trkpt>
      <trkpt lat="43.60858" lon="3.7469">
        <ele>125.7</ele>
        <time>2011-02-20T08:52:04Z</time>
      </trkpt>
      <trkpt lat="43.60865" lon="3.74691">
        <ele>126.6</ele>
        <time>2011-02-20T08:52:07Z</time>
      </trkpt>
      <trkpt lat="43.60872" lon="3.74692">
        <ele>126.4</ele>
        <time>2011-02-20T08:52:10Z</time>
      </trkpt>
      <trkpt lat="43.6088" lon="3.74691">
        <ele>126.6</ele>
        <time>2011-02-20T08:52:13Z</time>
      </trkpt>
      <trkpt lat="43.60888" lon="3.7469">
        <ele>127.5</ele>
        <time>2011-02-20T08:52:16Z</time>
      </trkpt>
      <trkpt lat="43.60896" lon="3.74688">
        <ele>127.9</ele>
        <time>2011-02-20T08:52:19Z</time>
      </trkpt>
      <trkpt lat="43.60904" lon="3.74685">
        <ele>126.7</ele>
        <time>2011-02-20T08:52:22Z</time>
      </trkpt>
      <trkpt lat="43.60912" lon="3.7468">
        <ele>127.3</ele>
        <time>2011-02-20T08:52:25Z</time>
      </trkpt>
      <trkpt lat="43.6092" lon="3.74677">
        <ele>127.9</ele>
        <time>2011-02-20T08:52:28Z</time>
      </trkpt>
      <trkpt lat="43.60927" lon="3.74673">
        <ele>127.7</ele>
        <time>2011-02-20T08:52:31Z</time>
      </trkpt>
      <trkpt lat="43.60929" lon="3.74672">
        <ele>127.6</ele>
        <time>2011-02-20T08:52:32Z</time>
      </trkpt>
      <trkpt lat="43.6094" lon="3.74664">
        <ele>126.9</ele>
        <time>2011-02-20T08:52:37Z</time>
      </trkpt>
      <trkpt lat="43.60947" lon="3.7466">
        <ele>126.1</ele>
        <time>2011-02-20T08:52:40Z</time>
      </trkpt>
      <trkpt lat="43.60954" lon="3.74654">
        <ele>125.7</ele>
        <time>2011-02-20T08:52:43Z</time>
      </trkpt>
      <trkpt lat="43.6096" lon="3.74649">
        <ele>125.5</ele>
        <time>2011-02-20T08:52:46Z</time>
      </trkpt>
      <trkpt lat="43.60967" lon="3.74643">
        <ele>125.7</ele>
        <time>2011-02-20T08:52:49Z</time>
      </trkpt>
      <trkpt lat="43.60974" lon="3.74636">
        <ele>125.8</ele>
        <time>2011-02-20T08:52:52Z</time>
      </trkpt>
      <trkpt lat="43.60979" lon="3.7463">
        <ele>125.7</ele>
        <time>2011-02-20T08:52:55Z</time>
      </trkpt>
      <trkpt lat="43.60984" lon="3.74623">
        <ele>126</ele>
        <time>2011-02-20T08:52:58Z</time>
      </trkpt>
      <trkpt lat="43.60989" lon="3.74617">
        <ele>126.2</ele>
        <time>2011-02-20T08:53:01Z</time>
      </trkpt>
      <trkpt lat="43.60995" lon="3.7461">
        <ele>126.4</ele>
        <time>2011-02-20T08:53:04Z</time>
      </trkpt>
      <trkpt lat="43.61003" lon="3.74606">
        <ele>126.2</ele>
        <time>2011-02-20T08:53:07Z</time>
      </trkpt>
      <trkpt lat="43.61008" lon="3.74602">
        <ele>126.5</ele>
        <time>2011-02-20T08:53:09Z</time>
      </trkpt>
      <trkpt lat="43.61013" lon="3.74596">
        <ele>126.4</ele>
        <time>2011-02-20T08:53:11Z</time>
      </trkpt>
      <trkpt lat="43.6102" lon="3.7459">
        <ele>126.1</ele>
        <time>2011-02-20T08:53:13Z</time>
      </trkpt>
      <trkpt lat="43.61027" lon="3.74585">
        <ele>125.7</ele>
        <time>2011-02-20T08:53:15Z</time>
      </trkpt>
      <trkpt lat="43.61034" lon="3.74578">
        <ele>124.9</ele>
        <time>2011-02-20T08:53:17Z</time>
      </trkpt>
      <trkpt lat="43.6104" lon="3.7457">
        <ele>124.1</ele>
        <time>2011-02-20T08:53:19Z</time>
      </trkpt>
      <trkpt lat="43.61045" lon="3.74562">
        <ele>123.9</ele>
        <time>2011-02-20T08:53:21Z</time>
      </trkpt>
      <trkpt lat="43.6105" lon="3.74555">
        <ele>123.7</ele>
        <time>2011-02-20T08:53:23Z</time>
      </trkpt>
      <trkpt lat="43.61054" lon="3.74548">
        <ele>123.7</ele>
        <time>2011-02-20T08:53:25Z</time>
      </trkpt>
      <trkpt lat="43.61059" lon="3.74541">
        <ele>123.8</ele>
        <time>2011-02-20T08:53:27Z</time>
      </trkpt>
      <trkpt lat="43.61063" lon="3.74535">
        <ele>124.1</ele>
        <time>2011-02-20T08:53:29Z</time>
      </trkpt>
      <trkpt lat="43.61069" lon="3.74531">
        <ele>124.5</ele>
        <time>2011-02-20T08:53:31Z</time>
      </trkpt>
      <trkpt lat="43.61077" lon="3.74527">
        <ele>125.2</ele>
        <time>2011-02-20T08:53:34Z</time>
      </trkpt>
      <trkpt lat="43.6108" lon="3.74527">
        <ele>125.4</ele>
        <time>2011-02-20T08:53:35Z</time>
      </trkpt>
      <trkpt lat="43.61092" lon="3.7453">
        <ele>127.2</ele>
        <time>2011-02-20T08:53:39Z</time>
      </trkpt>
      <trkpt lat="43.61099" lon="3.7453">
        <ele>126.6</ele>
        <time>2011-02-20T08:53:41Z</time>
      </trkpt>
      <trkpt lat="43.61106" lon="3.74528">
        <ele>126.6</ele>
        <time>2011-02-20T08:53:43Z</time>
      </trkpt>
      <trkpt lat="43.61112" lon="3.74525">
        <ele>126.8</ele>
        <time>2011-02-20T08:53:45Z</time>
      </trkpt>
      <trkpt lat="43.61118" lon="3.74522">
        <ele>127.7</ele>
        <time>2011-02-20T08:53:47Z</time>
      </trkpt>
      <trkpt lat="43.61124" lon="3.74518">
        <ele>128.1</ele>
        <time>2011-02-20T08:53:49Z</time>
      </trkpt>
      <trkpt lat="43.6113" lon="3.74514">
        <ele>128.3</ele>
        <time>2011-02-20T08:53:51Z</time>
      </trkpt>
      <trkpt lat="43.61137" lon="3.7451">
        <ele>129.3</ele>
        <time>2011-02-20T08:53:53Z</time>
      </trkpt>
      <trkpt lat="43.61143" lon="3.74506">
        <ele>129.8</ele>
        <time>2011-02-20T08:53:55Z</time>
      </trkpt>
      <trkpt lat="43.61149" lon="3.74502">
        <ele>130.9</ele>
        <time>2011-02-20T08:53:57Z</time>
      </trkpt>
      <trkpt lat="43.61155" lon="3.74498">
        <ele>131.3</ele>
        <time>2011-02-20T08:53:59Z</time>
      </trkpt>
      <trkpt lat="43.61161" lon="3.74494">
        <ele>131.5</ele>
        <time>2011-02-20T08:54:01Z</time>
      </trkpt>
      <trkpt lat="43.61168" lon="3.7449">
        <ele>132.8</ele>
        <time>2011-02-20T08:54:04Z</time>
      </trkpt>
      <trkpt lat="43.61176" lon="3.74491">
        <ele>134.2</ele>
        <time>2011-02-20T08:54:52Z</time>
      </trkpt>
      <trkpt lat="43.61177" lon="3.74493">
        <ele>134.4</ele>
        <time>2011-02-20T08:54:53Z</time>
      </trkpt>
      <trkpt lat="43.61181" lon="3.74512">
        <ele>134.3</ele>
        <time>2011-02-20T08:55:01Z</time>
      </trkpt>
      <trkpt lat="43.61184" lon="3.74523">
        <ele>133.9</ele>
        <time>2011-02-20T08:55:05Z</time>
      </trkpt>
      <trkpt lat="43.61185" lon="3.74534">
        <ele>134</ele>
        <time>2011-02-20T08:55:09Z</time>
      </trkpt>
      <trkpt lat="43.61187" lon="3.74545">
        <ele>133.7</ele>
        <time>2011-02-20T08:55:12Z</time>
      </trkpt>
      <trkpt lat="43.61189" lon="3.74556">
        <ele>133.3</ele>
        <time>2011-02-20T08:55:15Z</time>
      </trkpt>
      <trkpt lat="43.61191" lon="3.74567">
        <ele>133.3</ele>
        <time>2011-02-20T08:55:18Z</time>
      </trkpt>
      <trkpt lat="43.61192" lon="3.74575">
        <ele>132.9</ele>
        <time>2011-02-20T08:55:20Z</time>
      </trkpt>
      <trkpt lat="43.61193" lon="3.74584">
        <ele>132.9</ele>
        <time>2011-02-20T08:55:22Z</time>
      </trkpt>
      <trkpt lat="43.61194" lon="3.74592">
        <ele>133</ele>
        <time>2011-02-20T08:55:24Z</time>
      </trkpt>
      <trkpt lat="43.61195" lon="3.74601">
        <ele>133.8</ele>
        <time>2011-02-20T08:55:26Z</time>
      </trkpt>
      <trkpt lat="43.61195" lon="3.7461">
        <ele>133.9</ele>
        <time>2011-02-20T08:55:28Z</time>
      </trkpt>
      <trkpt lat="43.61195" lon="3.7462">
        <ele>133.6</ele>
        <time>2011-02-20T08:55:30Z</time>
      </trkpt>
      <trkpt lat="43.61196" lon="3.74629">
        <ele>133.4</ele>
        <time>2011-02-20T08:55:32Z</time>
      </trkpt>
      <trkpt lat="43.61197" lon="3.74639">
        <ele>133.3</ele>
        <time>2011-02-20T08:55:34Z</time>
      </trkpt>
      <trkpt lat="43.61197" lon="3.74649">
        <ele>133.9</ele>
        <time>2011-02-20T08:55:36Z</time>
      </trkpt>
      <trkpt lat="43.61198" lon="3.7466">
        <ele>133.7</ele>
        <time>2011-02-20T08:55:38Z</time>
      </trkpt>
      <trkpt lat="43.61199" lon="3.74671">
        <ele>133.3</ele>
        <time>2011-02-20T08:55:40Z</time>
      </trkpt>
      <trkpt lat="43.61199" lon="3.74682">
        <ele>133.4</ele>
        <time>2011-02-20T08:55:42Z</time>
      </trkpt>
      <trkpt lat="43.61198" lon="3.74692">
        <ele>133.2</ele>
        <time>2011-02-20T08:55:44Z</time>
      </trkpt>
      <trkpt lat="43.61197" lon="3.74704">
        <ele>133</ele>
        <time>2011-02-20T08:55:46Z</time>
      </trkpt>
      <trkpt lat="43.61197" lon="3.74716">
        <ele>133.3</ele>
        <time>2011-02-20T08:55:48Z</time>
      </trkpt>
      <trkpt lat="43.61197" lon="3.74723">
        <ele>133.4</ele>
        <time>2011-02-20T08:55:49Z</time>
      </trkpt>
      <trkpt lat="43.61197" lon="3.74729">
        <ele>133</ele>
        <time>2011-02-20T08:55:50Z</time>
      </trkpt>
      <trkpt lat="43.61197" lon="3.74736">
        <ele>132.8</ele>
        <time>2011-02-20T08:55:51Z</time>
      </trkpt>
      <trkpt lat="43.61197" lon="3.74743">
        <ele>132.6</ele>
        <time>2011-02-20T08:55:52Z</time>
      </trkpt>
      <trkpt lat="43.61197" lon="3.7475">
        <ele>132.4</ele>
        <time>2011-02-20T08:55:53Z</time>
      </trkpt>
      <trkpt lat="43.61198" lon="3.74757">
        <ele>132.3</ele>
        <time>2011-02-20T08:55:54Z</time>
      </trkpt>
      <trkpt lat="43.61199" lon="3.74764">
        <ele>132.3</ele>
        <time>2011-02-20T08:55:55Z</time>
      </trkpt>
      <trkpt lat="43.612" lon="3.74772">
        <ele>132.2</ele>
        <time>2011-02-20T08:55:56Z</time>
      </trkpt>
      <trkpt lat="43.61201" lon="3.74779">
        <ele>131.8</ele>
        <time>2011-02-20T08:55:57Z</time>
      </trkpt>
      <trkpt lat="43.61202" lon="3.74788">
        <ele>131.4</ele>
        <time>2011-02-20T08:55:58Z</time>
      </trkpt>
      <trkpt lat="43.61203" lon="3.74796">
        <ele>131.2</ele>
        <time>2011-02-20T08:55:59Z</time>
      </trkpt>
      <trkpt lat="43.61204" lon="3.74804">
        <ele>130.8</ele>
        <time>2011-02-20T08:56:00Z</time>
      </trkpt>
      <trkpt lat="43.61206" lon="3.74813">
        <ele>130.6</ele>
        <time>2011-02-20T08:56:01Z</time>
      </trkpt>
      <trkpt lat="43.61207" lon="3.74822">
        <ele>130.4</ele>
        <time>2011-02-20T08:56:02Z</time>
      </trkpt>
      <trkpt lat="43.61208" lon="3.74832">
        <ele>130</ele>
        <time>2011-02-20T08:56:03Z</time>
      </trkpt>
      <trkpt lat="43.61209" lon="3.74841">
        <ele>129.8</ele>
        <time>2011-02-20T08:56:04Z</time>
      </trkpt>
      <trkpt lat="43.61211" lon="3.7485">
        <ele>129.6</ele>
        <time>2011-02-20T08:56:05Z</time>
      </trkpt>
      <trkpt lat="43.61212" lon="3.7486">
        <ele>129.5</ele>
        <time>2011-02-20T08:56:06Z</time>
      </trkpt>
      <trkpt lat="43.61214" lon="3.74869">
        <ele>129</ele>
        <time>2011-02-20T08:56:07Z</time>
      </trkpt>
      <trkpt lat="43.61216" lon="3.74878">
        <ele>128.6</ele>
        <time>2011-02-20T08:56:08Z</time>
      </trkpt>
      <trkpt lat="43.61218" lon="3.74887">
        <ele>128.3</ele>
        <time>2011-02-20T08:56:09Z</time>
      </trkpt>
      <trkpt lat="43.61221" lon="3.74896">
        <ele>128.1</ele>
        <time>2011-02-20T08:56:10Z</time>
      </trkpt>
      <trkpt lat="43.61222" lon="3.74905">
        <ele>128</ele>
        <time>2011-02-20T08:56:11Z</time>
      </trkpt>
      <trkpt lat="43.61224" lon="3.74914">
        <ele>127.9</ele>
        <time>2011-02-20T08:56:12Z</time>
      </trkpt>
      <trkpt lat="43.61226" lon="3.74923">
        <ele>127.8</ele>
        <time>2011-02-20T08:56:13Z</time>
      </trkpt>
      <trkpt lat="43.61227" lon="3.74932">
        <ele>127.7</ele>
        <time>2011-02-20T08:56:14Z</time>
      </trkpt>
      <trkpt lat="43.61228" lon="3.74941">
        <ele>127.6</ele>
        <time>2011-02-20T08:56:15Z</time>
      </trkpt>
      <trkpt lat="43.61228" lon="3.74951">
        <ele>127.4</ele>
        <time>2011-02-20T08:56:16Z</time>
      </trkpt>
      <trkpt lat="43.61227" lon="3.7496">
        <ele>127.2</ele>
        <time>2011-02-20T08:56:17Z</time>
      </trkpt>
      <trkpt lat="43.61227" lon="3.74968">
        <ele>127.1</ele>
        <time>2011-02-20T08:56:18Z</time>
      </trkpt>
      <trkpt lat="43.61226" lon="3.74977">
        <ele>126.9</ele>
        <time>2011-02-20T08:56:19Z</time>
      </trkpt>
      <trkpt lat="43.61226" lon="3.74985">
        <ele>126.7</ele>
        <time>2011-02-20T08:56:20Z</time>
      </trkpt>
      <trkpt lat="43.61226" lon="3.74994">
        <ele>126.6</ele>
        <time>2011-02-20T08:56:21Z</time>
      </trkpt>
      <trkpt lat="43.61225" lon="3.75001">
        <ele>126.5</ele>
        <time>2011-02-20T08:56:22Z</time>
      </trkpt>
      <trkpt lat="43.61226" lon="3.75009">
        <ele>126.5</ele>
        <time>2011-02-20T08:56:23Z</time>
      </trkpt>
      <trkpt lat="43.61226" lon="3.75017">
        <ele>126.4</ele>
        <time>2011-02-20T08:56:24Z</time>
      </trkpt>
      <trkpt lat="43.61226" lon="3.75024">
        <ele>126.4</ele>
        <time>2011-02-20T08:56:25Z</time>
      </trkpt>
      <trkpt lat="43.61227" lon="3.75031">
        <ele>126.5</ele>
        <time>2011-02-20T08:56:26Z</time>
      </trkpt>
      <trkpt lat="43.61227" lon="3.75039">
        <ele>126.7</ele>
        <time>2011-02-20T08:56:27Z</time>
      </trkpt>
      <trkpt lat="43.61228" lon="3.75046">
        <ele>126.8</ele>
        <time>2011-02-20T08:56:28Z</time>
      </trkpt>
      <trkpt lat="43.61229" lon="3.75053">
        <ele>126.7</ele>
        <time>2011-02-20T08:56:29Z</time>
      </trkpt>
      <trkpt lat="43.6123" lon="3.7506">
        <ele>126.7</ele>
        <time>2011-02-20T08:56:30Z</time>
      </trkpt>
      <trkpt lat="43.61231" lon="3.75067">
        <ele>126.7</ele>
        <time>2011-02-20T08:56:31Z</time>
      </trkpt>
      <trkpt lat="43.61232" lon="3.75074">
        <ele>126.6</ele>
        <time>2011-02-20T08:56:32Z</time>
      </trkpt>
      <trkpt lat="43.61234" lon="3.75081">
        <ele>126.5</ele>
        <time>2011-02-20T08:56:33Z</time>
      </trkpt>
      <trkpt lat="43.61235" lon="3.75087">
        <ele>126.4</ele>
        <time>2011-02-20T08:56:34Z</time>
      </trkpt>
      <trkpt lat="43.61236" lon="3.75095">
        <ele>126.5</ele>
        <time>2011-02-20T08:56:35Z</time>
      </trkpt>
      <trkpt lat="43.61238" lon="3.75102">
        <ele>126.5</ele>
        <time>2011-02-20T08:56:36Z</time>
      </trkpt>
      <trkpt lat="43.61239" lon="3.75109">
        <ele>126.6</ele>
        <time>2011-02-20T08:56:37Z</time>
      </trkpt>
      <trkpt lat="43.61241" lon="3.75116">
        <ele>126.1</ele>
        <time>2011-02-20T08:56:38Z</time>
      </trkpt>
      <trkpt lat="43.61243" lon="3.75122">
        <ele>125.8</ele>
        <time>2011-02-20T08:56:39Z</time>
      </trkpt>
      <trkpt lat="43.6125" lon="3.75128">
        <ele>125.3</ele>
        <time>2011-02-20T08:56:41Z</time>
      </trkpt>
      <trkpt lat="43.61257" lon="3.75126">
        <ele>125.8</ele>
        <time>2011-02-20T08:56:43Z</time>
      </trkpt>
      <trkpt lat="43.61263" lon="3.75124">
        <ele>126.1</ele>
        <time>2011-02-20T08:56:45Z</time>
      </trkpt>
      <trkpt lat="43.61272" lon="3.75121">
        <ele>126.5</ele>
        <time>2011-02-20T08:56:48Z</time>
      </trkpt>
      <trkpt lat="43.6128" lon="3.75119">
        <ele>127.2</ele>
        <time>2011-02-20T08:56:51Z</time>
      </trkpt>
      <trkpt lat="43.61288" lon="3.75115">
        <ele>128.1</ele>
        <time>2011-02-20T08:56:54Z</time>
      </trkpt>
      <trkpt lat="43.61297" lon="3.75111">
        <ele>128.6</ele>
        <time>2011-02-20T08:56:57Z</time>
      </trkpt>
      <trkpt lat="43.613" lon="3.75109">
        <ele>129.1</ele>
        <time>2011-02-20T08:56:58Z</time>
      </trkpt>
      <trkpt lat="43.61308" lon="3.75103">
        <ele>129.5</ele>
        <time>2011-02-20T08:57:01Z</time>
      </trkpt>
      <trkpt lat="43.61313" lon="3.75099">
        <ele>129.1</ele>
        <time>2011-02-20T08:57:03Z</time>
      </trkpt>
      <trkpt lat="43.6132" lon="3.75092">
        <ele>129.4</ele>
        <time>2011-02-20T08:57:06Z</time>
      </trkpt>
      <trkpt lat="43.61327" lon="3.75085">
        <ele>130.4</ele>
        <time>2011-02-20T08:57:09Z</time>
      </trkpt>
      <trkpt lat="43.61334" lon="3.75079">
        <ele>132</ele>
        <time>2011-02-20T08:57:12Z</time>
      </trkpt>
      <trkpt lat="43.6134" lon="3.75074">
        <ele>132.9</ele>
        <time>2011-02-20T08:57:15Z</time>
      </trkpt>
      <trkpt lat="43.61348" lon="3.75071">
        <ele>134.3</ele>
        <time>2011-02-20T08:57:20Z</time>
      </trkpt>
      <trkpt lat="43.61357" lon="3.75073">
        <ele>135.6</ele>
        <time>2011-02-20T08:57:25Z</time>
      </trkpt>
      <trkpt lat="43.61364" lon="3.75079">
        <ele>137.6</ele>
        <time>2011-02-20T08:57:29Z</time>
      </trkpt>
      <trkpt lat="43.61368" lon="3.75089">
        <ele>138.8</ele>
        <time>2011-02-20T08:57:33Z</time>
      </trkpt>
      <trkpt lat="43.61372" lon="3.75099">
        <ele>138.8</ele>
        <time>2011-02-20T08:57:37Z</time>
      </trkpt>
      <trkpt lat="43.61377" lon="3.75109">
        <ele>140.6</ele>
        <time>2011-02-20T08:57:42Z</time>
      </trkpt>
      <trkpt lat="43.61382" lon="3.75118">
        <ele>140.6</ele>
        <time>2011-02-20T08:57:46Z</time>
      </trkpt>
      <trkpt lat="43.61385" lon="3.75128">
        <ele>141</ele>
        <time>2011-02-20T08:57:50Z</time>
      </trkpt>
      <trkpt lat="43.61387" lon="3.75139">
        <ele>142.1</ele>
        <time>2011-02-20T08:57:54Z</time>
      </trkpt>
      <trkpt lat="43.6139" lon="3.75149">
        <ele>143.1</ele>
        <time>2011-02-20T08:57:57Z</time>
      </trkpt>
      <trkpt lat="43.61391" lon="3.75158">
        <ele>144.3</ele>
        <time>2011-02-20T08:58:00Z</time>
      </trkpt>
      <trkpt lat="43.61392" lon="3.75162">
        <ele>145</ele>
        <time>2011-02-20T08:58:01Z</time>
      </trkpt>
      <trkpt lat="43.61396" lon="3.75178">
        <ele>146.3</ele>
        <time>2011-02-20T08:58:06Z</time>
      </trkpt>
      <trkpt lat="43.61398" lon="3.75187">
        <ele>146.5</ele>
        <time>2011-02-20T08:58:09Z</time>
      </trkpt>
      <trkpt lat="43.61407" lon="3.75186">
        <ele>147.3</ele>
        <time>2011-02-20T08:58:14Z</time>
      </trkpt>
      <trkpt lat="43.61407" lon="3.75175">
        <ele>148.6</ele>
        <time>2011-02-20T08:58:18Z</time>
      </trkpt>
      <trkpt lat="43.61409" lon="3.75164">
        <ele>149.6</ele>
        <time>2011-02-20T08:58:22Z</time>
      </trkpt>
      <trkpt lat="43.61412" lon="3.75155">
        <ele>150.3</ele>
        <time>2011-02-20T08:58:25Z</time>
      </trkpt>
      <trkpt lat="43.61415" lon="3.75146">
        <ele>150.6</ele>
        <time>2011-02-20T08:58:28Z</time>
      </trkpt>
      <trkpt lat="43.61419" lon="3.75137">
        <ele>150.9</ele>
        <time>2011-02-20T08:58:31Z</time>
      </trkpt>
      <trkpt lat="43.61423" lon="3.75129">
        <ele>151.4</ele>
        <time>2011-02-20T08:58:34Z</time>
      </trkpt>
      <trkpt lat="43.61428" lon="3.75121">
        <ele>153.5</ele>
        <time>2011-02-20T08:58:38Z</time>
      </trkpt>
      <trkpt lat="43.61433" lon="3.75111">
        <ele>152.9</ele>
        <time>2011-02-20T08:58:43Z</time>
      </trkpt>
      <trkpt lat="43.61438" lon="3.75101">
        <ele>152.7</ele>
        <time>2011-02-20T08:58:47Z</time>
      </trkpt>
      <trkpt lat="43.61443" lon="3.75094">
        <ele>152.2</ele>
        <time>2011-02-20T08:58:50Z</time>
      </trkpt>
      <trkpt lat="43.61448" lon="3.75087">
        <ele>152</ele>
        <time>2011-02-20T08:58:53Z</time>
      </trkpt>
      <trkpt lat="43.61452" lon="3.75076">
        <ele>151.1</ele>
        <time>2011-02-20T08:59:02Z</time>
      </trkpt>
      <trkpt lat="43.61452" lon="3.75076">
        <ele>151.7</ele>
        <time>2011-02-20T08:59:03Z</time>
      </trkpt>
      <trkpt lat="43.61452" lon="3.75063">
        <ele>150.9</ele>
        <time>2011-02-20T09:00:41Z</time>
      </trkpt>
      <trkpt lat="43.61461" lon="3.75056">
        <ele>150.8</ele>
        <time>2011-02-20T09:00:45Z</time>
      </trkpt>
      <trkpt lat="43.61468" lon="3.75053">
        <ele>150.3</ele>
        <time>2011-02-20T09:00:47Z</time>
      </trkpt>
      <trkpt lat="43.61476" lon="3.75055">
        <ele>149.4</ele>
        <time>2011-02-20T09:00:50Z</time>
      </trkpt>
      <trkpt lat="43.61483" lon="3.75054">
        <ele>148.4</ele>
        <time>2011-02-20T09:00:53Z</time>
      </trkpt>
      <trkpt lat="43.61491" lon="3.75057">
        <ele>144.9</ele>
        <time>2011-02-20T09:00:58Z</time>
      </trkpt>
      <trkpt lat="43.61498" lon="3.75058">
        <ele>141</ele>
        <time>2011-02-20T09:01:03Z</time>
      </trkpt>
      <trkpt lat="43.61506" lon="3.75056">
        <ele>138.5</ele>
        <time>2011-02-20T09:01:06Z</time>
      </trkpt>
      <trkpt lat="43.61514" lon="3.75052">
        <ele>136.1</ele>
        <time>2011-02-20T09:01:09Z</time>
      </trkpt>
      <trkpt lat="43.61523" lon="3.7505">
        <ele>133.6</ele>
        <time>2011-02-20T09:01:12Z</time>
      </trkpt>
      <trkpt lat="43.6153" lon="3.75047">
        <ele>132.3</ele>
        <time>2011-02-20T09:01:14Z</time>
      </trkpt>
      <trkpt lat="43.61535" lon="3.75046">
        <ele>131.9</ele>
        <time>2011-02-20T09:01:15Z</time>
      </trkpt>
      <trkpt lat="43.6154" lon="3.75044">
        <ele>130.8</ele>
        <time>2011-02-20T09:01:16Z</time>
      </trkpt>
      <trkpt lat="43.61545" lon="3.75041">
        <ele>130</ele>
        <time>2011-02-20T09:01:17Z</time>
      </trkpt>
      <trkpt lat="43.6155" lon="3.75039">
        <ele>129.3</ele>
        <time>2011-02-20T09:01:18Z</time>
      </trkpt>
      <trkpt lat="43.61555" lon="3.75035">
        <ele>128.4</ele>
        <time>2011-02-20T09:01:19Z</time>
      </trkpt>
      <trkpt lat="43.61559" lon="3.75032">
        <ele>127.6</ele>
        <time>2011-02-20T09:01:20Z</time>
      </trkpt>
      <trkpt lat="43.61568" lon="3.75029">
        <ele>126.3</ele>
        <time>2011-02-20T09:01:22Z</time>
      </trkpt>
      <trkpt lat="43.61572" lon="3.75028">
        <ele>125.6</ele>
        <time>2011-02-20T09:01:23Z</time>
      </trkpt>
      <trkpt lat="43.61577" lon="3.75029">
        <ele>125.2</ele>
        <time>2011-02-20T09:01:24Z</time>
      </trkpt>
      <trkpt lat="43.61582" lon="3.75031">
        <ele>124.8</ele>
        <time>2011-02-20T09:01:25Z</time>
      </trkpt>
      <trkpt lat="43.61587" lon="3.75033">
        <ele>123.7</ele>
        <time>2011-02-20T09:01:26Z</time>
      </trkpt>
      <trkpt lat="43.61592" lon="3.75034">
        <ele>122.8</ele>
        <time>2011-02-20T09:01:27Z</time>
      </trkpt>
      <trkpt lat="43.61596" lon="3.75036">
        <ele>122.1</ele>
        <time>2011-02-20T09:01:28Z</time>
      </trkpt>
      <trkpt lat="43.616" lon="3.7504">
        <ele>121</ele>
        <time>2011-02-20T09:01:29Z</time>
      </trkpt>
      <trkpt lat="43.61605" lon="3.75045">
        <ele>120.2</ele>
        <time>2011-02-20T09:01:30Z</time>
      </trkpt>
      <trkpt lat="43.61611" lon="3.75052">
        <ele>118.8</ele>
        <time>2011-02-20T09:01:32Z</time>
      </trkpt>
      <trkpt lat="43.61619" lon="3.75051">
        <ele>116.3</ele>
        <time>2011-02-20T09:01:37Z</time>
      </trkpt>
      <trkpt lat="43.61628" lon="3.75053">
        <ele>115.9</ele>
        <time>2011-02-20T09:01:40Z</time>
      </trkpt>
      <trkpt lat="43.61636" lon="3.75057">
        <ele>114.9</ele>
        <time>2011-02-20T09:01:42Z</time>
      </trkpt>
      <trkpt lat="43.61639" lon="3.75059">
        <ele>114.2</ele>
        <time>2011-02-20T09:01:43Z</time>
      </trkpt>
      <trkpt lat="43.61645" lon="3.75067">
        <ele>113.4</ele>
        <time>2011-02-20T09:01:45Z</time>
      </trkpt>
      <trkpt lat="43.61649" lon="3.75071">
        <ele>113.2</ele>
        <time>2011-02-20T09:01:46Z</time>
      </trkpt>
      <trkpt lat="43.61652" lon="3.75076">
        <ele>113</ele>
        <time>2011-02-20T09:01:47Z</time>
      </trkpt>
      <trkpt lat="43.61656" lon="3.7508">
        <ele>112.5</ele>
        <time>2011-02-20T09:01:48Z</time>
      </trkpt>
      <trkpt lat="43.6166" lon="3.75085">
        <ele>112.1</ele>
        <time>2011-02-20T09:01:49Z</time>
      </trkpt>
      <trkpt lat="43.61663" lon="3.7509">
        <ele>111.9</ele>
        <time>2011-02-20T09:01:50Z</time>
      </trkpt>
      <trkpt lat="43.61666" lon="3.75097">
        <ele>110.8</ele>
        <time>2011-02-20T09:01:51Z</time>
      </trkpt>
      <trkpt lat="43.61669" lon="3.75103">
        <ele>110</ele>
        <time>2011-02-20T09:01:52Z</time>
      </trkpt>
      <trkpt lat="43.61672" lon="3.7511">
        <ele>109.3</ele>
        <time>2011-02-20T09:01:53Z</time>
      </trkpt>
      <trkpt lat="43.61678" lon="3.75119">
        <ele>108.4</ele>
        <time>2011-02-20T09:01:55Z</time>
      </trkpt>
      <trkpt lat="43.61686" lon="3.75121">
        <ele>107.9</ele>
        <time>2011-02-20T09:01:57Z</time>
      </trkpt>
      <trkpt lat="43.61693" lon="3.7512">
        <ele>106.7</ele>
        <time>2011-02-20T09:02:00Z</time>
      </trkpt>
      <trkpt lat="43.61702" lon="3.75124">
        <ele>107.3</ele>
        <time>2011-02-20T09:02:08Z</time>
      </trkpt>
      <trkpt lat="43.61709" lon="3.75128">
        <ele>106.6</ele>
        <time>2011-02-20T09:02:19Z</time>
      </trkpt>
      <trkpt lat="43.61717" lon="3.75133">
        <ele>106.8</ele>
        <time>2011-02-20T09:02:40Z</time>
      </trkpt>
      <trkpt lat="43.61725" lon="3.75127">
        <ele>107.4</ele>
        <time>2011-02-20T09:05:09Z</time>
      </trkpt>
      <trkpt lat="43.61726" lon="3.75126">
        <ele>107.2</ele>
        <time>2011-02-20T09:05:10Z</time>
      </trkpt>
      <trkpt lat="43.61738" lon="3.75116">
        <ele>105.8</ele>
        <time>2011-02-20T09:05:18Z</time>
      </trkpt>
      <trkpt lat="43.61744" lon="3.7511">
        <ele>105.9</ele>
        <time>2011-02-20T09:05:21Z</time>
      </trkpt>
      <trkpt lat="43.61751" lon="3.75103">
        <ele>105.8</ele>
        <time>2011-02-20T09:05:24Z</time>
      </trkpt>
      <trkpt lat="43.61756" lon="3.75098">
        <ele>105.9</ele>
        <time>2011-02-20T09:05:26Z</time>
      </trkpt>
      <trkpt lat="43.61762" lon="3.75094">
        <ele>105.9</ele>
        <time>2011-02-20T09:05:28Z</time>
      </trkpt>
      <trkpt lat="43.61768" lon="3.7509">
        <ele>105.9</ele>
        <time>2011-02-20T09:05:30Z</time>
      </trkpt>
      <trkpt lat="43.61774" lon="3.75087">
        <ele>106.1</ele>
        <time>2011-02-20T09:05:32Z</time>
      </trkpt>
      <trkpt lat="43.6178" lon="3.75084">
        <ele>106.3</ele>
        <time>2011-02-20T09:05:34Z</time>
      </trkpt>
      <trkpt lat="43.61786" lon="3.75081">
        <ele>106.2</ele>
        <time>2011-02-20T09:05:36Z</time>
      </trkpt>
      <trkpt lat="43.61792" lon="3.75075">
        <ele>106.6</ele>
        <time>2011-02-20T09:05:38Z</time>
      </trkpt>
      <trkpt lat="43.61796" lon="3.75068">
        <ele>107.2</ele>
        <time>2011-02-20T09:05:40Z</time>
      </trkpt>
      <trkpt lat="43.61802" lon="3.75075">
        <ele>106.6</ele>
        <time>2011-02-20T09:05:48Z</time>
      </trkpt>
      <trkpt lat="43.618" lon="3.75086">
        <ele>106.4</ele>
        <time>2011-02-20T09:05:50Z</time>
      </trkpt>
      <trkpt lat="43.61797" lon="3.75096">
        <ele>105.8</ele>
        <time>2011-02-20T09:05:52Z</time>
      </trkpt>
      <trkpt lat="43.61797" lon="3.75108">
        <ele>105.2</ele>
        <time>2011-02-20T09:05:55Z</time>
      </trkpt>
      <trkpt lat="43.61797" lon="3.75115">
        <ele>105.3</ele>
        <time>2011-02-20T09:05:57Z</time>
      </trkpt>
      <trkpt lat="43.61796" lon="3.75125">
        <ele>105.6</ele>
        <time>2011-02-20T09:05:59Z</time>
      </trkpt>
      <trkpt lat="43.61805" lon="3.75127">
        <ele>105.5</ele>
        <time>2011-02-20T09:06:03Z</time>
      </trkpt>
      <trkpt lat="43.6181" lon="3.75122">
        <ele>105.1</ele>
        <time>2011-02-20T09:06:05Z</time>
      </trkpt>
      <trkpt lat="43.61816" lon="3.75117">
        <ele>104.8</ele>
        <time>2011-02-20T09:06:07Z</time>
      </trkpt>
      <trkpt lat="43.61822" lon="3.75112">
        <ele>104.5</ele>
        <time>2011-02-20T09:06:09Z</time>
      </trkpt>
      <trkpt lat="43.61828" lon="3.75108">
        <ele>104.8</ele>
        <time>2011-02-20T09:06:11Z</time>
      </trkpt>
      <trkpt lat="43.61831" lon="3.75106">
        <ele>104.9</ele>
        <time>2011-02-20T09:06:12Z</time>
      </trkpt>
      <trkpt lat="43.61839" lon="3.75099">
        <ele>105.2</ele>
        <time>2011-02-20T09:06:15Z</time>
      </trkpt>
      <trkpt lat="43.61846" lon="3.75097">
        <ele>105.7</ele>
        <time>2011-02-20T09:06:17Z</time>
      </trkpt>
      <trkpt lat="43.61852" lon="3.75094">
        <ele>105.7</ele>
        <time>2011-02-20T09:06:19Z</time>
      </trkpt>
      <trkpt lat="43.61859" lon="3.75092">
        <ele>105.6</ele>
        <time>2011-02-20T09:06:21Z</time>
      </trkpt>
      <trkpt lat="43.61865" lon="3.75091">
        <ele>105.8</ele>
        <time>2011-02-20T09:06:23Z</time>
      </trkpt>
      <trkpt lat="43.61872" lon="3.75089">
        <ele>105.9</ele>
        <time>2011-02-20T09:06:25Z</time>
      </trkpt>
      <trkpt lat="43.61879" lon="3.75088">
        <ele>106</ele>
        <time>2011-02-20T09:06:27Z</time>
      </trkpt>
      <trkpt lat="43.61886" lon="3.75087">
        <ele>106</ele>
        <time>2011-02-20T09:06:29Z</time>
      </trkpt>
      <trkpt lat="43.61892" lon="3.75085">
        <ele>105.9</ele>
        <time>2011-02-20T09:06:31Z</time>
      </trkpt>
      <trkpt lat="43.61899" lon="3.75083">
        <ele>106.2</ele>
        <time>2011-02-20T09:06:33Z</time>
      </trkpt>
      <trkpt lat="43.61906" lon="3.7508">
        <ele>106.4</ele>
        <time>2011-02-20T09:06:35Z</time>
      </trkpt>
      <trkpt lat="43.61912" lon="3.75078">
        <ele>106.6</ele>
        <time>2011-02-20T09:06:37Z</time>
      </trkpt>
      <trkpt lat="43.61918" lon="3.75074">
        <ele>106.9</ele>
        <time>2011-02-20T09:06:39Z</time>
      </trkpt>
      <trkpt lat="43.61924" lon="3.75071">
        <ele>107</ele>
        <time>2011-02-20T09:06:41Z</time>
      </trkpt>
      <trkpt lat="43.6193" lon="3.75068">
        <ele>107.5</ele>
        <time>2011-02-20T09:06:43Z</time>
      </trkpt>
      <trkpt lat="43.61936" lon="3.75063">
        <ele>107.3</ele>
        <time>2011-02-20T09:06:45Z</time>
      </trkpt>
      <trkpt lat="43.61942" lon="3.7506">
        <ele>106.7</ele>
        <time>2011-02-20T09:06:47Z</time>
      </trkpt>
      <trkpt lat="43.61948" lon="3.75055">
        <ele>106.8</ele>
        <time>2011-02-20T09:06:49Z</time>
      </trkpt>
      <trkpt lat="43.61954" lon="3.7505">
        <ele>107.2</ele>
        <time>2011-02-20T09:06:51Z</time>
      </trkpt>
      <trkpt lat="43.61959" lon="3.75046">
        <ele>107.7</ele>
        <time>2011-02-20T09:06:53Z</time>
      </trkpt>
      <trkpt lat="43.61965" lon="3.75043">
        <ele>107.7</ele>
        <time>2011-02-20T09:06:55Z</time>
      </trkpt>
      <trkpt lat="43.61971" lon="3.75041">
        <ele>107.7</ele>
        <time>2011-02-20T09:06:57Z</time>
      </trkpt>
      <trkpt lat="43.61977" lon="3.75038">
        <ele>108</ele>
        <time>2011-02-20T09:06:59Z</time>
      </trkpt>
      <trkpt lat="43.61985" lon="3.75035">
        <ele>108.3</ele>
        <time>2011-02-20T09:07:02Z</time>
      </trkpt>
      <trkpt lat="43.61992" lon="3.75029">
        <ele>107.7</ele>
        <time>2011-02-20T09:07:05Z</time>
      </trkpt>
      <trkpt lat="43.61999" lon="3.75023">
        <ele>108.5</ele>
        <time>2011-02-20T09:07:08Z</time>
      </trkpt>
      <trkpt lat="43.62007" lon="3.75017">
        <ele>108.6</ele>
        <time>2011-02-20T09:07:11Z</time>
      </trkpt>
      <trkpt lat="43.62013" lon="3.75007">
        <ele>108.7</ele>
        <time>2011-02-20T09:07:14Z</time>
      </trkpt>
      <trkpt lat="43.62015" lon="3.75004">
        <ele>108.8</ele>
        <time>2011-02-20T09:07:15Z</time>
      </trkpt>
      <trkpt lat="43.62021" lon="3.74987">
        <ele>109.5</ele>
        <time>2011-02-20T09:07:20Z</time>
      </trkpt>
      <trkpt lat="43.62026" lon="3.74981">
        <ele>109.5</ele>
        <time>2011-02-20T09:07:22Z</time>
      </trkpt>
      <trkpt lat="43.62029" lon="3.74973">
        <ele>109.6</ele>
        <time>2011-02-20T09:07:24Z</time>
      </trkpt>
      <trkpt lat="43.62033" lon="3.74962">
        <ele>109.4</ele>
        <time>2011-02-20T09:07:27Z</time>
      </trkpt>
      <trkpt lat="43.62035" lon="3.74954">
        <ele>109.2</ele>
        <time>2011-02-20T09:07:29Z</time>
      </trkpt>
      <trkpt lat="43.62039" lon="3.74944">
        <ele>108.3</ele>
        <time>2011-02-20T09:07:32Z</time>
      </trkpt>
      <trkpt lat="43.62043" lon="3.74936">
        <ele>108.1</ele>
        <time>2011-02-20T09:07:35Z</time>
      </trkpt>
      <trkpt lat="43.62048" lon="3.74932">
        <ele>107.9</ele>
        <time>2011-02-20T09:07:37Z</time>
      </trkpt>
      <trkpt lat="43.62054" lon="3.74928">
        <ele>107.9</ele>
        <time>2011-02-20T09:07:39Z</time>
      </trkpt>
      <trkpt lat="43.62056" lon="3.7492">
        <ele>108</ele>
        <time>2011-02-20T09:07:41Z</time>
      </trkpt>
      <trkpt lat="43.62057" lon="3.74912">
        <ele>108.1</ele>
        <time>2011-02-20T09:07:43Z</time>
      </trkpt>
      <trkpt lat="43.62058" lon="3.74899">
        <ele>108.7</ele>
        <time>2011-02-20T09:07:46Z</time>
      </trkpt>
      <trkpt lat="43.62058" lon="3.74887">
        <ele>108.8</ele>
        <time>2011-02-20T09:07:49Z</time>
      </trkpt>
      <trkpt lat="43.62058" lon="3.74875">
        <ele>108.9</ele>
        <time>2011-02-20T09:07:52Z</time>
      </trkpt>
      <trkpt lat="43.62063" lon="3.74867">
        <ele>109.4</ele>
        <time>2011-02-20T09:07:55Z</time>
      </trkpt>
      <trkpt lat="43.62067" lon="3.74857">
        <ele>109.8</ele>
        <time>2011-02-20T09:07:58Z</time>
      </trkpt>
      <trkpt lat="43.62073" lon="3.74848">
        <ele>109.9</ele>
        <time>2011-02-20T09:08:01Z</time>
      </trkpt>
      <trkpt lat="43.6208" lon="3.74841">
        <ele>110.5</ele>
        <time>2011-02-20T09:08:04Z</time>
      </trkpt>
      <trkpt lat="43.62087" lon="3.74835">
        <ele>110.5</ele>
        <time>2011-02-20T09:08:07Z</time>
      </trkpt>
      <trkpt lat="43.62089" lon="3.74826">
        <ele>110.7</ele>
        <time>2011-02-20T09:08:10Z</time>
      </trkpt>
      <trkpt lat="43.62088" lon="3.74815">
        <ele>110</ele>
        <time>2011-02-20T09:08:13Z</time>
      </trkpt>
      <trkpt lat="43.6209" lon="3.74807">
        <ele>110.7</ele>
        <time>2011-02-20T09:08:15Z</time>
      </trkpt>
      <trkpt lat="43.62091" lon="3.74798">
        <ele>111</ele>
        <time>2011-02-20T09:08:17Z</time>
      </trkpt>
      <trkpt lat="43.6209" lon="3.74794">
        <ele>111.1</ele>
        <time>2011-02-20T09:08:18Z</time>
      </trkpt>
      <trkpt lat="43.62088" lon="3.74778">
        <ele>111.3</ele>
        <time>2011-02-20T09:08:22Z</time>
      </trkpt>
      <trkpt lat="43.62088" lon="3.74766">
        <ele>111.4</ele>
        <time>2011-02-20T09:08:25Z</time>
      </trkpt>
      <trkpt lat="43.62088" lon="3.74755">
        <ele>111.3</ele>
        <time>2011-02-20T09:08:28Z</time>
      </trkpt>
      <trkpt lat="43.62089" lon="3.74745">
        <ele>110.8</ele>
        <time>2011-02-20T09:08:31Z</time>
      </trkpt>
      <trkpt lat="43.62088" lon="3.74736">
        <ele>110.7</ele>
        <time>2011-02-20T09:08:34Z</time>
      </trkpt>
      <trkpt lat="43.62088" lon="3.74725">
        <ele>110.5</ele>
        <time>2011-02-20T09:08:37Z</time>
      </trkpt>
      <trkpt lat="43.62086" lon="3.74715">
        <ele>110.4</ele>
        <time>2011-02-20T09:08:40Z</time>
      </trkpt>
      <trkpt lat="43.6208" lon="3.74707">
        <ele>110.6</ele>
        <time>2011-02-20T09:08:43Z</time>
      </trkpt>
      <trkpt lat="43.62073" lon="3.74701">
        <ele>110.8</ele>
        <time>2011-02-20T09:08:46Z</time>
      </trkpt>
      <trkpt lat="43.62064" lon="3.74699">
        <ele>111.3</ele>
        <time>2011-02-20T09:08:49Z</time>
      </trkpt>
      <trkpt lat="43.62056" lon="3.74698">
        <ele>111.6</ele>
        <time>2011-02-20T09:08:52Z</time>
      </trkpt>
      <trkpt lat="43.62049" lon="3.74691">
        <ele>112.1</ele>
        <time>2011-02-20T09:08:56Z</time>
      </trkpt>
      <trkpt lat="43.62051" lon="3.74681">
        <ele>112.8</ele>
        <time>2011-02-20T09:08:59Z</time>
      </trkpt>
      <trkpt lat="43.62053" lon="3.74672">
        <ele>113.4</ele>
        <time>2011-02-20T09:09:02Z</time>
      </trkpt>
      <trkpt lat="43.62055" lon="3.74662">
        <ele>114</ele>
        <time>2011-02-20T09:09:05Z</time>
      </trkpt>
      <trkpt lat="43.62056" lon="3.74652">
        <ele>114.4</ele>
        <time>2011-02-20T09:09:08Z</time>
      </trkpt>
      <trkpt lat="43.62051" lon="3.74644">
        <ele>115.2</ele>
        <time>2011-02-20T09:09:11Z</time>
      </trkpt>
      <trkpt lat="43.62043" lon="3.74644">
        <ele>116.4</ele>
        <time>2011-02-20T09:09:14Z</time>
      </trkpt>
      <trkpt lat="43.62036" lon="3.74642">
        <ele>116.2</ele>
        <time>2011-02-20T09:09:17Z</time>
      </trkpt>
      <trkpt lat="43.62029" lon="3.74641">
        <ele>117.1</ele>
        <time>2011-02-20T09:09:20Z</time>
      </trkpt>
      <trkpt lat="43.62026" lon="3.74641">
        <ele>117.3</ele>
        <time>2011-02-20T09:09:21Z</time>
      </trkpt>
      <trkpt lat="43.62013" lon="3.74639">
        <ele>118.2</ele>
        <time>2011-02-20T09:09:26Z</time>
      </trkpt>
      <trkpt lat="43.62006" lon="3.74639">
        <ele>119</ele>
        <time>2011-02-20T09:09:29Z</time>
      </trkpt>
      <trkpt lat="43.61999" lon="3.74638">
        <ele>119</ele>
        <time>2011-02-20T09:09:32Z</time>
      </trkpt>
      <trkpt lat="43.61991" lon="3.74638">
        <ele>119.8</ele>
        <time>2011-02-20T09:09:35Z</time>
      </trkpt>
      <trkpt lat="43.61984" lon="3.74638">
        <ele>120.1</ele>
        <time>2011-02-20T09:09:38Z</time>
      </trkpt>
      <trkpt lat="43.61977" lon="3.74638">
        <ele>120.6</ele>
        <time>2011-02-20T09:09:41Z</time>
      </trkpt>
      <trkpt lat="43.6197" lon="3.74638">
        <ele>121.1</ele>
        <time>2011-02-20T09:09:44Z</time>
      </trkpt>
      <trkpt lat="43.61963" lon="3.7464">
        <ele>121.4</ele>
        <time>2011-02-20T09:09:47Z</time>
      </trkpt>
      <trkpt lat="43.61956" lon="3.7464">
        <ele>121.7</ele>
        <time>2011-02-20T09:09:50Z</time>
      </trkpt>
      <trkpt lat="43.61949" lon="3.74637">
        <ele>122.1</ele>
        <time>2011-02-20T09:09:53Z</time>
      </trkpt>
      <trkpt lat="43.61942" lon="3.74634">
        <ele>122.9</ele>
        <time>2011-02-20T09:09:56Z</time>
      </trkpt>
      <trkpt lat="43.61935" lon="3.74631">
        <ele>123.9</ele>
        <time>2011-02-20T09:09:59Z</time>
      </trkpt>
      <trkpt lat="43.61928" lon="3.7463">
        <ele>124.5</ele>
        <time>2011-02-20T09:10:02Z</time>
      </trkpt>
      <trkpt lat="43.61921" lon="3.74628">
        <ele>124.7</ele>
        <time>2011-02-20T09:10:05Z</time>
      </trkpt>
      <trkpt lat="43.61914" lon="3.74627">
        <ele>126.6</ele>
        <time>2011-02-20T09:10:08Z</time>
      </trkpt>
      <trkpt lat="43.61906" lon="3.74628">
        <ele>127.4</ele>
        <time>2011-02-20T09:10:11Z</time>
      </trkpt>
      <trkpt lat="43.61898" lon="3.7463">
        <ele>127.2</ele>
        <time>2011-02-20T09:10:14Z</time>
      </trkpt>
      <trkpt lat="43.6189" lon="3.7463">
        <ele>126.6</ele>
        <time>2011-02-20T09:10:17Z</time>
      </trkpt>
      <trkpt lat="43.61881" lon="3.74631">
        <ele>126.2</ele>
        <time>2011-02-20T09:10:20Z</time>
      </trkpt>
      <trkpt lat="43.61873" lon="3.74634">
        <ele>125.9</ele>
        <time>2011-02-20T09:10:23Z</time>
      </trkpt>
      <trkpt lat="43.61871" lon="3.74634">
        <ele>125.8</ele>
        <time>2011-02-20T09:10:24Z</time>
      </trkpt>
      <trkpt lat="43.61858" lon="3.74627">
        <ele>124.8</ele>
        <time>2011-02-20T09:10:32Z</time>
      </trkpt>
      <trkpt lat="43.61851" lon="3.74621">
        <ele>124.5</ele>
        <time>2011-02-20T09:10:37Z</time>
      </trkpt>
      <trkpt lat="43.61845" lon="3.74613">
        <ele>125</ele>
        <time>2011-02-20T09:10:43Z</time>
      </trkpt>
      <trkpt lat="43.61837" lon="3.74613">
        <ele>125</ele>
        <time>2011-02-20T09:11:02Z</time>
      </trkpt>
      <trkpt lat="43.61831" lon="3.74617">
        <ele>124.4</ele>
        <time>2011-02-20T09:11:05Z</time>
      </trkpt>
      <trkpt lat="43.61824" lon="3.74623">
        <ele>123.8</ele>
        <time>2011-02-20T09:11:08Z</time>
      </trkpt>
      <trkpt lat="43.61819" lon="3.74627">
        <ele>123.4</ele>
        <time>2011-02-20T09:11:10Z</time>
      </trkpt>
      <trkpt lat="43.61812" lon="3.74629">
        <ele>123.2</ele>
        <time>2011-02-20T09:11:12Z</time>
      </trkpt>
      <trkpt lat="43.61804" lon="3.74628">
        <ele>123.1</ele>
        <time>2011-02-20T09:11:15Z</time>
      </trkpt>
      <trkpt lat="43.61797" lon="3.74632">
        <ele>123.6</ele>
        <time>2011-02-20T09:11:19Z</time>
      </trkpt>
      <trkpt lat="43.6179" lon="3.74635">
        <ele>124.1</ele>
        <time>2011-02-20T09:11:22Z</time>
      </trkpt>
      <trkpt lat="43.61783" lon="3.7464">
        <ele>123.6</ele>
        <time>2011-02-20T09:11:24Z</time>
      </trkpt>
      <trkpt lat="43.61779" lon="3.74641">
        <ele>123.4</ele>
        <time>2011-02-20T09:11:25Z</time>
      </trkpt>
      <trkpt lat="43.6177" lon="3.74645">
        <ele>122.6</ele>
        <time>2011-02-20T09:11:27Z</time>
      </trkpt>
      <trkpt lat="43.61766" lon="3.74646">
        <ele>122.4</ele>
        <time>2011-02-20T09:11:28Z</time>
      </trkpt>
      <trkpt lat="43.61761" lon="3.74645">
        <ele>122.2</ele>
        <time>2011-02-20T09:11:29Z</time>
      </trkpt>
      <trkpt lat="43.61757" lon="3.74644">
        <ele>122.1</ele>
        <time>2011-02-20T09:11:30Z</time>
      </trkpt>
      <trkpt lat="43.61748" lon="3.74641">
        <ele>121.9</ele>
        <time>2011-02-20T09:11:32Z</time>
      </trkpt>
      <trkpt lat="43.61744" lon="3.74638">
        <ele>121.9</ele>
        <time>2011-02-20T09:11:33Z</time>
      </trkpt>
      <trkpt lat="43.6174" lon="3.74635">
        <ele>121.8</ele>
        <time>2011-02-20T09:11:34Z</time>
      </trkpt>
      <trkpt lat="43.61736" lon="3.74631">
        <ele>121.5</ele>
        <time>2011-02-20T09:11:35Z</time>
      </trkpt>
      <trkpt lat="43.6173" lon="3.74622">
        <ele>121.1</ele>
        <time>2011-02-20T09:11:37Z</time>
      </trkpt>
      <trkpt lat="43.61724" lon="3.74616">
        <ele>121</ele>
        <time>2011-02-20T09:11:39Z</time>
      </trkpt>
      <trkpt lat="43.61715" lon="3.74611">
        <ele>121</ele>
        <time>2011-02-20T09:11:41Z</time>
      </trkpt>
      <trkpt lat="43.61711" lon="3.74608">
        <ele>121.1</ele>
        <time>2011-02-20T09:11:42Z</time>
      </trkpt>
      <trkpt lat="43.61706" lon="3.74604">
        <ele>121.1</ele>
        <time>2011-02-20T09:11:43Z</time>
      </trkpt>
      <trkpt lat="43.61702" lon="3.74599">
        <ele>121.1</ele>
        <time>2011-02-20T09:11:44Z</time>
      </trkpt>
      <trkpt lat="43.61697" lon="3.74595">
        <ele>120.5</ele>
        <time>2011-02-20T09:11:45Z</time>
      </trkpt>
      <trkpt lat="43.61692" lon="3.7459">
        <ele>120.1</ele>
        <time>2011-02-20T09:11:46Z</time>
      </trkpt>
      <trkpt lat="43.61687" lon="3.74585">
        <ele>119.8</ele>
        <time>2011-02-20T09:11:47Z</time>
      </trkpt>
      <trkpt lat="43.61683" lon="3.74579">
        <ele>119.4</ele>
        <time>2011-02-20T09:11:48Z</time>
      </trkpt>
      <trkpt lat="43.61679" lon="3.74575">
        <ele>119</ele>
        <time>2011-02-20T09:11:49Z</time>
      </trkpt>
      <trkpt lat="43.61675" lon="3.74571">
        <ele>118.8</ele>
        <time>2011-02-20T09:11:50Z</time>
      </trkpt>
      <trkpt lat="43.61672" lon="3.74567">
        <ele>118.3</ele>
        <time>2011-02-20T09:11:51Z</time>
      </trkpt>
      <trkpt lat="43.61668" lon="3.74562">
        <ele>117.9</ele>
        <time>2011-02-20T09:11:52Z</time>
      </trkpt>
      <trkpt lat="43.61663" lon="3.74559">
        <ele>117.7</ele>
        <time>2011-02-20T09:11:53Z</time>
      </trkpt>
      <trkpt lat="43.61657" lon="3.74555">
        <ele>116.4</ele>
        <time>2011-02-20T09:11:54Z</time>
      </trkpt>
      <trkpt lat="43.61651" lon="3.74552">
        <ele>115.5</ele>
        <time>2011-02-20T09:11:55Z</time>
      </trkpt>
      <trkpt lat="43.61645" lon="3.7455">
        <ele>114.8</ele>
        <time>2011-02-20T09:11:56Z</time>
      </trkpt>
      <trkpt lat="43.61637" lon="3.74543">
        <ele>113.6</ele>
        <time>2011-02-20T09:11:58Z</time>
      </trkpt>
      <trkpt lat="43.6164" lon="3.74533">
        <ele>112.8</ele>
        <time>2011-02-20T09:12:02Z</time>
      </trkpt>
      <trkpt lat="43.61634" lon="3.74527">
        <ele>114.1</ele>
        <time>2011-02-20T09:12:10Z</time>
      </trkpt>
      <trkpt lat="43.61634" lon="3.74515">
        <ele>114.7</ele>
        <time>2011-02-20T09:12:27Z</time>
      </trkpt>
      <trkpt lat="43.61635" lon="3.74513">
        <ele>114.7</ele>
        <time>2011-02-20T09:12:28Z</time>
      </trkpt>
      <trkpt lat="43.61634" lon="3.74496">
        <ele>114.1</ele>
        <time>2011-02-20T09:12:35Z</time>
      </trkpt>
      <trkpt lat="43.61633" lon="3.74486">
        <ele>114.7</ele>
        <time>2011-02-20T09:12:38Z</time>
      </trkpt>
      <trkpt lat="43.6163" lon="3.74475">
        <ele>115.2</ele>
        <time>2011-02-20T09:12:41Z</time>
      </trkpt>
      <trkpt lat="43.61627" lon="3.74464">
        <ele>115.2</ele>
        <time>2011-02-20T09:12:44Z</time>
      </trkpt>
      <trkpt lat="43.61625" lon="3.74452">
        <ele>114.7</ele>
        <time>2011-02-20T09:12:47Z</time>
      </trkpt>
      <trkpt lat="43.61624" lon="3.74443">
        <ele>114.9</ele>
        <time>2011-02-20T09:12:49Z</time>
      </trkpt>
      <trkpt lat="43.61624" lon="3.74434">
        <ele>115.4</ele>
        <time>2011-02-20T09:12:51Z</time>
      </trkpt>
      <trkpt lat="43.61624" lon="3.74422">
        <ele>114.8</ele>
        <time>2011-02-20T09:12:54Z</time>
      </trkpt>
      <trkpt lat="43.61625" lon="3.7441">
        <ele>116.4</ele>
        <time>2011-02-20T09:12:57Z</time>
      </trkpt>
      <trkpt lat="43.61626" lon="3.74401">
        <ele>116.1</ele>
        <time>2011-02-20T09:12:59Z</time>
      </trkpt>
      <trkpt lat="43.61625" lon="3.74392">
        <ele>115.9</ele>
        <time>2011-02-20T09:13:01Z</time>
      </trkpt>
      <trkpt lat="43.61624" lon="3.74382">
        <ele>116.5</ele>
        <time>2011-02-20T09:13:03Z</time>
      </trkpt>
      <trkpt lat="43.61625" lon="3.74372">
        <ele>116.7</ele>
        <time>2011-02-20T09:13:06Z</time>
      </trkpt>
      <trkpt lat="43.61622" lon="3.7436">
        <ele>117.3</ele>
        <time>2011-02-20T09:13:16Z</time>
      </trkpt>
      <trkpt lat="43.61617" lon="3.74351">
        <ele>117.4</ele>
        <time>2011-02-20T09:13:31Z</time>
      </trkpt>
      <trkpt lat="43.61616" lon="3.74349">
        <ele>117.6</ele>
        <time>2011-02-20T09:13:32Z</time>
      </trkpt>
      <trkpt lat="43.61605" lon="3.74334">
        <ele>117.8</ele>
        <time>2011-02-20T09:15:17Z</time>
      </trkpt>
      <trkpt lat="43.61605" lon="3.74334">
        <ele>118</ele>
        <time>2011-02-20T09:15:18Z</time>
      </trkpt>
      <trkpt lat="43.61597" lon="3.74326">
        <ele>117</ele>
        <time>2011-02-20T09:17:58Z</time>
      </trkpt>
      <trkpt lat="43.61586" lon="3.74316">
        <ele>117.4</ele>
        <time>2011-02-20T09:18:04Z</time>
      </trkpt>
      <trkpt lat="43.6158" lon="3.74311">
        <ele>117.6</ele>
        <time>2011-02-20T09:18:07Z</time>
      </trkpt>
      <trkpt lat="43.61574" lon="3.74305">
        <ele>117.5</ele>
        <time>2011-02-20T09:18:10Z</time>
      </trkpt>
      <trkpt lat="43.6157" lon="3.74295">
        <ele>117.3</ele>
        <time>2011-02-20T09:18:13Z</time>
      </trkpt>
      <trkpt lat="43.61568" lon="3.74285">
        <ele>116.8</ele>
        <time>2011-02-20T09:18:16Z</time>
      </trkpt>
      <trkpt lat="43.61568" lon="3.74274">
        <ele>116.6</ele>
        <time>2011-02-20T09:18:19Z</time>
      </trkpt>
      <trkpt lat="43.61567" lon="3.74263">
        <ele>116.7</ele>
        <time>2011-02-20T09:18:22Z</time>
      </trkpt>
      <trkpt lat="43.61565" lon="3.74251">
        <ele>117.7</ele>
        <time>2011-02-20T09:18:25Z</time>
      </trkpt>
      <trkpt lat="43.61563" lon="3.7424">
        <ele>118.1</ele>
        <time>2011-02-20T09:18:28Z</time>
      </trkpt>
      <trkpt lat="43.61562" lon="3.74232">
        <ele>118.2</ele>
        <time>2011-02-20T09:18:30Z</time>
      </trkpt>
      <trkpt lat="43.61561" lon="3.74223">
        <ele>118.4</ele>
        <time>2011-02-20T09:18:32Z</time>
      </trkpt>
      <trkpt lat="43.61559" lon="3.74215">
        <ele>118.2</ele>
        <time>2011-02-20T09:18:34Z</time>
      </trkpt>
      <trkpt lat="43.61557" lon="3.74204">
        <ele>117.9</ele>
        <time>2011-02-20T09:18:37Z</time>
      </trkpt>
      <trkpt lat="43.61555" lon="3.74192">
        <ele>118.1</ele>
        <time>2011-02-20T09:18:40Z</time>
      </trkpt>
      <trkpt lat="43.61553" lon="3.7418">
        <ele>118.1</ele>
        <time>2011-02-20T09:18:43Z</time>
      </trkpt>
      <trkpt lat="43.61551" lon="3.74169">
        <ele>118.1</ele>
        <time>2011-02-20T09:18:46Z</time>
      </trkpt>
      <trkpt lat="43.61549" lon="3.74159">
        <ele>119.1</ele>
        <time>2011-02-20T09:18:49Z</time>
      </trkpt>
      <trkpt lat="43.61552" lon="3.74149">
        <ele>120.2</ele>
        <time>2011-02-20T09:18:53Z</time>
      </trkpt>
      <trkpt lat="43.61559" lon="3.74146">
        <ele>120.1</ele>
        <time>2011-02-20T09:18:56Z</time>
      </trkpt>
      <trkpt lat="43.61566" lon="3.74143">
        <ele>120.8</ele>
        <time>2011-02-20T09:18:59Z</time>
      </trkpt>
      <trkpt lat="43.61568" lon="3.74142">
        <ele>121</ele>
        <time>2011-02-20T09:19:00Z</time>
      </trkpt>
      <trkpt lat="43.6158" lon="3.74134">
        <ele>122.4</ele>
        <time>2011-02-20T09:19:05Z</time>
      </trkpt>
      <trkpt lat="43.61584" lon="3.74126">
        <ele>122.9</ele>
        <time>2011-02-20T09:19:08Z</time>
      </trkpt>
      <trkpt lat="43.61583" lon="3.74114">
        <ele>124</ele>
        <time>2011-02-20T09:19:12Z</time>
      </trkpt>
      <trkpt lat="43.61579" lon="3.74103">
        <ele>124.2</ele>
        <time>2011-02-20T09:19:17Z</time>
      </trkpt>
      <trkpt lat="43.61576" lon="3.74093">
        <ele>124.4</ele>
        <time>2011-02-20T09:19:21Z</time>
      </trkpt>
      <trkpt lat="43.61574" lon="3.74083">
        <ele>125.5</ele>
        <time>2011-02-20T09:19:26Z</time>
      </trkpt>
      <trkpt lat="43.61571" lon="3.74072">
        <ele>124.5</ele>
        <time>2011-02-20T09:19:30Z</time>
      </trkpt>
      <trkpt lat="43.61568" lon="3.74063">
        <ele>124.8</ele>
        <time>2011-02-20T09:19:34Z</time>
      </trkpt>
      <trkpt lat="43.61566" lon="3.74055">
        <ele>125.4</ele>
        <time>2011-02-20T09:19:37Z</time>
      </trkpt>
      <trkpt lat="43.61562" lon="3.74045">
        <ele>125.8</ele>
        <time>2011-02-20T09:19:40Z</time>
      </trkpt>
      <trkpt lat="43.61559" lon="3.74036">
        <ele>125.5</ele>
        <time>2011-02-20T09:19:43Z</time>
      </trkpt>
      <trkpt lat="43.61555" lon="3.74025">
        <ele>125.3</ele>
        <time>2011-02-20T09:19:46Z</time>
      </trkpt>
      <trkpt lat="43.61553" lon="3.74017">
        <ele>125</ele>
        <time>2011-02-20T09:19:48Z</time>
      </trkpt>
      <trkpt lat="43.61551" lon="3.74009">
        <ele>124.8</ele>
        <time>2011-02-20T09:19:50Z</time>
      </trkpt>
      <trkpt lat="43.6155" lon="3.74001">
        <ele>124.6</ele>
        <time>2011-02-20T09:19:52Z</time>
      </trkpt>
      <trkpt lat="43.61547" lon="3.73989">
        <ele>124.2</ele>
        <time>2011-02-20T09:19:55Z</time>
      </trkpt>
      <trkpt lat="43.61545" lon="3.73977">
        <ele>124.5</ele>
        <time>2011-02-20T09:19:58Z</time>
      </trkpt>
      <trkpt lat="43.61544" lon="3.73968">
        <ele>124.8</ele>
        <time>2011-02-20T09:20:00Z</time>
      </trkpt>
      <trkpt lat="43.61543" lon="3.73963">
        <ele>124.9</ele>
        <time>2011-02-20T09:20:01Z</time>
      </trkpt>
      <trkpt lat="43.61542" lon="3.73947">
        <ele>124.7</ele>
        <time>2011-02-20T09:20:04Z</time>
      </trkpt>
      <trkpt lat="43.6154" lon="3.73938">
        <ele>124.7</ele>
        <time>2011-02-20T09:20:06Z</time>
      </trkpt>
      <trkpt lat="43.61539" lon="3.73928">
        <ele>124.7</ele>
        <time>2011-02-20T09:20:08Z</time>
      </trkpt>
      <trkpt lat="43.61537" lon="3.73919">
        <ele>124.6</ele>
        <time>2011-02-20T09:20:10Z</time>
      </trkpt>
      <trkpt lat="43.61535" lon="3.73909">
        <ele>124.6</ele>
        <time>2011-02-20T09:20:12Z</time>
      </trkpt>
      <trkpt lat="43.61534" lon="3.73899">
        <ele>124.7</ele>
        <time>2011-02-20T09:20:14Z</time>
      </trkpt>
      <trkpt lat="43.61534" lon="3.73889">
        <ele>124.2</ele>
        <time>2011-02-20T09:20:16Z</time>
      </trkpt>
      <trkpt lat="43.61533" lon="3.7388">
        <ele>123.5</ele>
        <time>2011-02-20T09:20:18Z</time>
      </trkpt>
      <trkpt lat="43.61532" lon="3.7387">
        <ele>123.6</ele>
        <time>2011-02-20T09:20:20Z</time>
      </trkpt>
      <trkpt lat="43.61531" lon="3.73861">
        <ele>123.8</ele>
        <time>2011-02-20T09:20:22Z</time>
      </trkpt>
      <trkpt lat="43.61529" lon="3.73853">
        <ele>124</ele>
        <time>2011-02-20T09:20:24Z</time>
      </trkpt>
      <trkpt lat="43.61523" lon="3.73847">
        <ele>124.3</ele>
        <time>2011-02-20T09:20:26Z</time>
      </trkpt>
      <trkpt lat="43.61517" lon="3.73843">
        <ele>124.6</ele>
        <time>2011-02-20T09:20:28Z</time>
      </trkpt>
      <trkpt lat="43.6151" lon="3.73838">
        <ele>124.9</ele>
        <time>2011-02-20T09:20:30Z</time>
      </trkpt>
      <trkpt lat="43.61504" lon="3.73832">
        <ele>124.9</ele>
        <time>2011-02-20T09:20:32Z</time>
      </trkpt>
      <trkpt lat="43.61499" lon="3.73827">
        <ele>124.8</ele>
        <time>2011-02-20T09:20:34Z</time>
      </trkpt>
      <trkpt lat="43.61491" lon="3.7382">
        <ele>126</ele>
        <time>2011-02-20T09:20:37Z</time>
      </trkpt>
      <trkpt lat="43.61485" lon="3.73814">
        <ele>126.7</ele>
        <time>2011-02-20T09:20:40Z</time>
      </trkpt>
      <trkpt lat="43.61479" lon="3.73807">
        <ele>127.3</ele>
        <time>2011-02-20T09:20:43Z</time>
      </trkpt>
      <trkpt lat="43.61475" lon="3.73798">
        <ele>128.4</ele>
        <time>2011-02-20T09:20:46Z</time>
      </trkpt>
      <trkpt lat="43.61473" lon="3.73789">
        <ele>129</ele>
        <time>2011-02-20T09:20:49Z</time>
      </trkpt>
      <trkpt lat="43.61471" lon="3.73779">
        <ele>129.4</ele>
        <time>2011-02-20T09:20:52Z</time>
      </trkpt>
      <trkpt lat="43.6147" lon="3.73768">
        <ele>129.9</ele>
        <time>2011-02-20T09:20:55Z</time>
      </trkpt>
      <trkpt lat="43.61471" lon="3.73757">
        <ele>130.6</ele>
        <time>2011-02-20T09:20:58Z</time>
      </trkpt>
      <trkpt lat="43.6147" lon="3.73746">
        <ele>131.8</ele>
        <time>2011-02-20T09:21:01Z</time>
      </trkpt>
      <trkpt lat="43.61469" lon="3.73742">
        <ele>132.1</ele>
        <time>2011-02-20T09:21:02Z</time>
      </trkpt>
      <trkpt lat="43.61467" lon="3.73724">
        <ele>132.4</ele>
        <time>2011-02-20T09:21:07Z</time>
      </trkpt>
      <trkpt lat="43.61466" lon="3.73716">
        <ele>132.3</ele>
        <time>2011-02-20T09:21:09Z</time>
      </trkpt>
      <trkpt lat="43.61464" lon="3.73708">
        <ele>131.7</ele>
        <time>2011-02-20T09:21:11Z</time>
      </trkpt>
      <trkpt lat="43.61461" lon="3.73696">
        <ele>131.2</ele>
        <time>2011-02-20T09:21:14Z</time>
      </trkpt>
      <trkpt lat="43.61458" lon="3.73686">
        <ele>132.5</ele>
        <time>2011-02-20T09:21:17Z</time>
      </trkpt>
      <trkpt lat="43.61453" lon="3.73678">
        <ele>133</ele>
        <time>2011-02-20T09:21:20Z</time>
      </trkpt>
      <trkpt lat="43.61447" lon="3.73672">
        <ele>133.2</ele>
        <time>2011-02-20T09:21:23Z</time>
      </trkpt>
      <trkpt lat="43.6144" lon="3.73665">
        <ele>135</ele>
        <time>2011-02-20T09:21:27Z</time>
      </trkpt>
      <trkpt lat="43.61432" lon="3.73667">
        <ele>136.2</ele>
        <time>2011-02-20T09:21:31Z</time>
      </trkpt>
      <trkpt lat="43.61425" lon="3.73674">
        <ele>138</ele>
        <time>2011-02-20T09:21:35Z</time>
      </trkpt>
      <trkpt lat="43.61418" lon="3.73679">
        <ele>138.7</ele>
        <time>2011-02-20T09:21:39Z</time>
      </trkpt>
      <trkpt lat="43.61411" lon="3.73683">
        <ele>139.6</ele>
        <time>2011-02-20T09:21:43Z</time>
      </trkpt>
      <trkpt lat="43.61403" lon="3.73686">
        <ele>141</ele>
        <time>2011-02-20T09:21:47Z</time>
      </trkpt>
      <trkpt lat="43.61395" lon="3.73691">
        <ele>141</ele>
        <time>2011-02-20T09:21:51Z</time>
      </trkpt>
      <trkpt lat="43.61388" lon="3.73695">
        <ele>141.7</ele>
        <time>2011-02-20T09:21:55Z</time>
      </trkpt>
      <trkpt lat="43.6138" lon="3.73699">
        <ele>143.7</ele>
        <time>2011-02-20T09:21:59Z</time>
      </trkpt>
      <trkpt lat="43.61372" lon="3.73703">
        <ele>144.9</ele>
        <time>2011-02-20T09:22:03Z</time>
      </trkpt>
      <trkpt lat="43.6137" lon="3.73704">
        <ele>145.5</ele>
        <time>2011-02-20T09:22:04Z</time>
      </trkpt>
      <trkpt lat="43.61355" lon="3.73707">
        <ele>146.6</ele>
        <time>2011-02-20T09:22:11Z</time>
      </trkpt>
      <trkpt lat="43.61347" lon="3.73707">
        <ele>147.1</ele>
        <time>2011-02-20T09:22:15Z</time>
      </trkpt>
      <trkpt lat="43.61338" lon="3.73707">
        <ele>147.5</ele>
        <time>2011-02-20T09:22:19Z</time>
      </trkpt>
      <trkpt lat="43.61331" lon="3.73708">
        <ele>147.5</ele>
        <time>2011-02-20T09:22:22Z</time>
      </trkpt>
      <trkpt lat="43.61322" lon="3.7371">
        <ele>149.4</ele>
        <time>2011-02-20T09:22:26Z</time>
      </trkpt>
      <trkpt lat="43.61316" lon="3.73711">
        <ele>150.3</ele>
        <time>2011-02-20T09:22:29Z</time>
      </trkpt>
      <trkpt lat="43.61309" lon="3.73712">
        <ele>150.8</ele>
        <time>2011-02-20T09:22:32Z</time>
      </trkpt>
      <trkpt lat="43.61302" lon="3.73714">
        <ele>151</ele>
        <time>2011-02-20T09:22:35Z</time>
      </trkpt>
      <trkpt lat="43.61295" lon="3.73717">
        <ele>151.5</ele>
        <time>2011-02-20T09:22:38Z</time>
      </trkpt>
      <trkpt lat="43.61289" lon="3.7372">
        <ele>152.6</ele>
        <time>2011-02-20T09:22:41Z</time>
      </trkpt>
      <trkpt lat="43.61282" lon="3.73723">
        <ele>153.2</ele>
        <time>2011-02-20T09:22:44Z</time>
      </trkpt>
      <trkpt lat="43.61275" lon="3.73723">
        <ele>153.6</ele>
        <time>2011-02-20T09:22:47Z</time>
      </trkpt>
      <trkpt lat="43.61267" lon="3.73722">
        <ele>154.3</ele>
        <time>2011-02-20T09:22:51Z</time>
      </trkpt>
      <trkpt lat="43.6126" lon="3.7372">
        <ele>154.4</ele>
        <time>2011-02-20T09:22:54Z</time>
      </trkpt>
      <trkpt lat="43.61253" lon="3.73717">
        <ele>155.3</ele>
        <time>2011-02-20T09:22:57Z</time>
      </trkpt>
      <trkpt lat="43.61245" lon="3.73713">
        <ele>155.8</ele>
        <time>2011-02-20T09:23:01Z</time>
      </trkpt>
      <trkpt lat="43.61237" lon="3.73709">
        <ele>157.1</ele>
        <time>2011-02-20T09:23:05Z</time>
      </trkpt>
      <trkpt lat="43.61234" lon="3.73708">
        <ele>157.3</ele>
        <time>2011-02-20T09:23:06Z</time>
      </trkpt>
      <trkpt lat="43.6122" lon="3.73701">
        <ele>159.2</ele>
        <time>2011-02-20T09:23:13Z</time>
      </trkpt>
      <trkpt lat="43.61212" lon="3.73698">
        <ele>159.7</ele>
        <time>2011-02-20T09:23:17Z</time>
      </trkpt>
      <trkpt lat="43.61203" lon="3.73694">
        <ele>160.7</ele>
        <time>2011-02-20T09:23:21Z</time>
      </trkpt>
      <trkpt lat="43.61196" lon="3.73692">
        <ele>161.5</ele>
        <time>2011-02-20T09:23:24Z</time>
      </trkpt>
      <trkpt lat="43.61189" lon="3.7369">
        <ele>162.3</ele>
        <time>2011-02-20T09:23:27Z</time>
      </trkpt>
      <trkpt lat="43.6118" lon="3.73688">
        <ele>162.3</ele>
        <time>2011-02-20T09:23:31Z</time>
      </trkpt>
      <trkpt lat="43.61174" lon="3.7368">
        <ele>163.3</ele>
        <time>2011-02-20T09:23:36Z</time>
      </trkpt>
      <trkpt lat="43.6117" lon="3.73671">
        <ele>163.7</ele>
        <time>2011-02-20T09:23:40Z</time>
      </trkpt>
      <trkpt lat="43.61165" lon="3.73661">
        <ele>164.8</ele>
        <time>2011-02-20T09:23:45Z</time>
      </trkpt>
      <trkpt lat="43.61161" lon="3.7365">
        <ele>165.4</ele>
        <time>2011-02-20T09:23:51Z</time>
      </trkpt>
      <trkpt lat="43.61154" lon="3.73645">
        <ele>166.7</ele>
        <time>2011-02-20T09:23:58Z</time>
      </trkpt>
      <trkpt lat="43.61146" lon="3.7364">
        <ele>166.6</ele>
        <time>2011-02-20T09:24:05Z</time>
      </trkpt>
      <trkpt lat="43.61154" lon="3.73644">
        <ele>167</ele>
        <time>2011-02-20T09:24:18Z</time>
      </trkpt>
      <trkpt lat="43.61156" lon="3.73646">
        <ele>167.1</ele>
        <time>2011-02-20T09:24:19Z</time>
      </trkpt>
      <trkpt lat="43.61138" lon="3.73635">
        <ele>166.7</ele>
        <time>2011-02-20T09:25:01Z</time>
      </trkpt>
      <trkpt lat="43.61131" lon="3.73628">
        <ele>168.3</ele>
        <time>2011-02-20T09:25:06Z</time>
      </trkpt>
      <trkpt lat="43.61125" lon="3.73622">
        <ele>168.5</ele>
        <time>2011-02-20T09:25:10Z</time>
      </trkpt>
      <trkpt lat="43.61118" lon="3.73615">
        <ele>168</ele>
        <time>2011-02-20T09:25:14Z</time>
      </trkpt>
      <trkpt lat="43.61111" lon="3.73607">
        <ele>166.7</ele>
        <time>2011-02-20T09:25:18Z</time>
      </trkpt>
      <trkpt lat="43.61103" lon="3.73603">
        <ele>166.4</ele>
        <time>2011-02-20T09:25:22Z</time>
      </trkpt>
      <trkpt lat="43.611" lon="3.73602">
        <ele>166.5</ele>
        <time>2011-02-20T09:25:23Z</time>
      </trkpt>
      <trkpt lat="43.61086" lon="3.73602">
        <ele>165.9</ele>
        <time>2011-02-20T09:25:28Z</time>
      </trkpt>
      <trkpt lat="43.6108" lon="3.736">
        <ele>165.9</ele>
        <time>2011-02-20T09:25:30Z</time>
      </trkpt>
      <trkpt lat="43.61074" lon="3.73598">
        <ele>165.5</ele>
        <time>2011-02-20T09:25:32Z</time>
      </trkpt>
      <trkpt lat="43.61066" lon="3.73596">
        <ele>164.9</ele>
        <time>2011-02-20T09:25:34Z</time>
      </trkpt>
      <trkpt lat="43.61058" lon="3.73594">
        <ele>164.5</ele>
        <time>2011-02-20T09:25:36Z</time>
      </trkpt>
      <trkpt lat="43.6105" lon="3.73592">
        <ele>164.4</ele>
        <time>2011-02-20T09:25:38Z</time>
      </trkpt>
      <trkpt lat="43.61045" lon="3.73591">
        <ele>164.4</ele>
        <time>2011-02-20T09:25:39Z</time>
      </trkpt>
      <trkpt lat="43.61041" lon="3.7359">
        <ele>164.5</ele>
        <time>2011-02-20T09:25:40Z</time>
      </trkpt>
      <trkpt lat="43.61036" lon="3.73588">
        <ele>164.1</ele>
        <time>2011-02-20T09:25:41Z</time>
      </trkpt>
      <trkpt lat="43.61031" lon="3.73586">
        <ele>163.8</ele>
        <time>2011-02-20T09:25:42Z</time>
      </trkpt>
      <trkpt lat="43.61025" lon="3.73586">
        <ele>163.5</ele>
        <time>2011-02-20T09:25:43Z</time>
      </trkpt>
      <trkpt lat="43.61021" lon="3.73586">
        <ele>162.7</ele>
        <time>2011-02-20T09:25:44Z</time>
      </trkpt>
      <trkpt lat="43.61012" lon="3.73587">
        <ele>161.5</ele>
        <time>2011-02-20T09:25:46Z</time>
      </trkpt>
      <trkpt lat="43.61005" lon="3.7359">
        <ele>160.6</ele>
        <time>2011-02-20T09:25:48Z</time>
      </trkpt>
      <trkpt lat="43.60997" lon="3.73594">
        <ele>159.9</ele>
        <time>2011-02-20T09:25:50Z</time>
      </trkpt>
      <trkpt lat="43.60992" lon="3.73597">
        <ele>159.2</ele>
        <time>2011-02-20T09:25:51Z</time>
      </trkpt>
      <trkpt lat="43.60987" lon="3.736">
        <ele>158.6</ele>
        <time>2011-02-20T09:25:52Z</time>
      </trkpt>
      <trkpt lat="43.60982" lon="3.73604">
        <ele>158.2</ele>
        <time>2011-02-20T09:25:53Z</time>
      </trkpt>
      <trkpt lat="43.60977" lon="3.73607">
        <ele>157.8</ele>
        <time>2011-02-20T09:25:54Z</time>
      </trkpt>
      <trkpt lat="43.60971" lon="3.73611">
        <ele>157.5</ele>
        <time>2011-02-20T09:25:55Z</time>
      </trkpt>
      <trkpt lat="43.60965" lon="3.73615">
        <ele>157.3</ele>
        <time>2011-02-20T09:25:56Z</time>
      </trkpt>
      <trkpt lat="43.60959" lon="3.73618">
        <ele>156.7</ele>
        <time>2011-02-20T09:25:57Z</time>
      </trkpt>
      <trkpt lat="43.60953" lon="3.73621">
        <ele>156.3</ele>
        <time>2011-02-20T09:25:58Z</time>
      </trkpt>
      <trkpt lat="43.60947" lon="3.73623">
        <ele>156</ele>
        <time>2011-02-20T09:25:59Z</time>
      </trkpt>
      <trkpt lat="43.60941" lon="3.73624">
        <ele>155.2</ele>
        <time>2011-02-20T09:26:00Z</time>
      </trkpt>
      <trkpt lat="43.60934" lon="3.73623">
        <ele>154.1</ele>
        <time>2011-02-20T09:26:02Z</time>
      </trkpt>
      <trkpt lat="43.6093" lon="3.73617">
        <ele>153.5</ele>
        <time>2011-02-20T09:26:04Z</time>
      </trkpt>
      <trkpt lat="43.60927" lon="3.73609">
        <ele>153</ele>
        <time>2011-02-20T09:26:06Z</time>
      </trkpt>
      <trkpt lat="43.60924" lon="3.73598">
        <ele>153.9</ele>
        <time>2011-02-20T09:26:09Z</time>
      </trkpt>
      <trkpt lat="43.60922" lon="3.7359">
        <ele>154.2</ele>
        <time>2011-02-20T09:26:11Z</time>
      </trkpt>
      <trkpt lat="43.60919" lon="3.73579">
        <ele>154</ele>
        <time>2011-02-20T09:26:14Z</time>
      </trkpt>
      <trkpt lat="43.60914" lon="3.73568">
        <ele>154.3</ele>
        <time>2011-02-20T09:26:17Z</time>
      </trkpt>
      <trkpt lat="43.6091" lon="3.73557">
        <ele>155.2</ele>
        <time>2011-02-20T09:26:20Z</time>
      </trkpt>
      <trkpt lat="43.60907" lon="3.73546">
        <ele>155.9</ele>
        <time>2011-02-20T09:26:23Z</time>
      </trkpt>
      <trkpt lat="43.60906" lon="3.73543">
        <ele>156.1</ele>
        <time>2011-02-20T09:26:24Z</time>
      </trkpt>
      <trkpt lat="43.60905" lon="3.73523">
        <ele>157.4</ele>
        <time>2011-02-20T09:26:29Z</time>
      </trkpt>
      <trkpt lat="43.60908" lon="3.73515">
        <ele>157.9</ele>
        <time>2011-02-20T09:26:31Z</time>
      </trkpt>
      <trkpt lat="43.60912" lon="3.73505">
        <ele>157.9</ele>
        <time>2011-02-20T09:26:34Z</time>
      </trkpt>
      <trkpt lat="43.60918" lon="3.73496">
        <ele>158.8</ele>
        <time>2011-02-20T09:26:37Z</time>
      </trkpt>
      <trkpt lat="43.60922" lon="3.73486">
        <ele>159.5</ele>
        <time>2011-02-20T09:26:40Z</time>
      </trkpt>
      <trkpt lat="43.60926" lon="3.73476">
        <ele>160.6</ele>
        <time>2011-02-20T09:26:47Z</time>
      </trkpt>
      <trkpt lat="43.60926" lon="3.73466">
        <ele>161.2</ele>
        <time>2011-02-20T09:26:52Z</time>
      </trkpt>
      <trkpt lat="43.60927" lon="3.73453">
        <ele>161</ele>
        <time>2011-02-20T09:26:56Z</time>
      </trkpt>
      <trkpt lat="43.60924" lon="3.73445">
        <ele>160.9</ele>
        <time>2011-02-20T09:26:59Z</time>
      </trkpt>
      <trkpt lat="43.60919" lon="3.73436">
        <ele>160.1</ele>
        <time>2011-02-20T09:27:03Z</time>
      </trkpt>
      <trkpt lat="43.60914" lon="3.73426">
        <ele>160.7</ele>
        <time>2011-02-20T09:27:07Z</time>
      </trkpt>
      <trkpt lat="43.60912" lon="3.73415">
        <ele>161.1</ele>
        <time>2011-02-20T09:27:10Z</time>
      </trkpt>
      <trkpt lat="43.60908" lon="3.73406">
        <ele>161.1</ele>
        <time>2011-02-20T09:27:13Z</time>
      </trkpt>
      <trkpt lat="43.60903" lon="3.73402">
        <ele>161</ele>
        <time>2011-02-20T09:27:15Z</time>
      </trkpt>
      <trkpt lat="43.60897" lon="3.73397">
        <ele>160.7</ele>
        <time>2011-02-20T09:27:17Z</time>
      </trkpt>
      <trkpt lat="43.60891" lon="3.73394">
        <ele>160.5</ele>
        <time>2011-02-20T09:27:19Z</time>
      </trkpt>
      <trkpt lat="43.60884" lon="3.73392">
        <ele>160.5</ele>
        <time>2011-02-20T09:27:21Z</time>
      </trkpt>
      <trkpt lat="43.6088" lon="3.73385">
        <ele>160</ele>
        <time>2011-02-20T09:27:23Z</time>
      </trkpt>
      <trkpt lat="43.60878" lon="3.73375">
        <ele>159.3</ele>
        <time>2011-02-20T09:27:25Z</time>
      </trkpt>
      <trkpt lat="43.60877" lon="3.7337">
        <ele>159.1</ele>
        <time>2011-02-20T09:27:26Z</time>
      </trkpt>
      <trkpt lat="43.60875" lon="3.73355">
        <ele>159.2</ele>
        <time>2011-02-20T09:27:29Z</time>
      </trkpt>
      <trkpt lat="43.60875" lon="3.73345">
        <ele>158.9</ele>
        <time>2011-02-20T09:27:31Z</time>
      </trkpt>
      <trkpt lat="43.60875" lon="3.73335">
        <ele>158.8</ele>
        <time>2011-02-20T09:27:33Z</time>
      </trkpt>
      <trkpt lat="43.60875" lon="3.73324">
        <ele>158.6</ele>
        <time>2011-02-20T09:27:35Z</time>
      </trkpt>
      <trkpt lat="43.60875" lon="3.73314">
        <ele>158.7</ele>
        <time>2011-02-20T09:27:37Z</time>
      </trkpt>
      <trkpt lat="43.60876" lon="3.73304">
        <ele>158.6</ele>
        <time>2011-02-20T09:27:39Z</time>
      </trkpt>
      <trkpt lat="43.60877" lon="3.73293">
        <ele>158.4</ele>
        <time>2011-02-20T09:27:41Z</time>
      </trkpt>
      <trkpt lat="43.60879" lon="3.73283">
        <ele>158.8</ele>
        <time>2011-02-20T09:27:43Z</time>
      </trkpt>
      <trkpt lat="43.60881" lon="3.73274">
        <ele>159.3</ele>
        <time>2011-02-20T09:27:45Z</time>
      </trkpt>
      <trkpt lat="43.60883" lon="3.73265">
        <ele>159.3</ele>
        <time>2011-02-20T09:27:47Z</time>
      </trkpt>
      <trkpt lat="43.60883" lon="3.73256">
        <ele>159.7</ele>
        <time>2011-02-20T09:27:49Z</time>
      </trkpt>
      <trkpt lat="43.60882" lon="3.73247">
        <ele>160.2</ele>
        <time>2011-02-20T09:27:51Z</time>
      </trkpt>
      <trkpt lat="43.60879" lon="3.73238">
        <ele>160.2</ele>
        <time>2011-02-20T09:27:53Z</time>
      </trkpt>
      <trkpt lat="43.60876" lon="3.73229">
        <ele>160.5</ele>
        <time>2011-02-20T09:27:55Z</time>
      </trkpt>
      <trkpt lat="43.60873" lon="3.7322">
        <ele>160.8</ele>
        <time>2011-02-20T09:27:57Z</time>
      </trkpt>
      <trkpt lat="43.60871" lon="3.73211">
        <ele>161.2</ele>
        <time>2011-02-20T09:27:59Z</time>
      </trkpt>
      <trkpt lat="43.6087" lon="3.73203">
        <ele>161.6</ele>
        <time>2011-02-20T09:28:01Z</time>
      </trkpt>
      <trkpt lat="43.60869" lon="3.73194">
        <ele>162.2</ele>
        <time>2011-02-20T09:28:03Z</time>
      </trkpt>
      <trkpt lat="43.60866" lon="3.73183">
        <ele>162.3</ele>
        <time>2011-02-20T09:28:06Z</time>
      </trkpt>
      <trkpt lat="43.60866" lon="3.73172">
        <ele>163.8</ele>
        <time>2011-02-20T09:28:16Z</time>
      </trkpt>
      <trkpt lat="43.60863" lon="3.73161">
        <ele>164.4</ele>
        <time>2011-02-20T09:28:20Z</time>
      </trkpt>
      <trkpt lat="43.60859" lon="3.73156">
        <ele>164.2</ele>
        <time>2011-02-20T09:28:22Z</time>
      </trkpt>
      <trkpt lat="43.60853" lon="3.7315">
        <ele>163.9</ele>
        <time>2011-02-20T09:28:24Z</time>
      </trkpt>
      <trkpt lat="43.60851" lon="3.7314">
        <ele>163.7</ele>
        <time>2011-02-20T09:28:26Z</time>
      </trkpt>
      <trkpt lat="43.6085" lon="3.73135">
        <ele>163.9</ele>
        <time>2011-02-20T09:28:27Z</time>
      </trkpt>
      <trkpt lat="43.60846" lon="3.7312">
        <ele>164.1</ele>
        <time>2011-02-20T09:28:30Z</time>
      </trkpt>
      <trkpt lat="43.6085" lon="3.73109">
        <ele>163.9</ele>
        <time>2011-02-20T09:28:33Z</time>
      </trkpt>
      <trkpt lat="43.60852" lon="3.73098">
        <ele>166.5</ele>
        <time>2011-02-20T09:28:44Z</time>
      </trkpt>
      <trkpt lat="43.60853" lon="3.73086">
        <ele>166.9</ele>
        <time>2011-02-20T09:28:48Z</time>
      </trkpt>
      <trkpt lat="43.60851" lon="3.73075">
        <ele>167.2</ele>
        <time>2011-02-20T09:28:51Z</time>
      </trkpt>
      <trkpt lat="43.60848" lon="3.73063">
        <ele>167.7</ele>
        <time>2011-02-20T09:28:54Z</time>
      </trkpt>
      <trkpt lat="43.60845" lon="3.73054">
        <ele>167.6</ele>
        <time>2011-02-20T09:28:56Z</time>
      </trkpt>
      <trkpt lat="43.60845" lon="3.73045">
        <ele>167.3</ele>
        <time>2011-02-20T09:28:58Z</time>
      </trkpt>
      <trkpt lat="43.60844" lon="3.73036">
        <ele>167.9</ele>
        <time>2011-02-20T09:29:00Z</time>
      </trkpt>
      <trkpt lat="43.60842" lon="3.73027">
        <ele>168.3</ele>
        <time>2011-02-20T09:29:02Z</time>
      </trkpt>
      <trkpt lat="43.6084" lon="3.73018">
        <ele>168.5</ele>
        <time>2011-02-20T09:29:04Z</time>
      </trkpt>
      <trkpt lat="43.60837" lon="3.7301">
        <ele>168.4</ele>
        <time>2011-02-20T09:29:06Z</time>
      </trkpt>
      <trkpt lat="43.60837" lon="3.73001">
        <ele>168.2</ele>
        <time>2011-02-20T09:29:08Z</time>
      </trkpt>
      <trkpt lat="43.60836" lon="3.72991">
        <ele>168.6</ele>
        <time>2011-02-20T09:29:10Z</time>
      </trkpt>
      <trkpt lat="43.60836" lon="3.72982">
        <ele>168.4</ele>
        <time>2011-02-20T09:29:12Z</time>
      </trkpt>
      <trkpt lat="43.60835" lon="3.72972">
        <ele>167.9</ele>
        <time>2011-02-20T09:29:14Z</time>
      </trkpt>
      <trkpt lat="43.60835" lon="3.72962">
        <ele>168.6</ele>
        <time>2011-02-20T09:29:16Z</time>
      </trkpt>
      <trkpt lat="43.60834" lon="3.72953">
        <ele>168.3</ele>
        <time>2011-02-20T09:29:18Z</time>
      </trkpt>
      <trkpt lat="43.60837" lon="3.72944">
        <ele>167.7</ele>
        <time>2011-02-20T09:29:20Z</time>
      </trkpt>
      <trkpt lat="43.6084" lon="3.72937">
        <ele>168</ele>
        <time>2011-02-20T09:29:22Z</time>
      </trkpt>
      <trkpt lat="43.60839" lon="3.72928">
        <ele>168.7</ele>
        <time>2011-02-20T09:29:24Z</time>
      </trkpt>
      <trkpt lat="43.60837" lon="3.72917">
        <ele>169.1</ele>
        <time>2011-02-20T09:29:26Z</time>
      </trkpt>
      <trkpt lat="43.6084" lon="3.72907">
        <ele>169</ele>
        <time>2011-02-20T09:29:28Z</time>
      </trkpt>
      <trkpt lat="43.60842" lon="3.72903">
        <ele>168.7</ele>
        <time>2011-02-20T09:29:29Z</time>
      </trkpt>
      <trkpt lat="43.60847" lon="3.72891">
        <ele>168.2</ele>
        <time>2011-02-20T09:29:32Z</time>
      </trkpt>
      <trkpt lat="43.60849" lon="3.7288">
        <ele>168.1</ele>
        <time>2011-02-20T09:29:34Z</time>
      </trkpt>
      <trkpt lat="43.6085" lon="3.72869">
        <ele>168</ele>
        <time>2011-02-20T09:29:36Z</time>
      </trkpt>
      <trkpt lat="43.60849" lon="3.72856">
        <ele>167.3</ele>
        <time>2011-02-20T09:29:38Z</time>
      </trkpt>
      <trkpt lat="43.60849" lon="3.7285">
        <ele>167.1</ele>
        <time>2011-02-20T09:29:39Z</time>
      </trkpt>
      <trkpt lat="43.60849" lon="3.72843">
        <ele>167</ele>
        <time>2011-02-20T09:29:40Z</time>
      </trkpt>
      <trkpt lat="43.6085" lon="3.72837">
        <ele>167.1</ele>
        <time>2011-02-20T09:29:41Z</time>
      </trkpt>
      <trkpt lat="43.6085" lon="3.7283">
        <ele>167.1</ele>
        <time>2011-02-20T09:29:42Z</time>
      </trkpt>
      <trkpt lat="43.6085" lon="3.72823">
        <ele>167.1</ele>
        <time>2011-02-20T09:29:43Z</time>
      </trkpt>
      <trkpt lat="43.60848" lon="3.72817">
        <ele>166.6</ele>
        <time>2011-02-20T09:29:44Z</time>
      </trkpt>
      <trkpt lat="43.60844" lon="3.72807">
        <ele>165.9</ele>
        <time>2011-02-20T09:29:46Z</time>
      </trkpt>
      <trkpt lat="43.6084" lon="3.72798">
        <ele>166.8</ele>
        <time>2011-02-20T09:29:49Z</time>
      </trkpt>
      <trkpt lat="43.60837" lon="3.72788">
        <ele>165.6</ele>
        <time>2011-02-20T09:29:53Z</time>
      </trkpt>
      <trkpt lat="43.60836" lon="3.72778">
        <ele>165.1</ele>
        <time>2011-02-20T09:29:57Z</time>
      </trkpt>
      <trkpt lat="43.60833" lon="3.72768">
        <ele>165.3</ele>
        <time>2011-02-20T09:30:01Z</time>
      </trkpt>
      <trkpt lat="43.60831" lon="3.72756">
        <ele>165.2</ele>
        <time>2011-02-20T09:30:06Z</time>
      </trkpt>
      <trkpt lat="43.60829" lon="3.72745">
        <ele>165.6</ele>
        <time>2011-02-20T09:30:10Z</time>
      </trkpt>
      <trkpt lat="43.60826" lon="3.72734">
        <ele>165.8</ele>
        <time>2011-02-20T09:30:14Z</time>
      </trkpt>
      <trkpt lat="43.60824" lon="3.72723">
        <ele>165.6</ele>
        <time>2011-02-20T09:30:18Z</time>
      </trkpt>
      <trkpt lat="43.60822" lon="3.72714">
        <ele>166.2</ele>
        <time>2011-02-20T09:30:21Z</time>
      </trkpt>
      <trkpt lat="43.60821" lon="3.72704">
        <ele>167.4</ele>
        <time>2011-02-20T09:30:24Z</time>
      </trkpt>
      <trkpt lat="43.60819" lon="3.72694">
        <ele>166.6</ele>
        <time>2011-02-20T09:30:27Z</time>
      </trkpt>
      <trkpt lat="43.60818" lon="3.72684">
        <ele>166.9</ele>
        <time>2011-02-20T09:30:30Z</time>
      </trkpt>
      <trkpt lat="43.60818" lon="3.72681">
        <ele>167.1</ele>
        <time>2011-02-20T09:30:31Z</time>
      </trkpt>
      <trkpt lat="43.60814" lon="3.72661">
        <ele>167.3</ele>
        <time>2011-02-20T09:30:36Z</time>
      </trkpt>
      <trkpt lat="43.60812" lon="3.7265">
        <ele>167.3</ele>
        <time>2011-02-20T09:30:39Z</time>
      </trkpt>
      <trkpt lat="43.60811" lon="3.72642">
        <ele>167.5</ele>
        <time>2011-02-20T09:30:41Z</time>
      </trkpt>
      <trkpt lat="43.60808" lon="3.7263">
        <ele>168</ele>
        <time>2011-02-20T09:30:44Z</time>
      </trkpt>
      <trkpt lat="43.60805" lon="3.72619">
        <ele>167.4</ele>
        <time>2011-02-20T09:30:47Z</time>
      </trkpt>
      <trkpt lat="43.60803" lon="3.72608">
        <ele>168.3</ele>
        <time>2011-02-20T09:30:50Z</time>
      </trkpt>
      <trkpt lat="43.60801" lon="3.72596">
        <ele>168.5</ele>
        <time>2011-02-20T09:30:53Z</time>
      </trkpt>
      <trkpt lat="43.60798" lon="3.72586">
        <ele>169.6</ele>
        <time>2011-02-20T09:30:56Z</time>
      </trkpt>
      <trkpt lat="43.60794" lon="3.72576">
        <ele>170.4</ele>
        <time>2011-02-20T09:30:59Z</time>
      </trkpt>
      <trkpt lat="43.60791" lon="3.72566">
        <ele>170.3</ele>
        <time>2011-02-20T09:31:02Z</time>
      </trkpt>
      <trkpt lat="43.60787" lon="3.72557">
        <ele>170.1</ele>
        <time>2011-02-20T09:31:05Z</time>
      </trkpt>
      <trkpt lat="43.60784" lon="3.72547">
        <ele>170.9</ele>
        <time>2011-02-20T09:31:08Z</time>
      </trkpt>
      <trkpt lat="43.60781" lon="3.72537">
        <ele>170.9</ele>
        <time>2011-02-20T09:31:11Z</time>
      </trkpt>
      <trkpt lat="43.60778" lon="3.72527">
        <ele>171.7</ele>
        <time>2011-02-20T09:31:14Z</time>
      </trkpt>
      <trkpt lat="43.60775" lon="3.72517">
        <ele>172.1</ele>
        <time>2011-02-20T09:31:17Z</time>
      </trkpt>
      <trkpt lat="43.60773" lon="3.72508">
        <ele>171.9</ele>
        <time>2011-02-20T09:31:19Z</time>
      </trkpt>
      <trkpt lat="43.6077" lon="3.72498">
        <ele>171.8</ele>
        <time>2011-02-20T09:31:22Z</time>
      </trkpt>
      <trkpt lat="43.60767" lon="3.72488">
        <ele>172.2</ele>
        <time>2011-02-20T09:31:25Z</time>
      </trkpt>
      <trkpt lat="43.60765" lon="3.72479">
        <ele>172.2</ele>
        <time>2011-02-20T09:31:28Z</time>
      </trkpt>
      <trkpt lat="43.60762" lon="3.72469">
        <ele>173.3</ele>
        <time>2011-02-20T09:31:31Z</time>
      </trkpt>
      <trkpt lat="43.60762" lon="3.72465">
        <ele>173.6</ele>
        <time>2011-02-20T09:31:32Z</time>
      </trkpt>
      <trkpt lat="43.60757" lon="3.7245">
        <ele>175</ele>
        <time>2011-02-20T09:31:36Z</time>
      </trkpt>
      <trkpt lat="43.60754" lon="3.7244">
        <ele>175.1</ele>
        <time>2011-02-20T09:31:39Z</time>
      </trkpt>
      <trkpt lat="43.60751" lon="3.7243">
        <ele>175.5</ele>
        <time>2011-02-20T09:31:42Z</time>
      </trkpt>
      <trkpt lat="43.60748" lon="3.7242">
        <ele>176.6</ele>
        <time>2011-02-20T09:31:45Z</time>
      </trkpt>
      <trkpt lat="43.60746" lon="3.7241">
        <ele>177.2</ele>
        <time>2011-02-20T09:31:48Z</time>
      </trkpt>
      <trkpt lat="43.60742" lon="3.72401">
        <ele>177.1</ele>
        <time>2011-02-20T09:31:51Z</time>
      </trkpt>
      <trkpt lat="43.60738" lon="3.72394">
        <ele>178.3</ele>
        <time>2011-02-20T09:31:54Z</time>
      </trkpt>
      <trkpt lat="43.60732" lon="3.72385">
        <ele>179.1</ele>
        <time>2011-02-20T09:31:58Z</time>
      </trkpt>
      <trkpt lat="43.60729" lon="3.72376">
        <ele>180.1</ele>
        <time>2011-02-20T09:32:01Z</time>
      </trkpt>
      <trkpt lat="43.60726" lon="3.72367">
        <ele>181.2</ele>
        <time>2011-02-20T09:32:04Z</time>
      </trkpt>
      <trkpt lat="43.60723" lon="3.72358">
        <ele>182.9</ele>
        <time>2011-02-20T09:32:07Z</time>
      </trkpt>
      <trkpt lat="43.60717" lon="3.72352">
        <ele>182.6</ele>
        <time>2011-02-20T09:32:10Z</time>
      </trkpt>
      <trkpt lat="43.6071" lon="3.72344">
        <ele>184.9</ele>
        <time>2011-02-20T09:32:14Z</time>
      </trkpt>
      <trkpt lat="43.60709" lon="3.72333">
        <ele>186.1</ele>
        <time>2011-02-20T09:32:18Z</time>
      </trkpt>
      <trkpt lat="43.60703" lon="3.72325">
        <ele>186.8</ele>
        <time>2011-02-20T09:32:22Z</time>
      </trkpt>
      <trkpt lat="43.60696" lon="3.72318">
        <ele>186.3</ele>
        <time>2011-02-20T09:32:26Z</time>
      </trkpt>
      <trkpt lat="43.60694" lon="3.72308">
        <ele>187.1</ele>
        <time>2011-02-20T09:32:30Z</time>
      </trkpt>
      <trkpt lat="43.60697" lon="3.72299">
        <ele>187.5</ele>
        <time>2011-02-20T09:32:33Z</time>
      </trkpt>
      <trkpt lat="43.60698" lon="3.72297">
        <ele>187.4</ele>
        <time>2011-02-20T09:32:34Z</time>
      </trkpt>
      <trkpt lat="43.60706" lon="3.72278">
        <ele>187.7</ele>
        <time>2011-02-20T09:33:05Z</time>
      </trkpt>
      <trkpt lat="43.60711" lon="3.7227">
        <ele>188.4</ele>
        <time>2011-02-20T09:33:10Z</time>
      </trkpt>
      <trkpt lat="43.60716" lon="3.7226">
        <ele>189.9</ele>
        <time>2011-02-20T09:33:14Z</time>
      </trkpt>
      <trkpt lat="43.60718" lon="3.72249">
        <ele>190.6</ele>
        <time>2011-02-20T09:33:18Z</time>
      </trkpt>
      <trkpt lat="43.60719" lon="3.72237">
        <ele>190.9</ele>
        <time>2011-02-20T09:33:23Z</time>
      </trkpt>
      <trkpt lat="43.6072" lon="3.72227">
        <ele>192.3</ele>
        <time>2011-02-20T09:33:28Z</time>
      </trkpt>
      <trkpt lat="43.6072" lon="3.72216">
        <ele>192.1</ele>
        <time>2011-02-20T09:33:32Z</time>
      </trkpt>
      <trkpt lat="43.60721" lon="3.72204">
        <ele>191.8</ele>
        <time>2011-02-20T09:33:36Z</time>
      </trkpt>
      <trkpt lat="43.60721" lon="3.72201">
        <ele>191.9</ele>
        <time>2011-02-20T09:33:37Z</time>
      </trkpt>
      <trkpt lat="43.60719" lon="3.7218">
        <ele>194.9</ele>
        <time>2011-02-20T09:33:44Z</time>
      </trkpt>
      <trkpt lat="43.60719" lon="3.7217">
        <ele>195.3</ele>
        <time>2011-02-20T09:33:47Z</time>
      </trkpt>
      <trkpt lat="43.60717" lon="3.7216">
        <ele>195.5</ele>
        <time>2011-02-20T09:33:50Z</time>
      </trkpt>
      <trkpt lat="43.60715" lon="3.7215">
        <ele>196</ele>
        <time>2011-02-20T09:33:53Z</time>
      </trkpt>
      <trkpt lat="43.60715" lon="3.7214">
        <ele>196.5</ele>
        <time>2011-02-20T09:33:56Z</time>
      </trkpt>
      <trkpt lat="43.60715" lon="3.72131">
        <ele>197.8</ele>
        <time>2011-02-20T09:33:59Z</time>
      </trkpt>
      <trkpt lat="43.60715" lon="3.72118">
        <ele>199.2</ele>
        <time>2011-02-20T09:34:03Z</time>
      </trkpt>
      <trkpt lat="43.60716" lon="3.72106">
        <ele>199.7</ele>
        <time>2011-02-20T09:34:07Z</time>
      </trkpt>
      <trkpt lat="43.60717" lon="3.72094">
        <ele>200.2</ele>
        <time>2011-02-20T09:34:11Z</time>
      </trkpt>
      <trkpt lat="43.60718" lon="3.72085">
        <ele>201.1</ele>
        <time>2011-02-20T09:34:14Z</time>
      </trkpt>
      <trkpt lat="43.60719" lon="3.72076">
        <ele>201.6</ele>
        <time>2011-02-20T09:34:17Z</time>
      </trkpt>
      <trkpt lat="43.6072" lon="3.72066">
        <ele>202</ele>
        <time>2011-02-20T09:34:20Z</time>
      </trkpt>
      <trkpt lat="43.6072" lon="3.72054">
        <ele>202.5</ele>
        <time>2011-02-20T09:34:24Z</time>
      </trkpt>
      <trkpt lat="43.60719" lon="3.72042">
        <ele>203.1</ele>
        <time>2011-02-20T09:34:28Z</time>
      </trkpt>
      <trkpt lat="43.60716" lon="3.72031">
        <ele>202.9</ele>
        <time>2011-02-20T09:34:32Z</time>
      </trkpt>
      <trkpt lat="43.60712" lon="3.72021">
        <ele>203.8</ele>
        <time>2011-02-20T09:34:36Z</time>
      </trkpt>
      <trkpt lat="43.60707" lon="3.72013">
        <ele>205.9</ele>
        <time>2011-02-20T09:34:40Z</time>
      </trkpt>
      <trkpt lat="43.60706" lon="3.72011">
        <ele>206.3</ele>
        <time>2011-02-20T09:34:41Z</time>
      </trkpt>
      <trkpt lat="43.60697" lon="3.71998">
        <ele>208.5</ele>
        <time>2011-02-20T09:34:48Z</time>
      </trkpt>
      <trkpt lat="43.60691" lon="3.71991">
        <ele>209.3</ele>
        <time>2011-02-20T09:34:52Z</time>
      </trkpt>
      <trkpt lat="43.60686" lon="3.71983">
        <ele>209.6</ele>
        <time>2011-02-20T09:34:56Z</time>
      </trkpt>
      <trkpt lat="43.60681" lon="3.71974">
        <ele>211.5</ele>
        <time>2011-02-20T09:35:00Z</time>
      </trkpt>
      <trkpt lat="43.60678" lon="3.71964">
        <ele>213</ele>
        <time>2011-02-20T09:35:04Z</time>
      </trkpt>
      <trkpt lat="43.60673" lon="3.71954">
        <ele>214.5</ele>
        <time>2011-02-20T09:35:19Z</time>
      </trkpt>
      <trkpt lat="43.60664" lon="3.71954">
        <ele>213.2</ele>
        <time>2011-02-20T09:36:18Z</time>
      </trkpt>
      <trkpt lat="43.60662" lon="3.71955">
        <ele>213</ele>
        <time>2011-02-20T09:36:19Z</time>
      </trkpt>
      <trkpt lat="43.60647" lon="3.71962">
        <ele>209.5</ele>
        <time>2011-02-20T09:36:26Z</time>
      </trkpt>
      <trkpt lat="43.6064" lon="3.71964">
        <ele>207.3</ele>
        <time>2011-02-20T09:36:30Z</time>
      </trkpt>
      <trkpt lat="43.60632" lon="3.71967">
        <ele>206</ele>
        <time>2011-02-20T09:36:34Z</time>
      </trkpt>
      <trkpt lat="43.60624" lon="3.71971">
        <ele>203</ele>
        <time>2011-02-20T09:36:38Z</time>
      </trkpt>
      <trkpt lat="43.60617" lon="3.71975">
        <ele>201</ele>
        <time>2011-02-20T09:36:41Z</time>
      </trkpt>
      <trkpt lat="43.6061" lon="3.71978">
        <ele>197.3</ele>
        <time>2011-02-20T09:36:44Z</time>
      </trkpt>
      <trkpt lat="43.60603" lon="3.71982">
        <ele>195.2</ele>
        <time>2011-02-20T09:36:47Z</time>
      </trkpt>
      <trkpt lat="43.60597" lon="3.71985">
        <ele>193.2</ele>
        <time>2011-02-20T09:36:49Z</time>
      </trkpt>
      <trkpt lat="43.6059" lon="3.71988">
        <ele>192</ele>
        <time>2011-02-20T09:36:51Z</time>
      </trkpt>
      <trkpt lat="43.60582" lon="3.7199">
        <ele>188</ele>
        <time>2011-02-20T09:36:54Z</time>
      </trkpt>
      <trkpt lat="43.60573" lon="3.71993">
        <ele>184.7</ele>
        <time>2011-02-20T09:36:57Z</time>
      </trkpt>
      <trkpt lat="43.60566" lon="3.71996">
        <ele>182.6</ele>
        <time>2011-02-20T09:36:59Z</time>
      </trkpt>
      <trkpt lat="43.60561" lon="3.71998">
        <ele>181.9</ele>
        <time>2011-02-20T09:37:00Z</time>
      </trkpt>
      <trkpt lat="43.60556" lon="3.71999">
        <ele>180.4</ele>
        <time>2011-02-20T09:37:01Z</time>
      </trkpt>
      <trkpt lat="43.60551" lon="3.72001">
        <ele>179.2</ele>
        <time>2011-02-20T09:37:02Z</time>
      </trkpt>
      <trkpt lat="43.60546" lon="3.72001">
        <ele>178.4</ele>
        <time>2011-02-20T09:37:03Z</time>
      </trkpt>
      <trkpt lat="43.60537" lon="3.72003">
        <ele>175.8</ele>
        <time>2011-02-20T09:37:06Z</time>
      </trkpt>
      <trkpt lat="43.60531" lon="3.72011">
        <ele>174.5</ele>
        <time>2011-02-20T09:37:26Z</time>
      </trkpt>
      <trkpt lat="43.60531" lon="3.72012">
        <ele>174.8</ele>
        <time>2011-02-20T09:37:27Z</time>
      </trkpt>
      <trkpt lat="43.60531" lon="3.72033">
        <ele>173.1</ele>
        <time>2011-02-20T09:37:41Z</time>
      </trkpt>
      <trkpt lat="43.60529" lon="3.72042">
        <ele>172.4</ele>
        <time>2011-02-20T09:37:45Z</time>
      </trkpt>
      <trkpt lat="43.6053" lon="3.72054">
        <ele>172.1</ele>
        <time>2011-02-20T09:37:50Z</time>
      </trkpt>
      <trkpt lat="43.60531" lon="3.72067">
        <ele>172.4</ele>
        <time>2011-02-20T09:37:57Z</time>
      </trkpt>
      <trkpt lat="43.60537" lon="3.72074">
        <ele>172.2</ele>
        <time>2011-02-20T09:38:04Z</time>
      </trkpt>
      <trkpt lat="43.60544" lon="3.7208">
        <ele>172.2</ele>
        <time>2011-02-20T09:38:08Z</time>
      </trkpt>
      <trkpt lat="43.60547" lon="3.72087">
        <ele>172</ele>
        <time>2011-02-20T09:38:10Z</time>
      </trkpt>
      <trkpt lat="43.60552" lon="3.72097">
        <ele>171.3</ele>
        <time>2011-02-20T09:38:12Z</time>
      </trkpt>
      <trkpt lat="43.60556" lon="3.72102">
        <ele>170.8</ele>
        <time>2011-02-20T09:38:13Z</time>
      </trkpt>
      <trkpt lat="43.6056" lon="3.72112">
        <ele>170</ele>
        <time>2011-02-20T09:38:15Z</time>
      </trkpt>
      <trkpt lat="43.60563" lon="3.72122">
        <ele>169.4</ele>
        <time>2011-02-20T09:38:17Z</time>
      </trkpt>
      <trkpt lat="43.60564" lon="3.7213">
        <ele>168.5</ele>
        <time>2011-02-20T09:38:19Z</time>
      </trkpt>
      <trkpt lat="43.60564" lon="3.72142">
        <ele>167.9</ele>
        <time>2011-02-20T09:38:22Z</time>
      </trkpt>
      <trkpt lat="43.6056" lon="3.72149">
        <ele>167.4</ele>
        <time>2011-02-20T09:38:24Z</time>
      </trkpt>
      <trkpt lat="43.60557" lon="3.7216">
        <ele>166.9</ele>
        <time>2011-02-20T09:38:26Z</time>
      </trkpt>
      <trkpt lat="43.60556" lon="3.72167">
        <ele>166.7</ele>
        <time>2011-02-20T09:38:27Z</time>
      </trkpt>
      <trkpt lat="43.60555" lon="3.72174">
        <ele>166.3</ele>
        <time>2011-02-20T09:38:28Z</time>
      </trkpt>
      <trkpt lat="43.60553" lon="3.72182">
        <ele>166</ele>
        <time>2011-02-20T09:38:29Z</time>
      </trkpt>
      <trkpt lat="43.60551" lon="3.7219">
        <ele>165.7</ele>
        <time>2011-02-20T09:38:30Z</time>
      </trkpt>
      <trkpt lat="43.60549" lon="3.72198">
        <ele>165.2</ele>
        <time>2011-02-20T09:38:31Z</time>
      </trkpt>
      <trkpt lat="43.60546" lon="3.72206">
        <ele>164.7</ele>
        <time>2011-02-20T09:38:32Z</time>
      </trkpt>
      <trkpt lat="43.60542" lon="3.72214">
        <ele>164.4</ele>
        <time>2011-02-20T09:38:33Z</time>
      </trkpt>
      <trkpt lat="43.60539" lon="3.72222">
        <ele>163.7</ele>
        <time>2011-02-20T09:38:34Z</time>
      </trkpt>
      <trkpt lat="43.60536" lon="3.7223">
        <ele>163.2</ele>
        <time>2011-02-20T09:38:35Z</time>
      </trkpt>
      <trkpt lat="43.60532" lon="3.72238">
        <ele>162.8</ele>
        <time>2011-02-20T09:38:36Z</time>
      </trkpt>
      <trkpt lat="43.60528" lon="3.72246">
        <ele>162.7</ele>
        <time>2011-02-20T09:38:37Z</time>
      </trkpt>
      <trkpt lat="43.60523" lon="3.72254">
        <ele>162.5</ele>
        <time>2011-02-20T09:38:38Z</time>
      </trkpt>
      <trkpt lat="43.60519" lon="3.72261">
        <ele>162.4</ele>
        <time>2011-02-20T09:38:39Z</time>
      </trkpt>
      <trkpt lat="43.60515" lon="3.72269">
        <ele>161.8</ele>
        <time>2011-02-20T09:38:40Z</time>
      </trkpt>
      <trkpt lat="43.6051" lon="3.72277">
        <ele>161.4</ele>
        <time>2011-02-20T09:38:41Z</time>
      </trkpt>
      <trkpt lat="43.60506" lon="3.72285">
        <ele>161</ele>
        <time>2011-02-20T09:38:42Z</time>
      </trkpt>
      <trkpt lat="43.60502" lon="3.72293">
        <ele>160.3</ele>
        <time>2011-02-20T09:38:43Z</time>
      </trkpt>
      <trkpt lat="43.60499" lon="3.72302">
        <ele>159.7</ele>
        <time>2011-02-20T09:38:44Z</time>
      </trkpt>
      <trkpt lat="43.60495" lon="3.7231">
        <ele>159.3</ele>
        <time>2011-02-20T09:38:45Z</time>
      </trkpt>
      <trkpt lat="43.60492" lon="3.72318">
        <ele>159</ele>
        <time>2011-02-20T09:38:46Z</time>
      </trkpt>
      <trkpt lat="43.60488" lon="3.72327">
        <ele>159</ele>
        <time>2011-02-20T09:38:47Z</time>
      </trkpt>
      <trkpt lat="43.60484" lon="3.72335">
        <ele>159.1</ele>
        <time>2011-02-20T09:38:48Z</time>
      </trkpt>
      <trkpt lat="43.6048" lon="3.72344">
        <ele>159.1</ele>
        <time>2011-02-20T09:38:49Z</time>
      </trkpt>
      <trkpt lat="43.60476" lon="3.72353">
        <ele>158.4</ele>
        <time>2011-02-20T09:38:50Z</time>
      </trkpt>
      <trkpt lat="43.60472" lon="3.72361">
        <ele>157.9</ele>
        <time>2011-02-20T09:38:51Z</time>
      </trkpt>
      <trkpt lat="43.60467" lon="3.72369">
        <ele>157.5</ele>
        <time>2011-02-20T09:38:52Z</time>
      </trkpt>
      <trkpt lat="43.60463" lon="3.72377">
        <ele>157.6</ele>
        <time>2011-02-20T09:38:53Z</time>
      </trkpt>
      <trkpt lat="43.6046" lon="3.72385">
        <ele>157.6</ele>
        <time>2011-02-20T09:38:54Z</time>
      </trkpt>
      <trkpt lat="43.60459" lon="3.72395">
        <ele>157.7</ele>
        <time>2011-02-20T09:38:55Z</time>
      </trkpt>
      <trkpt lat="43.60456" lon="3.72403">
        <ele>157.3</ele>
        <time>2011-02-20T09:38:56Z</time>
      </trkpt>
      <trkpt lat="43.60452" lon="3.72411">
        <ele>156.9</ele>
        <time>2011-02-20T09:38:57Z</time>
      </trkpt>
      <trkpt lat="43.60446" lon="3.72417">
        <ele>156.7</ele>
        <time>2011-02-20T09:38:58Z</time>
      </trkpt>
      <trkpt lat="43.60441" lon="3.72423">
        <ele>156.8</ele>
        <time>2011-02-20T09:38:59Z</time>
      </trkpt>
      <trkpt lat="43.60436" lon="3.72429">
        <ele>156.8</ele>
        <time>2011-02-20T09:39:00Z</time>
      </trkpt>
      <trkpt lat="43.60431" lon="3.72436">
        <ele>156.8</ele>
        <time>2011-02-20T09:39:01Z</time>
      </trkpt>
      <trkpt lat="43.60425" lon="3.72441">
        <ele>156.9</ele>
        <time>2011-02-20T09:39:02Z</time>
      </trkpt>
      <trkpt lat="43.60418" lon="3.72445">
        <ele>156.5</ele>
        <time>2011-02-20T09:39:03Z</time>
      </trkpt>
      <trkpt lat="43.60411" lon="3.72448">
        <ele>156.2</ele>
        <time>2011-02-20T09:39:04Z</time>
      </trkpt>
      <trkpt lat="43.60404" lon="3.72451">
        <ele>156</ele>
        <time>2011-02-20T09:39:05Z</time>
      </trkpt>
      <trkpt lat="43.60398" lon="3.72455">
        <ele>155.9</ele>
        <time>2011-02-20T09:39:06Z</time>
      </trkpt>
      <trkpt lat="43.60391" lon="3.72459">
        <ele>155.8</ele>
        <time>2011-02-20T09:39:07Z</time>
      </trkpt>
      <trkpt lat="43.60385" lon="3.72464">
        <ele>155.7</ele>
        <time>2011-02-20T09:39:08Z</time>
      </trkpt>
      <trkpt lat="43.60378" lon="3.7247">
        <ele>155.5</ele>
        <time>2011-02-20T09:39:09Z</time>
      </trkpt>
      <trkpt lat="43.60372" lon="3.72475">
        <ele>155.3</ele>
        <time>2011-02-20T09:39:10Z</time>
      </trkpt>
      <trkpt lat="43.60365" lon="3.72481">
        <ele>155.2</ele>
        <time>2011-02-20T09:39:11Z</time>
      </trkpt>
      <trkpt lat="43.60359" lon="3.72487">
        <ele>155.3</ele>
        <time>2011-02-20T09:39:12Z</time>
      </trkpt>
      <trkpt lat="43.60353" lon="3.72493">
        <ele>155.3</ele>
        <time>2011-02-20T09:39:13Z</time>
      </trkpt>
      <trkpt lat="43.60347" lon="3.72499">
        <ele>155.4</ele>
        <time>2011-02-20T09:39:14Z</time>
      </trkpt>
      <trkpt lat="43.6034" lon="3.72505">
        <ele>154.9</ele>
        <time>2011-02-20T09:39:15Z</time>
      </trkpt>
      <trkpt lat="43.60333" lon="3.72511">
        <ele>154.5</ele>
        <time>2011-02-20T09:39:16Z</time>
      </trkpt>
      <trkpt lat="43.60325" lon="3.72519">
        <ele>154.2</ele>
        <time>2011-02-20T09:39:17Z</time>
      </trkpt>
      <trkpt lat="43.60317" lon="3.72525">
        <ele>154</ele>
        <time>2011-02-20T09:39:18Z</time>
      </trkpt>
      <trkpt lat="43.6031" lon="3.72532">
        <ele>153.4</ele>
        <time>2011-02-20T09:39:19Z</time>
      </trkpt>
      <trkpt lat="43.60302" lon="3.72539">
        <ele>152.9</ele>
        <time>2011-02-20T09:39:20Z</time>
      </trkpt>
      <trkpt lat="43.60293" lon="3.72544">
        <ele>152.6</ele>
        <time>2011-02-20T09:39:21Z</time>
      </trkpt>
      <trkpt lat="43.60285" lon="3.72549">
        <ele>152</ele>
        <time>2011-02-20T09:39:22Z</time>
      </trkpt>
      <trkpt lat="43.60277" lon="3.72554">
        <ele>151.6</ele>
        <time>2011-02-20T09:39:23Z</time>
      </trkpt>
      <trkpt lat="43.60268" lon="3.7256">
        <ele>151.2</ele>
        <time>2011-02-20T09:39:24Z</time>
      </trkpt>
      <trkpt lat="43.6026" lon="3.72567">
        <ele>150.4</ele>
        <time>2011-02-20T09:39:25Z</time>
      </trkpt>
      <trkpt lat="43.60253" lon="3.72573">
        <ele>149.8</ele>
        <time>2011-02-20T09:39:26Z</time>
      </trkpt>
      <trkpt lat="43.60245" lon="3.7258">
        <ele>149.4</ele>
        <time>2011-02-20T09:39:27Z</time>
      </trkpt>
      <trkpt lat="43.60237" lon="3.72586">
        <ele>149</ele>
        <time>2011-02-20T09:39:28Z</time>
      </trkpt>
      <trkpt lat="43.6023" lon="3.72593">
        <ele>148.7</ele>
        <time>2011-02-20T09:39:29Z</time>
      </trkpt>
      <trkpt lat="43.60222" lon="3.726">
        <ele>148.5</ele>
        <time>2011-02-20T09:39:30Z</time>
      </trkpt>
      <trkpt lat="43.60215" lon="3.72607">
        <ele>149</ele>
        <time>2011-02-20T09:39:31Z</time>
      </trkpt>
      <trkpt lat="43.60208" lon="3.72614">
        <ele>149.4</ele>
        <time>2011-02-20T09:39:32Z</time>
      </trkpt>
      <trkpt lat="43.60201" lon="3.72621">
        <ele>149.8</ele>
        <time>2011-02-20T09:39:33Z</time>
      </trkpt>
      <trkpt lat="43.60194" lon="3.72628">
        <ele>150</ele>
        <time>2011-02-20T09:39:34Z</time>
      </trkpt>
      <trkpt lat="43.60187" lon="3.72635">
        <ele>150.1</ele>
        <time>2011-02-20T09:39:35Z</time>
      </trkpt>
      <trkpt lat="43.6018" lon="3.72642">
        <ele>150.2</ele>
        <time>2011-02-20T09:39:36Z</time>
      </trkpt>
      <trkpt lat="43.60173" lon="3.72649">
        <ele>150.3</ele>
        <time>2011-02-20T09:39:37Z</time>
      </trkpt>
      <trkpt lat="43.60166" lon="3.72656">
        <ele>150.3</ele>
        <time>2011-02-20T09:39:38Z</time>
      </trkpt>
      <trkpt lat="43.6016" lon="3.72664">
        <ele>150.3</ele>
        <time>2011-02-20T09:39:39Z</time>
      </trkpt>
      <trkpt lat="43.60155" lon="3.72672">
        <ele>150.3</ele>
        <time>2011-02-20T09:39:40Z</time>
      </trkpt>
      <trkpt lat="43.60151" lon="3.7268">
        <ele>149.9</ele>
        <time>2011-02-20T09:39:41Z</time>
      </trkpt>
      <trkpt lat="43.60146" lon="3.72688">
        <ele>149.7</ele>
        <time>2011-02-20T09:39:42Z</time>
      </trkpt>
      <trkpt lat="43.60141" lon="3.72695">
        <ele>149.5</ele>
        <time>2011-02-20T09:39:43Z</time>
      </trkpt>
      <trkpt lat="43.60136" lon="3.72702">
        <ele>149.5</ele>
        <time>2011-02-20T09:39:44Z</time>
      </trkpt>
      <trkpt lat="43.60132" lon="3.72709">
        <ele>149.5</ele>
        <time>2011-02-20T09:39:45Z</time>
      </trkpt>
      <trkpt lat="43.60127" lon="3.72716">
        <ele>149.5</ele>
        <time>2011-02-20T09:39:46Z</time>
      </trkpt>
      <trkpt lat="43.60122" lon="3.72722">
        <ele>149.2</ele>
        <time>2011-02-20T09:39:47Z</time>
      </trkpt>
      <trkpt lat="43.60117" lon="3.72729">
        <ele>149</ele>
        <time>2011-02-20T09:39:48Z</time>
      </trkpt>
      <trkpt lat="43.60112" lon="3.72735">
        <ele>148.9</ele>
        <time>2011-02-20T09:39:49Z</time>
      </trkpt>
      <trkpt lat="43.60106" lon="3.72741">
        <ele>148.3</ele>
        <time>2011-02-20T09:39:50Z</time>
      </trkpt>
      <trkpt lat="43.601" lon="3.72747">
        <ele>147.9</ele>
        <time>2011-02-20T09:39:51Z</time>
      </trkpt>
      <trkpt lat="43.60093" lon="3.72752">
        <ele>147.6</ele>
        <time>2011-02-20T09:39:52Z</time>
      </trkpt>
      <trkpt lat="43.60086" lon="3.72757">
        <ele>147.3</ele>
        <time>2011-02-20T09:39:53Z</time>
      </trkpt>
      <trkpt lat="43.6008" lon="3.72763">
        <ele>147.1</ele>
        <time>2011-02-20T09:39:54Z</time>
      </trkpt>
      <trkpt lat="43.60074" lon="3.72766">
        <ele>146.9</ele>
        <time>2011-02-20T09:39:55Z</time>
      </trkpt>
      <trkpt lat="43.60068" lon="3.72769">
        <ele>146.8</ele>
        <time>2011-02-20T09:39:56Z</time>
      </trkpt>
      <trkpt lat="43.60061" lon="3.72771">
        <ele>146.3</ele>
        <time>2011-02-20T09:39:57Z</time>
      </trkpt>
      <trkpt lat="43.60056" lon="3.7277">
        <ele>145.9</ele>
        <time>2011-02-20T09:39:58Z</time>
      </trkpt>
      <trkpt lat="43.60052" lon="3.72766">
        <ele>145.6</ele>
        <time>2011-02-20T09:39:59Z</time>
      </trkpt>
      <trkpt lat="43.60049" lon="3.7276">
        <ele>145.1</ele>
        <time>2011-02-20T09:40:00Z</time>
      </trkpt>
      <trkpt lat="43.60046" lon="3.72753">
        <ele>144.6</ele>
        <time>2011-02-20T09:40:01Z</time>
      </trkpt>
      <trkpt lat="43.60042" lon="3.72747">
        <ele>144.3</ele>
        <time>2011-02-20T09:40:02Z</time>
      </trkpt>
      <trkpt lat="43.60039" lon="3.72741">
        <ele>144.1</ele>
        <time>2011-02-20T09:40:03Z</time>
      </trkpt>
      <trkpt lat="43.60036" lon="3.72734">
        <ele>144</ele>
        <time>2011-02-20T09:40:04Z</time>
      </trkpt>
      <trkpt lat="43.60032" lon="3.72728">
        <ele>143.8</ele>
        <time>2011-02-20T09:40:05Z</time>
      </trkpt>
      <trkpt lat="43.60028" lon="3.72724">
        <ele>143.7</ele>
        <time>2011-02-20T09:40:06Z</time>
      </trkpt>
      <trkpt lat="43.60023" lon="3.72719">
        <ele>143.6</ele>
        <time>2011-02-20T09:40:07Z</time>
      </trkpt>
      <trkpt lat="43.60018" lon="3.72717">
        <ele>143.5</ele>
        <time>2011-02-20T09:40:08Z</time>
      </trkpt>
      <trkpt lat="43.60013" lon="3.72717">
        <ele>143.4</ele>
        <time>2011-02-20T09:40:09Z</time>
      </trkpt>
      <trkpt lat="43.60008" lon="3.72717">
        <ele>143.6</ele>
        <time>2011-02-20T09:40:10Z</time>
      </trkpt>
      <trkpt lat="43.6" lon="3.72717">
        <ele>143.8</ele>
        <time>2011-02-20T09:40:12Z</time>
      </trkpt>
      <trkpt lat="43.59991" lon="3.72713">
        <ele>143.4</ele>
        <time>2011-02-20T09:40:15Z</time>
      </trkpt>
      <trkpt lat="43.59985" lon="3.72707">
        <ele>144.9</ele>
        <time>2011-02-20T09:40:19Z</time>
      </trkpt>
      <trkpt lat="43.5998" lon="3.72702">
        <ele>145.2</ele>
        <time>2011-02-20T09:40:22Z</time>
      </trkpt>
      <trkpt lat="43.59974" lon="3.72695">
        <ele>145.3</ele>
        <time>2011-02-20T09:40:25Z</time>
      </trkpt>
      <trkpt lat="43.59967" lon="3.72688">
        <ele>146</ele>
        <time>2011-02-20T09:40:28Z</time>
      </trkpt>
      <trkpt lat="43.5996" lon="3.72681">
        <ele>146.8</ele>
        <time>2011-02-20T09:40:31Z</time>
      </trkpt>
      <trkpt lat="43.59957" lon="3.72679">
        <ele>147.1</ele>
        <time>2011-02-20T09:40:32Z</time>
      </trkpt>
      <trkpt lat="43.59947" lon="3.72669">
        <ele>147.9</ele>
        <time>2011-02-20T09:40:36Z</time>
      </trkpt>
      <trkpt lat="43.59941" lon="3.72663">
        <ele>148.1</ele>
        <time>2011-02-20T09:40:38Z</time>
      </trkpt>
      <trkpt lat="43.59934" lon="3.72655">
        <ele>148.2</ele>
        <time>2011-02-20T09:40:40Z</time>
      </trkpt>
      <trkpt lat="43.59931" lon="3.72651">
        <ele>148.2</ele>
        <time>2011-02-20T09:40:41Z</time>
      </trkpt>
      <trkpt lat="43.59927" lon="3.72645">
        <ele>147.6</ele>
        <time>2011-02-20T09:40:42Z</time>
      </trkpt>
      <trkpt lat="43.59923" lon="3.7264">
        <ele>147.1</ele>
        <time>2011-02-20T09:40:43Z</time>
      </trkpt>
      <trkpt lat="43.59919" lon="3.72634">
        <ele>146.7</ele>
        <time>2011-02-20T09:40:44Z</time>
      </trkpt>
      <trkpt lat="43.59914" lon="3.72628">
        <ele>146.6</ele>
        <time>2011-02-20T09:40:45Z</time>
      </trkpt>
      <trkpt lat="43.5991" lon="3.72623">
        <ele>146.6</ele>
        <time>2011-02-20T09:40:46Z</time>
      </trkpt>
      <trkpt lat="43.59906" lon="3.72617">
        <ele>146.5</ele>
        <time>2011-02-20T09:40:47Z</time>
      </trkpt>
      <trkpt lat="43.59902" lon="3.72612">
        <ele>146.7</ele>
        <time>2011-02-20T09:40:48Z</time>
      </trkpt>
      <trkpt lat="43.59898" lon="3.72607">
        <ele>146.9</ele>
        <time>2011-02-20T09:40:49Z</time>
      </trkpt>
      <trkpt lat="43.59893" lon="3.72603">
        <ele>147</ele>
        <time>2011-02-20T09:40:50Z</time>
      </trkpt>
      <trkpt lat="43.59887" lon="3.72599">
        <ele>146.7</ele>
        <time>2011-02-20T09:40:51Z</time>
      </trkpt>
      <trkpt lat="43.59882" lon="3.72596">
        <ele>146.5</ele>
        <time>2011-02-20T09:40:52Z</time>
      </trkpt>
      <trkpt lat="43.59878" lon="3.72593">
        <ele>146.3</ele>
        <time>2011-02-20T09:40:53Z</time>
      </trkpt>
      <trkpt lat="43.5987" lon="3.72589">
        <ele>146.8</ele>
        <time>2011-02-20T09:40:55Z</time>
      </trkpt>
      <trkpt lat="43.59863" lon="3.72582">
        <ele>147.1</ele>
        <time>2011-02-20T09:40:57Z</time>
      </trkpt>
      <trkpt lat="43.59859" lon="3.72576">
        <ele>147.3</ele>
        <time>2011-02-20T09:40:59Z</time>
      </trkpt>
      <trkpt lat="43.59853" lon="3.72567">
        <ele>147.3</ele>
        <time>2011-02-20T09:41:03Z</time>
      </trkpt>
      <trkpt lat="43.59848" lon="3.72558">
        <ele>147.2</ele>
        <time>2011-02-20T09:41:07Z</time>
      </trkpt>
      <trkpt lat="43.59843" lon="3.72548">
        <ele>147.6</ele>
        <time>2011-02-20T09:41:11Z</time>
      </trkpt>
      <trkpt lat="43.59839" lon="3.72539">
        <ele>148.4</ele>
        <time>2011-02-20T09:41:15Z</time>
      </trkpt>
      <trkpt lat="43.59835" lon="3.72531">
        <ele>148.4</ele>
        <time>2011-02-20T09:41:19Z</time>
      </trkpt>
      <trkpt lat="43.5983" lon="3.72523">
        <ele>148.7</ele>
        <time>2011-02-20T09:41:23Z</time>
      </trkpt>
      <trkpt lat="43.59825" lon="3.72514">
        <ele>149.1</ele>
        <time>2011-02-20T09:41:27Z</time>
      </trkpt>
      <trkpt lat="43.5982" lon="3.72505">
        <ele>149.2</ele>
        <time>2011-02-20T09:41:31Z</time>
      </trkpt>
      <trkpt lat="43.59815" lon="3.72496">
        <ele>149.4</ele>
        <time>2011-02-20T09:41:35Z</time>
      </trkpt>
      <trkpt lat="43.59813" lon="3.72493">
        <ele>149.7</ele>
        <time>2011-02-20T09:41:36Z</time>
      </trkpt>
      <trkpt lat="43.59804" lon="3.72479">
        <ele>150.7</ele>
        <time>2011-02-20T09:41:43Z</time>
      </trkpt>
      <trkpt lat="43.59797" lon="3.72472">
        <ele>150.7</ele>
        <time>2011-02-20T09:41:47Z</time>
      </trkpt>
      <trkpt lat="43.5979" lon="3.72466">
        <ele>150.4</ele>
        <time>2011-02-20T09:41:51Z</time>
      </trkpt>
      <trkpt lat="43.59785" lon="3.72459">
        <ele>152.5</ele>
        <time>2011-02-20T09:41:55Z</time>
      </trkpt>
      <trkpt lat="43.59779" lon="3.72452">
        <ele>153.8</ele>
        <time>2011-02-20T09:41:59Z</time>
      </trkpt>
      <trkpt lat="43.59773" lon="3.72445">
        <ele>154.3</ele>
        <time>2011-02-20T09:42:03Z</time>
      </trkpt>
      <trkpt lat="43.59766" lon="3.72439">
        <ele>155.5</ele>
        <time>2011-02-20T09:42:07Z</time>
      </trkpt>
      <trkpt lat="43.5976" lon="3.72432">
        <ele>155.6</ele>
        <time>2011-02-20T09:42:11Z</time>
      </trkpt>
      <trkpt lat="43.59754" lon="3.72424">
        <ele>156.4</ele>
        <time>2011-02-20T09:42:15Z</time>
      </trkpt>
      <trkpt lat="43.5975" lon="3.72414">
        <ele>156.9</ele>
        <time>2011-02-20T09:42:19Z</time>
      </trkpt>
      <trkpt lat="43.59746" lon="3.72404">
        <ele>158</ele>
        <time>2011-02-20T09:42:23Z</time>
      </trkpt>
      <trkpt lat="43.59743" lon="3.72393">
        <ele>158.5</ele>
        <time>2011-02-20T09:42:27Z</time>
      </trkpt>
      <trkpt lat="43.5974" lon="3.72384">
        <ele>159.5</ele>
        <time>2011-02-20T09:42:30Z</time>
      </trkpt>
      <trkpt lat="43.59738" lon="3.72375">
        <ele>160.1</ele>
        <time>2011-02-20T09:42:33Z</time>
      </trkpt>
      <trkpt lat="43.59736" lon="3.72366">
        <ele>160.6</ele>
        <time>2011-02-20T09:42:36Z</time>
      </trkpt>
      <trkpt lat="43.59735" lon="3.72364">
        <ele>160.7</ele>
        <time>2011-02-20T09:42:37Z</time>
      </trkpt>
      <trkpt lat="43.59732" lon="3.72345">
        <ele>160.9</ele>
        <time>2011-02-20T09:42:43Z</time>
      </trkpt>
      <trkpt lat="43.59731" lon="3.72335">
        <ele>161.2</ele>
        <time>2011-02-20T09:42:46Z</time>
      </trkpt>
      <trkpt lat="43.59729" lon="3.72324">
        <ele>161.7</ele>
        <time>2011-02-20T09:42:50Z</time>
      </trkpt>
      <trkpt lat="43.59728" lon="3.72314">
        <ele>161.9</ele>
        <time>2011-02-20T09:42:53Z</time>
      </trkpt>
      <trkpt lat="43.59727" lon="3.72304">
        <ele>162</ele>
        <time>2011-02-20T09:42:56Z</time>
      </trkpt>
      <trkpt lat="43.59726" lon="3.72294">
        <ele>162.1</ele>
        <time>2011-02-20T09:42:59Z</time>
      </trkpt>
      <trkpt lat="43.59725" lon="3.72285">
        <ele>162.2</ele>
        <time>2011-02-20T09:43:02Z</time>
      </trkpt>
      <trkpt lat="43.59724" lon="3.72275">
        <ele>162.8</ele>
        <time>2011-02-20T09:43:05Z</time>
      </trkpt>
      <trkpt lat="43.59724" lon="3.72265">
        <ele>163.2</ele>
        <time>2011-02-20T09:43:08Z</time>
      </trkpt>
      <trkpt lat="43.59723" lon="3.72255">
        <ele>163.1</ele>
        <time>2011-02-20T09:43:11Z</time>
      </trkpt>
      <trkpt lat="43.59722" lon="3.72244">
        <ele>164.4</ele>
        <time>2011-02-20T09:43:14Z</time>
      </trkpt>
      <trkpt lat="43.59721" lon="3.72234">
        <ele>164.3</ele>
        <time>2011-02-20T09:43:17Z</time>
      </trkpt>
      <trkpt lat="43.59721" lon="3.72225">
        <ele>162.6</ele>
        <time>2011-02-20T09:43:20Z</time>
      </trkpt>
      <trkpt lat="43.59721" lon="3.72213">
        <ele>163</ele>
        <time>2011-02-20T09:43:24Z</time>
      </trkpt>
      <trkpt lat="43.5972" lon="3.72201">
        <ele>163.6</ele>
        <time>2011-02-20T09:43:28Z</time>
      </trkpt>
      <trkpt lat="43.5972" lon="3.72189">
        <ele>164.6</ele>
        <time>2011-02-20T09:43:32Z</time>
      </trkpt>
      <trkpt lat="43.59718" lon="3.72177">
        <ele>165.3</ele>
        <time>2011-02-20T09:43:36Z</time>
      </trkpt>
      <trkpt lat="43.59718" lon="3.72165">
        <ele>165.7</ele>
        <time>2011-02-20T09:43:40Z</time>
      </trkpt>
      <trkpt lat="43.59717" lon="3.72162">
        <ele>165.8</ele>
        <time>2011-02-20T09:43:41Z</time>
      </trkpt>
      <trkpt lat="43.59713" lon="3.72143">
        <ele>166.5</ele>
        <time>2011-02-20T09:43:48Z</time>
      </trkpt>
      <trkpt lat="43.59712" lon="3.72133">
        <ele>166.7</ele>
        <time>2011-02-20T09:43:52Z</time>
      </trkpt>
      <trkpt lat="43.59712" lon="3.72121">
        <ele>167.9</ele>
        <time>2011-02-20T09:43:56Z</time>
      </trkpt>
      <trkpt lat="43.59715" lon="3.7211">
        <ele>168.4</ele>
        <time>2011-02-20T09:44:00Z</time>
      </trkpt>
      <trkpt lat="43.59718" lon="3.72101">
        <ele>169.4</ele>
        <time>2011-02-20T09:44:03Z</time>
      </trkpt>
      <trkpt lat="43.59722" lon="3.72091">
        <ele>170.9</ele>
        <time>2011-02-20T09:44:07Z</time>
      </trkpt>
      <trkpt lat="43.59722" lon="3.72079">
        <ele>172.8</ele>
        <time>2011-02-20T09:44:11Z</time>
      </trkpt>
      <trkpt lat="43.5972" lon="3.72069">
        <ele>173.6</ele>
        <time>2011-02-20T09:44:15Z</time>
      </trkpt>
      <trkpt lat="43.59717" lon="3.72059">
        <ele>173.8</ele>
        <time>2011-02-20T09:44:19Z</time>
      </trkpt>
      <trkpt lat="43.59715" lon="3.72048">
        <ele>174.5</ele>
        <time>2011-02-20T09:44:23Z</time>
      </trkpt>
      <trkpt lat="43.59714" lon="3.72037">
        <ele>174.4</ele>
        <time>2011-02-20T09:44:27Z</time>
      </trkpt>
      <trkpt lat="43.59715" lon="3.72025">
        <ele>175.5</ele>
        <time>2011-02-20T09:44:31Z</time>
      </trkpt>
      <trkpt lat="43.59715" lon="3.72015">
        <ele>176</ele>
        <time>2011-02-20T09:44:35Z</time>
      </trkpt>
      <trkpt lat="43.59717" lon="3.72005">
        <ele>177.8</ele>
        <time>2011-02-20T09:44:39Z</time>
      </trkpt>
      <trkpt lat="43.59718" lon="3.71995">
        <ele>179.1</ele>
        <time>2011-02-20T09:44:43Z</time>
      </trkpt>
      <trkpt lat="43.59719" lon="3.71992">
        <ele>179.5</ele>
        <time>2011-02-20T09:44:44Z</time>
      </trkpt>
      <trkpt lat="43.59724" lon="3.71976">
        <ele>181.9</ele>
        <time>2011-02-20T09:44:51Z</time>
      </trkpt>
      <trkpt lat="43.59726" lon="3.71965">
        <ele>183.4</ele>
        <time>2011-02-20T09:44:55Z</time>
      </trkpt>
      <trkpt lat="43.59727" lon="3.71955">
        <ele>184.4</ele>
        <time>2011-02-20T09:44:59Z</time>
      </trkpt>
      <trkpt lat="43.59725" lon="3.71943">
        <ele>185.7</ele>
        <time>2011-02-20T09:45:03Z</time>
      </trkpt>
      <trkpt lat="43.59725" lon="3.71932">
        <ele>186.8</ele>
        <time>2011-02-20T09:45:07Z</time>
      </trkpt>
      <trkpt lat="43.59726" lon="3.7192">
        <ele>187.8</ele>
        <time>2011-02-20T09:45:11Z</time>
      </trkpt>
      <trkpt lat="43.59727" lon="3.71909">
        <ele>189.3</ele>
        <time>2011-02-20T09:45:15Z</time>
      </trkpt>
      <trkpt lat="43.5973" lon="3.71897">
        <ele>189.2</ele>
        <time>2011-02-20T09:45:19Z</time>
      </trkpt>
      <trkpt lat="43.59733" lon="3.71888">
        <ele>189.7</ele>
        <time>2011-02-20T09:45:22Z</time>
      </trkpt>
      <trkpt lat="43.59736" lon="3.71877">
        <ele>190.3</ele>
        <time>2011-02-20T09:45:26Z</time>
      </trkpt>
      <trkpt lat="43.59739" lon="3.71868">
        <ele>190.9</ele>
        <time>2011-02-20T09:45:29Z</time>
      </trkpt>
      <trkpt lat="43.59742" lon="3.71859">
        <ele>191.3</ele>
        <time>2011-02-20T09:45:32Z</time>
      </trkpt>
      <trkpt lat="43.59745" lon="3.7185">
        <ele>192.2</ele>
        <time>2011-02-20T09:45:35Z</time>
      </trkpt>
      <trkpt lat="43.59749" lon="3.71842">
        <ele>193</ele>
        <time>2011-02-20T09:45:38Z</time>
      </trkpt>
      <trkpt lat="43.59753" lon="3.71834">
        <ele>193.3</ele>
        <time>2011-02-20T09:45:41Z</time>
      </trkpt>
      <trkpt lat="43.59757" lon="3.71826">
        <ele>193.4</ele>
        <time>2011-02-20T09:45:44Z</time>
      </trkpt>
      <trkpt lat="43.59759" lon="3.71823">
        <ele>193.9</ele>
        <time>2011-02-20T09:45:45Z</time>
      </trkpt>
      <trkpt lat="43.59765" lon="3.7181">
        <ele>193.7</ele>
        <time>2011-02-20T09:45:50Z</time>
      </trkpt>
      <trkpt lat="43.59768" lon="3.71802">
        <ele>195</ele>
        <time>2011-02-20T09:45:53Z</time>
      </trkpt>
      <trkpt lat="43.59772" lon="3.71793">
        <ele>195.8</ele>
        <time>2011-02-20T09:45:56Z</time>
      </trkpt>
      <trkpt lat="43.59775" lon="3.71785">
        <ele>196.2</ele>
        <time>2011-02-20T09:45:59Z</time>
      </trkpt>
      <trkpt lat="43.59778" lon="3.71776">
        <ele>197.3</ele>
        <time>2011-02-20T09:46:02Z</time>
      </trkpt>
      <trkpt lat="43.59779" lon="3.71764">
        <ele>199.1</ele>
        <time>2011-02-20T09:46:06Z</time>
      </trkpt>
      <trkpt lat="43.59779" lon="3.71754">
        <ele>200.8</ele>
        <time>2011-02-20T09:46:10Z</time>
      </trkpt>
      <trkpt lat="43.5978" lon="3.71742">
        <ele>201.5</ele>
        <time>2011-02-20T09:46:14Z</time>
      </trkpt>
      <trkpt lat="43.59782" lon="3.71732">
        <ele>201.7</ele>
        <time>2011-02-20T09:46:17Z</time>
      </trkpt>
      <trkpt lat="43.59784" lon="3.71724">
        <ele>202</ele>
        <time>2011-02-20T09:46:20Z</time>
      </trkpt>
      <trkpt lat="43.59789" lon="3.71714">
        <ele>202.3</ele>
        <time>2011-02-20T09:46:24Z</time>
      </trkpt>
      <trkpt lat="43.59797" lon="3.71712">
        <ele>203.1</ele>
        <time>2011-02-20T09:46:28Z</time>
      </trkpt>
      <trkpt lat="43.59797" lon="3.71701">
        <ele>193.2</ele>
        <time>2011-02-20T09:46:46Z</time>
      </trkpt>
      <trkpt lat="43.59798" lon="3.71699">
        <ele>193.1</ele>
        <time>2011-02-20T09:46:47Z</time>
      </trkpt>
      <trkpt lat="43.59812" lon="3.71688">
        <ele>191.7</ele>
        <time>2011-02-20T09:47:04Z</time>
      </trkpt>
      <trkpt lat="43.59807" lon="3.71698">
        <ele>194.3</ele>
        <time>2011-02-20T09:47:55Z</time>
      </trkpt>
      <trkpt lat="43.59807" lon="3.71699">
        <ele>194.4</ele>
        <time>2011-02-20T09:47:56Z</time>
      </trkpt>
      <trkpt lat="43.59798" lon="3.71718">
        <ele>192.4</ele>
        <time>2011-02-20T09:56:08Z</time>
      </trkpt>
      <trkpt lat="43.59797" lon="3.71719">
        <ele>192.2</ele>
        <time>2011-02-20T09:56:09Z</time>
      </trkpt>
      <trkpt lat="43.59792" lon="3.71739">
        <ele>192.2</ele>
        <time>2011-02-20T09:56:15Z</time>
      </trkpt>
      <trkpt lat="43.59791" lon="3.7175">
        <ele>191.4</ele>
        <time>2011-02-20T09:56:18Z</time>
      </trkpt>
      <trkpt lat="43.59798" lon="3.71757">
        <ele>190.3</ele>
        <time>2011-02-20T09:56:23Z</time>
      </trkpt>
      <trkpt lat="43.59807" lon="3.71755">
        <ele>189.1</ele>
        <time>2011-02-20T09:56:27Z</time>
      </trkpt>
      <trkpt lat="43.59816" lon="3.71755">
        <ele>188.8</ele>
        <time>2011-02-20T09:56:31Z</time>
      </trkpt>
      <trkpt lat="43.59823" lon="3.71756">
        <ele>188.7</ele>
        <time>2011-02-20T09:56:34Z</time>
      </trkpt>
      <trkpt lat="43.5983" lon="3.71759">
        <ele>188.7</ele>
        <time>2011-02-20T09:56:37Z</time>
      </trkpt>
      <trkpt lat="43.59837" lon="3.71759">
        <ele>188.8</ele>
        <time>2011-02-20T09:56:40Z</time>
      </trkpt>
      <trkpt lat="43.59844" lon="3.71757">
        <ele>188.5</ele>
        <time>2011-02-20T09:56:43Z</time>
      </trkpt>
      <trkpt lat="43.59851" lon="3.71754">
        <ele>188.4</ele>
        <time>2011-02-20T09:56:46Z</time>
      </trkpt>
      <trkpt lat="43.59858" lon="3.71751">
        <ele>189.3</ele>
        <time>2011-02-20T09:56:50Z</time>
      </trkpt>
      <trkpt lat="43.59865" lon="3.71748">
        <ele>189.9</ele>
        <time>2011-02-20T09:56:54Z</time>
      </trkpt>
      <trkpt lat="43.59874" lon="3.71746">
        <ele>192.7</ele>
        <time>2011-02-20T09:56:59Z</time>
      </trkpt>
      <trkpt lat="43.59882" lon="3.71747">
        <ele>194.2</ele>
        <time>2011-02-20T09:57:04Z</time>
      </trkpt>
      <trkpt lat="43.59889" lon="3.71749">
        <ele>195.5</ele>
        <time>2011-02-20T09:57:08Z</time>
      </trkpt>
      <trkpt lat="43.59898" lon="3.71753">
        <ele>197.1</ele>
        <time>2011-02-20T09:57:14Z</time>
      </trkpt>
      <trkpt lat="43.59899" lon="3.71754">
        <ele>197.6</ele>
        <time>2011-02-20T09:57:15Z</time>
      </trkpt>
      <trkpt lat="43.59913" lon="3.71747">
        <ele>200.3</ele>
        <time>2011-02-20T09:57:25Z</time>
      </trkpt>
      <trkpt lat="43.5992" lon="3.71741">
        <ele>202.3</ele>
        <time>2011-02-20T09:57:30Z</time>
      </trkpt>
      <trkpt lat="43.59928" lon="3.71739">
        <ele>202.7</ele>
        <time>2011-02-20T09:57:35Z</time>
      </trkpt>
      <trkpt lat="43.59936" lon="3.71743">
        <ele>203.5</ele>
        <time>2011-02-20T09:57:40Z</time>
      </trkpt>
      <trkpt lat="43.59943" lon="3.71748">
        <ele>204.3</ele>
        <time>2011-02-20T09:57:44Z</time>
      </trkpt>
      <trkpt lat="43.59948" lon="3.71757">
        <ele>204.2</ele>
        <time>2011-02-20T09:57:48Z</time>
      </trkpt>
      <trkpt lat="43.59952" lon="3.71765">
        <ele>205.5</ele>
        <time>2011-02-20T09:57:52Z</time>
      </trkpt>
      <trkpt lat="43.59957" lon="3.71772">
        <ele>206.1</ele>
        <time>2011-02-20T09:57:56Z</time>
      </trkpt>
      <trkpt lat="43.59963" lon="3.7178">
        <ele>206.7</ele>
        <time>2011-02-20T09:58:00Z</time>
      </trkpt>
      <trkpt lat="43.5997" lon="3.71787">
        <ele>207.3</ele>
        <time>2011-02-20T09:58:04Z</time>
      </trkpt>
      <trkpt lat="43.59977" lon="3.71793">
        <ele>208.7</ele>
        <time>2011-02-20T09:58:08Z</time>
      </trkpt>
      <trkpt lat="43.59985" lon="3.718">
        <ele>207.9</ele>
        <time>2011-02-20T09:58:12Z</time>
      </trkpt>
      <trkpt lat="43.59992" lon="3.71807">
        <ele>208.4</ele>
        <time>2011-02-20T09:58:16Z</time>
      </trkpt>
      <trkpt lat="43.59994" lon="3.71809">
        <ele>208.5</ele>
        <time>2011-02-20T09:58:17Z</time>
      </trkpt>
      <trkpt lat="43.60006" lon="3.71821">
        <ele>210.4</ele>
        <time>2011-02-20T09:58:24Z</time>
      </trkpt>
      <trkpt lat="43.60013" lon="3.71827">
        <ele>210.4</ele>
        <time>2011-02-20T09:58:28Z</time>
      </trkpt>
      <trkpt lat="43.60019" lon="3.71832">
        <ele>211.1</ele>
        <time>2011-02-20T09:58:31Z</time>
      </trkpt>
      <trkpt lat="43.60027" lon="3.71837">
        <ele>212.6</ele>
        <time>2011-02-20T09:58:35Z</time>
      </trkpt>
      <trkpt lat="43.60034" lon="3.7184">
        <ele>212.6</ele>
        <time>2011-02-20T09:58:38Z</time>
      </trkpt>
      <trkpt lat="43.60042" lon="3.71843">
        <ele>213.1</ele>
        <time>2011-02-20T09:58:42Z</time>
      </trkpt>
      <trkpt lat="43.60051" lon="3.71846">
        <ele>215.1</ele>
        <time>2011-02-20T09:58:46Z</time>
      </trkpt>
      <trkpt lat="43.60058" lon="3.71848">
        <ele>215.2</ele>
        <time>2011-02-20T09:58:49Z</time>
      </trkpt>
      <trkpt lat="43.60065" lon="3.7185">
        <ele>214.4</ele>
        <time>2011-02-20T09:58:52Z</time>
      </trkpt>
      <trkpt lat="43.60071" lon="3.71854">
        <ele>215.6</ele>
        <time>2011-02-20T09:58:55Z</time>
      </trkpt>
      <trkpt lat="43.60078" lon="3.71857">
        <ele>214.8</ele>
        <time>2011-02-20T09:58:58Z</time>
      </trkpt>
      <trkpt lat="43.60085" lon="3.7186">
        <ele>215.8</ele>
        <time>2011-02-20T09:59:01Z</time>
      </trkpt>
      <trkpt lat="43.6009" lon="3.71868">
        <ele>216.8</ele>
        <time>2011-02-20T09:59:04Z</time>
      </trkpt>
      <trkpt lat="43.60096" lon="3.71873">
        <ele>218</ele>
        <time>2011-02-20T09:59:07Z</time>
      </trkpt>
      <trkpt lat="43.60103" lon="3.71879">
        <ele>218.5</ele>
        <time>2011-02-20T09:59:10Z</time>
      </trkpt>
      <trkpt lat="43.6011" lon="3.71885">
        <ele>218.6</ele>
        <time>2011-02-20T09:59:13Z</time>
      </trkpt>
      <trkpt lat="43.60115" lon="3.71892">
        <ele>219.1</ele>
        <time>2011-02-20T09:59:16Z</time>
      </trkpt>
      <trkpt lat="43.60119" lon="3.71902">
        <ele>220.4</ele>
        <time>2011-02-20T09:59:19Z</time>
      </trkpt>
      <trkpt lat="43.6012" lon="3.71905">
        <ele>220.8</ele>
        <time>2011-02-20T09:59:20Z</time>
      </trkpt>
      <trkpt lat="43.60126" lon="3.71921">
        <ele>221.9</ele>
        <time>2011-02-20T09:59:25Z</time>
      </trkpt>
      <trkpt lat="43.60129" lon="3.71931">
        <ele>222.6</ele>
        <time>2011-02-20T09:59:28Z</time>
      </trkpt>
      <trkpt lat="43.60133" lon="3.71941">
        <ele>222.9</ele>
        <time>2011-02-20T09:59:31Z</time>
      </trkpt>
      <trkpt lat="43.60136" lon="3.71949">
        <ele>223.1</ele>
        <time>2011-02-20T09:59:33Z</time>
      </trkpt>
      <trkpt lat="43.60139" lon="3.71956">
        <ele>223.2</ele>
        <time>2011-02-20T09:59:35Z</time>
      </trkpt>
      <trkpt lat="43.60142" lon="3.71964">
        <ele>223.4</ele>
        <time>2011-02-20T09:59:37Z</time>
      </trkpt>
      <trkpt lat="43.60145" lon="3.71972">
        <ele>224</ele>
        <time>2011-02-20T09:59:39Z</time>
      </trkpt>
      <trkpt lat="43.60148" lon="3.71981">
        <ele>224.4</ele>
        <time>2011-02-20T09:59:41Z</time>
      </trkpt>
      <trkpt lat="43.60151" lon="3.71989">
        <ele>224.6</ele>
        <time>2011-02-20T09:59:43Z</time>
      </trkpt>
      <trkpt lat="43.60153" lon="3.71997">
        <ele>225.2</ele>
        <time>2011-02-20T09:59:45Z</time>
      </trkpt>
      <trkpt lat="43.60156" lon="3.72005">
        <ele>225.8</ele>
        <time>2011-02-20T09:59:47Z</time>
      </trkpt>
      <trkpt lat="43.60159" lon="3.72013">
        <ele>226.2</ele>
        <time>2011-02-20T09:59:49Z</time>
      </trkpt>
      <trkpt lat="43.60163" lon="3.72021">
        <ele>226.5</ele>
        <time>2011-02-20T09:59:51Z</time>
      </trkpt>
      <trkpt lat="43.60168" lon="3.72027">
        <ele>226.7</ele>
        <time>2011-02-20T09:59:53Z</time>
      </trkpt>
      <trkpt lat="43.60173" lon="3.72032">
        <ele>226.2</ele>
        <time>2011-02-20T09:59:55Z</time>
      </trkpt>
      <trkpt lat="43.60179" lon="3.72034">
        <ele>226</ele>
        <time>2011-02-20T09:59:57Z</time>
      </trkpt>
      <trkpt lat="43.60185" lon="3.72034">
        <ele>226.1</ele>
        <time>2011-02-20T09:59:59Z</time>
      </trkpt>
      <trkpt lat="43.60192" lon="3.72034">
        <ele>226</ele>
        <time>2011-02-20T10:00:01Z</time>
      </trkpt>
      <trkpt lat="43.60198" lon="3.72033">
        <ele>226</ele>
        <time>2011-02-20T10:00:03Z</time>
      </trkpt>
      <trkpt lat="43.60204" lon="3.72029">
        <ele>225.9</ele>
        <time>2011-02-20T10:00:05Z</time>
      </trkpt>
      <trkpt lat="43.60208" lon="3.72024">
        <ele>226.4</ele>
        <time>2011-02-20T10:00:07Z</time>
      </trkpt>
      <trkpt lat="43.60215" lon="3.72016">
        <ele>226.9</ele>
        <time>2011-02-20T10:00:10Z</time>
      </trkpt>
      <trkpt lat="43.60219" lon="3.7201">
        <ele>226.6</ele>
        <time>2011-02-20T10:00:12Z</time>
      </trkpt>
      <trkpt lat="43.60227" lon="3.72004">
        <ele>227.4</ele>
        <time>2011-02-20T10:00:15Z</time>
      </trkpt>
      <trkpt lat="43.60233" lon="3.72002">
        <ele>228</ele>
        <time>2011-02-20T10:00:17Z</time>
      </trkpt>
      <trkpt lat="43.6024" lon="3.72004">
        <ele>228.3</ele>
        <time>2011-02-20T10:00:19Z</time>
      </trkpt>
      <trkpt lat="43.60246" lon="3.72009">
        <ele>228.5</ele>
        <time>2011-02-20T10:00:21Z</time>
      </trkpt>
      <trkpt lat="43.60248" lon="3.72013">
        <ele>228.5</ele>
        <time>2011-02-20T10:00:22Z</time>
      </trkpt>
      <trkpt lat="43.60256" lon="3.72025">
        <ele>232.8</ele>
        <time>2011-02-20T10:00:30Z</time>
      </trkpt>
      <trkpt lat="43.60263" lon="3.7203">
        <ele>234.9</ele>
        <time>2011-02-20T10:03:32Z</time>
      </trkpt>
      <trkpt lat="43.60265" lon="3.72029">
        <ele>234.9</ele>
        <time>2011-02-20T10:03:33Z</time>
      </trkpt>
      <trkpt lat="43.60275" lon="3.72017">
        <ele>233.1</ele>
        <time>2011-02-20T10:03:39Z</time>
      </trkpt>
      <trkpt lat="43.60279" lon="3.7201">
        <ele>232.3</ele>
        <time>2011-02-20T10:03:41Z</time>
      </trkpt>
      <trkpt lat="43.60283" lon="3.72003">
        <ele>231.9</ele>
        <time>2011-02-20T10:03:43Z</time>
      </trkpt>
      <trkpt lat="43.60287" lon="3.71995">
        <ele>231.5</ele>
        <time>2011-02-20T10:03:45Z</time>
      </trkpt>
      <trkpt lat="43.60292" lon="3.71988">
        <ele>230.7</ele>
        <time>2011-02-20T10:03:47Z</time>
      </trkpt>
      <trkpt lat="43.60298" lon="3.71979">
        <ele>229.9</ele>
        <time>2011-02-20T10:03:49Z</time>
      </trkpt>
      <trkpt lat="43.60301" lon="3.71974">
        <ele>228.8</ele>
        <time>2011-02-20T10:03:50Z</time>
      </trkpt>
      <trkpt lat="43.60304" lon="3.71969">
        <ele>227.9</ele>
        <time>2011-02-20T10:03:51Z</time>
      </trkpt>
      <trkpt lat="43.60307" lon="3.71964">
        <ele>227.3</ele>
        <time>2011-02-20T10:03:52Z</time>
      </trkpt>
      <trkpt lat="43.60311" lon="3.71958">
        <ele>227.6</ele>
        <time>2011-02-20T10:03:53Z</time>
      </trkpt>
      <trkpt lat="43.60315" lon="3.71952">
        <ele>227.8</ele>
        <time>2011-02-20T10:03:54Z</time>
      </trkpt>
      <trkpt lat="43.6032" lon="3.71945">
        <ele>228</ele>
        <time>2011-02-20T10:03:55Z</time>
      </trkpt>
      <trkpt lat="43.60325" lon="3.71938">
        <ele>227.5</ele>
        <time>2011-02-20T10:03:56Z</time>
      </trkpt>
      <trkpt lat="43.6033" lon="3.7193">
        <ele>227.2</ele>
        <time>2011-02-20T10:03:57Z</time>
      </trkpt>
      <trkpt lat="43.60335" lon="3.71923">
        <ele>226.9</ele>
        <time>2011-02-20T10:03:58Z</time>
      </trkpt>
      <trkpt lat="43.6034" lon="3.71915">
        <ele>226.7</ele>
        <time>2011-02-20T10:03:59Z</time>
      </trkpt>
      <trkpt lat="43.60345" lon="3.71907">
        <ele>226.6</ele>
        <time>2011-02-20T10:04:00Z</time>
      </trkpt>
      <trkpt lat="43.6035" lon="3.71899">
        <ele>226.6</ele>
        <time>2011-02-20T10:04:01Z</time>
      </trkpt>
      <trkpt lat="43.60355" lon="3.71892">
        <ele>226.5</ele>
        <time>2011-02-20T10:04:02Z</time>
      </trkpt>
      <trkpt lat="43.6036" lon="3.71884">
        <ele>225.2</ele>
        <time>2011-02-20T10:04:03Z</time>
      </trkpt>
      <trkpt lat="43.60365" lon="3.71876">
        <ele>224.2</ele>
        <time>2011-02-20T10:04:04Z</time>
      </trkpt>
      <trkpt lat="43.6037" lon="3.71868">
        <ele>223.4</ele>
        <time>2011-02-20T10:04:05Z</time>
      </trkpt>
      <trkpt lat="43.60376" lon="3.71859">
        <ele>223.1</ele>
        <time>2011-02-20T10:04:06Z</time>
      </trkpt>
      <trkpt lat="43.60381" lon="3.71851">
        <ele>222.8</ele>
        <time>2011-02-20T10:04:07Z</time>
      </trkpt>
      <trkpt lat="43.60386" lon="3.71843">
        <ele>222.6</ele>
        <time>2011-02-20T10:04:08Z</time>
      </trkpt>
      <trkpt lat="43.60392" lon="3.71835">
        <ele>222.1</ele>
        <time>2011-02-20T10:04:09Z</time>
      </trkpt>
      <trkpt lat="43.60397" lon="3.71827">
        <ele>221.8</ele>
        <time>2011-02-20T10:04:10Z</time>
      </trkpt>
      <trkpt lat="43.60402" lon="3.71819">
        <ele>221.5</ele>
        <time>2011-02-20T10:04:11Z</time>
      </trkpt>
      <trkpt lat="43.60407" lon="3.71812">
        <ele>221.4</ele>
        <time>2011-02-20T10:04:12Z</time>
      </trkpt>
      <trkpt lat="43.60413" lon="3.71805">
        <ele>221.3</ele>
        <time>2011-02-20T10:04:13Z</time>
      </trkpt>
      <trkpt lat="43.60418" lon="3.71799">
        <ele>221.3</ele>
        <time>2011-02-20T10:04:14Z</time>
      </trkpt>
      <trkpt lat="43.60424" lon="3.71794">
        <ele>221.2</ele>
        <time>2011-02-20T10:04:15Z</time>
      </trkpt>
      <trkpt lat="43.60429" lon="3.71789">
        <ele>221.1</ele>
        <time>2011-02-20T10:04:16Z</time>
      </trkpt>
      <trkpt lat="43.60435" lon="3.71785">
        <ele>221</ele>
        <time>2011-02-20T10:04:17Z</time>
      </trkpt>
      <trkpt lat="43.60441" lon="3.71781">
        <ele>220.9</ele>
        <time>2011-02-20T10:04:18Z</time>
      </trkpt>
      <trkpt lat="43.60448" lon="3.7178">
        <ele>220.3</ele>
        <time>2011-02-20T10:04:19Z</time>
      </trkpt>
      <trkpt lat="43.60456" lon="3.71779">
        <ele>219.8</ele>
        <time>2011-02-20T10:04:20Z</time>
      </trkpt>
      <trkpt lat="43.60463" lon="3.71777">
        <ele>219.5</ele>
        <time>2011-02-20T10:04:21Z</time>
      </trkpt>
      <trkpt lat="43.60471" lon="3.71774">
        <ele>218.4</ele>
        <time>2011-02-20T10:04:22Z</time>
      </trkpt>
      <trkpt lat="43.60477" lon="3.71771">
        <ele>217.5</ele>
        <time>2011-02-20T10:04:23Z</time>
      </trkpt>
      <trkpt lat="43.60483" lon="3.71768">
        <ele>216.9</ele>
        <time>2011-02-20T10:04:24Z</time>
      </trkpt>
      <trkpt lat="43.60487" lon="3.71763">
        <ele>216.6</ele>
        <time>2011-02-20T10:04:25Z</time>
      </trkpt>
      <trkpt lat="43.60491" lon="3.71758">
        <ele>216.4</ele>
        <time>2011-02-20T10:04:26Z</time>
      </trkpt>
      <trkpt lat="43.60494" lon="3.71749">
        <ele>216.6</ele>
        <time>2011-02-20T10:04:28Z</time>
      </trkpt>
      <trkpt lat="43.60496" lon="3.71739">
        <ele>217.2</ele>
        <time>2011-02-20T10:04:30Z</time>
      </trkpt>
      <trkpt lat="43.60499" lon="3.7173">
        <ele>217.4</ele>
        <time>2011-02-20T10:04:32Z</time>
      </trkpt>
      <trkpt lat="43.60501" lon="3.7172">
        <ele>217.3</ele>
        <time>2011-02-20T10:04:34Z</time>
      </trkpt>
      <trkpt lat="43.60502" lon="3.71715">
        <ele>217.7</ele>
        <time>2011-02-20T10:04:35Z</time>
      </trkpt>
      <trkpt lat="43.60505" lon="3.71701">
        <ele>218.5</ele>
        <time>2011-02-20T10:04:38Z</time>
      </trkpt>
      <trkpt lat="43.60507" lon="3.71692">
        <ele>218.9</ele>
        <time>2011-02-20T10:04:40Z</time>
      </trkpt>
      <trkpt lat="43.60509" lon="3.71683">
        <ele>219.5</ele>
        <time>2011-02-20T10:04:42Z</time>
      </trkpt>
      <trkpt lat="43.6051" lon="3.71674">
        <ele>219.7</ele>
        <time>2011-02-20T10:04:44Z</time>
      </trkpt>
      <trkpt lat="43.60512" lon="3.71665">
        <ele>219.9</ele>
        <time>2011-02-20T10:04:46Z</time>
      </trkpt>
      <trkpt lat="43.60514" lon="3.71656">
        <ele>219.7</ele>
        <time>2011-02-20T10:04:48Z</time>
      </trkpt>
      <trkpt lat="43.60515" lon="3.71646">
        <ele>219.4</ele>
        <time>2011-02-20T10:04:50Z</time>
      </trkpt>
      <trkpt lat="43.60513" lon="3.71637">
        <ele>220.2</ele>
        <time>2011-02-20T10:04:52Z</time>
      </trkpt>
      <trkpt lat="43.60509" lon="3.71629">
        <ele>221.6</ele>
        <time>2011-02-20T10:04:54Z</time>
      </trkpt>
      <trkpt lat="43.60507" lon="3.71621">
        <ele>223.1</ele>
        <time>2011-02-20T10:04:56Z</time>
      </trkpt>
      <trkpt lat="43.60507" lon="3.71612">
        <ele>224.4</ele>
        <time>2011-02-20T10:04:58Z</time>
      </trkpt>
      <trkpt lat="43.60506" lon="3.71603">
        <ele>224.7</ele>
        <time>2011-02-20T10:05:00Z</time>
      </trkpt>
      <trkpt lat="43.60505" lon="3.71595">
        <ele>224.6</ele>
        <time>2011-02-20T10:05:02Z</time>
      </trkpt>
      <trkpt lat="43.60506" lon="3.71586">
        <ele>224.5</ele>
        <time>2011-02-20T10:05:04Z</time>
      </trkpt>
      <trkpt lat="43.60511" lon="3.7158">
        <ele>224.4</ele>
        <time>2011-02-20T10:05:06Z</time>
      </trkpt>
      <trkpt lat="43.60517" lon="3.71579">
        <ele>222.6</ele>
        <time>2011-02-20T10:05:08Z</time>
      </trkpt>
      <trkpt lat="43.60524" lon="3.7158">
        <ele>221.7</ele>
        <time>2011-02-20T10:05:10Z</time>
      </trkpt>
      <trkpt lat="43.60533" lon="3.7158">
        <ele>221.1</ele>
        <time>2011-02-20T10:05:12Z</time>
      </trkpt>
      <trkpt lat="43.60537" lon="3.7158">
        <ele>220.2</ele>
        <time>2011-02-20T10:05:13Z</time>
      </trkpt>
      <trkpt lat="43.60542" lon="3.7158">
        <ele>219.6</ele>
        <time>2011-02-20T10:05:14Z</time>
      </trkpt>
      <trkpt lat="43.60547" lon="3.71581">
        <ele>219.1</ele>
        <time>2011-02-20T10:05:15Z</time>
      </trkpt>
      <trkpt lat="43.60552" lon="3.71581">
        <ele>218.1</ele>
        <time>2011-02-20T10:05:16Z</time>
      </trkpt>
      <trkpt lat="43.60558" lon="3.71581">
        <ele>217.3</ele>
        <time>2011-02-20T10:05:17Z</time>
      </trkpt>
      <trkpt lat="43.60564" lon="3.71582">
        <ele>216.8</ele>
        <time>2011-02-20T10:05:18Z</time>
      </trkpt>
      <trkpt lat="43.60569" lon="3.71582">
        <ele>215.5</ele>
        <time>2011-02-20T10:05:19Z</time>
      </trkpt>
      <trkpt lat="43.60576" lon="3.71582">
        <ele>214.5</ele>
        <time>2011-02-20T10:05:20Z</time>
      </trkpt>
      <trkpt lat="43.60582" lon="3.71582">
        <ele>213.7</ele>
        <time>2011-02-20T10:05:21Z</time>
      </trkpt>
      <trkpt lat="43.60589" lon="3.71582">
        <ele>213.2</ele>
        <time>2011-02-20T10:05:22Z</time>
      </trkpt>
      <trkpt lat="43.60596" lon="3.71583">
        <ele>211.9</ele>
        <time>2011-02-20T10:05:23Z</time>
      </trkpt>
      <trkpt lat="43.60603" lon="3.71583">
        <ele>210.9</ele>
        <time>2011-02-20T10:05:24Z</time>
      </trkpt>
      <trkpt lat="43.6061" lon="3.71583">
        <ele>210.1</ele>
        <time>2011-02-20T10:05:25Z</time>
      </trkpt>
      <trkpt lat="43.60617" lon="3.71583">
        <ele>208.9</ele>
        <time>2011-02-20T10:05:26Z</time>
      </trkpt>
      <trkpt lat="43.60624" lon="3.71583">
        <ele>207.9</ele>
        <time>2011-02-20T10:05:27Z</time>
      </trkpt>
      <trkpt lat="43.60631" lon="3.71583">
        <ele>207.2</ele>
        <time>2011-02-20T10:05:28Z</time>
      </trkpt>
      <trkpt lat="43.60638" lon="3.71583">
        <ele>205.9</ele>
        <time>2011-02-20T10:05:29Z</time>
      </trkpt>
      <trkpt lat="43.60645" lon="3.71583">
        <ele>205</ele>
        <time>2011-02-20T10:05:30Z</time>
      </trkpt>
      <trkpt lat="43.60651" lon="3.71583">
        <ele>204.2</ele>
        <time>2011-02-20T10:05:31Z</time>
      </trkpt>
      <trkpt lat="43.60656" lon="3.71583">
        <ele>202.9</ele>
        <time>2011-02-20T10:05:32Z</time>
      </trkpt>
      <trkpt lat="43.60665" lon="3.71582">
        <ele>201.1</ele>
        <time>2011-02-20T10:05:34Z</time>
      </trkpt>
      <trkpt lat="43.60672" lon="3.71578">
        <ele>198.8</ele>
        <time>2011-02-20T10:05:36Z</time>
      </trkpt>
      <trkpt lat="43.60675" lon="3.71576">
        <ele>198</ele>
        <time>2011-02-20T10:05:37Z</time>
      </trkpt>
      <trkpt lat="43.60684" lon="3.71566">
        <ele>195.8</ele>
        <time>2011-02-20T10:05:41Z</time>
      </trkpt>
      <trkpt lat="43.6069" lon="3.71562">
        <ele>195</ele>
        <time>2011-02-20T10:05:44Z</time>
      </trkpt>
      <trkpt lat="43.60696" lon="3.71558">
        <ele>193.4</ele>
        <time>2011-02-20T10:05:46Z</time>
      </trkpt>
      <trkpt lat="43.60703" lon="3.71554">
        <ele>191.2</ele>
        <time>2011-02-20T10:05:48Z</time>
      </trkpt>
      <trkpt lat="43.60709" lon="3.71547">
        <ele>187.5</ele>
        <time>2011-02-20T10:05:51Z</time>
      </trkpt>
      <trkpt lat="43.60708" lon="3.71537">
        <ele>185.1</ele>
        <time>2011-02-20T10:05:54Z</time>
      </trkpt>
      <trkpt lat="43.60707" lon="3.71526">
        <ele>180.7</ele>
        <time>2011-02-20T10:06:20Z</time>
      </trkpt>
      <trkpt lat="43.60703" lon="3.71515">
        <ele>180.5</ele>
        <time>2011-02-20T10:06:24Z</time>
      </trkpt>
      <trkpt lat="43.60701" lon="3.71508">
        <ele>180.3</ele>
        <time>2011-02-20T10:06:26Z</time>
      </trkpt>
      <trkpt lat="43.60696" lon="3.71501">
        <ele>179.7</ele>
        <time>2011-02-20T10:06:28Z</time>
      </trkpt>
      <trkpt lat="43.6069" lon="3.71492">
        <ele>178.5</ele>
        <time>2011-02-20T10:06:31Z</time>
      </trkpt>
      <trkpt lat="43.60685" lon="3.71487">
        <ele>178.4</ele>
        <time>2011-02-20T10:06:33Z</time>
      </trkpt>
      <trkpt lat="43.6068" lon="3.71481">
        <ele>178.7</ele>
        <time>2011-02-20T10:06:35Z</time>
      </trkpt>
      <trkpt lat="43.60674" lon="3.71478">
        <ele>178.4</ele>
        <time>2011-02-20T10:06:37Z</time>
      </trkpt>
      <trkpt lat="43.60671" lon="3.71476">
        <ele>178.3</ele>
        <time>2011-02-20T10:06:38Z</time>
      </trkpt>
      <trkpt lat="43.60662" lon="3.7147">
        <ele>177.8</ele>
        <time>2011-02-20T10:06:40Z</time>
      </trkpt>
      <trkpt lat="43.60659" lon="3.71465">
        <ele>177.7</ele>
        <time>2011-02-20T10:06:41Z</time>
      </trkpt>
      <trkpt lat="43.60655" lon="3.7146">
        <ele>176.8</ele>
        <time>2011-02-20T10:06:42Z</time>
      </trkpt>
      <trkpt lat="43.6065" lon="3.71455">
        <ele>176.2</ele>
        <time>2011-02-20T10:06:43Z</time>
      </trkpt>
      <trkpt lat="43.60646" lon="3.71451">
        <ele>175.7</ele>
        <time>2011-02-20T10:06:44Z</time>
      </trkpt>
      <trkpt lat="43.60641" lon="3.7145">
        <ele>175.4</ele>
        <time>2011-02-20T10:06:45Z</time>
      </trkpt>
      <trkpt lat="43.60632" lon="3.71446">
        <ele>174.1</ele>
        <time>2011-02-20T10:06:47Z</time>
      </trkpt>
      <trkpt lat="43.60626" lon="3.71439">
        <ele>173.2</ele>
        <time>2011-02-20T10:06:49Z</time>
      </trkpt>
      <trkpt lat="43.60621" lon="3.71434">
        <ele>172.5</ele>
        <time>2011-02-20T10:06:51Z</time>
      </trkpt>
      <trkpt lat="43.60615" lon="3.71429">
        <ele>172.7</ele>
        <time>2011-02-20T10:06:53Z</time>
      </trkpt>
      <trkpt lat="43.60611" lon="3.7142">
        <ele>172.4</ele>
        <time>2011-02-20T10:06:55Z</time>
      </trkpt>
      <trkpt lat="43.60607" lon="3.71409">
        <ele>171.9</ele>
        <time>2011-02-20T10:06:57Z</time>
      </trkpt>
      <trkpt lat="43.60605" lon="3.71403">
        <ele>171.8</ele>
        <time>2011-02-20T10:06:58Z</time>
      </trkpt>
      <trkpt lat="43.60602" lon="3.71397">
        <ele>171.7</ele>
        <time>2011-02-20T10:06:59Z</time>
      </trkpt>
      <trkpt lat="43.60596" lon="3.71388">
        <ele>171.6</ele>
        <time>2011-02-20T10:07:01Z</time>
      </trkpt>
      <trkpt lat="43.60593" lon="3.71383">
        <ele>171.8</ele>
        <time>2011-02-20T10:07:02Z</time>
      </trkpt>
      <trkpt lat="43.6059" lon="3.71376">
        <ele>171.9</ele>
        <time>2011-02-20T10:07:03Z</time>
      </trkpt>
      <trkpt lat="43.60587" lon="3.71369">
        <ele>172</ele>
        <time>2011-02-20T10:07:04Z</time>
      </trkpt>
      <trkpt lat="43.60583" lon="3.71359">
        <ele>170.8</ele>
        <time>2011-02-20T10:07:06Z</time>
      </trkpt>
      <trkpt lat="43.60581" lon="3.71354">
        <ele>170.4</ele>
        <time>2011-02-20T10:07:07Z</time>
      </trkpt>
      <trkpt lat="43.60579" lon="3.71348">
        <ele>169.6</ele>
        <time>2011-02-20T10:07:08Z</time>
      </trkpt>
      <trkpt lat="43.60577" lon="3.71341">
        <ele>169</ele>
        <time>2011-02-20T10:07:09Z</time>
      </trkpt>
      <trkpt lat="43.60576" lon="3.71335">
        <ele>168.5</ele>
        <time>2011-02-20T10:07:10Z</time>
      </trkpt>
      <trkpt lat="43.60574" lon="3.71329">
        <ele>168.1</ele>
        <time>2011-02-20T10:07:11Z</time>
      </trkpt>
      <trkpt lat="43.60573" lon="3.71322">
        <ele>167.7</ele>
        <time>2011-02-20T10:07:12Z</time>
      </trkpt>
      <trkpt lat="43.60572" lon="3.71316">
        <ele>167.5</ele>
        <time>2011-02-20T10:07:13Z</time>
      </trkpt>
      <trkpt lat="43.6057" lon="3.71308">
        <ele>166.7</ele>
        <time>2011-02-20T10:07:14Z</time>
      </trkpt>
      <trkpt lat="43.60568" lon="3.71301">
        <ele>166.1</ele>
        <time>2011-02-20T10:07:15Z</time>
      </trkpt>
      <trkpt lat="43.60566" lon="3.71295">
        <ele>165.6</ele>
        <time>2011-02-20T10:07:16Z</time>
      </trkpt>
      <trkpt lat="43.60563" lon="3.71289">
        <ele>165.3</ele>
        <time>2011-02-20T10:07:17Z</time>
      </trkpt>
      <trkpt lat="43.6056" lon="3.71285">
        <ele>165.3</ele>
        <time>2011-02-20T10:07:18Z</time>
      </trkpt>
      <trkpt lat="43.60558" lon="3.71279">
        <ele>165.3</ele>
        <time>2011-02-20T10:07:19Z</time>
      </trkpt>
      <trkpt lat="43.60555" lon="3.71274">
        <ele>165.3</ele>
        <time>2011-02-20T10:07:20Z</time>
      </trkpt>
      <trkpt lat="43.60552" lon="3.71268">
        <ele>165.1</ele>
        <time>2011-02-20T10:07:21Z</time>
      </trkpt>
      <trkpt lat="43.60549" lon="3.71263">
        <ele>164.9</ele>
        <time>2011-02-20T10:07:22Z</time>
      </trkpt>
      <trkpt lat="43.60545" lon="3.71258">
        <ele>164.8</ele>
        <time>2011-02-20T10:07:23Z</time>
      </trkpt>
      <trkpt lat="43.60541" lon="3.71252">
        <ele>164.1</ele>
        <time>2011-02-20T10:07:24Z</time>
      </trkpt>
      <trkpt lat="43.60539" lon="3.71244">
        <ele>163.6</ele>
        <time>2011-02-20T10:07:25Z</time>
      </trkpt>
      <trkpt lat="43.60536" lon="3.71237">
        <ele>163.2</ele>
        <time>2011-02-20T10:07:26Z</time>
      </trkpt>
      <trkpt lat="43.60532" lon="3.7123">
        <ele>162.3</ele>
        <time>2011-02-20T10:07:27Z</time>
      </trkpt>
      <trkpt lat="43.60527" lon="3.71224">
        <ele>161.7</ele>
        <time>2011-02-20T10:07:28Z</time>
      </trkpt>
      <trkpt lat="43.60523" lon="3.71219">
        <ele>161.2</ele>
        <time>2011-02-20T10:07:29Z</time>
      </trkpt>
      <trkpt lat="43.60519" lon="3.71214">
        <ele>160.3</ele>
        <time>2011-02-20T10:07:30Z</time>
      </trkpt>
      <trkpt lat="43.60516" lon="3.71209">
        <ele>159.7</ele>
        <time>2011-02-20T10:07:31Z</time>
      </trkpt>
      <trkpt lat="43.60509" lon="3.71202">
        <ele>158.7</ele>
        <time>2011-02-20T10:07:33Z</time>
      </trkpt>
      <trkpt lat="43.60505" lon="3.71198">
        <ele>158.4</ele>
        <time>2011-02-20T10:07:34Z</time>
      </trkpt>
      <trkpt lat="43.60501" lon="3.71193">
        <ele>158.1</ele>
        <time>2011-02-20T10:07:35Z</time>
      </trkpt>
      <trkpt lat="43.60497" lon="3.71187">
        <ele>157.9</ele>
        <time>2011-02-20T10:07:36Z</time>
      </trkpt>
      <trkpt lat="43.60493" lon="3.71182">
        <ele>157.1</ele>
        <time>2011-02-20T10:07:37Z</time>
      </trkpt>
      <trkpt lat="43.60489" lon="3.71176">
        <ele>156.4</ele>
        <time>2011-02-20T10:07:38Z</time>
      </trkpt>
      <trkpt lat="43.60485" lon="3.71171">
        <ele>156</ele>
        <time>2011-02-20T10:07:39Z</time>
      </trkpt>
      <trkpt lat="43.6048" lon="3.71166">
        <ele>155.3</ele>
        <time>2011-02-20T10:07:40Z</time>
      </trkpt>
      <trkpt lat="43.60475" lon="3.71162">
        <ele>154.7</ele>
        <time>2011-02-20T10:07:41Z</time>
      </trkpt>
      <trkpt lat="43.6047" lon="3.7116">
        <ele>154.3</ele>
        <time>2011-02-20T10:07:42Z</time>
      </trkpt>
      <trkpt lat="43.60464" lon="3.71158">
        <ele>153.7</ele>
        <time>2011-02-20T10:07:43Z</time>
      </trkpt>
      <trkpt lat="43.60456" lon="3.71154">
        <ele>152.7</ele>
        <time>2011-02-20T10:07:46Z</time>
      </trkpt>
      <trkpt lat="43.60451" lon="3.71147">
        <ele>152.3</ele>
        <time>2011-02-20T10:07:48Z</time>
      </trkpt>
      <trkpt lat="43.60444" lon="3.71141">
        <ele>151.4</ele>
        <time>2011-02-20T10:07:50Z</time>
      </trkpt>
      <trkpt lat="43.6044" lon="3.71138">
        <ele>150.7</ele>
        <time>2011-02-20T10:07:51Z</time>
      </trkpt>
      <trkpt lat="43.60435" lon="3.71135">
        <ele>150.3</ele>
        <time>2011-02-20T10:07:52Z</time>
      </trkpt>
      <trkpt lat="43.6043" lon="3.71133">
        <ele>149.5</ele>
        <time>2011-02-20T10:07:53Z</time>
      </trkpt>
      <trkpt lat="43.60424" lon="3.71133">
        <ele>149</ele>
        <time>2011-02-20T10:07:54Z</time>
      </trkpt>
      <trkpt lat="43.60419" lon="3.71133">
        <ele>148.6</ele>
        <time>2011-02-20T10:07:55Z</time>
      </trkpt>
      <trkpt lat="43.60411" lon="3.71131">
        <ele>147.6</ele>
        <time>2011-02-20T10:07:57Z</time>
      </trkpt>
      <trkpt lat="43.60404" lon="3.7113">
        <ele>146.7</ele>
        <time>2011-02-20T10:07:59Z</time>
      </trkpt>
      <trkpt lat="43.60404" lon="3.71118">
        <ele>144.2</ele>
        <time>2011-02-20T10:08:04Z</time>
      </trkpt>
      <trkpt lat="43.60411" lon="3.71114">
        <ele>142.3</ele>
        <time>2011-02-20T10:08:06Z</time>
      </trkpt>
      <trkpt lat="43.60419" lon="3.71112">
        <ele>140.8</ele>
        <time>2011-02-20T10:08:10Z</time>
      </trkpt>
      <trkpt lat="43.60411" lon="3.71112">
        <ele>141.5</ele>
        <time>2011-02-20T10:08:47Z</time>
      </trkpt>
      <trkpt lat="43.60408" lon="3.71112">
        <ele>141.6</ele>
        <time>2011-02-20T10:08:48Z</time>
      </trkpt>
      <trkpt lat="43.6041" lon="3.71109">
        <ele>138.8</ele>
        <time>2011-02-20T10:09:41Z</time>
      </trkpt>
      <trkpt lat="43.60419" lon="3.71109">
        <ele>138.5</ele>
        <time>2011-02-20T10:09:45Z</time>
      </trkpt>
      <trkpt lat="43.60426" lon="3.71108">
        <ele>138.2</ele>
        <time>2011-02-20T10:09:48Z</time>
      </trkpt>
      <trkpt lat="43.60428" lon="3.71109">
        <ele>138</ele>
        <time>2011-02-20T10:09:49Z</time>
      </trkpt>
      <trkpt lat="43.6044" lon="3.71102">
        <ele>138.6</ele>
        <time>2011-02-20T10:09:53Z</time>
      </trkpt>
      <trkpt lat="43.60444" lon="3.71093">
        <ele>139.1</ele>
        <time>2011-02-20T10:09:55Z</time>
      </trkpt>
      <trkpt lat="43.60447" lon="3.71083">
        <ele>139.4</ele>
        <time>2011-02-20T10:09:57Z</time>
      </trkpt>
      <trkpt lat="43.60452" lon="3.71074">
        <ele>139.6</ele>
        <time>2011-02-20T10:09:59Z</time>
      </trkpt>
      <trkpt lat="43.60457" lon="3.71068">
        <ele>139.3</ele>
        <time>2011-02-20T10:10:01Z</time>
      </trkpt>
      <trkpt lat="43.60462" lon="3.71062">
        <ele>139.1</ele>
        <time>2011-02-20T10:10:03Z</time>
      </trkpt>
      <trkpt lat="43.60467" lon="3.71054">
        <ele>139.8</ele>
        <time>2011-02-20T10:10:05Z</time>
      </trkpt>
      <trkpt lat="43.60473" lon="3.71047">
        <ele>139.7</ele>
        <time>2011-02-20T10:10:07Z</time>
      </trkpt>
      <trkpt lat="43.60477" lon="3.7104">
        <ele>139.1</ele>
        <time>2011-02-20T10:10:09Z</time>
      </trkpt>
      <trkpt lat="43.60482" lon="3.71034">
        <ele>139.2</ele>
        <time>2011-02-20T10:10:11Z</time>
      </trkpt>
      <trkpt lat="43.60487" lon="3.71028">
        <ele>139.5</ele>
        <time>2011-02-20T10:10:13Z</time>
      </trkpt>
      <trkpt lat="43.60489" lon="3.71017">
        <ele>139.8</ele>
        <time>2011-02-20T10:10:16Z</time>
      </trkpt>
      <trkpt lat="43.60486" lon="3.71008">
        <ele>139.9</ele>
        <time>2011-02-20T10:10:19Z</time>
      </trkpt>
      <trkpt lat="43.60482" lon="3.71">
        <ele>141</ele>
        <time>2011-02-20T10:10:22Z</time>
      </trkpt>
      <trkpt lat="43.6048" lon="3.70988">
        <ele>140.6</ele>
        <time>2011-02-20T10:10:25Z</time>
      </trkpt>
      <trkpt lat="43.6048" lon="3.7098">
        <ele>140.8</ele>
        <time>2011-02-20T10:10:27Z</time>
      </trkpt>
      <trkpt lat="43.60481" lon="3.70968">
        <ele>141.3</ele>
        <time>2011-02-20T10:10:30Z</time>
      </trkpt>
      <trkpt lat="43.60482" lon="3.70957">
        <ele>141.7</ele>
        <time>2011-02-20T10:10:33Z</time>
      </trkpt>
      <trkpt lat="43.60478" lon="3.70946">
        <ele>142</ele>
        <time>2011-02-20T10:10:36Z</time>
      </trkpt>
      <trkpt lat="43.60472" lon="3.70939">
        <ele>142.4</ele>
        <time>2011-02-20T10:10:39Z</time>
      </trkpt>
      <trkpt lat="43.60465" lon="3.70935">
        <ele>143</ele>
        <time>2011-02-20T10:10:42Z</time>
      </trkpt>
      <trkpt lat="43.60459" lon="3.70931">
        <ele>144.1</ele>
        <time>2011-02-20T10:10:45Z</time>
      </trkpt>
      <trkpt lat="43.60453" lon="3.70926">
        <ele>145.4</ele>
        <time>2011-02-20T10:10:48Z</time>
      </trkpt>
      <trkpt lat="43.60446" lon="3.70922">
        <ele>147</ele>
        <time>2011-02-20T10:10:51Z</time>
      </trkpt>
      <trkpt lat="43.60444" lon="3.7092">
        <ele>147.7</ele>
        <time>2011-02-20T10:10:52Z</time>
      </trkpt>
      <trkpt lat="43.60438" lon="3.70902">
        <ele>149.4</ele>
        <time>2011-02-20T10:10:59Z</time>
      </trkpt>
      <trkpt lat="43.60436" lon="3.7089">
        <ele>149.9</ele>
        <time>2011-02-20T10:11:03Z</time>
      </trkpt>
      <trkpt lat="43.60434" lon="3.70881">
        <ele>151.2</ele>
        <time>2011-02-20T10:11:06Z</time>
      </trkpt>
      <trkpt lat="43.60431" lon="3.70869">
        <ele>151.7</ele>
        <time>2011-02-20T10:11:10Z</time>
      </trkpt>
      <trkpt lat="43.6043" lon="3.70857">
        <ele>152.2</ele>
        <time>2011-02-20T10:11:14Z</time>
      </trkpt>
      <trkpt lat="43.60428" lon="3.70846">
        <ele>152.8</ele>
        <time>2011-02-20T10:11:18Z</time>
      </trkpt>
      <trkpt lat="43.60427" lon="3.70836">
        <ele>153.8</ele>
        <time>2011-02-20T10:11:22Z</time>
      </trkpt>
      <trkpt lat="43.60425" lon="3.70826">
        <ele>154.8</ele>
        <time>2011-02-20T10:11:26Z</time>
      </trkpt>
      <trkpt lat="43.60423" lon="3.70815">
        <ele>155.6</ele>
        <time>2011-02-20T10:11:30Z</time>
      </trkpt>
      <trkpt lat="43.60421" lon="3.70804">
        <ele>156.3</ele>
        <time>2011-02-20T10:11:34Z</time>
      </trkpt>
      <trkpt lat="43.60419" lon="3.70793">
        <ele>156.1</ele>
        <time>2011-02-20T10:11:38Z</time>
      </trkpt>
      <trkpt lat="43.60419" lon="3.70782">
        <ele>155.7</ele>
        <time>2011-02-20T10:11:42Z</time>
      </trkpt>
      <trkpt lat="43.60417" lon="3.70771">
        <ele>157.1</ele>
        <time>2011-02-20T10:11:46Z</time>
      </trkpt>
      <trkpt lat="43.60416" lon="3.70759">
        <ele>158.9</ele>
        <time>2011-02-20T10:11:50Z</time>
      </trkpt>
      <trkpt lat="43.60416" lon="3.70747">
        <ele>159.4</ele>
        <time>2011-02-20T10:11:54Z</time>
      </trkpt>
      <trkpt lat="43.60416" lon="3.70744">
        <ele>159.7</ele>
        <time>2011-02-20T10:11:55Z</time>
      </trkpt>
      <trkpt lat="43.60413" lon="3.70723">
        <ele>161.3</ele>
        <time>2011-02-20T10:12:02Z</time>
      </trkpt>
      <trkpt lat="43.60407" lon="3.70716">
        <ele>162.4</ele>
        <time>2011-02-20T10:12:06Z</time>
      </trkpt>
      <trkpt lat="43.60399" lon="3.70715">
        <ele>163.8</ele>
        <time>2011-02-20T10:12:10Z</time>
      </trkpt>
      <trkpt lat="43.60392" lon="3.70717">
        <ele>164.3</ele>
        <time>2011-02-20T10:12:13Z</time>
      </trkpt>
      <trkpt lat="43.60384" lon="3.7072">
        <ele>164.9</ele>
        <time>2011-02-20T10:12:16Z</time>
      </trkpt>
      <trkpt lat="43.60377" lon="3.70723">
        <ele>165.6</ele>
        <time>2011-02-20T10:12:19Z</time>
      </trkpt>
      <trkpt lat="43.6037" lon="3.70726">
        <ele>166</ele>
        <time>2011-02-20T10:12:22Z</time>
      </trkpt>
      <trkpt lat="43.60363" lon="3.70729">
        <ele>165.5</ele>
        <time>2011-02-20T10:12:25Z</time>
      </trkpt>
      <trkpt lat="43.60355" lon="3.70727">
        <ele>165.7</ele>
        <time>2011-02-20T10:12:28Z</time>
      </trkpt>
      <trkpt lat="43.60353" lon="3.70715">
        <ele>166.5</ele>
        <time>2011-02-20T10:12:32Z</time>
      </trkpt>
      <trkpt lat="43.60354" lon="3.70705">
        <ele>166.7</ele>
        <time>2011-02-20T10:12:35Z</time>
      </trkpt>
      <trkpt lat="43.60355" lon="3.70693">
        <ele>167.5</ele>
        <time>2011-02-20T10:12:39Z</time>
      </trkpt>
      <trkpt lat="43.60356" lon="3.70682">
        <ele>168</ele>
        <time>2011-02-20T10:12:43Z</time>
      </trkpt>
      <trkpt lat="43.60358" lon="3.7067">
        <ele>169.9</ele>
        <time>2011-02-20T10:12:47Z</time>
      </trkpt>
      <trkpt lat="43.6036" lon="3.70658">
        <ele>170.6</ele>
        <time>2011-02-20T10:12:51Z</time>
      </trkpt>
      <trkpt lat="43.60362" lon="3.70649">
        <ele>171.8</ele>
        <time>2011-02-20T10:12:54Z</time>
      </trkpt>
      <trkpt lat="43.60364" lon="3.70637">
        <ele>173.1</ele>
        <time>2011-02-20T10:12:58Z</time>
      </trkpt>
      <trkpt lat="43.60364" lon="3.70634">
        <ele>173.7</ele>
        <time>2011-02-20T10:12:59Z</time>
      </trkpt>
      <trkpt lat="43.60366" lon="3.70616">
        <ele>174.7</ele>
        <time>2011-02-20T10:13:05Z</time>
      </trkpt>
      <trkpt lat="43.60367" lon="3.70603">
        <ele>176.3</ele>
        <time>2011-02-20T10:13:09Z</time>
      </trkpt>
      <trkpt lat="43.60369" lon="3.70594">
        <ele>177.3</ele>
        <time>2011-02-20T10:13:12Z</time>
      </trkpt>
      <trkpt lat="43.60371" lon="3.70585">
        <ele>177.7</ele>
        <time>2011-02-20T10:13:15Z</time>
      </trkpt>
      <trkpt lat="43.60374" lon="3.70575">
        <ele>179</ele>
        <time>2011-02-20T10:13:19Z</time>
      </trkpt>
      <trkpt lat="43.60377" lon="3.70565">
        <ele>179.7</ele>
        <time>2011-02-20T10:13:23Z</time>
      </trkpt>
      <trkpt lat="43.6038" lon="3.70556">
        <ele>180.1</ele>
        <time>2011-02-20T10:13:26Z</time>
      </trkpt>
      <trkpt lat="43.60383" lon="3.70547">
        <ele>180.1</ele>
        <time>2011-02-20T10:13:29Z</time>
      </trkpt>
      <trkpt lat="43.60385" lon="3.70538">
        <ele>180.8</ele>
        <time>2011-02-20T10:13:32Z</time>
      </trkpt>
      <trkpt lat="43.60388" lon="3.70529">
        <ele>181.2</ele>
        <time>2011-02-20T10:13:35Z</time>
      </trkpt>
      <trkpt lat="43.6039" lon="3.70519">
        <ele>181.6</ele>
        <time>2011-02-20T10:13:38Z</time>
      </trkpt>
      <trkpt lat="43.60392" lon="3.7051">
        <ele>182.1</ele>
        <time>2011-02-20T10:13:41Z</time>
      </trkpt>
      <trkpt lat="43.60395" lon="3.705">
        <ele>182.6</ele>
        <time>2011-02-20T10:13:44Z</time>
      </trkpt>
      <trkpt lat="43.60397" lon="3.70488">
        <ele>184.2</ele>
        <time>2011-02-20T10:13:48Z</time>
      </trkpt>
      <trkpt lat="43.60399" lon="3.70478">
        <ele>185.5</ele>
        <time>2011-02-20T10:13:52Z</time>
      </trkpt>
      <trkpt lat="43.60403" lon="3.70468">
        <ele>186.3</ele>
        <time>2011-02-20T10:13:56Z</time>
      </trkpt>
      <trkpt lat="43.60406" lon="3.70457">
        <ele>187.1</ele>
        <time>2011-02-20T10:14:00Z</time>
      </trkpt>
      <trkpt lat="43.60406" lon="3.70454">
        <ele>187.4</ele>
        <time>2011-02-20T10:14:01Z</time>
      </trkpt>
      <trkpt lat="43.60395" lon="3.70439">
        <ele>189.8</ele>
        <time>2011-02-20T10:14:10Z</time>
      </trkpt>
      <trkpt lat="43.60388" lon="3.70432">
        <ele>190.3</ele>
        <time>2011-02-20T10:14:16Z</time>
      </trkpt>
      <trkpt lat="43.60382" lon="3.70424">
        <ele>189.6</ele>
        <time>2011-02-20T10:14:21Z</time>
      </trkpt>
      <trkpt lat="43.60375" lon="3.70416">
        <ele>189.4</ele>
        <time>2011-02-20T10:14:26Z</time>
      </trkpt>
      <trkpt lat="43.60369" lon="3.7041">
        <ele>188.3</ele>
        <time>2011-02-20T10:14:31Z</time>
      </trkpt>
      <trkpt lat="43.60362" lon="3.70404">
        <ele>188.5</ele>
        <time>2011-02-20T10:14:36Z</time>
      </trkpt>
      <trkpt lat="43.60355" lon="3.70397">
        <ele>189.1</ele>
        <time>2011-02-20T10:16:22Z</time>
      </trkpt>
      <trkpt lat="43.60354" lon="3.70396">
        <ele>188.8</ele>
        <time>2011-02-20T10:16:23Z</time>
      </trkpt>
      <trkpt lat="43.60342" lon="3.70386">
        <ele>187.6</ele>
        <time>2011-02-20T10:16:29Z</time>
      </trkpt>
      <trkpt lat="43.60334" lon="3.7038">
        <ele>187.5</ele>
        <time>2011-02-20T10:16:32Z</time>
      </trkpt>
      <trkpt lat="43.60328" lon="3.70376">
        <ele>188.4</ele>
        <time>2011-02-20T10:16:35Z</time>
      </trkpt>
      <trkpt lat="43.60322" lon="3.7037">
        <ele>189.1</ele>
        <time>2011-02-20T10:16:38Z</time>
      </trkpt>
      <trkpt lat="43.60317" lon="3.70362">
        <ele>189.8</ele>
        <time>2011-02-20T10:16:41Z</time>
      </trkpt>
      <trkpt lat="43.6031" lon="3.70358">
        <ele>190</ele>
        <time>2011-02-20T10:16:44Z</time>
      </trkpt>
      <trkpt lat="43.60302" lon="3.70356">
        <ele>190.7</ele>
        <time>2011-02-20T10:16:47Z</time>
      </trkpt>
      <trkpt lat="43.60296" lon="3.70353">
        <ele>191.3</ele>
        <time>2011-02-20T10:16:50Z</time>
      </trkpt>
      <trkpt lat="43.60287" lon="3.7035">
        <ele>192.5</ele>
        <time>2011-02-20T10:16:54Z</time>
      </trkpt>
      <trkpt lat="43.6028" lon="3.70348">
        <ele>194.7</ele>
        <time>2011-02-20T10:16:58Z</time>
      </trkpt>
      <trkpt lat="43.60272" lon="3.70345">
        <ele>195.7</ele>
        <time>2011-02-20T10:17:03Z</time>
      </trkpt>
      <trkpt lat="43.60263" lon="3.70341">
        <ele>197.5</ele>
        <time>2011-02-20T10:17:08Z</time>
      </trkpt>
      <trkpt lat="43.60257" lon="3.70337">
        <ele>198.3</ele>
        <time>2011-02-20T10:17:12Z</time>
      </trkpt>
      <trkpt lat="43.6025" lon="3.7033">
        <ele>199.3</ele>
        <time>2011-02-20T10:17:16Z</time>
      </trkpt>
      <trkpt lat="43.60243" lon="3.70324">
        <ele>200.5</ele>
        <time>2011-02-20T10:17:20Z</time>
      </trkpt>
      <trkpt lat="43.60237" lon="3.70318">
        <ele>201.6</ele>
        <time>2011-02-20T10:17:24Z</time>
      </trkpt>
      <trkpt lat="43.60236" lon="3.70317">
        <ele>201.8</ele>
        <time>2011-02-20T10:17:25Z</time>
      </trkpt>
      <trkpt lat="43.60222" lon="3.70309">
        <ele>203.7</ele>
        <time>2011-02-20T10:17:33Z</time>
      </trkpt>
      <trkpt lat="43.60215" lon="3.70304">
        <ele>202.7</ele>
        <time>2011-02-20T10:17:39Z</time>
      </trkpt>
      <trkpt lat="43.60209" lon="3.70297">
        <ele>202.6</ele>
        <time>2011-02-20T10:17:43Z</time>
      </trkpt>
      <trkpt lat="43.60204" lon="3.70289">
        <ele>202.6</ele>
        <time>2011-02-20T10:17:47Z</time>
      </trkpt>
      <trkpt lat="43.60199" lon="3.70279">
        <ele>203.7</ele>
        <time>2011-02-20T10:17:51Z</time>
      </trkpt>
      <trkpt lat="43.60194" lon="3.70271">
        <ele>204.7</ele>
        <time>2011-02-20T10:17:55Z</time>
      </trkpt>
      <trkpt lat="43.60187" lon="3.70264">
        <ele>204.4</ele>
        <time>2011-02-20T10:17:59Z</time>
      </trkpt>
      <trkpt lat="43.60182" lon="3.70256">
        <ele>204.2</ele>
        <time>2011-02-20T10:18:02Z</time>
      </trkpt>
      <trkpt lat="43.60178" lon="3.70249">
        <ele>204</ele>
        <time>2011-02-20T10:18:04Z</time>
      </trkpt>
      <trkpt lat="43.60174" lon="3.70242">
        <ele>203.5</ele>
        <time>2011-02-20T10:18:06Z</time>
      </trkpt>
      <trkpt lat="43.60169" lon="3.70234">
        <ele>203</ele>
        <time>2011-02-20T10:18:08Z</time>
      </trkpt>
      <trkpt lat="43.60167" lon="3.70223">
        <ele>202.2</ele>
        <time>2011-02-20T10:18:11Z</time>
      </trkpt>
      <trkpt lat="43.60161" lon="3.70214">
        <ele>201.6</ele>
        <time>2011-02-20T10:18:18Z</time>
      </trkpt>
      <trkpt lat="43.60154" lon="3.70206">
        <ele>201.4</ele>
        <time>2011-02-20T10:18:31Z</time>
      </trkpt>
      <trkpt lat="43.60154" lon="3.70204">
        <ele>201.5</ele>
        <time>2011-02-20T10:18:32Z</time>
      </trkpt>
      <trkpt lat="43.60148" lon="3.70188">
        <ele>200.5</ele>
        <time>2011-02-20T10:18:37Z</time>
      </trkpt>
      <trkpt lat="43.60145" lon="3.7018">
        <ele>200.1</ele>
        <time>2011-02-20T10:18:39Z</time>
      </trkpt>
      <trkpt lat="43.60141" lon="3.70172">
        <ele>199.7</ele>
        <time>2011-02-20T10:18:41Z</time>
      </trkpt>
      <trkpt lat="43.60138" lon="3.70163">
        <ele>199.4</ele>
        <time>2011-02-20T10:18:43Z</time>
      </trkpt>
      <trkpt lat="43.60135" lon="3.70154">
        <ele>198.5</ele>
        <time>2011-02-20T10:18:45Z</time>
      </trkpt>
      <trkpt lat="43.6013" lon="3.70144">
        <ele>197.9</ele>
        <time>2011-02-20T10:18:48Z</time>
      </trkpt>
      <trkpt lat="43.60128" lon="3.70132">
        <ele>197.5</ele>
        <time>2011-02-20T10:18:51Z</time>
      </trkpt>
      <trkpt lat="43.6013" lon="3.70122">
        <ele>196</ele>
        <time>2011-02-20T10:18:55Z</time>
      </trkpt>
      <trkpt lat="43.60137" lon="3.70119">
        <ele>193.6</ele>
        <time>2011-02-20T10:18:59Z</time>
      </trkpt>
      <trkpt lat="43.60145" lon="3.70119">
        <ele>190.9</ele>
        <time>2011-02-20T10:19:02Z</time>
      </trkpt>
      <trkpt lat="43.60152" lon="3.70122">
        <ele>188.3</ele>
        <time>2011-02-20T10:19:05Z</time>
      </trkpt>
      <trkpt lat="43.6016" lon="3.70118">
        <ele>183.9</ele>
        <time>2011-02-20T10:19:10Z</time>
      </trkpt>
      <trkpt lat="43.60161" lon="3.70106">
        <ele>182.2</ele>
        <time>2011-02-20T10:19:14Z</time>
      </trkpt>
      <trkpt lat="43.60167" lon="3.70099">
        <ele>178.7</ele>
        <time>2011-02-20T10:19:36Z</time>
      </trkpt>
      <trkpt lat="43.60168" lon="3.70098">
        <ele>178.6</ele>
        <time>2011-02-20T10:19:37Z</time>
      </trkpt>
      <trkpt lat="43.6017" lon="3.70083">
        <ele>178.6</ele>
        <time>2011-02-20T10:21:25Z</time>
      </trkpt>
      <trkpt lat="43.60174" lon="3.70072">
        <ele>177.1</ele>
        <time>2011-02-20T10:21:27Z</time>
      </trkpt>
      <trkpt lat="43.60176" lon="3.70066">
        <ele>176.1</ele>
        <time>2011-02-20T10:21:28Z</time>
      </trkpt>
      <trkpt lat="43.60178" lon="3.7006">
        <ele>175.3</ele>
        <time>2011-02-20T10:21:29Z</time>
      </trkpt>
      <trkpt lat="43.60181" lon="3.70053">
        <ele>173.6</ele>
        <time>2011-02-20T10:21:30Z</time>
      </trkpt>
      <trkpt lat="43.60184" lon="3.70046">
        <ele>172.4</ele>
        <time>2011-02-20T10:21:31Z</time>
      </trkpt>
      <trkpt lat="43.60187" lon="3.7004">
        <ele>171.4</ele>
        <time>2011-02-20T10:21:32Z</time>
      </trkpt>
      <trkpt lat="43.60191" lon="3.70033">
        <ele>169.9</ele>
        <time>2011-02-20T10:21:33Z</time>
      </trkpt>
      <trkpt lat="43.60195" lon="3.70029">
        <ele>168.7</ele>
        <time>2011-02-20T10:21:34Z</time>
      </trkpt>
      <trkpt lat="43.60201" lon="3.7002">
        <ele>166.8</ele>
        <time>2011-02-20T10:21:36Z</time>
      </trkpt>
      <trkpt lat="43.60205" lon="3.70015">
        <ele>166</ele>
        <time>2011-02-20T10:21:37Z</time>
      </trkpt>
      <trkpt lat="43.60209" lon="3.70009">
        <ele>165.4</ele>
        <time>2011-02-20T10:21:38Z</time>
      </trkpt>
      <trkpt lat="43.60213" lon="3.7">
        <ele>163.9</ele>
        <time>2011-02-20T10:21:40Z</time>
      </trkpt>
      <trkpt lat="43.60214" lon="3.69989">
        <ele>163</ele>
        <time>2011-02-20T10:21:42Z</time>
      </trkpt>
      <trkpt lat="43.60219" lon="3.69984">
        <ele>162.1</ele>
        <time>2011-02-20T10:21:44Z</time>
      </trkpt>
      <trkpt lat="43.6022" lon="3.69974">
        <ele>161.1</ele>
        <time>2011-02-20T10:21:47Z</time>
      </trkpt>
      <trkpt lat="43.60217" lon="3.69963">
        <ele>160.3</ele>
        <time>2011-02-20T10:21:50Z</time>
      </trkpt>
      <trkpt lat="43.60222" lon="3.69955">
        <ele>159.8</ele>
        <time>2011-02-20T10:21:52Z</time>
      </trkpt>
      <trkpt lat="43.60228" lon="3.69946">
        <ele>159.3</ele>
        <time>2011-02-20T10:21:54Z</time>
      </trkpt>
      <trkpt lat="43.60228" lon="3.69937">
        <ele>158.9</ele>
        <time>2011-02-20T10:21:56Z</time>
      </trkpt>
      <trkpt lat="43.60224" lon="3.69926">
        <ele>158.7</ele>
        <time>2011-02-20T10:21:58Z</time>
      </trkpt>
      <trkpt lat="43.60221" lon="3.69921">
        <ele>157.9</ele>
        <time>2011-02-20T10:21:59Z</time>
      </trkpt>
      <trkpt lat="43.60217" lon="3.6991">
        <ele>156.8</ele>
        <time>2011-02-20T10:22:01Z</time>
      </trkpt>
      <trkpt lat="43.60216" lon="3.69903">
        <ele>156.4</ele>
        <time>2011-02-20T10:22:02Z</time>
      </trkpt>
      <trkpt lat="43.60216" lon="3.69897">
        <ele>156.1</ele>
        <time>2011-02-20T10:22:03Z</time>
      </trkpt>
      <trkpt lat="43.60213" lon="3.69886">
        <ele>155.9</ele>
        <time>2011-02-20T10:22:05Z</time>
      </trkpt>
      <trkpt lat="43.60207" lon="3.69879">
        <ele>156.1</ele>
        <time>2011-02-20T10:22:07Z</time>
      </trkpt>
      <trkpt lat="43.60203" lon="3.69871">
        <ele>156.6</ele>
        <time>2011-02-20T10:22:09Z</time>
      </trkpt>
      <trkpt lat="43.60194" lon="3.69869">
        <ele>156.5</ele>
        <time>2011-02-20T10:22:14Z</time>
      </trkpt>
      <trkpt lat="43.6019" lon="3.69862">
        <ele>156</ele>
        <time>2011-02-20T10:22:16Z</time>
      </trkpt>
      <trkpt lat="43.60185" lon="3.69856">
        <ele>155.9</ele>
        <time>2011-02-20T10:22:18Z</time>
      </trkpt>
      <trkpt lat="43.60181" lon="3.69845">
        <ele>155.9</ele>
        <time>2011-02-20T10:22:20Z</time>
      </trkpt>
      <trkpt lat="43.60178" lon="3.69837">
        <ele>155.9</ele>
        <time>2011-02-20T10:22:22Z</time>
      </trkpt>
      <trkpt lat="43.60179" lon="3.69826">
        <ele>155.5</ele>
        <time>2011-02-20T10:22:26Z</time>
      </trkpt>
      <trkpt lat="43.60179" lon="3.69825">
        <ele>155.7</ele>
        <time>2011-02-20T10:22:27Z</time>
      </trkpt>
      <trkpt lat="43.60195" lon="3.6983">
        <ele>157.3</ele>
        <time>2011-02-20T10:23:02Z</time>
      </trkpt>
      <trkpt lat="43.60203" lon="3.69834">
        <ele>159.5</ele>
        <time>2011-02-20T10:23:36Z</time>
      </trkpt>
      <trkpt lat="43.60205" lon="3.69835">
        <ele>159.6</ele>
        <time>2011-02-20T10:23:37Z</time>
      </trkpt>
      <trkpt lat="43.60216" lon="3.69846">
        <ele>160.3</ele>
        <time>2011-02-20T10:23:45Z</time>
      </trkpt>
      <trkpt lat="43.60224" lon="3.69853">
        <ele>160.9</ele>
        <time>2011-02-20T10:23:49Z</time>
      </trkpt>
      <trkpt lat="43.60231" lon="3.69856">
        <ele>162</ele>
        <time>2011-02-20T10:23:53Z</time>
      </trkpt>
      <trkpt lat="43.60238" lon="3.69858">
        <ele>163.3</ele>
        <time>2011-02-20T10:23:57Z</time>
      </trkpt>
      <trkpt lat="43.60247" lon="3.6986">
        <ele>166.1</ele>
        <time>2011-02-20T10:24:02Z</time>
      </trkpt>
      <trkpt lat="43.60255" lon="3.69861">
        <ele>167.8</ele>
        <time>2011-02-20T10:24:07Z</time>
      </trkpt>
      <trkpt lat="43.60261" lon="3.69865">
        <ele>169.2</ele>
        <time>2011-02-20T10:24:12Z</time>
      </trkpt>
      <trkpt lat="43.60269" lon="3.69871">
        <ele>170.1</ele>
        <time>2011-02-20T10:24:17Z</time>
      </trkpt>
      <trkpt lat="43.60277" lon="3.69875">
        <ele>171.4</ele>
        <time>2011-02-20T10:24:22Z</time>
      </trkpt>
      <trkpt lat="43.60285" lon="3.69878">
        <ele>173</ele>
        <time>2011-02-20T10:24:27Z</time>
      </trkpt>
      <trkpt lat="43.60293" lon="3.69878">
        <ele>174</ele>
        <time>2011-02-20T10:24:32Z</time>
      </trkpt>
      <trkpt lat="43.603" lon="3.69872">
        <ele>175.2</ele>
        <time>2011-02-20T10:24:37Z</time>
      </trkpt>
      <trkpt lat="43.60301" lon="3.6987">
        <ele>175.5</ele>
        <time>2011-02-20T10:24:38Z</time>
      </trkpt>
      <trkpt lat="43.60314" lon="3.69856">
        <ele>178.1</ele>
        <time>2011-02-20T10:24:47Z</time>
      </trkpt>
      <trkpt lat="43.60319" lon="3.69848">
        <ele>178.5</ele>
        <time>2011-02-20T10:24:52Z</time>
      </trkpt>
      <trkpt lat="43.60321" lon="3.69836">
        <ele>179.5</ele>
        <time>2011-02-20T10:24:58Z</time>
      </trkpt>
      <trkpt lat="43.60323" lon="3.69847">
        <ele>180.8</ele>
        <time>2011-02-20T10:26:54Z</time>
      </trkpt>
      <trkpt lat="43.60323" lon="3.69849">
        <ele>181.1</ele>
        <time>2011-02-20T10:26:55Z</time>
      </trkpt>
      <trkpt lat="43.60321" lon="3.69868">
        <ele>180.9</ele>
        <time>2011-02-20T10:27:05Z</time>
      </trkpt>
      <trkpt lat="43.60326" lon="3.69878">
        <ele>179.9</ele>
        <time>2011-02-20T10:27:09Z</time>
      </trkpt>
      <trkpt lat="43.60329" lon="3.69889">
        <ele>179.9</ele>
        <time>2011-02-20T10:27:12Z</time>
      </trkpt>
      <trkpt lat="43.60332" lon="3.69898">
        <ele>180</ele>
        <time>2011-02-20T10:27:14Z</time>
      </trkpt>
      <trkpt lat="43.60335" lon="3.69907">
        <ele>179.4</ele>
        <time>2011-02-20T10:27:16Z</time>
      </trkpt>
      <trkpt lat="43.60336" lon="3.69917">
        <ele>178.9</ele>
        <time>2011-02-20T10:27:18Z</time>
      </trkpt>
      <trkpt lat="43.60337" lon="3.69927">
        <ele>178.6</ele>
        <time>2011-02-20T10:27:20Z</time>
      </trkpt>
      <trkpt lat="43.60335" lon="3.69938">
        <ele>177.9</ele>
        <time>2011-02-20T10:27:22Z</time>
      </trkpt>
      <trkpt lat="43.60335" lon="3.69945">
        <ele>177.6</ele>
        <time>2011-02-20T10:27:23Z</time>
      </trkpt>
      <trkpt lat="43.60334" lon="3.69952">
        <ele>177.3</ele>
        <time>2011-02-20T10:27:24Z</time>
      </trkpt>
      <trkpt lat="43.60333" lon="3.69959">
        <ele>177.1</ele>
        <time>2011-02-20T10:27:25Z</time>
      </trkpt>
      <trkpt lat="43.60332" lon="3.69967">
        <ele>176.9</ele>
        <time>2011-02-20T10:27:26Z</time>
      </trkpt>
      <trkpt lat="43.60331" lon="3.69974">
        <ele>175.4</ele>
        <time>2011-02-20T10:27:27Z</time>
      </trkpt>
      <trkpt lat="43.60329" lon="3.69985">
        <ele>173.5</ele>
        <time>2011-02-20T10:27:29Z</time>
      </trkpt>
      <trkpt lat="43.60323" lon="3.69991">
        <ele>171.7</ele>
        <time>2011-02-20T10:27:31Z</time>
      </trkpt>
      <trkpt lat="43.60319" lon="3.69993">
        <ele>170.8</ele>
        <time>2011-02-20T10:27:32Z</time>
      </trkpt>
      <trkpt lat="43.60314" lon="3.69993">
        <ele>170.2</ele>
        <time>2011-02-20T10:27:33Z</time>
      </trkpt>
      <trkpt lat="43.60309" lon="3.69993">
        <ele>169.3</ele>
        <time>2011-02-20T10:27:34Z</time>
      </trkpt>
      <trkpt lat="43.60303" lon="3.69995">
        <ele>168.7</ele>
        <time>2011-02-20T10:27:35Z</time>
      </trkpt>
      <trkpt lat="43.603" lon="3.7">
        <ele>168.2</ele>
        <time>2011-02-20T10:27:36Z</time>
      </trkpt>
      <trkpt lat="43.60298" lon="3.70006">
        <ele>166.7</ele>
        <time>2011-02-20T10:27:37Z</time>
      </trkpt>
      <trkpt lat="43.60297" lon="3.70017">
        <ele>164.6</ele>
        <time>2011-02-20T10:27:39Z</time>
      </trkpt>
      <trkpt lat="43.603" lon="3.70025">
        <ele>164.6</ele>
        <time>2011-02-20T10:27:41Z</time>
      </trkpt>
      <trkpt lat="43.60303" lon="3.70033">
        <ele>164.4</ele>
        <time>2011-02-20T10:27:43Z</time>
      </trkpt>
      <trkpt lat="43.60307" lon="3.70041">
        <ele>164.2</ele>
        <time>2011-02-20T10:27:45Z</time>
      </trkpt>
      <trkpt lat="43.6031" lon="3.70048">
        <ele>164.6</ele>
        <time>2011-02-20T10:27:47Z</time>
      </trkpt>
      <trkpt lat="43.60313" lon="3.70056">
        <ele>165.3</ele>
        <time>2011-02-20T10:27:49Z</time>
      </trkpt>
      <trkpt lat="43.60316" lon="3.70064">
        <ele>166</ele>
        <time>2011-02-20T10:27:51Z</time>
      </trkpt>
      <trkpt lat="43.60319" lon="3.70071">
        <ele>166.6</ele>
        <time>2011-02-20T10:27:53Z</time>
      </trkpt>
      <trkpt lat="43.60322" lon="3.70078">
        <ele>167.1</ele>
        <time>2011-02-20T10:27:55Z</time>
      </trkpt>
      <trkpt lat="43.60323" lon="3.70082">
        <ele>167</ele>
        <time>2011-02-20T10:27:56Z</time>
      </trkpt>
      <trkpt lat="43.60328" lon="3.70093">
        <ele>167.3</ele>
        <time>2011-02-20T10:27:59Z</time>
      </trkpt>
      <trkpt lat="43.60331" lon="3.70101">
        <ele>168.1</ele>
        <time>2011-02-20T10:28:01Z</time>
      </trkpt>
      <trkpt lat="43.60334" lon="3.70109">
        <ele>168.8</ele>
        <time>2011-02-20T10:28:03Z</time>
      </trkpt>
      <trkpt lat="43.60336" lon="3.70118">
        <ele>169.5</ele>
        <time>2011-02-20T10:28:05Z</time>
      </trkpt>
      <trkpt lat="43.60338" lon="3.70129">
        <ele>171.1</ele>
        <time>2011-02-20T10:28:08Z</time>
      </trkpt>
      <trkpt lat="43.6034" lon="3.70141">
        <ele>172.9</ele>
        <time>2011-02-20T10:28:12Z</time>
      </trkpt>
      <trkpt lat="43.60341" lon="3.70154">
        <ele>174.4</ele>
        <time>2011-02-20T10:28:16Z</time>
      </trkpt>
      <trkpt lat="43.60342" lon="3.70166">
        <ele>175.2</ele>
        <time>2011-02-20T10:28:20Z</time>
      </trkpt>
      <trkpt lat="43.60342" lon="3.70175">
        <ele>176</ele>
        <time>2011-02-20T10:28:23Z</time>
      </trkpt>
      <trkpt lat="43.60343" lon="3.70185">
        <ele>175.7</ele>
        <time>2011-02-20T10:28:26Z</time>
      </trkpt>
      <trkpt lat="43.60343" lon="3.70195">
        <ele>176.6</ele>
        <time>2011-02-20T10:28:29Z</time>
      </trkpt>
      <trkpt lat="43.60344" lon="3.70205">
        <ele>178</ele>
        <time>2011-02-20T10:28:32Z</time>
      </trkpt>
      <trkpt lat="43.60344" lon="3.70215">
        <ele>178.6</ele>
        <time>2011-02-20T10:28:35Z</time>
      </trkpt>
      <trkpt lat="43.60344" lon="3.70225">
        <ele>179.4</ele>
        <time>2011-02-20T10:28:38Z</time>
      </trkpt>
      <trkpt lat="43.60344" lon="3.70235">
        <ele>180.4</ele>
        <time>2011-02-20T10:28:41Z</time>
      </trkpt>
      <trkpt lat="43.60343" lon="3.70244">
        <ele>181.1</ele>
        <time>2011-02-20T10:28:44Z</time>
      </trkpt>
      <trkpt lat="43.60342" lon="3.70254">
        <ele>182</ele>
        <time>2011-02-20T10:28:47Z</time>
      </trkpt>
      <trkpt lat="43.6034" lon="3.70264">
        <ele>182.6</ele>
        <time>2011-02-20T10:28:50Z</time>
      </trkpt>
      <trkpt lat="43.6034" lon="3.70274">
        <ele>182.9</ele>
        <time>2011-02-20T10:28:53Z</time>
      </trkpt>
      <trkpt lat="43.6034" lon="3.70285">
        <ele>183.3</ele>
        <time>2011-02-20T10:28:56Z</time>
      </trkpt>
      <trkpt lat="43.6034" lon="3.70288">
        <ele>183.5</ele>
        <time>2011-02-20T10:28:57Z</time>
      </trkpt>
      <trkpt lat="43.60337" lon="3.70306">
        <ele>184.4</ele>
        <time>2011-02-20T10:29:02Z</time>
      </trkpt>
      <trkpt lat="43.60336" lon="3.70316">
        <ele>185.5</ele>
        <time>2011-02-20T10:29:05Z</time>
      </trkpt>
      <trkpt lat="43.60333" lon="3.70326">
        <ele>186.9</ele>
        <time>2011-02-20T10:29:08Z</time>
      </trkpt>
      <trkpt lat="43.60331" lon="3.70336">
        <ele>187.6</ele>
        <time>2011-02-20T10:29:11Z</time>
      </trkpt>
      <trkpt lat="43.60327" lon="3.70345">
        <ele>188.3</ele>
        <time>2011-02-20T10:29:14Z</time>
      </trkpt>
      <trkpt lat="43.60323" lon="3.70355">
        <ele>188.5</ele>
        <time>2011-02-20T10:29:17Z</time>
      </trkpt>
      <trkpt lat="43.60324" lon="3.70367">
        <ele>189.2</ele>
        <time>2011-02-20T10:29:21Z</time>
      </trkpt>
      <trkpt lat="43.60329" lon="3.70374">
        <ele>188.4</ele>
        <time>2011-02-20T10:29:24Z</time>
      </trkpt>
      <trkpt lat="43.60336" lon="3.7038">
        <ele>188.3</ele>
        <time>2011-02-20T10:29:27Z</time>
      </trkpt>
      <trkpt lat="43.60343" lon="3.70385">
        <ele>188.2</ele>
        <time>2011-02-20T10:29:29Z</time>
      </trkpt>
      <trkpt lat="43.6035" lon="3.7039">
        <ele>188</ele>
        <time>2011-02-20T10:29:31Z</time>
      </trkpt>
      <trkpt lat="43.60357" lon="3.70398">
        <ele>187.8</ele>
        <time>2011-02-20T10:29:34Z</time>
      </trkpt>
      <trkpt lat="43.60356" lon="3.70411">
        <ele>185.9</ele>
        <time>2011-02-20T10:30:05Z</time>
      </trkpt>
      <trkpt lat="43.60356" lon="3.70411">
        <ele>185.8</ele>
        <time>2011-02-20T10:30:06Z</time>
      </trkpt>
      <trkpt lat="43.60348" lon="3.70425">
        <ele>185.7</ele>
        <time>2011-02-20T10:30:45Z</time>
      </trkpt>
      <trkpt lat="43.60342" lon="3.70432">
        <ele>185.1</ele>
        <time>2011-02-20T10:30:47Z</time>
      </trkpt>
      <trkpt lat="43.60339" lon="3.70437">
        <ele>184.9</ele>
        <time>2011-02-20T10:30:48Z</time>
      </trkpt>
      <trkpt lat="43.60335" lon="3.70443">
        <ele>184.2</ele>
        <time>2011-02-20T10:30:49Z</time>
      </trkpt>
      <trkpt lat="43.60332" lon="3.70449">
        <ele>183.6</ele>
        <time>2011-02-20T10:30:50Z</time>
      </trkpt>
      <trkpt lat="43.6033" lon="3.70455">
        <ele>183.1</ele>
        <time>2011-02-20T10:30:51Z</time>
      </trkpt>
      <trkpt lat="43.60327" lon="3.70461">
        <ele>182.3</ele>
        <time>2011-02-20T10:30:52Z</time>
      </trkpt>
      <trkpt lat="43.60323" lon="3.70466">
        <ele>181.7</ele>
        <time>2011-02-20T10:30:53Z</time>
      </trkpt>
      <trkpt lat="43.60319" lon="3.70469">
        <ele>181.2</ele>
        <time>2011-02-20T10:30:54Z</time>
      </trkpt>
      <trkpt lat="43.60313" lon="3.7047">
        <ele>180.9</ele>
        <time>2011-02-20T10:30:55Z</time>
      </trkpt>
      <trkpt lat="43.60307" lon="3.70469">
        <ele>180.6</ele>
        <time>2011-02-20T10:30:56Z</time>
      </trkpt>
      <trkpt lat="43.603" lon="3.70468">
        <ele>180.4</ele>
        <time>2011-02-20T10:30:57Z</time>
      </trkpt>
      <trkpt lat="43.60293" lon="3.70468">
        <ele>179.5</ele>
        <time>2011-02-20T10:30:58Z</time>
      </trkpt>
      <trkpt lat="43.60288" lon="3.70471">
        <ele>178.9</ele>
        <time>2011-02-20T10:30:59Z</time>
      </trkpt>
      <trkpt lat="43.6028" lon="3.70471">
        <ele>177.6</ele>
        <time>2011-02-20T10:31:01Z</time>
      </trkpt>
      <trkpt lat="43.60276" lon="3.70462">
        <ele>176.6</ele>
        <time>2011-02-20T10:31:03Z</time>
      </trkpt>
      <trkpt lat="43.60274" lon="3.70451">
        <ele>175.9</ele>
        <time>2011-02-20T10:31:05Z</time>
      </trkpt>
      <trkpt lat="43.6027" lon="3.70447">
        <ele>175.6</ele>
        <time>2011-02-20T10:31:06Z</time>
      </trkpt>
      <trkpt lat="43.60264" lon="3.70444">
        <ele>175.4</ele>
        <time>2011-02-20T10:31:07Z</time>
      </trkpt>
      <trkpt lat="43.60257" lon="3.70443">
        <ele>174.1</ele>
        <time>2011-02-20T10:31:08Z</time>
      </trkpt>
      <trkpt lat="43.60249" lon="3.70442">
        <ele>173.1</ele>
        <time>2011-02-20T10:31:09Z</time>
      </trkpt>
      <trkpt lat="43.60241" lon="3.70441">
        <ele>172.4</ele>
        <time>2011-02-20T10:31:10Z</time>
      </trkpt>
      <trkpt lat="43.60233" lon="3.70442">
        <ele>170.7</ele>
        <time>2011-02-20T10:31:11Z</time>
      </trkpt>
      <trkpt lat="43.60225" lon="3.70442">
        <ele>169.5</ele>
        <time>2011-02-20T10:31:12Z</time>
      </trkpt>
      <trkpt lat="43.60217" lon="3.70444">
        <ele>168.5</ele>
        <time>2011-02-20T10:31:13Z</time>
      </trkpt>
      <trkpt lat="43.60209" lon="3.70445">
        <ele>167.1</ele>
        <time>2011-02-20T10:31:14Z</time>
      </trkpt>
      <trkpt lat="43.602" lon="3.70444">
        <ele>166</ele>
        <time>2011-02-20T10:31:15Z</time>
      </trkpt>
      <trkpt lat="43.60192" lon="3.70444">
        <ele>165.2</ele>
        <time>2011-02-20T10:31:16Z</time>
      </trkpt>
      <trkpt lat="43.60183" lon="3.70443">
        <ele>163.9</ele>
        <time>2011-02-20T10:31:17Z</time>
      </trkpt>
      <trkpt lat="43.60174" lon="3.7044">
        <ele>162.9</ele>
        <time>2011-02-20T10:31:18Z</time>
      </trkpt>
      <trkpt lat="43.60165" lon="3.70436">
        <ele>162.1</ele>
        <time>2011-02-20T10:31:19Z</time>
      </trkpt>
      <trkpt lat="43.60156" lon="3.70432">
        <ele>160.6</ele>
        <time>2011-02-20T10:31:20Z</time>
      </trkpt>
      <trkpt lat="43.60147" lon="3.70429">
        <ele>159.4</ele>
        <time>2011-02-20T10:31:21Z</time>
      </trkpt>
      <trkpt lat="43.60138" lon="3.70428">
        <ele>158.6</ele>
        <time>2011-02-20T10:31:22Z</time>
      </trkpt>
      <trkpt lat="43.60129" lon="3.7043">
        <ele>157.9</ele>
        <time>2011-02-20T10:31:23Z</time>
      </trkpt>
      <trkpt lat="43.60121" lon="3.70436">
        <ele>157.5</ele>
        <time>2011-02-20T10:31:24Z</time>
      </trkpt>
      <trkpt lat="43.60113" lon="3.70443">
        <ele>157.2</ele>
        <time>2011-02-20T10:31:25Z</time>
      </trkpt>
      <trkpt lat="43.60105" lon="3.7045">
        <ele>157</ele>
        <time>2011-02-20T10:31:26Z</time>
      </trkpt>
      <trkpt lat="43.60098" lon="3.70459">
        <ele>156.3</ele>
        <time>2011-02-20T10:31:27Z</time>
      </trkpt>
      <trkpt lat="43.60093" lon="3.7047">
        <ele>155.7</ele>
        <time>2011-02-20T10:31:28Z</time>
      </trkpt>
      <trkpt lat="43.6009" lon="3.70482">
        <ele>155.3</ele>
        <time>2011-02-20T10:31:29Z</time>
      </trkpt>
      <trkpt lat="43.60087" lon="3.70494">
        <ele>154</ele>
        <time>2011-02-20T10:31:30Z</time>
      </trkpt>
      <trkpt lat="43.60085" lon="3.70508">
        <ele>153</ele>
        <time>2011-02-20T10:31:31Z</time>
      </trkpt>
      <trkpt lat="43.60083" lon="3.7052">
        <ele>152.3</ele>
        <time>2011-02-20T10:31:32Z</time>
      </trkpt>
      <trkpt lat="43.6008" lon="3.70532">
        <ele>151.2</ele>
        <time>2011-02-20T10:31:33Z</time>
      </trkpt>
      <trkpt lat="43.60078" lon="3.70545">
        <ele>150.5</ele>
        <time>2011-02-20T10:31:34Z</time>
      </trkpt>
      <trkpt lat="43.60077" lon="3.70557">
        <ele>149.9</ele>
        <time>2011-02-20T10:31:35Z</time>
      </trkpt>
      <trkpt lat="43.60076" lon="3.70571">
        <ele>148.5</ele>
        <time>2011-02-20T10:31:36Z</time>
      </trkpt>
      <trkpt lat="43.60075" lon="3.70584">
        <ele>147.5</ele>
        <time>2011-02-20T10:31:37Z</time>
      </trkpt>
      <trkpt lat="43.60074" lon="3.70597">
        <ele>146.7</ele>
        <time>2011-02-20T10:31:38Z</time>
      </trkpt>
      <trkpt lat="43.60073" lon="3.7061">
        <ele>146.1</ele>
        <time>2011-02-20T10:31:39Z</time>
      </trkpt>
      <trkpt lat="43.60071" lon="3.7062">
        <ele>145</ele>
        <time>2011-02-20T10:31:40Z</time>
      </trkpt>
      <trkpt lat="43.60068" lon="3.70631">
        <ele>144.1</ele>
        <time>2011-02-20T10:31:41Z</time>
      </trkpt>
      <trkpt lat="43.60064" lon="3.7064">
        <ele>143.4</ele>
        <time>2011-02-20T10:31:42Z</time>
      </trkpt>
      <trkpt lat="43.60059" lon="3.7065">
        <ele>143</ele>
        <time>2011-02-20T10:31:43Z</time>
      </trkpt>
      <trkpt lat="43.60055" lon="3.70659">
        <ele>142.7</ele>
        <time>2011-02-20T10:31:44Z</time>
      </trkpt>
      <trkpt lat="43.60052" lon="3.7067">
        <ele>142.5</ele>
        <time>2011-02-20T10:31:45Z</time>
      </trkpt>
      <trkpt lat="43.60049" lon="3.7068">
        <ele>141.8</ele>
        <time>2011-02-20T10:31:46Z</time>
      </trkpt>
      <trkpt lat="43.60047" lon="3.70691">
        <ele>141.3</ele>
        <time>2011-02-20T10:31:47Z</time>
      </trkpt>
      <trkpt lat="43.60044" lon="3.70702">
        <ele>140.9</ele>
        <time>2011-02-20T10:31:48Z</time>
      </trkpt>
      <trkpt lat="43.60042" lon="3.70714">
        <ele>140.3</ele>
        <time>2011-02-20T10:31:49Z</time>
      </trkpt>
      <trkpt lat="43.60039" lon="3.70724">
        <ele>139.8</ele>
        <time>2011-02-20T10:31:50Z</time>
      </trkpt>
      <trkpt lat="43.60036" lon="3.70736">
        <ele>139.4</ele>
        <time>2011-02-20T10:31:51Z</time>
      </trkpt>
      <trkpt lat="43.60033" lon="3.70748">
        <ele>138.4</ele>
        <time>2011-02-20T10:31:52Z</time>
      </trkpt>
      <trkpt lat="43.60029" lon="3.7076">
        <ele>137.6</ele>
        <time>2011-02-20T10:31:53Z</time>
      </trkpt>
      <trkpt lat="43.60025" lon="3.70771">
        <ele>137.1</ele>
        <time>2011-02-20T10:31:54Z</time>
      </trkpt>
      <trkpt lat="43.6002" lon="3.70782">
        <ele>136.6</ele>
        <time>2011-02-20T10:31:55Z</time>
      </trkpt>
      <trkpt lat="43.60015" lon="3.70792">
        <ele>135.5</ele>
        <time>2011-02-20T10:31:56Z</time>
      </trkpt>
      <trkpt lat="43.60009" lon="3.70801">
        <ele>134.7</ele>
        <time>2011-02-20T10:31:57Z</time>
      </trkpt>
      <trkpt lat="43.60002" lon="3.70809">
        <ele>134</ele>
        <time>2011-02-20T10:31:58Z</time>
      </trkpt>
      <trkpt lat="43.59996" lon="3.70817">
        <ele>133</ele>
        <time>2011-02-20T10:31:59Z</time>
      </trkpt>
      <trkpt lat="43.5999" lon="3.70826">
        <ele>132.2</ele>
        <time>2011-02-20T10:32:00Z</time>
      </trkpt>
      <trkpt lat="43.59986" lon="3.70836">
        <ele>131.6</ele>
        <time>2011-02-20T10:32:01Z</time>
      </trkpt>
      <trkpt lat="43.59984" lon="3.70847">
        <ele>131.2</ele>
        <time>2011-02-20T10:32:02Z</time>
      </trkpt>
      <trkpt lat="43.59983" lon="3.70858">
        <ele>130.9</ele>
        <time>2011-02-20T10:32:03Z</time>
      </trkpt>
      <trkpt lat="43.59981" lon="3.70869">
        <ele>130.7</ele>
        <time>2011-02-20T10:32:04Z</time>
      </trkpt>
      <trkpt lat="43.59979" lon="3.7088">
        <ele>129.7</ele>
        <time>2011-02-20T10:32:05Z</time>
      </trkpt>
      <trkpt lat="43.59976" lon="3.70891">
        <ele>128.9</ele>
        <time>2011-02-20T10:32:06Z</time>
      </trkpt>
      <trkpt lat="43.59973" lon="3.70902">
        <ele>128.3</ele>
        <time>2011-02-20T10:32:07Z</time>
      </trkpt>
      <trkpt lat="43.59969" lon="3.70913">
        <ele>128.1</ele>
        <time>2011-02-20T10:32:08Z</time>
      </trkpt>
      <trkpt lat="43.59964" lon="3.70923">
        <ele>128</ele>
        <time>2011-02-20T10:32:09Z</time>
      </trkpt>
      <trkpt lat="43.59959" lon="3.70932">
        <ele>127.8</ele>
        <time>2011-02-20T10:32:10Z</time>
      </trkpt>
      <trkpt lat="43.59955" lon="3.70939">
        <ele>128.1</ele>
        <time>2011-02-20T10:32:11Z</time>
      </trkpt>
      <trkpt lat="43.5995" lon="3.70945">
        <ele>128.2</ele>
        <time>2011-02-20T10:32:12Z</time>
      </trkpt>
      <trkpt lat="43.59944" lon="3.70954">
        <ele>128.4</ele>
        <time>2011-02-20T10:32:13Z</time>
      </trkpt>
      <trkpt lat="43.59939" lon="3.70958">
        <ele>128.5</ele>
        <time>2011-02-20T10:32:14Z</time>
      </trkpt>
      <trkpt lat="43.59935" lon="3.70961">
        <ele>129.3</ele>
        <time>2011-02-20T10:32:15Z</time>
      </trkpt>
      <trkpt lat="43.5993" lon="3.70964">
        <ele>129.8</ele>
        <time>2011-02-20T10:32:16Z</time>
      </trkpt>
      <trkpt lat="43.59923" lon="3.7097">
        <ele>130.7</ele>
        <time>2011-02-20T10:32:18Z</time>
      </trkpt>
      <trkpt lat="43.59916" lon="3.70974">
        <ele>131.2</ele>
        <time>2011-02-20T10:32:20Z</time>
      </trkpt>
      <trkpt lat="43.5991" lon="3.70979">
        <ele>131.6</ele>
        <time>2011-02-20T10:32:22Z</time>
      </trkpt>
      <trkpt lat="43.59903" lon="3.70982">
        <ele>132.3</ele>
        <time>2011-02-20T10:32:24Z</time>
      </trkpt>
      <trkpt lat="43.59897" lon="3.70984">
        <ele>133</ele>
        <time>2011-02-20T10:32:26Z</time>
      </trkpt>
      <trkpt lat="43.5989" lon="3.70985">
        <ele>133.3</ele>
        <time>2011-02-20T10:32:28Z</time>
      </trkpt>
      <trkpt lat="43.59884" lon="3.70986">
        <ele>133.5</ele>
        <time>2011-02-20T10:32:30Z</time>
      </trkpt>
      <trkpt lat="43.59877" lon="3.70986">
        <ele>133.9</ele>
        <time>2011-02-20T10:32:32Z</time>
      </trkpt>
      <trkpt lat="43.59871" lon="3.70986">
        <ele>134.2</ele>
        <time>2011-02-20T10:32:34Z</time>
      </trkpt>
      <trkpt lat="43.59864" lon="3.70985">
        <ele>134.3</ele>
        <time>2011-02-20T10:32:36Z</time>
      </trkpt>
      <trkpt lat="43.59857" lon="3.70984">
        <ele>134.8</ele>
        <time>2011-02-20T10:32:38Z</time>
      </trkpt>
      <trkpt lat="43.5985" lon="3.70983">
        <ele>135.3</ele>
        <time>2011-02-20T10:32:40Z</time>
      </trkpt>
      <trkpt lat="43.59843" lon="3.70981">
        <ele>135.9</ele>
        <time>2011-02-20T10:32:42Z</time>
      </trkpt>
      <trkpt lat="43.59837" lon="3.70978">
        <ele>136.3</ele>
        <time>2011-02-20T10:32:44Z</time>
      </trkpt>
      <trkpt lat="43.5983" lon="3.70975">
        <ele>136.6</ele>
        <time>2011-02-20T10:32:46Z</time>
      </trkpt>
      <trkpt lat="43.59824" lon="3.7097">
        <ele>137.3</ele>
        <time>2011-02-20T10:32:48Z</time>
      </trkpt>
      <trkpt lat="43.59818" lon="3.70966">
        <ele>137.7</ele>
        <time>2011-02-20T10:32:50Z</time>
      </trkpt>
      <trkpt lat="43.59812" lon="3.70961">
        <ele>137.8</ele>
        <time>2011-02-20T10:32:52Z</time>
      </trkpt>
      <trkpt lat="43.59807" lon="3.70957">
        <ele>138.3</ele>
        <time>2011-02-20T10:32:54Z</time>
      </trkpt>
      <trkpt lat="43.59801" lon="3.70952">
        <ele>138.2</ele>
        <time>2011-02-20T10:32:56Z</time>
      </trkpt>
      <trkpt lat="43.59795" lon="3.70948">
        <ele>137.8</ele>
        <time>2011-02-20T10:32:58Z</time>
      </trkpt>
      <trkpt lat="43.5979" lon="3.70944">
        <ele>138.1</ele>
        <time>2011-02-20T10:33:00Z</time>
      </trkpt>
      <trkpt lat="43.59785" lon="3.7094">
        <ele>138.4</ele>
        <time>2011-02-20T10:33:02Z</time>
      </trkpt>
      <trkpt lat="43.59779" lon="3.70936">
        <ele>138.5</ele>
        <time>2011-02-20T10:33:04Z</time>
      </trkpt>
      <trkpt lat="43.59774" lon="3.70931">
        <ele>138.9</ele>
        <time>2011-02-20T10:33:06Z</time>
      </trkpt>
      <trkpt lat="43.59769" lon="3.70926">
        <ele>139.5</ele>
        <time>2011-02-20T10:33:08Z</time>
      </trkpt>
      <trkpt lat="43.59767" lon="3.70924">
        <ele>139.7</ele>
        <time>2011-02-20T10:33:09Z</time>
      </trkpt>
      <trkpt lat="43.5976" lon="3.70915">
        <ele>140.2</ele>
        <time>2011-02-20T10:33:12Z</time>
      </trkpt>
      <trkpt lat="43.59756" lon="3.70909">
        <ele>140.8</ele>
        <time>2011-02-20T10:33:14Z</time>
      </trkpt>
      <trkpt lat="43.5975" lon="3.709">
        <ele>141.4</ele>
        <time>2011-02-20T10:33:17Z</time>
      </trkpt>
      <trkpt lat="43.59745" lon="3.7089">
        <ele>141.5</ele>
        <time>2011-02-20T10:33:20Z</time>
      </trkpt>
      <trkpt lat="43.5974" lon="3.7088">
        <ele>141.5</ele>
        <time>2011-02-20T10:33:23Z</time>
      </trkpt>
      <trkpt lat="43.59735" lon="3.7087">
        <ele>142.5</ele>
        <time>2011-02-20T10:33:26Z</time>
      </trkpt>
      <trkpt lat="43.59732" lon="3.70863">
        <ele>142.5</ele>
        <time>2011-02-20T10:33:28Z</time>
      </trkpt>
      <trkpt lat="43.59728" lon="3.70852">
        <ele>142.5</ele>
        <time>2011-02-20T10:33:31Z</time>
      </trkpt>
      <trkpt lat="43.59726" lon="3.7084">
        <ele>142.7</ele>
        <time>2011-02-20T10:33:34Z</time>
      </trkpt>
      <trkpt lat="43.59725" lon="3.70832">
        <ele>142.7</ele>
        <time>2011-02-20T10:33:36Z</time>
      </trkpt>
      <trkpt lat="43.59723" lon="3.70824">
        <ele>143.1</ele>
        <time>2011-02-20T10:33:38Z</time>
      </trkpt>
      <trkpt lat="43.59719" lon="3.70813">
        <ele>144.6</ele>
        <time>2011-02-20T10:33:41Z</time>
      </trkpt>
      <trkpt lat="43.59715" lon="3.70805">
        <ele>146.2</ele>
        <time>2011-02-20T10:33:44Z</time>
      </trkpt>
      <trkpt lat="43.59708" lon="3.70797">
        <ele>147.3</ele>
        <time>2011-02-20T10:33:48Z</time>
      </trkpt>
      <trkpt lat="43.59701" lon="3.7079">
        <ele>146.9</ele>
        <time>2011-02-20T10:33:51Z</time>
      </trkpt>
      <trkpt lat="43.59695" lon="3.70784">
        <ele>146.6</ele>
        <time>2011-02-20T10:33:53Z</time>
      </trkpt>
      <trkpt lat="43.59689" lon="3.70778">
        <ele>146.3</ele>
        <time>2011-02-20T10:33:55Z</time>
      </trkpt>
      <trkpt lat="43.59682" lon="3.7077">
        <ele>145.6</ele>
        <time>2011-02-20T10:33:57Z</time>
      </trkpt>
      <trkpt lat="43.59676" lon="3.70763">
        <ele>144.8</ele>
        <time>2011-02-20T10:33:59Z</time>
      </trkpt>
      <trkpt lat="43.59669" lon="3.70755">
        <ele>144.1</ele>
        <time>2011-02-20T10:34:01Z</time>
      </trkpt>
      <trkpt lat="43.59663" lon="3.70747">
        <ele>143.8</ele>
        <time>2011-02-20T10:34:03Z</time>
      </trkpt>
      <trkpt lat="43.59656" lon="3.70739">
        <ele>143.6</ele>
        <time>2011-02-20T10:34:05Z</time>
      </trkpt>
      <trkpt lat="43.59653" lon="3.70735">
        <ele>143.7</ele>
        <time>2011-02-20T10:34:06Z</time>
      </trkpt>
      <trkpt lat="43.5965" lon="3.70731">
        <ele>143.7</ele>
        <time>2011-02-20T10:34:07Z</time>
      </trkpt>
      <trkpt lat="43.59646" lon="3.70726">
        <ele>143.8</ele>
        <time>2011-02-20T10:34:08Z</time>
      </trkpt>
      <trkpt lat="43.59642" lon="3.70722">
        <ele>143.8</ele>
        <time>2011-02-20T10:34:09Z</time>
      </trkpt>
      <trkpt lat="43.59638" lon="3.70717">
        <ele>143.8</ele>
        <time>2011-02-20T10:34:10Z</time>
      </trkpt>
      <trkpt lat="43.59635" lon="3.70712">
        <ele>143.8</ele>
        <time>2011-02-20T10:34:11Z</time>
      </trkpt>
      <trkpt lat="43.59631" lon="3.70707">
        <ele>143.8</ele>
        <time>2011-02-20T10:34:12Z</time>
      </trkpt>
      <trkpt lat="43.59626" lon="3.70702">
        <ele>143.4</ele>
        <time>2011-02-20T10:34:13Z</time>
      </trkpt>
      <trkpt lat="43.59622" lon="3.70697">
        <ele>143.1</ele>
        <time>2011-02-20T10:34:14Z</time>
      </trkpt>
      <trkpt lat="43.59617" lon="3.70692">
        <ele>142.8</ele>
        <time>2011-02-20T10:34:15Z</time>
      </trkpt>
      <trkpt lat="43.59613" lon="3.70688">
        <ele>142</ele>
        <time>2011-02-20T10:34:16Z</time>
      </trkpt>
      <trkpt lat="43.59609" lon="3.70683">
        <ele>141.4</ele>
        <time>2011-02-20T10:34:17Z</time>
      </trkpt>
      <trkpt lat="43.59605" lon="3.70678">
        <ele>141</ele>
        <time>2011-02-20T10:34:18Z</time>
      </trkpt>
      <trkpt lat="43.596" lon="3.70674">
        <ele>140.5</ele>
        <time>2011-02-20T10:34:19Z</time>
      </trkpt>
      <trkpt lat="43.59596" lon="3.70669">
        <ele>140.2</ele>
        <time>2011-02-20T10:34:20Z</time>
      </trkpt>
      <trkpt lat="43.59592" lon="3.70664">
        <ele>139.9</ele>
        <time>2011-02-20T10:34:21Z</time>
      </trkpt>
      <trkpt lat="43.59588" lon="3.70659">
        <ele>140</ele>
        <time>2011-02-20T10:34:22Z</time>
      </trkpt>
      <trkpt lat="43.59584" lon="3.70655">
        <ele>140</ele>
        <time>2011-02-20T10:34:23Z</time>
      </trkpt>
      <trkpt lat="43.5958" lon="3.7065">
        <ele>140</ele>
        <time>2011-02-20T10:34:24Z</time>
      </trkpt>
      <trkpt lat="43.59577" lon="3.70646">
        <ele>140</ele>
        <time>2011-02-20T10:34:25Z</time>
      </trkpt>
      <trkpt lat="43.59573" lon="3.70641">
        <ele>139.7</ele>
        <time>2011-02-20T10:34:26Z</time>
      </trkpt>
      <trkpt lat="43.59569" lon="3.70637">
        <ele>139.5</ele>
        <time>2011-02-20T10:34:27Z</time>
      </trkpt>
      <trkpt lat="43.59566" lon="3.70632">
        <ele>139.4</ele>
        <time>2011-02-20T10:34:28Z</time>
      </trkpt>
      <trkpt lat="43.59563" lon="3.70627">
        <ele>139.8</ele>
        <time>2011-02-20T10:34:29Z</time>
      </trkpt>
      <trkpt lat="43.59559" lon="3.70622">
        <ele>140.2</ele>
        <time>2011-02-20T10:34:30Z</time>
      </trkpt>
      <trkpt lat="43.59556" lon="3.70617">
        <ele>140.4</ele>
        <time>2011-02-20T10:34:31Z</time>
      </trkpt>
      <trkpt lat="43.59552" lon="3.70613">
        <ele>140.4</ele>
        <time>2011-02-20T10:34:32Z</time>
      </trkpt>
      <trkpt lat="43.59548" lon="3.70608">
        <ele>140.5</ele>
        <time>2011-02-20T10:34:33Z</time>
      </trkpt>
      <trkpt lat="43.59544" lon="3.70604">
        <ele>140.5</ele>
        <time>2011-02-20T10:34:34Z</time>
      </trkpt>
      <trkpt lat="43.5954" lon="3.706">
        <ele>140.2</ele>
        <time>2011-02-20T10:34:35Z</time>
      </trkpt>
      <trkpt lat="43.59536" lon="3.70595">
        <ele>140</ele>
        <time>2011-02-20T10:34:36Z</time>
      </trkpt>
      <trkpt lat="43.59532" lon="3.70591">
        <ele>139.8</ele>
        <time>2011-02-20T10:34:37Z</time>
      </trkpt>
      <trkpt lat="43.59527" lon="3.70587">
        <ele>139.7</ele>
        <time>2011-02-20T10:34:38Z</time>
      </trkpt>
      <trkpt lat="43.59522" lon="3.70584">
        <ele>139.6</ele>
        <time>2011-02-20T10:34:39Z</time>
      </trkpt>
      <trkpt lat="43.59516" lon="3.7058">
        <ele>139.5</ele>
        <time>2011-02-20T10:34:40Z</time>
      </trkpt>
      <trkpt lat="43.59511" lon="3.70576">
        <ele>138.5</ele>
        <time>2011-02-20T10:34:41Z</time>
      </trkpt>
      <trkpt lat="43.59505" lon="3.70573">
        <ele>137.8</ele>
        <time>2011-02-20T10:34:42Z</time>
      </trkpt>
      <trkpt lat="43.59499" lon="3.70571">
        <ele>137.2</ele>
        <time>2011-02-20T10:34:43Z</time>
      </trkpt>
      <trkpt lat="43.59492" lon="3.70568">
        <ele>136.8</ele>
        <time>2011-02-20T10:34:44Z</time>
      </trkpt>
      <trkpt lat="43.59485" lon="3.70567">
        <ele>136.5</ele>
        <time>2011-02-20T10:34:45Z</time>
      </trkpt>
      <trkpt lat="43.59478" lon="3.70566">
        <ele>136.2</ele>
        <time>2011-02-20T10:34:46Z</time>
      </trkpt>
      <trkpt lat="43.59472" lon="3.70565">
        <ele>136</ele>
        <time>2011-02-20T10:34:47Z</time>
      </trkpt>
      <trkpt lat="43.59467" lon="3.70563">
        <ele>135.4</ele>
        <time>2011-02-20T10:34:48Z</time>
      </trkpt>
      <trkpt lat="43.59462" lon="3.7056">
        <ele>135</ele>
        <time>2011-02-20T10:34:49Z</time>
      </trkpt>
      <trkpt lat="43.59453" lon="3.70557">
        <ele>134.3</ele>
        <time>2011-02-20T10:34:51Z</time>
      </trkpt>
      <trkpt lat="43.59449" lon="3.70557">
        <ele>134</ele>
        <time>2011-02-20T10:34:52Z</time>
      </trkpt>
      <trkpt lat="43.59444" lon="3.70558">
        <ele>133.9</ele>
        <time>2011-02-20T10:34:53Z</time>
      </trkpt>
      <trkpt lat="43.59439" lon="3.7056">
        <ele>132.9</ele>
        <time>2011-02-20T10:34:54Z</time>
      </trkpt>
      <trkpt lat="43.59435" lon="3.70564">
        <ele>132.2</ele>
        <time>2011-02-20T10:34:55Z</time>
      </trkpt>
      <trkpt lat="43.59431" lon="3.70568">
        <ele>131.7</ele>
        <time>2011-02-20T10:34:56Z</time>
      </trkpt>
      <trkpt lat="43.59427" lon="3.70573">
        <ele>131.3</ele>
        <time>2011-02-20T10:34:57Z</time>
      </trkpt>
      <trkpt lat="43.59423" lon="3.70578">
        <ele>130.9</ele>
        <time>2011-02-20T10:34:58Z</time>
      </trkpt>
      <trkpt lat="43.59419" lon="3.70584">
        <ele>130.7</ele>
        <time>2011-02-20T10:34:59Z</time>
      </trkpt>
      <trkpt lat="43.59416" lon="3.7059">
        <ele>130.5</ele>
        <time>2011-02-20T10:35:00Z</time>
      </trkpt>
      <trkpt lat="43.59414" lon="3.70598">
        <ele>130</ele>
        <time>2011-02-20T10:35:01Z</time>
      </trkpt>
      <trkpt lat="43.59412" lon="3.70607">
        <ele>129.6</ele>
        <time>2011-02-20T10:35:02Z</time>
      </trkpt>
      <trkpt lat="43.5941" lon="3.70616">
        <ele>129.4</ele>
        <time>2011-02-20T10:35:03Z</time>
      </trkpt>
      <trkpt lat="43.59408" lon="3.70625">
        <ele>128.8</ele>
        <time>2011-02-20T10:35:04Z</time>
      </trkpt>
      <trkpt lat="43.59406" lon="3.70633">
        <ele>128.4</ele>
        <time>2011-02-20T10:35:05Z</time>
      </trkpt>
      <trkpt lat="43.59404" lon="3.70642">
        <ele>128.1</ele>
        <time>2011-02-20T10:35:06Z</time>
      </trkpt>
      <trkpt lat="43.59401" lon="3.70651">
        <ele>127.8</ele>
        <time>2011-02-20T10:35:07Z</time>
      </trkpt>
      <trkpt lat="43.59397" lon="3.70659">
        <ele>127.5</ele>
        <time>2011-02-20T10:35:08Z</time>
      </trkpt>
      <trkpt lat="43.59393" lon="3.70666">
        <ele>127.4</ele>
        <time>2011-02-20T10:35:09Z</time>
      </trkpt>
      <trkpt lat="43.59387" lon="3.7067">
        <ele>127.1</ele>
        <time>2011-02-20T10:35:10Z</time>
      </trkpt>
      <trkpt lat="43.59381" lon="3.70671">
        <ele>126.8</ele>
        <time>2011-02-20T10:35:11Z</time>
      </trkpt>
      <trkpt lat="43.59374" lon="3.70669">
        <ele>126.7</ele>
        <time>2011-02-20T10:35:12Z</time>
      </trkpt>
      <trkpt lat="43.59369" lon="3.70666">
        <ele>126</ele>
        <time>2011-02-20T10:35:13Z</time>
      </trkpt>
      <trkpt lat="43.59364" lon="3.70663">
        <ele>125.5</ele>
        <time>2011-02-20T10:35:14Z</time>
      </trkpt>
      <trkpt lat="43.59359" lon="3.7066">
        <ele>125.2</ele>
        <time>2011-02-20T10:35:15Z</time>
      </trkpt>
      <trkpt lat="43.59354" lon="3.70657">
        <ele>124.9</ele>
        <time>2011-02-20T10:35:16Z</time>
      </trkpt>
      <trkpt lat="43.5935" lon="3.70654">
        <ele>124.7</ele>
        <time>2011-02-20T10:35:17Z</time>
      </trkpt>
      <trkpt lat="43.59346" lon="3.7065">
        <ele>124.5</ele>
        <time>2011-02-20T10:35:18Z</time>
      </trkpt>
      <trkpt lat="43.59342" lon="3.70647">
        <ele>124.4</ele>
        <time>2011-02-20T10:35:19Z</time>
      </trkpt>
      <trkpt lat="43.59337" lon="3.70644">
        <ele>124.5</ele>
        <time>2011-02-20T10:35:20Z</time>
      </trkpt>
      <trkpt lat="43.59333" lon="3.7064">
        <ele>124.5</ele>
        <time>2011-02-20T10:35:21Z</time>
      </trkpt>
      <trkpt lat="43.59329" lon="3.70637">
        <ele>124.5</ele>
        <time>2011-02-20T10:35:22Z</time>
      </trkpt>
      <trkpt lat="43.59325" lon="3.70634">
        <ele>124.6</ele>
        <time>2011-02-20T10:35:23Z</time>
      </trkpt>
      <trkpt lat="43.59321" lon="3.7063">
        <ele>124.6</ele>
        <time>2011-02-20T10:35:24Z</time>
      </trkpt>
      <trkpt lat="43.59317" lon="3.70627">
        <ele>124.6</ele>
        <time>2011-02-20T10:35:25Z</time>
      </trkpt>
      <trkpt lat="43.59313" lon="3.70623">
        <ele>124.8</ele>
        <time>2011-02-20T10:35:26Z</time>
      </trkpt>
      <trkpt lat="43.59309" lon="3.7062">
        <ele>124.9</ele>
        <time>2011-02-20T10:35:27Z</time>
      </trkpt>
      <trkpt lat="43.59305" lon="3.70616">
        <ele>125</ele>
        <time>2011-02-20T10:35:28Z</time>
      </trkpt>
      <trkpt lat="43.59301" lon="3.70612">
        <ele>125.1</ele>
        <time>2011-02-20T10:35:29Z</time>
      </trkpt>
      <trkpt lat="43.59297" lon="3.70609">
        <ele>125.1</ele>
        <time>2011-02-20T10:35:30Z</time>
      </trkpt>
      <trkpt lat="43.59293" lon="3.70605">
        <ele>125.2</ele>
        <time>2011-02-20T10:35:31Z</time>
      </trkpt>
      <trkpt lat="43.59289" lon="3.70602">
        <ele>125.2</ele>
        <time>2011-02-20T10:35:32Z</time>
      </trkpt>
      <trkpt lat="43.59286" lon="3.70598">
        <ele>125.8</ele>
        <time>2011-02-20T10:35:33Z</time>
      </trkpt>
      <trkpt lat="43.59281" lon="3.70595">
        <ele>126.3</ele>
        <time>2011-02-20T10:35:34Z</time>
      </trkpt>
      <trkpt lat="43.59274" lon="3.70589">
        <ele>126.3</ele>
        <time>2011-02-20T10:35:36Z</time>
      </trkpt>
      <trkpt lat="43.59267" lon="3.70584">
        <ele>125.8</ele>
        <time>2011-02-20T10:35:38Z</time>
      </trkpt>
      <trkpt lat="43.59259" lon="3.70578">
        <ele>126.1</ele>
        <time>2011-02-20T10:35:40Z</time>
      </trkpt>
      <trkpt lat="43.59251" lon="3.70572">
        <ele>126.5</ele>
        <time>2011-02-20T10:35:42Z</time>
      </trkpt>
      <trkpt lat="43.59243" lon="3.70567">
        <ele>126.8</ele>
        <time>2011-02-20T10:35:44Z</time>
      </trkpt>
      <trkpt lat="43.59235" lon="3.70561">
        <ele>126.8</ele>
        <time>2011-02-20T10:35:46Z</time>
      </trkpt>
      <trkpt lat="43.59231" lon="3.70558">
        <ele>126.8</ele>
        <time>2011-02-20T10:35:47Z</time>
      </trkpt>
      <trkpt lat="43.59227" lon="3.70556">
        <ele>126.9</ele>
        <time>2011-02-20T10:35:48Z</time>
      </trkpt>
      <trkpt lat="43.59223" lon="3.70553">
        <ele>126.6</ele>
        <time>2011-02-20T10:35:49Z</time>
      </trkpt>
      <trkpt lat="43.59219" lon="3.7055">
        <ele>126.4</ele>
        <time>2011-02-20T10:35:50Z</time>
      </trkpt>
      <trkpt lat="43.59214" lon="3.70548">
        <ele>126.3</ele>
        <time>2011-02-20T10:35:51Z</time>
      </trkpt>
      <trkpt lat="43.5921" lon="3.70545">
        <ele>126.2</ele>
        <time>2011-02-20T10:35:52Z</time>
      </trkpt>
      <trkpt lat="43.59206" lon="3.70542">
        <ele>126.1</ele>
        <time>2011-02-20T10:35:53Z</time>
      </trkpt>
      <trkpt lat="43.59201" lon="3.70539">
        <ele>126.1</ele>
        <time>2011-02-20T10:35:54Z</time>
      </trkpt>
      <trkpt lat="43.59197" lon="3.70536">
        <ele>126</ele>
        <time>2011-02-20T10:35:55Z</time>
      </trkpt>
      <trkpt lat="43.59192" lon="3.70534">
        <ele>126</ele>
        <time>2011-02-20T10:35:56Z</time>
      </trkpt>
      <trkpt lat="43.59188" lon="3.70531">
        <ele>125.9</ele>
        <time>2011-02-20T10:35:57Z</time>
      </trkpt>
      <trkpt lat="43.59183" lon="3.70529">
        <ele>126.1</ele>
        <time>2011-02-20T10:35:58Z</time>
      </trkpt>
      <trkpt lat="43.59178" lon="3.70527">
        <ele>126.3</ele>
        <time>2011-02-20T10:35:59Z</time>
      </trkpt>
      <trkpt lat="43.59173" lon="3.70526">
        <ele>126.4</ele>
        <time>2011-02-20T10:36:00Z</time>
      </trkpt>
      <trkpt lat="43.59167" lon="3.70526">
        <ele>126.2</ele>
        <time>2011-02-20T10:36:01Z</time>
      </trkpt>
      <trkpt lat="43.59162" lon="3.70526">
        <ele>126</ele>
        <time>2011-02-20T10:36:02Z</time>
      </trkpt>
      <trkpt lat="43.59157" lon="3.70527">
        <ele>125.9</ele>
        <time>2011-02-20T10:36:03Z</time>
      </trkpt>
      <trkpt lat="43.59151" lon="3.70529">
        <ele>125.9</ele>
        <time>2011-02-20T10:36:04Z</time>
      </trkpt>
      <trkpt lat="43.59146" lon="3.70531">
        <ele>125.4</ele>
        <time>2011-02-20T10:36:05Z</time>
      </trkpt>
      <trkpt lat="43.59141" lon="3.70534">
        <ele>125</ele>
        <time>2011-02-20T10:36:06Z</time>
      </trkpt>
      <trkpt lat="43.59136" lon="3.70537">
        <ele>124.7</ele>
        <time>2011-02-20T10:36:07Z</time>
      </trkpt>
      <trkpt lat="43.59131" lon="3.7054">
        <ele>124.8</ele>
        <time>2011-02-20T10:36:08Z</time>
      </trkpt>
      <trkpt lat="43.59126" lon="3.70543">
        <ele>124.9</ele>
        <time>2011-02-20T10:36:09Z</time>
      </trkpt>
      <trkpt lat="43.59122" lon="3.70547">
        <ele>125</ele>
        <time>2011-02-20T10:36:10Z</time>
      </trkpt>
      <trkpt lat="43.59117" lon="3.70551">
        <ele>125.3</ele>
        <time>2011-02-20T10:36:11Z</time>
      </trkpt>
      <trkpt lat="43.59113" lon="3.70554">
        <ele>125.6</ele>
        <time>2011-02-20T10:36:12Z</time>
      </trkpt>
      <trkpt lat="43.59109" lon="3.70559">
        <ele>125.7</ele>
        <time>2011-02-20T10:36:13Z</time>
      </trkpt>
      <trkpt lat="43.59105" lon="3.70563">
        <ele>125.7</ele>
        <time>2011-02-20T10:36:14Z</time>
      </trkpt>
      <trkpt lat="43.59101" lon="3.70569">
        <ele>125.7</ele>
        <time>2011-02-20T10:36:15Z</time>
      </trkpt>
      <trkpt lat="43.59098" lon="3.70574">
        <ele>125.7</ele>
        <time>2011-02-20T10:36:16Z</time>
      </trkpt>
      <trkpt lat="43.59095" lon="3.7058">
        <ele>125.8</ele>
        <time>2011-02-20T10:36:17Z</time>
      </trkpt>
      <trkpt lat="43.59092" lon="3.70586">
        <ele>125.8</ele>
        <time>2011-02-20T10:36:18Z</time>
      </trkpt>
      <trkpt lat="43.5909" lon="3.70592">
        <ele>125.8</ele>
        <time>2011-02-20T10:36:19Z</time>
      </trkpt>
      <trkpt lat="43.59088" lon="3.70599">
        <ele>125.9</ele>
        <time>2011-02-20T10:36:20Z</time>
      </trkpt>
      <trkpt lat="43.59086" lon="3.70605">
        <ele>126</ele>
        <time>2011-02-20T10:36:21Z</time>
      </trkpt>
      <trkpt lat="43.59085" lon="3.70612">
        <ele>126.2</ele>
        <time>2011-02-20T10:36:22Z</time>
      </trkpt>
      <trkpt lat="43.59084" lon="3.70618">
        <ele>126.3</ele>
        <time>2011-02-20T10:36:23Z</time>
      </trkpt>
      <trkpt lat="43.59084" lon="3.70625">
        <ele>126.1</ele>
        <time>2011-02-20T10:36:24Z</time>
      </trkpt>
      <trkpt lat="43.59084" lon="3.70632">
        <ele>125.9</ele>
        <time>2011-02-20T10:36:25Z</time>
      </trkpt>
      <trkpt lat="43.59085" lon="3.7064">
        <ele>125.8</ele>
        <time>2011-02-20T10:36:26Z</time>
      </trkpt>
      <trkpt lat="43.59086" lon="3.70647">
        <ele>125.6</ele>
        <time>2011-02-20T10:36:27Z</time>
      </trkpt>
      <trkpt lat="43.59087" lon="3.70654">
        <ele>125.5</ele>
        <time>2011-02-20T10:36:28Z</time>
      </trkpt>
      <trkpt lat="43.59088" lon="3.70662">
        <ele>125.4</ele>
        <time>2011-02-20T10:36:29Z</time>
      </trkpt>
      <trkpt lat="43.5909" lon="3.7067">
        <ele>125.1</ele>
        <time>2011-02-20T10:36:30Z</time>
      </trkpt>
      <trkpt lat="43.59092" lon="3.70678">
        <ele>125</ele>
        <time>2011-02-20T10:36:31Z</time>
      </trkpt>
      <trkpt lat="43.59093" lon="3.70687">
        <ele>124.9</ele>
        <time>2011-02-20T10:36:32Z</time>
      </trkpt>
      <trkpt lat="43.59093" lon="3.70697">
        <ele>124.2</ele>
        <time>2011-02-20T10:36:33Z</time>
      </trkpt>
      <trkpt lat="43.59094" lon="3.70707">
        <ele>123.6</ele>
        <time>2011-02-20T10:36:34Z</time>
      </trkpt>
      <trkpt lat="43.59094" lon="3.70717">
        <ele>123.2</ele>
        <time>2011-02-20T10:36:35Z</time>
      </trkpt>
      <trkpt lat="43.59095" lon="3.70728">
        <ele>122.2</ele>
        <time>2011-02-20T10:36:36Z</time>
      </trkpt>
      <trkpt lat="43.59096" lon="3.70739">
        <ele>121.5</ele>
        <time>2011-02-20T10:36:37Z</time>
      </trkpt>
      <trkpt lat="43.59098" lon="3.70749">
        <ele>120.9</ele>
        <time>2011-02-20T10:36:38Z</time>
      </trkpt>
      <trkpt lat="43.59101" lon="3.7076">
        <ele>120.5</ele>
        <time>2011-02-20T10:36:39Z</time>
      </trkpt>
      <trkpt lat="43.59105" lon="3.7077">
        <ele>119</ele>
        <time>2011-02-20T10:36:40Z</time>
      </trkpt>
      <trkpt lat="43.59109" lon="3.7078">
        <ele>117.9</ele>
        <time>2011-02-20T10:36:41Z</time>
      </trkpt>
      <trkpt lat="43.59113" lon="3.7079">
        <ele>117.1</ele>
        <time>2011-02-20T10:36:42Z</time>
      </trkpt>
      <trkpt lat="43.59118" lon="3.70801">
        <ele>116.1</ele>
        <time>2011-02-20T10:36:43Z</time>
      </trkpt>
      <trkpt lat="43.59123" lon="3.70811">
        <ele>115.5</ele>
        <time>2011-02-20T10:36:44Z</time>
      </trkpt>
      <trkpt lat="43.59128" lon="3.70821">
        <ele>114.9</ele>
        <time>2011-02-20T10:36:45Z</time>
      </trkpt>
      <trkpt lat="43.59134" lon="3.70829">
        <ele>113.7</ele>
        <time>2011-02-20T10:36:46Z</time>
      </trkpt>
      <trkpt lat="43.5914" lon="3.70836">
        <ele>112.8</ele>
        <time>2011-02-20T10:36:47Z</time>
      </trkpt>
      <trkpt lat="43.59147" lon="3.7084">
        <ele>112.1</ele>
        <time>2011-02-20T10:36:48Z</time>
      </trkpt>
      <trkpt lat="43.59154" lon="3.70842">
        <ele>111.2</ele>
        <time>2011-02-20T10:36:49Z</time>
      </trkpt>
      <trkpt lat="43.59162" lon="3.70843">
        <ele>110.5</ele>
        <time>2011-02-20T10:36:50Z</time>
      </trkpt>
      <trkpt lat="43.5917" lon="3.70842">
        <ele>110</ele>
        <time>2011-02-20T10:36:51Z</time>
      </trkpt>
      <trkpt lat="43.59178" lon="3.70841">
        <ele>109.2</ele>
        <time>2011-02-20T10:36:52Z</time>
      </trkpt>
      <trkpt lat="43.59186" lon="3.7084">
        <ele>108.6</ele>
        <time>2011-02-20T10:36:53Z</time>
      </trkpt>
      <trkpt lat="43.59195" lon="3.70838">
        <ele>108.1</ele>
        <time>2011-02-20T10:36:54Z</time>
      </trkpt>
      <trkpt lat="43.59204" lon="3.70836">
        <ele>107.8</ele>
        <time>2011-02-20T10:36:55Z</time>
      </trkpt>
      <trkpt lat="43.59211" lon="3.70834">
        <ele>106.9</ele>
        <time>2011-02-20T10:36:56Z</time>
      </trkpt>
      <trkpt lat="43.59218" lon="3.70833">
        <ele>106.3</ele>
        <time>2011-02-20T10:36:57Z</time>
      </trkpt>
      <trkpt lat="43.59223" lon="3.70836">
        <ele>105.8</ele>
        <time>2011-02-20T10:36:58Z</time>
      </trkpt>
      <trkpt lat="43.59225" lon="3.70842">
        <ele>105</ele>
        <time>2011-02-20T10:36:59Z</time>
      </trkpt>
      <trkpt lat="43.59226" lon="3.7085">
        <ele>104.4</ele>
        <time>2011-02-20T10:37:00Z</time>
      </trkpt>
      <trkpt lat="43.59224" lon="3.70857">
        <ele>104</ele>
        <time>2011-02-20T10:37:01Z</time>
      </trkpt>
      <trkpt lat="43.5922" lon="3.70863">
        <ele>103</ele>
        <time>2011-02-20T10:37:02Z</time>
      </trkpt>
      <trkpt lat="43.59216" lon="3.70868">
        <ele>102.2</ele>
        <time>2011-02-20T10:37:03Z</time>
      </trkpt>
      <trkpt lat="43.59213" lon="3.70874">
        <ele>101.6</ele>
        <time>2011-02-20T10:37:04Z</time>
      </trkpt>
      <trkpt lat="43.59209" lon="3.70878">
        <ele>101.8</ele>
        <time>2011-02-20T10:37:05Z</time>
      </trkpt>
      <trkpt lat="43.59206" lon="3.70882">
        <ele>102</ele>
        <time>2011-02-20T10:37:06Z</time>
      </trkpt>
      <trkpt lat="43.59202" lon="3.70887">
        <ele>102.1</ele>
        <time>2011-02-20T10:37:07Z</time>
      </trkpt>
      <trkpt lat="43.59199" lon="3.70891">
        <ele>102.2</ele>
        <time>2011-02-20T10:37:08Z</time>
      </trkpt>
      <trkpt lat="43.59195" lon="3.70896">
        <ele>102.3</ele>
        <time>2011-02-20T10:37:09Z</time>
      </trkpt>
      <trkpt lat="43.59192" lon="3.70901">
        <ele>102.4</ele>
        <time>2011-02-20T10:37:10Z</time>
      </trkpt>
      <trkpt lat="43.59189" lon="3.70906">
        <ele>102.5</ele>
        <time>2011-02-20T10:37:11Z</time>
      </trkpt>
      <trkpt lat="43.59183" lon="3.70914">
        <ele>102.9</ele>
        <time>2011-02-20T10:37:13Z</time>
      </trkpt>
      <trkpt lat="43.5918" lon="3.70919">
        <ele>103</ele>
        <time>2011-02-20T10:37:14Z</time>
      </trkpt>
      <trkpt lat="43.5917" lon="3.7093">
        <ele>103.3</ele>
        <time>2011-02-20T10:37:17Z</time>
      </trkpt>
      <trkpt lat="43.59164" lon="3.70936">
        <ele>103.9</ele>
        <time>2011-02-20T10:37:19Z</time>
      </trkpt>
      <trkpt lat="43.59158" lon="3.70942">
        <ele>104.6</ele>
        <time>2011-02-20T10:37:21Z</time>
      </trkpt>
      <trkpt lat="43.59151" lon="3.70947">
        <ele>105.2</ele>
        <time>2011-02-20T10:37:23Z</time>
      </trkpt>
      <trkpt lat="43.59145" lon="3.70951">
        <ele>106.1</ele>
        <time>2011-02-20T10:37:25Z</time>
      </trkpt>
      <trkpt lat="43.59139" lon="3.70955">
        <ele>106.9</ele>
        <time>2011-02-20T10:37:27Z</time>
      </trkpt>
      <trkpt lat="43.59132" lon="3.70958">
        <ele>107.6</ele>
        <time>2011-02-20T10:37:29Z</time>
      </trkpt>
      <trkpt lat="43.59126" lon="3.70962">
        <ele>107.9</ele>
        <time>2011-02-20T10:37:31Z</time>
      </trkpt>
      <trkpt lat="43.5912" lon="3.70968">
        <ele>108</ele>
        <time>2011-02-20T10:37:33Z</time>
      </trkpt>
      <trkpt lat="43.59115" lon="3.70974">
        <ele>108.6</ele>
        <time>2011-02-20T10:37:35Z</time>
      </trkpt>
      <trkpt lat="43.59111" lon="3.70981">
        <ele>108.8</ele>
        <time>2011-02-20T10:37:37Z</time>
      </trkpt>
      <trkpt lat="43.59107" lon="3.70988">
        <ele>108.9</ele>
        <time>2011-02-20T10:37:39Z</time>
      </trkpt>
      <trkpt lat="43.59104" lon="3.70997">
        <ele>109.8</ele>
        <time>2011-02-20T10:37:41Z</time>
      </trkpt>
      <trkpt lat="43.591" lon="3.71004">
        <ele>110.6</ele>
        <time>2011-02-20T10:37:43Z</time>
      </trkpt>
      <trkpt lat="43.59094" lon="3.71008">
        <ele>111.2</ele>
        <time>2011-02-20T10:37:45Z</time>
      </trkpt>
      <trkpt lat="43.59087" lon="3.71009">
        <ele>111.7</ele>
        <time>2011-02-20T10:37:47Z</time>
      </trkpt>
      <trkpt lat="43.59079" lon="3.71007">
        <ele>112.5</ele>
        <time>2011-02-20T10:37:50Z</time>
      </trkpt>
      <trkpt lat="43.59073" lon="3.71003">
        <ele>113.5</ele>
        <time>2011-02-20T10:37:53Z</time>
      </trkpt>
      <trkpt lat="43.59064" lon="3.71">
        <ele>114.1</ele>
        <time>2011-02-20T10:37:57Z</time>
      </trkpt>
      <trkpt lat="43.59056" lon="3.70998">
        <ele>115</ele>
        <time>2011-02-20T10:38:00Z</time>
      </trkpt>
      <trkpt lat="43.59049" lon="3.70996">
        <ele>115.1</ele>
        <time>2011-02-20T10:38:03Z</time>
      </trkpt>
      <trkpt lat="43.59042" lon="3.70995">
        <ele>114.7</ele>
        <time>2011-02-20T10:38:06Z</time>
      </trkpt>
      <trkpt lat="43.59033" lon="3.70994">
        <ele>115.2</ele>
        <time>2011-02-20T10:38:09Z</time>
      </trkpt>
      <trkpt lat="43.59025" lon="3.70993">
        <ele>115.6</ele>
        <time>2011-02-20T10:38:12Z</time>
      </trkpt>
      <trkpt lat="43.59019" lon="3.70993">
        <ele>115.9</ele>
        <time>2011-02-20T10:38:14Z</time>
      </trkpt>
      <trkpt lat="43.59016" lon="3.70993">
        <ele>116.1</ele>
        <time>2011-02-20T10:38:15Z</time>
      </trkpt>
      <trkpt lat="43.59007" lon="3.7099">
        <ele>116.5</ele>
        <time>2011-02-20T10:38:18Z</time>
      </trkpt>
      <trkpt lat="43.59001" lon="3.70987">
        <ele>117.1</ele>
        <time>2011-02-20T10:38:20Z</time>
      </trkpt>
      <trkpt lat="43.58996" lon="3.70981">
        <ele>117.6</ele>
        <time>2011-02-20T10:38:22Z</time>
      </trkpt>
      <trkpt lat="43.58991" lon="3.70974">
        <ele>117.9</ele>
        <time>2011-02-20T10:38:24Z</time>
      </trkpt>
      <trkpt lat="43.58988" lon="3.70963">
        <ele>117.5</ele>
        <time>2011-02-20T10:38:27Z</time>
      </trkpt>
      <trkpt lat="43.58986" lon="3.70951">
        <ele>117.8</ele>
        <time>2011-02-20T10:38:30Z</time>
      </trkpt>
      <trkpt lat="43.58984" lon="3.70943">
        <ele>118.9</ele>
        <time>2011-02-20T10:38:32Z</time>
      </trkpt>
      <trkpt lat="43.5898" lon="3.70932">
        <ele>119.2</ele>
        <time>2011-02-20T10:38:35Z</time>
      </trkpt>
      <trkpt lat="43.58976" lon="3.70921">
        <ele>118.9</ele>
        <time>2011-02-20T10:38:38Z</time>
      </trkpt>
      <trkpt lat="43.58973" lon="3.70912">
        <ele>119</ele>
        <time>2011-02-20T10:38:40Z</time>
      </trkpt>
      <trkpt lat="43.5897" lon="3.70902">
        <ele>118.6</ele>
        <time>2011-02-20T10:38:42Z</time>
      </trkpt>
      <trkpt lat="43.58967" lon="3.70893">
        <ele>118.8</ele>
        <time>2011-02-20T10:38:44Z</time>
      </trkpt>
      <trkpt lat="43.58964" lon="3.70884">
        <ele>119.2</ele>
        <time>2011-02-20T10:38:46Z</time>
      </trkpt>
      <trkpt lat="43.58961" lon="3.70875">
        <ele>119.6</ele>
        <time>2011-02-20T10:38:48Z</time>
      </trkpt>
      <trkpt lat="43.58957" lon="3.70865">
        <ele>119.6</ele>
        <time>2011-02-20T10:38:51Z</time>
      </trkpt>
      <trkpt lat="43.58953" lon="3.70858">
        <ele>119.5</ele>
        <time>2011-02-20T10:38:53Z</time>
      </trkpt>
      <trkpt lat="43.5895" lon="3.70851">
        <ele>120.6</ele>
        <time>2011-02-20T10:38:55Z</time>
      </trkpt>
      <trkpt lat="43.58947" lon="3.70843">
        <ele>121.1</ele>
        <time>2011-02-20T10:38:57Z</time>
      </trkpt>
      <trkpt lat="43.58945" lon="3.70834">
        <ele>121.4</ele>
        <time>2011-02-20T10:38:59Z</time>
      </trkpt>
      <trkpt lat="43.58942" lon="3.70826">
        <ele>121.5</ele>
        <time>2011-02-20T10:39:01Z</time>
      </trkpt>
      <trkpt lat="43.5894" lon="3.70817">
        <ele>122.2</ele>
        <time>2011-02-20T10:39:03Z</time>
      </trkpt>
      <trkpt lat="43.58938" lon="3.70808">
        <ele>123</ele>
        <time>2011-02-20T10:39:05Z</time>
      </trkpt>
      <trkpt lat="43.58937" lon="3.70799">
        <ele>123.4</ele>
        <time>2011-02-20T10:39:07Z</time>
      </trkpt>
      <trkpt lat="43.58936" lon="3.70791">
        <ele>123.6</ele>
        <time>2011-02-20T10:39:09Z</time>
      </trkpt>
      <trkpt lat="43.58935" lon="3.70778">
        <ele>123.7</ele>
        <time>2011-02-20T10:39:12Z</time>
      </trkpt>
      <trkpt lat="43.58933" lon="3.70766">
        <ele>124.2</ele>
        <time>2011-02-20T10:39:15Z</time>
      </trkpt>
      <trkpt lat="43.58932" lon="3.70763">
        <ele>124.4</ele>
        <time>2011-02-20T10:39:16Z</time>
      </trkpt>
      <trkpt lat="43.58929" lon="3.70751">
        <ele>125.1</ele>
        <time>2011-02-20T10:39:19Z</time>
      </trkpt>
      <trkpt lat="43.58925" lon="3.70743">
        <ele>125.8</ele>
        <time>2011-02-20T10:39:21Z</time>
      </trkpt>
      <trkpt lat="43.58921" lon="3.70736">
        <ele>125.9</ele>
        <time>2011-02-20T10:39:23Z</time>
      </trkpt>
      <trkpt lat="43.58915" lon="3.7073">
        <ele>126</ele>
        <time>2011-02-20T10:39:25Z</time>
      </trkpt>
      <trkpt lat="43.5891" lon="3.70723">
        <ele>126.1</ele>
        <time>2011-02-20T10:39:27Z</time>
      </trkpt>
      <trkpt lat="43.58904" lon="3.70716">
        <ele>126</ele>
        <time>2011-02-20T10:39:29Z</time>
      </trkpt>
      <trkpt lat="43.58898" lon="3.70708">
        <ele>125.9</ele>
        <time>2011-02-20T10:39:31Z</time>
      </trkpt>
      <trkpt lat="43.58893" lon="3.70701">
        <ele>125.5</ele>
        <time>2011-02-20T10:39:33Z</time>
      </trkpt>
      <trkpt lat="43.58888" lon="3.70694">
        <ele>125.5</ele>
        <time>2011-02-20T10:39:35Z</time>
      </trkpt>
      <trkpt lat="43.58883" lon="3.70687">
        <ele>125.7</ele>
        <time>2011-02-20T10:39:37Z</time>
      </trkpt>
      <trkpt lat="43.58877" lon="3.70681">
        <ele>125.8</ele>
        <time>2011-02-20T10:39:39Z</time>
      </trkpt>
      <trkpt lat="43.58871" lon="3.70675">
        <ele>125.9</ele>
        <time>2011-02-20T10:39:41Z</time>
      </trkpt>
      <trkpt lat="43.58864" lon="3.70671">
        <ele>126.3</ele>
        <time>2011-02-20T10:39:43Z</time>
      </trkpt>
      <trkpt lat="43.58857" lon="3.70667">
        <ele>126.6</ele>
        <time>2011-02-20T10:39:45Z</time>
      </trkpt>
      <trkpt lat="43.5885" lon="3.70664">
        <ele>126.9</ele>
        <time>2011-02-20T10:39:47Z</time>
      </trkpt>
      <trkpt lat="43.58842" lon="3.7066">
        <ele>126.8</ele>
        <time>2011-02-20T10:39:49Z</time>
      </trkpt>
      <trkpt lat="43.58834" lon="3.70655">
        <ele>126.8</ele>
        <time>2011-02-20T10:39:51Z</time>
      </trkpt>
      <trkpt lat="43.5883" lon="3.70652">
        <ele>126.9</ele>
        <time>2011-02-20T10:39:52Z</time>
      </trkpt>
      <trkpt lat="43.58826" lon="3.70649">
        <ele>126.9</ele>
        <time>2011-02-20T10:39:53Z</time>
      </trkpt>
      <trkpt lat="43.58822" lon="3.70647">
        <ele>127.1</ele>
        <time>2011-02-20T10:39:54Z</time>
      </trkpt>
      <trkpt lat="43.58818" lon="3.70643">
        <ele>127.3</ele>
        <time>2011-02-20T10:39:55Z</time>
      </trkpt>
      <trkpt lat="43.5881" lon="3.70637">
        <ele>127.5</ele>
        <time>2011-02-20T10:39:57Z</time>
      </trkpt>
      <trkpt lat="43.58804" lon="3.7063">
        <ele>128.1</ele>
        <time>2011-02-20T10:39:59Z</time>
      </trkpt>
      <trkpt lat="43.58797" lon="3.70623">
        <ele>128.7</ele>
        <time>2011-02-20T10:40:01Z</time>
      </trkpt>
      <trkpt lat="43.5879" lon="3.70616">
        <ele>129.4</ele>
        <time>2011-02-20T10:40:03Z</time>
      </trkpt>
      <trkpt lat="43.58783" lon="3.70608">
        <ele>129.9</ele>
        <time>2011-02-20T10:40:05Z</time>
      </trkpt>
      <trkpt lat="43.58776" lon="3.70601">
        <ele>130.1</ele>
        <time>2011-02-20T10:40:07Z</time>
      </trkpt>
      <trkpt lat="43.58773" lon="3.70597">
        <ele>130.1</ele>
        <time>2011-02-20T10:40:08Z</time>
      </trkpt>
      <trkpt lat="43.5877" lon="3.70593">
        <ele>130.1</ele>
        <time>2011-02-20T10:40:09Z</time>
      </trkpt>
      <trkpt lat="43.58766" lon="3.70589">
        <ele>130</ele>
        <time>2011-02-20T10:40:10Z</time>
      </trkpt>
      <trkpt lat="43.58762" lon="3.70585">
        <ele>130</ele>
        <time>2011-02-20T10:40:11Z</time>
      </trkpt>
      <trkpt lat="43.58758" lon="3.7058">
        <ele>130</ele>
        <time>2011-02-20T10:40:12Z</time>
      </trkpt>
      <trkpt lat="43.58754" lon="3.70577">
        <ele>129.9</ele>
        <time>2011-02-20T10:40:13Z</time>
      </trkpt>
      <trkpt lat="43.5875" lon="3.70573">
        <ele>129.9</ele>
        <time>2011-02-20T10:40:14Z</time>
      </trkpt>
      <trkpt lat="43.58746" lon="3.70569">
        <ele>129.8</ele>
        <time>2011-02-20T10:40:15Z</time>
      </trkpt>
      <trkpt lat="43.58741" lon="3.70566">
        <ele>129.8</ele>
        <time>2011-02-20T10:40:16Z</time>
      </trkpt>
      <trkpt lat="43.58736" lon="3.70562">
        <ele>129.5</ele>
        <time>2011-02-20T10:40:17Z</time>
      </trkpt>
      <trkpt lat="43.58731" lon="3.70559">
        <ele>129.4</ele>
        <time>2011-02-20T10:40:18Z</time>
      </trkpt>
      <trkpt lat="43.58726" lon="3.70556">
        <ele>129.3</ele>
        <time>2011-02-20T10:40:19Z</time>
      </trkpt>
      <trkpt lat="43.58721" lon="3.70552">
        <ele>128.9</ele>
        <time>2011-02-20T10:40:20Z</time>
      </trkpt>
      <trkpt lat="43.58716" lon="3.70549">
        <ele>128.7</ele>
        <time>2011-02-20T10:40:21Z</time>
      </trkpt>
      <trkpt lat="43.58711" lon="3.70545">
        <ele>128.5</ele>
        <time>2011-02-20T10:40:22Z</time>
      </trkpt>
      <trkpt lat="43.58705" lon="3.70541">
        <ele>128</ele>
        <time>2011-02-20T10:40:23Z</time>
      </trkpt>
      <trkpt lat="43.587" lon="3.70537">
        <ele>127.6</ele>
        <time>2011-02-20T10:40:24Z</time>
      </trkpt>
      <trkpt lat="43.58695" lon="3.70533">
        <ele>127.3</ele>
        <time>2011-02-20T10:40:25Z</time>
      </trkpt>
      <trkpt lat="43.58689" lon="3.70528">
        <ele>127.2</ele>
        <time>2011-02-20T10:40:26Z</time>
      </trkpt>
      <trkpt lat="43.58684" lon="3.70524">
        <ele>127.1</ele>
        <time>2011-02-20T10:40:27Z</time>
      </trkpt>
      <trkpt lat="43.58679" lon="3.7052">
        <ele>127</ele>
        <time>2011-02-20T10:40:28Z</time>
      </trkpt>
      <trkpt lat="43.58673" lon="3.70515">
        <ele>126.8</ele>
        <time>2011-02-20T10:40:29Z</time>
      </trkpt>
      <trkpt lat="43.58668" lon="3.70511">
        <ele>126.7</ele>
        <time>2011-02-20T10:40:30Z</time>
      </trkpt>
      <trkpt lat="43.58663" lon="3.70506">
        <ele>126.5</ele>
        <time>2011-02-20T10:40:31Z</time>
      </trkpt>
      <trkpt lat="43.58658" lon="3.70502">
        <ele>126.4</ele>
        <time>2011-02-20T10:40:32Z</time>
      </trkpt>
      <trkpt lat="43.58653" lon="3.70499">
        <ele>126.3</ele>
        <time>2011-02-20T10:40:33Z</time>
      </trkpt>
      <trkpt lat="43.58647" lon="3.70498">
        <ele>126.3</ele>
        <time>2011-02-20T10:40:34Z</time>
      </trkpt>
      <trkpt lat="43.58641" lon="3.70499">
        <ele>126.2</ele>
        <time>2011-02-20T10:40:35Z</time>
      </trkpt>
      <trkpt lat="43.58637" lon="3.70504">
        <ele>126.2</ele>
        <time>2011-02-20T10:40:36Z</time>
      </trkpt>
      <trkpt lat="43.58634" lon="3.7051">
        <ele>126.3</ele>
        <time>2011-02-20T10:40:37Z</time>
      </trkpt>
      <trkpt lat="43.58632" lon="3.70517">
        <ele>126.3</ele>
        <time>2011-02-20T10:40:38Z</time>
      </trkpt>
      <trkpt lat="43.58632" lon="3.70525">
        <ele>126.6</ele>
        <time>2011-02-20T10:40:39Z</time>
      </trkpt>
      <trkpt lat="43.58631" lon="3.70533">
        <ele>126.9</ele>
        <time>2011-02-20T10:40:40Z</time>
      </trkpt>
      <trkpt lat="43.5863" lon="3.70542">
        <ele>127.1</ele>
        <time>2011-02-20T10:40:41Z</time>
      </trkpt>
      <trkpt lat="43.58629" lon="3.7055">
        <ele>127.3</ele>
        <time>2011-02-20T10:40:42Z</time>
      </trkpt>
      <trkpt lat="43.58627" lon="3.70558">
        <ele>127.4</ele>
        <time>2011-02-20T10:40:43Z</time>
      </trkpt>
      <trkpt lat="43.58625" lon="3.70567">
        <ele>127.5</ele>
        <time>2011-02-20T10:40:44Z</time>
      </trkpt>
      <trkpt lat="43.58623" lon="3.70575">
        <ele>127.1</ele>
        <time>2011-02-20T10:40:45Z</time>
      </trkpt>
      <trkpt lat="43.5862" lon="3.70583">
        <ele>126.8</ele>
        <time>2011-02-20T10:40:46Z</time>
      </trkpt>
      <trkpt lat="43.58618" lon="3.70592">
        <ele>126.6</ele>
        <time>2011-02-20T10:40:47Z</time>
      </trkpt>
      <trkpt lat="43.58616" lon="3.706">
        <ele>126.5</ele>
        <time>2011-02-20T10:40:48Z</time>
      </trkpt>
      <trkpt lat="43.58614" lon="3.70608">
        <ele>127.2</ele>
        <time>2011-02-20T10:40:49Z</time>
      </trkpt>
      <trkpt lat="43.58612" lon="3.70617">
        <ele>127.7</ele>
        <time>2011-02-20T10:40:50Z</time>
      </trkpt>
      <trkpt lat="43.58611" lon="3.70625">
        <ele>128.1</ele>
        <time>2011-02-20T10:40:51Z</time>
      </trkpt>
      <trkpt lat="43.5861" lon="3.70634">
        <ele>128.2</ele>
        <time>2011-02-20T10:40:52Z</time>
      </trkpt>
      <trkpt lat="43.5861" lon="3.70643">
        <ele>128.3</ele>
        <time>2011-02-20T10:40:53Z</time>
      </trkpt>
      <trkpt lat="43.5861" lon="3.70652">
        <ele>128.3</ele>
        <time>2011-02-20T10:40:54Z</time>
      </trkpt>
      <trkpt lat="43.58611" lon="3.70661">
        <ele>128.4</ele>
        <time>2011-02-20T10:40:55Z</time>
      </trkpt>
      <trkpt lat="43.58611" lon="3.70669">
        <ele>128.4</ele>
        <time>2011-02-20T10:40:56Z</time>
      </trkpt>
      <trkpt lat="43.58612" lon="3.70678">
        <ele>128.4</ele>
        <time>2011-02-20T10:40:57Z</time>
      </trkpt>
      <trkpt lat="43.58612" lon="3.70687">
        <ele>128.5</ele>
        <time>2011-02-20T10:40:58Z</time>
      </trkpt>
      <trkpt lat="43.58612" lon="3.70696">
        <ele>128.5</ele>
        <time>2011-02-20T10:40:59Z</time>
      </trkpt>
      <trkpt lat="43.58611" lon="3.70705">
        <ele>128.5</ele>
        <time>2011-02-20T10:41:00Z</time>
      </trkpt>
      <trkpt lat="43.58611" lon="3.70714">
        <ele>128.2</ele>
        <time>2011-02-20T10:41:01Z</time>
      </trkpt>
      <trkpt lat="43.5861" lon="3.70723">
        <ele>128.1</ele>
        <time>2011-02-20T10:41:02Z</time>
      </trkpt>
      <trkpt lat="43.58609" lon="3.70732">
        <ele>128</ele>
        <time>2011-02-20T10:41:03Z</time>
      </trkpt>
      <trkpt lat="43.58609" lon="3.70741">
        <ele>127.9</ele>
        <time>2011-02-20T10:41:04Z</time>
      </trkpt>
      <trkpt lat="43.58608" lon="3.7075">
        <ele>128.1</ele>
        <time>2011-02-20T10:41:05Z</time>
      </trkpt>
      <trkpt lat="43.58607" lon="3.70758">
        <ele>128.2</ele>
        <time>2011-02-20T10:41:06Z</time>
      </trkpt>
      <trkpt lat="43.58606" lon="3.70767">
        <ele>128.3</ele>
        <time>2011-02-20T10:41:07Z</time>
      </trkpt>
      <trkpt lat="43.58605" lon="3.70777">
        <ele>128.2</ele>
        <time>2011-02-20T10:41:08Z</time>
      </trkpt>
      <trkpt lat="43.58604" lon="3.70786">
        <ele>128.2</ele>
        <time>2011-02-20T10:41:09Z</time>
      </trkpt>
      <trkpt lat="43.58603" lon="3.70796">
        <ele>128.1</ele>
        <time>2011-02-20T10:41:10Z</time>
      </trkpt>
      <trkpt lat="43.58602" lon="3.70806">
        <ele>127.8</ele>
        <time>2011-02-20T10:41:11Z</time>
      </trkpt>
      <trkpt lat="43.58602" lon="3.70816">
        <ele>127.5</ele>
        <time>2011-02-20T10:41:12Z</time>
      </trkpt>
      <trkpt lat="43.58601" lon="3.70826">
        <ele>127.3</ele>
        <time>2011-02-20T10:41:13Z</time>
      </trkpt>
      <trkpt lat="43.58601" lon="3.70837">
        <ele>127.1</ele>
        <time>2011-02-20T10:41:14Z</time>
      </trkpt>
      <trkpt lat="43.58601" lon="3.70848">
        <ele>126.9</ele>
        <time>2011-02-20T10:41:15Z</time>
      </trkpt>
      <trkpt lat="43.58601" lon="3.70858">
        <ele>126.8</ele>
        <time>2011-02-20T10:41:16Z</time>
      </trkpt>
      <trkpt lat="43.58602" lon="3.70869">
        <ele>126.1</ele>
        <time>2011-02-20T10:41:17Z</time>
      </trkpt>
      <trkpt lat="43.58602" lon="3.7088">
        <ele>125.6</ele>
        <time>2011-02-20T10:41:18Z</time>
      </trkpt>
      <trkpt lat="43.58602" lon="3.70891">
        <ele>125.3</ele>
        <time>2011-02-20T10:41:19Z</time>
      </trkpt>
      <trkpt lat="43.58602" lon="3.70903">
        <ele>125</ele>
        <time>2011-02-20T10:41:20Z</time>
      </trkpt>
      <trkpt lat="43.58602" lon="3.70914">
        <ele>123.9</ele>
        <time>2011-02-20T10:41:21Z</time>
      </trkpt>
      <trkpt lat="43.58601" lon="3.70926">
        <ele>123.1</ele>
        <time>2011-02-20T10:41:22Z</time>
      </trkpt>
      <trkpt lat="43.586" lon="3.70938">
        <ele>122.4</ele>
        <time>2011-02-20T10:41:23Z</time>
      </trkpt>
      <trkpt lat="43.586" lon="3.7095">
        <ele>122.1</ele>
        <time>2011-02-20T10:41:24Z</time>
      </trkpt>
      <trkpt lat="43.586" lon="3.70962">
        <ele>121.8</ele>
        <time>2011-02-20T10:41:25Z</time>
      </trkpt>
      <trkpt lat="43.586" lon="3.70974">
        <ele>121.6</ele>
        <time>2011-02-20T10:41:26Z</time>
      </trkpt>
      <trkpt lat="43.58601" lon="3.70986">
        <ele>120.9</ele>
        <time>2011-02-20T10:41:27Z</time>
      </trkpt>
      <trkpt lat="43.58602" lon="3.70998">
        <ele>120.4</ele>
        <time>2011-02-20T10:41:28Z</time>
      </trkpt>
      <trkpt lat="43.58603" lon="3.7101">
        <ele>120</ele>
        <time>2011-02-20T10:41:29Z</time>
      </trkpt>
      <trkpt lat="43.58603" lon="3.71022">
        <ele>119</ele>
        <time>2011-02-20T10:41:30Z</time>
      </trkpt>
      <trkpt lat="43.58603" lon="3.71034">
        <ele>118.2</ele>
        <time>2011-02-20T10:41:31Z</time>
      </trkpt>
      <trkpt lat="43.58602" lon="3.71045">
        <ele>117.7</ele>
        <time>2011-02-20T10:41:32Z</time>
      </trkpt>
      <trkpt lat="43.586" lon="3.71057">
        <ele>117.3</ele>
        <time>2011-02-20T10:41:33Z</time>
      </trkpt>
      <trkpt lat="43.586" lon="3.71068">
        <ele>117</ele>
        <time>2011-02-20T10:41:34Z</time>
      </trkpt>
      <trkpt lat="43.58599" lon="3.7108">
        <ele>116.7</ele>
        <time>2011-02-20T10:41:35Z</time>
      </trkpt>
      <trkpt lat="43.58599" lon="3.71091">
        <ele>116.3</ele>
        <time>2011-02-20T10:41:36Z</time>
      </trkpt>
      <trkpt lat="43.58599" lon="3.71103">
        <ele>116</ele>
        <time>2011-02-20T10:41:37Z</time>
      </trkpt>
      <trkpt lat="43.58599" lon="3.71114">
        <ele>115.7</ele>
        <time>2011-02-20T10:41:38Z</time>
      </trkpt>
      <trkpt lat="43.58598" lon="3.71125">
        <ele>115.6</ele>
        <time>2011-02-20T10:41:39Z</time>
      </trkpt>
      <trkpt lat="43.58598" lon="3.71136">
        <ele>115</ele>
        <time>2011-02-20T10:41:40Z</time>
      </trkpt>
      <trkpt lat="43.58598" lon="3.71147">
        <ele>114.5</ele>
        <time>2011-02-20T10:41:41Z</time>
      </trkpt>
      <trkpt lat="43.58599" lon="3.71158">
        <ele>114.2</ele>
        <time>2011-02-20T10:41:42Z</time>
      </trkpt>
      <trkpt lat="43.58599" lon="3.71168">
        <ele>114.8</ele>
        <time>2011-02-20T10:41:43Z</time>
      </trkpt>
      <trkpt lat="43.586" lon="3.71179">
        <ele>115.2</ele>
        <time>2011-02-20T10:41:44Z</time>
      </trkpt>
      <trkpt lat="43.586" lon="3.71189">
        <ele>115.6</ele>
        <time>2011-02-20T10:41:45Z</time>
      </trkpt>
      <trkpt lat="43.586" lon="3.71199">
        <ele>115.2</ele>
        <time>2011-02-20T10:41:46Z</time>
      </trkpt>
      <trkpt lat="43.586" lon="3.71208">
        <ele>114.9</ele>
        <time>2011-02-20T10:41:47Z</time>
      </trkpt>
      <trkpt lat="43.58598" lon="3.71217">
        <ele>114.6</ele>
        <time>2011-02-20T10:41:48Z</time>
      </trkpt>
      <trkpt lat="43.58595" lon="3.71225">
        <ele>115</ele>
        <time>2011-02-20T10:41:49Z</time>
      </trkpt>
      <trkpt lat="43.5859" lon="3.7123">
        <ele>115.3</ele>
        <time>2011-02-20T10:41:50Z</time>
      </trkpt>
      <trkpt lat="43.58585" lon="3.71233">
        <ele>115.5</ele>
        <time>2011-02-20T10:41:51Z</time>
      </trkpt>
      <trkpt lat="43.5858" lon="3.71234">
        <ele>115.7</ele>
        <time>2011-02-20T10:41:52Z</time>
      </trkpt>
      <trkpt lat="43.58574" lon="3.71235">
        <ele>115.4</ele>
        <time>2011-02-20T10:41:53Z</time>
      </trkpt>
      <trkpt lat="43.58568" lon="3.71236">
        <ele>115.2</ele>
        <time>2011-02-20T10:41:54Z</time>
      </trkpt>
      <trkpt lat="43.58563" lon="3.71237">
        <ele>115.1</ele>
        <time>2011-02-20T10:41:55Z</time>
      </trkpt>
      <trkpt lat="43.58557" lon="3.71239">
        <ele>115.4</ele>
        <time>2011-02-20T10:41:56Z</time>
      </trkpt>
      <trkpt lat="43.58551" lon="3.7124">
        <ele>115.6</ele>
        <time>2011-02-20T10:41:57Z</time>
      </trkpt>
      <trkpt lat="43.58545" lon="3.71243">
        <ele>115.8</ele>
        <time>2011-02-20T10:41:58Z</time>
      </trkpt>
      <trkpt lat="43.5854" lon="3.71246">
        <ele>115.4</ele>
        <time>2011-02-20T10:41:59Z</time>
      </trkpt>
      <trkpt lat="43.58534" lon="3.71248">
        <ele>115</ele>
        <time>2011-02-20T10:42:00Z</time>
      </trkpt>
      <trkpt lat="43.58528" lon="3.7125">
        <ele>114.8</ele>
        <time>2011-02-20T10:42:01Z</time>
      </trkpt>
      <trkpt lat="43.58522" lon="3.71252">
        <ele>114.9</ele>
        <time>2011-02-20T10:42:02Z</time>
      </trkpt>
      <trkpt lat="43.58515" lon="3.71254">
        <ele>115</ele>
        <time>2011-02-20T10:42:03Z</time>
      </trkpt>
      <trkpt lat="43.5851" lon="3.71257">
        <ele>115</ele>
        <time>2011-02-20T10:42:04Z</time>
      </trkpt>
      <trkpt lat="43.58504" lon="3.71259">
        <ele>114.8</ele>
        <time>2011-02-20T10:42:05Z</time>
      </trkpt>
      <trkpt lat="43.58499" lon="3.71262">
        <ele>114.7</ele>
        <time>2011-02-20T10:42:06Z</time>
      </trkpt>
      <trkpt lat="43.58494" lon="3.71266">
        <ele>114.6</ele>
        <time>2011-02-20T10:42:07Z</time>
      </trkpt>
      <trkpt lat="43.5849" lon="3.7127">
        <ele>114.5</ele>
        <time>2011-02-20T10:42:08Z</time>
      </trkpt>
      <trkpt lat="43.58483" lon="3.71276">
        <ele>114.5</ele>
        <time>2011-02-20T10:42:10Z</time>
      </trkpt>
      <trkpt lat="43.58475" lon="3.71279">
        <ele>114.3</ele>
        <time>2011-02-20T10:42:13Z</time>
      </trkpt>
      <trkpt lat="43.58469" lon="3.71283">
        <ele>113.4</ele>
        <time>2011-02-20T10:45:54Z</time>
      </trkpt>
      <trkpt lat="43.58466" lon="3.71284">
        <ele>113.3</ele>
        <time>2011-02-20T10:45:55Z</time>
      </trkpt>
      <trkpt lat="43.58456" lon="3.71287">
        <ele>113</ele>
        <time>2011-02-20T10:45:58Z</time>
      </trkpt>
      <trkpt lat="43.58448" lon="3.7129">
        <ele>112.8</ele>
        <time>2011-02-20T10:46:00Z</time>
      </trkpt>
      <trkpt lat="43.58443" lon="3.71291">
        <ele>112.5</ele>
        <time>2011-02-20T10:46:01Z</time>
      </trkpt>
      <trkpt lat="43.58439" lon="3.71291">
        <ele>112.3</ele>
        <time>2011-02-20T10:46:02Z</time>
      </trkpt>
      <trkpt lat="43.58434" lon="3.71291">
        <ele>112.2</ele>
        <time>2011-02-20T10:46:03Z</time>
      </trkpt>
      <trkpt lat="43.58429" lon="3.71291">
        <ele>112.1</ele>
        <time>2011-02-20T10:46:04Z</time>
      </trkpt>
      <trkpt lat="43.58425" lon="3.71292">
        <ele>111.6</ele>
        <time>2011-02-20T10:46:05Z</time>
      </trkpt>
      <trkpt lat="43.5842" lon="3.71291">
        <ele>111.2</ele>
        <time>2011-02-20T10:46:06Z</time>
      </trkpt>
      <trkpt lat="43.58411" lon="3.71293">
        <ele>110.6</ele>
        <time>2011-02-20T10:46:08Z</time>
      </trkpt>
      <trkpt lat="43.58402" lon="3.71293">
        <ele>110.1</ele>
        <time>2011-02-20T10:46:10Z</time>
      </trkpt>
      <trkpt lat="43.58398" lon="3.71293">
        <ele>110.2</ele>
        <time>2011-02-20T10:46:11Z</time>
      </trkpt>
      <trkpt lat="43.58393" lon="3.71294">
        <ele>110.2</ele>
        <time>2011-02-20T10:46:12Z</time>
      </trkpt>
      <trkpt lat="43.58388" lon="3.71295">
        <ele>110.2</ele>
        <time>2011-02-20T10:46:13Z</time>
      </trkpt>
      <trkpt lat="43.58384" lon="3.71296">
        <ele>109.6</ele>
        <time>2011-02-20T10:46:14Z</time>
      </trkpt>
      <trkpt lat="43.58378" lon="3.71297">
        <ele>109.2</ele>
        <time>2011-02-20T10:46:15Z</time>
      </trkpt>
      <trkpt lat="43.58373" lon="3.71297">
        <ele>108.9</ele>
        <time>2011-02-20T10:46:16Z</time>
      </trkpt>
      <trkpt lat="43.58368" lon="3.71297">
        <ele>108.8</ele>
        <time>2011-02-20T10:46:17Z</time>
      </trkpt>
      <trkpt lat="43.58364" lon="3.71299">
        <ele>108.8</ele>
        <time>2011-02-20T10:46:18Z</time>
      </trkpt>
      <trkpt lat="43.58357" lon="3.71306">
        <ele>108.7</ele>
        <time>2011-02-20T10:46:20Z</time>
      </trkpt>
      <trkpt lat="43.58354" lon="3.71316">
        <ele>108.6</ele>
        <time>2011-02-20T10:46:22Z</time>
      </trkpt>
      <trkpt lat="43.58351" lon="3.71327">
        <ele>108.6</ele>
        <time>2011-02-20T10:46:24Z</time>
      </trkpt>
      <trkpt lat="43.58347" lon="3.71336">
        <ele>108.6</ele>
        <time>2011-02-20T10:46:26Z</time>
      </trkpt>
      <trkpt lat="43.58343" lon="3.71345">
        <ele>109.1</ele>
        <time>2011-02-20T10:46:28Z</time>
      </trkpt>
      <trkpt lat="43.5834" lon="3.71355">
        <ele>108.9</ele>
        <time>2011-02-20T10:46:30Z</time>
      </trkpt>
      <trkpt lat="43.58337" lon="3.71366">
        <ele>108.4</ele>
        <time>2011-02-20T10:46:32Z</time>
      </trkpt>
      <trkpt lat="43.58333" lon="3.71376">
        <ele>108.9</ele>
        <time>2011-02-20T10:46:34Z</time>
      </trkpt>
      <trkpt lat="43.58329" lon="3.71387">
        <ele>109.2</ele>
        <time>2011-02-20T10:46:36Z</time>
      </trkpt>
      <trkpt lat="43.58326" lon="3.71397">
        <ele>108.8</ele>
        <time>2011-02-20T10:46:38Z</time>
      </trkpt>
      <trkpt lat="43.58323" lon="3.71409">
        <ele>108.1</ele>
        <time>2011-02-20T10:46:40Z</time>
      </trkpt>
      <trkpt lat="43.58322" lon="3.71415">
        <ele>107.8</ele>
        <time>2011-02-20T10:46:41Z</time>
      </trkpt>
      <trkpt lat="43.5832" lon="3.71421">
        <ele>107.5</ele>
        <time>2011-02-20T10:46:42Z</time>
      </trkpt>
      <trkpt lat="43.58319" lon="3.71427">
        <ele>107.4</ele>
        <time>2011-02-20T10:46:43Z</time>
      </trkpt>
      <trkpt lat="43.58317" lon="3.71433">
        <ele>107.4</ele>
        <time>2011-02-20T10:46:44Z</time>
      </trkpt>
      <trkpt lat="43.58316" lon="3.71439">
        <ele>107.4</ele>
        <time>2011-02-20T10:46:45Z</time>
      </trkpt>
      <trkpt lat="43.58314" lon="3.71445">
        <ele>106.9</ele>
        <time>2011-02-20T10:46:46Z</time>
      </trkpt>
      <trkpt lat="43.58312" lon="3.71452">
        <ele>106.6</ele>
        <time>2011-02-20T10:46:47Z</time>
      </trkpt>
      <trkpt lat="43.5831" lon="3.71458">
        <ele>106.3</ele>
        <time>2011-02-20T10:46:48Z</time>
      </trkpt>
      <trkpt lat="43.58307" lon="3.71463">
        <ele>106.3</ele>
        <time>2011-02-20T10:46:49Z</time>
      </trkpt>
      <trkpt lat="43.58304" lon="3.71469">
        <ele>106.3</ele>
        <time>2011-02-20T10:46:50Z</time>
      </trkpt>
      <trkpt lat="43.58301" lon="3.71475">
        <ele>106.3</ele>
        <time>2011-02-20T10:46:51Z</time>
      </trkpt>
      <trkpt lat="43.58298" lon="3.71481">
        <ele>106.3</ele>
        <time>2011-02-20T10:46:52Z</time>
      </trkpt>
      <trkpt lat="43.58296" lon="3.71487">
        <ele>106.3</ele>
        <time>2011-02-20T10:46:53Z</time>
      </trkpt>
      <trkpt lat="43.58293" lon="3.71494">
        <ele>106.3</ele>
        <time>2011-02-20T10:46:54Z</time>
      </trkpt>
      <trkpt lat="43.58291" lon="3.715">
        <ele>106.4</ele>
        <time>2011-02-20T10:46:55Z</time>
      </trkpt>
      <trkpt lat="43.58289" lon="3.71506">
        <ele>106.3</ele>
        <time>2011-02-20T10:46:56Z</time>
      </trkpt>
      <trkpt lat="43.58286" lon="3.71511">
        <ele>106.3</ele>
        <time>2011-02-20T10:46:57Z</time>
      </trkpt>
      <trkpt lat="43.58283" lon="3.71517">
        <ele>106.3</ele>
        <time>2011-02-20T10:46:58Z</time>
      </trkpt>
      <trkpt lat="43.58281" lon="3.71523">
        <ele>106.2</ele>
        <time>2011-02-20T10:46:59Z</time>
      </trkpt>
      <trkpt lat="43.58278" lon="3.71528">
        <ele>106.1</ele>
        <time>2011-02-20T10:47:00Z</time>
      </trkpt>
      <trkpt lat="43.58272" lon="3.71537">
        <ele>106.1</ele>
        <time>2011-02-20T10:47:02Z</time>
      </trkpt>
      <trkpt lat="43.58269" lon="3.71547">
        <ele>106.2</ele>
        <time>2011-02-20T10:47:04Z</time>
      </trkpt>
      <trkpt lat="43.58267" lon="3.71557">
        <ele>106.6</ele>
        <time>2011-02-20T10:47:06Z</time>
      </trkpt>
      <trkpt lat="43.58264" lon="3.71567">
        <ele>106.7</ele>
        <time>2011-02-20T10:47:08Z</time>
      </trkpt>
      <trkpt lat="43.58258" lon="3.71576">
        <ele>106.6</ele>
        <time>2011-02-20T10:47:10Z</time>
      </trkpt>
      <trkpt lat="43.58252" lon="3.71584">
        <ele>106.4</ele>
        <time>2011-02-20T10:47:12Z</time>
      </trkpt>
      <trkpt lat="43.58246" lon="3.71593">
        <ele>106.1</ele>
        <time>2011-02-20T10:47:14Z</time>
      </trkpt>
      <trkpt lat="43.58243" lon="3.71598">
        <ele>106</ele>
        <time>2011-02-20T10:47:15Z</time>
      </trkpt>
      <trkpt lat="43.58239" lon="3.71602">
        <ele>105.9</ele>
        <time>2011-02-20T10:47:16Z</time>
      </trkpt>
      <trkpt lat="43.58236" lon="3.71606">
        <ele>105.8</ele>
        <time>2011-02-20T10:47:17Z</time>
      </trkpt>
      <trkpt lat="43.58233" lon="3.71611">
        <ele>105.9</ele>
        <time>2011-02-20T10:47:18Z</time>
      </trkpt>
      <trkpt lat="43.5823" lon="3.71615">
        <ele>106</ele>
        <time>2011-02-20T10:47:19Z</time>
      </trkpt>
      <trkpt lat="43.58226" lon="3.7162">
        <ele>106.1</ele>
        <time>2011-02-20T10:47:20Z</time>
      </trkpt>
      <trkpt lat="43.58223" lon="3.71624">
        <ele>106</ele>
        <time>2011-02-20T10:47:21Z</time>
      </trkpt>
      <trkpt lat="43.58219" lon="3.71629">
        <ele>106</ele>
        <time>2011-02-20T10:47:22Z</time>
      </trkpt>
      <trkpt lat="43.58216" lon="3.71633">
        <ele>106</ele>
        <time>2011-02-20T10:47:23Z</time>
      </trkpt>
      <trkpt lat="43.58212" lon="3.71638">
        <ele>105.9</ele>
        <time>2011-02-20T10:47:24Z</time>
      </trkpt>
      <trkpt lat="43.58209" lon="3.71644">
        <ele>105.3</ele>
        <time>2011-02-20T10:47:25Z</time>
      </trkpt>
      <trkpt lat="43.58206" lon="3.71649">
        <ele>104.8</ele>
        <time>2011-02-20T10:47:26Z</time>
      </trkpt>
      <trkpt lat="43.58203" lon="3.71655">
        <ele>104.4</ele>
        <time>2011-02-20T10:47:27Z</time>
      </trkpt>
      <trkpt lat="43.58199" lon="3.7166">
        <ele>104.5</ele>
        <time>2011-02-20T10:47:28Z</time>
      </trkpt>
      <trkpt lat="43.58196" lon="3.71665">
        <ele>104.5</ele>
        <time>2011-02-20T10:47:29Z</time>
      </trkpt>
      <trkpt lat="43.58192" lon="3.71669">
        <ele>104.6</ele>
        <time>2011-02-20T10:47:30Z</time>
      </trkpt>
      <trkpt lat="43.58189" lon="3.71674">
        <ele>104.9</ele>
        <time>2011-02-20T10:47:31Z</time>
      </trkpt>
      <trkpt lat="43.58185" lon="3.71679">
        <ele>105.1</ele>
        <time>2011-02-20T10:47:32Z</time>
      </trkpt>
      <trkpt lat="43.58183" lon="3.71684">
        <ele>105.3</ele>
        <time>2011-02-20T10:47:33Z</time>
      </trkpt>
      <trkpt lat="43.58178" lon="3.71694">
        <ele>105.3</ele>
        <time>2011-02-20T10:47:35Z</time>
      </trkpt>
      <trkpt lat="43.58173" lon="3.71704">
        <ele>105.6</ele>
        <time>2011-02-20T10:47:37Z</time>
      </trkpt>
      <trkpt lat="43.5817" lon="3.71714">
        <ele>105.9</ele>
        <time>2011-02-20T10:47:39Z</time>
      </trkpt>
      <trkpt lat="43.58166" lon="3.71722">
        <ele>106.5</ele>
        <time>2011-02-20T10:47:41Z</time>
      </trkpt>
      <trkpt lat="43.58163" lon="3.7173">
        <ele>106.8</ele>
        <time>2011-02-20T10:47:43Z</time>
      </trkpt>
      <trkpt lat="43.58158" lon="3.71737">
        <ele>107.3</ele>
        <time>2011-02-20T10:47:45Z</time>
      </trkpt>
      <trkpt lat="43.58154" lon="3.71744">
        <ele>107.1</ele>
        <time>2011-02-20T10:47:47Z</time>
      </trkpt>
      <trkpt lat="43.5815" lon="3.71751">
        <ele>106.6</ele>
        <time>2011-02-20T10:47:49Z</time>
      </trkpt>
      <trkpt lat="43.58148" lon="3.7176">
        <ele>107.1</ele>
        <time>2011-02-20T10:47:51Z</time>
      </trkpt>
      <trkpt lat="43.58144" lon="3.71767">
        <ele>107.7</ele>
        <time>2011-02-20T10:47:53Z</time>
      </trkpt>
      <trkpt lat="43.5814" lon="3.71773">
        <ele>108.3</ele>
        <time>2011-02-20T10:47:55Z</time>
      </trkpt>
      <trkpt lat="43.58134" lon="3.71781">
        <ele>109.6</ele>
        <time>2011-02-20T10:47:58Z</time>
      </trkpt>
      <trkpt lat="43.58132" lon="3.71785">
        <ele>109.8</ele>
        <time>2011-02-20T10:47:59Z</time>
      </trkpt>
      <trkpt lat="43.58124" lon="3.718">
        <ele>111.6</ele>
        <time>2011-02-20T10:48:04Z</time>
      </trkpt>
      <trkpt lat="43.58121" lon="3.7181">
        <ele>112.4</ele>
        <time>2011-02-20T10:48:07Z</time>
      </trkpt>
      <trkpt lat="43.58117" lon="3.71821">
        <ele>113</ele>
        <time>2011-02-20T10:48:10Z</time>
      </trkpt>
      <trkpt lat="43.58112" lon="3.7183">
        <ele>113.9</ele>
        <time>2011-02-20T10:48:13Z</time>
      </trkpt>
      <trkpt lat="43.58107" lon="3.71839">
        <ele>114.5</ele>
        <time>2011-02-20T10:48:16Z</time>
      </trkpt>
      <trkpt lat="43.58101" lon="3.71848">
        <ele>115</ele>
        <time>2011-02-20T10:48:19Z</time>
      </trkpt>
      <trkpt lat="43.58095" lon="3.71856">
        <ele>115.8</ele>
        <time>2011-02-20T10:48:22Z</time>
      </trkpt>
      <trkpt lat="43.58091" lon="3.71866">
        <ele>116.5</ele>
        <time>2011-02-20T10:48:25Z</time>
      </trkpt>
      <trkpt lat="43.58087" lon="3.71876">
        <ele>116.6</ele>
        <time>2011-02-20T10:48:28Z</time>
      </trkpt>
      <trkpt lat="43.58084" lon="3.71884">
        <ele>116.6</ele>
        <time>2011-02-20T10:48:30Z</time>
      </trkpt>
      <trkpt lat="43.58081" lon="3.71891">
        <ele>116.8</ele>
        <time>2011-02-20T10:48:32Z</time>
      </trkpt>
      <trkpt lat="43.58076" lon="3.719">
        <ele>117</ele>
        <time>2011-02-20T10:48:35Z</time>
      </trkpt>
      <trkpt lat="43.58073" lon="3.7191">
        <ele>116.6</ele>
        <time>2011-02-20T10:48:38Z</time>
      </trkpt>
      <trkpt lat="43.5807" lon="3.71918">
        <ele>116.2</ele>
        <time>2011-02-20T10:48:40Z</time>
      </trkpt>
      <trkpt lat="43.58068" lon="3.71927">
        <ele>116.3</ele>
        <time>2011-02-20T10:48:42Z</time>
      </trkpt>
      <trkpt lat="43.58065" lon="3.71938">
        <ele>116.7</ele>
        <time>2011-02-20T10:48:49Z</time>
      </trkpt>
      <trkpt lat="43.58062" lon="3.71948">
        <ele>117.1</ele>
        <time>2011-02-20T10:48:57Z</time>
      </trkpt>
      <trkpt lat="43.58058" lon="3.71957">
        <ele>117.4</ele>
        <time>2011-02-20T10:49:00Z</time>
      </trkpt>
      <trkpt lat="43.58057" lon="3.71961">
        <ele>117.2</ele>
        <time>2011-02-20T10:49:01Z</time>
      </trkpt>
      <trkpt lat="43.58053" lon="3.71973">
        <ele>116.8</ele>
        <time>2011-02-20T10:49:04Z</time>
      </trkpt>
      <trkpt lat="43.5805" lon="3.71983">
        <ele>116.7</ele>
        <time>2011-02-20T10:49:06Z</time>
      </trkpt>
      <trkpt lat="43.58045" lon="3.71992">
        <ele>116.3</ele>
        <time>2011-02-20T10:49:08Z</time>
      </trkpt>
      <trkpt lat="43.58038" lon="3.72">
        <ele>115.8</ele>
        <time>2011-02-20T10:49:10Z</time>
      </trkpt>
      <trkpt lat="43.58033" lon="3.72008">
        <ele>115.2</ele>
        <time>2011-02-20T10:49:12Z</time>
      </trkpt>
      <trkpt lat="43.58028" lon="3.72018">
        <ele>115.2</ele>
        <time>2011-02-20T10:49:14Z</time>
      </trkpt>
      <trkpt lat="43.58023" lon="3.72028">
        <ele>115.2</ele>
        <time>2011-02-20T10:49:16Z</time>
      </trkpt>
      <trkpt lat="43.5802" lon="3.72033">
        <ele>115.2</ele>
        <time>2011-02-20T10:49:17Z</time>
      </trkpt>
      <trkpt lat="43.58017" lon="3.72038">
        <ele>115.3</ele>
        <time>2011-02-20T10:49:18Z</time>
      </trkpt>
      <trkpt lat="43.58015" lon="3.72044">
        <ele>115</ele>
        <time>2011-02-20T10:49:19Z</time>
      </trkpt>
      <trkpt lat="43.58014" lon="3.7205">
        <ele>114.8</ele>
        <time>2011-02-20T10:49:20Z</time>
      </trkpt>
      <trkpt lat="43.58013" lon="3.72056">
        <ele>114.6</ele>
        <time>2011-02-20T10:49:21Z</time>
      </trkpt>
      <trkpt lat="43.58013" lon="3.72068">
        <ele>114.4</ele>
        <time>2011-02-20T10:49:23Z</time>
      </trkpt>
      <trkpt lat="43.5801" lon="3.72077">
        <ele>114.2</ele>
        <time>2011-02-20T10:49:25Z</time>
      </trkpt>
      <trkpt lat="43.58003" lon="3.72084">
        <ele>113.7</ele>
        <time>2011-02-20T10:49:27Z</time>
      </trkpt>
      <trkpt lat="43.57999" lon="3.72087">
        <ele>113.6</ele>
        <time>2011-02-20T10:49:28Z</time>
      </trkpt>
      <trkpt lat="43.57995" lon="3.72091">
        <ele>113.1</ele>
        <time>2011-02-20T10:49:29Z</time>
      </trkpt>
      <trkpt lat="43.57992" lon="3.72096">
        <ele>112.8</ele>
        <time>2011-02-20T10:49:30Z</time>
      </trkpt>
      <trkpt lat="43.57989" lon="3.72101">
        <ele>112.6</ele>
        <time>2011-02-20T10:49:31Z</time>
      </trkpt>
      <trkpt lat="43.57986" lon="3.72107">
        <ele>112.2</ele>
        <time>2011-02-20T10:49:32Z</time>
      </trkpt>
      <trkpt lat="43.57984" lon="3.72113">
        <ele>112</ele>
        <time>2011-02-20T10:49:33Z</time>
      </trkpt>
      <trkpt lat="43.57982" lon="3.72119">
        <ele>111.8</ele>
        <time>2011-02-20T10:49:34Z</time>
      </trkpt>
      <trkpt lat="43.5798" lon="3.72126">
        <ele>111.4</ele>
        <time>2011-02-20T10:49:35Z</time>
      </trkpt>
      <trkpt lat="43.57978" lon="3.72133">
        <ele>111.1</ele>
        <time>2011-02-20T10:49:36Z</time>
      </trkpt>
      <trkpt lat="43.57977" lon="3.72141">
        <ele>110.9</ele>
        <time>2011-02-20T10:49:37Z</time>
      </trkpt>
      <trkpt lat="43.57976" lon="3.72148">
        <ele>110.7</ele>
        <time>2011-02-20T10:49:38Z</time>
      </trkpt>
      <trkpt lat="43.57973" lon="3.72155">
        <ele>110.5</ele>
        <time>2011-02-20T10:49:39Z</time>
      </trkpt>
      <trkpt lat="43.57968" lon="3.7216">
        <ele>110.3</ele>
        <time>2011-02-20T10:49:40Z</time>
      </trkpt>
      <trkpt lat="43.57963" lon="3.72163">
        <ele>110.2</ele>
        <time>2011-02-20T10:49:41Z</time>
      </trkpt>
      <trkpt lat="43.57958" lon="3.72167">
        <ele>109.9</ele>
        <time>2011-02-20T10:49:42Z</time>
      </trkpt>
      <trkpt lat="43.57954" lon="3.72173">
        <ele>109.7</ele>
        <time>2011-02-20T10:49:43Z</time>
      </trkpt>
      <trkpt lat="43.57955" lon="3.7218">
        <ele>109.5</ele>
        <time>2011-02-20T10:49:44Z</time>
      </trkpt>
      <trkpt lat="43.57956" lon="3.72187">
        <ele>109.2</ele>
        <time>2011-02-20T10:49:45Z</time>
      </trkpt>
      <trkpt lat="43.57957" lon="3.72193">
        <ele>108.9</ele>
        <time>2011-02-20T10:49:46Z</time>
      </trkpt>
      <trkpt lat="43.57959" lon="3.72204">
        <ele>108.5</ele>
        <time>2011-02-20T10:49:48Z</time>
      </trkpt>
      <trkpt lat="43.57958" lon="3.72216">
        <ele>108.1</ele>
        <time>2011-02-20T10:49:50Z</time>
      </trkpt>
      <trkpt lat="43.57959" lon="3.72227">
        <ele>108.6</ele>
        <time>2011-02-20T10:49:52Z</time>
      </trkpt>
      <trkpt lat="43.57958" lon="3.72238">
        <ele>108.7</ele>
        <time>2011-02-20T10:49:54Z</time>
      </trkpt>
      <trkpt lat="43.57955" lon="3.72247">
        <ele>108.6</ele>
        <time>2011-02-20T10:49:56Z</time>
      </trkpt>
      <trkpt lat="43.5795" lon="3.72255">
        <ele>108.7</ele>
        <time>2011-02-20T10:49:59Z</time>
      </trkpt>
      <trkpt lat="43.57948" lon="3.72264">
        <ele>108.3</ele>
        <time>2011-02-20T10:50:02Z</time>
      </trkpt>
      <trkpt lat="43.57947" lon="3.72267">
        <ele>108.1</ele>
        <time>2011-02-20T10:50:03Z</time>
      </trkpt>
      <trkpt lat="43.57939" lon="3.72283">
        <ele>107.9</ele>
        <time>2011-02-20T10:50:09Z</time>
      </trkpt>
      <trkpt lat="43.57936" lon="3.72294">
        <ele>107.6</ele>
        <time>2011-02-20T10:50:12Z</time>
      </trkpt>
      <trkpt lat="43.57935" lon="3.72306">
        <ele>107.2</ele>
        <time>2011-02-20T10:50:15Z</time>
      </trkpt>
      <trkpt lat="43.57933" lon="3.72315">
        <ele>106.8</ele>
        <time>2011-02-20T10:50:17Z</time>
      </trkpt>
      <trkpt lat="43.5793" lon="3.72325">
        <ele>106.5</ele>
        <time>2011-02-20T10:50:19Z</time>
      </trkpt>
      <trkpt lat="43.57926" lon="3.72335">
        <ele>106.3</ele>
        <time>2011-02-20T10:50:21Z</time>
      </trkpt>
      <trkpt lat="43.57922" lon="3.72346">
        <ele>105.8</ele>
        <time>2011-02-20T10:50:23Z</time>
      </trkpt>
      <trkpt lat="43.57917" lon="3.72356">
        <ele>105.1</ele>
        <time>2011-02-20T10:50:25Z</time>
      </trkpt>
      <trkpt lat="43.57914" lon="3.72361">
        <ele>104.9</ele>
        <time>2011-02-20T10:50:26Z</time>
      </trkpt>
      <trkpt lat="43.57911" lon="3.72366">
        <ele>104.7</ele>
        <time>2011-02-20T10:50:27Z</time>
      </trkpt>
      <trkpt lat="43.57908" lon="3.72371">
        <ele>104.6</ele>
        <time>2011-02-20T10:50:28Z</time>
      </trkpt>
      <trkpt lat="43.57905" lon="3.72376">
        <ele>104.5</ele>
        <time>2011-02-20T10:50:29Z</time>
      </trkpt>
      <trkpt lat="43.57902" lon="3.72381">
        <ele>104.1</ele>
        <time>2011-02-20T10:50:30Z</time>
      </trkpt>
      <trkpt lat="43.57897" lon="3.72391">
        <ele>103.5</ele>
        <time>2011-02-20T10:50:32Z</time>
      </trkpt>
      <trkpt lat="43.57892" lon="3.72402">
        <ele>102.9</ele>
        <time>2011-02-20T10:50:34Z</time>
      </trkpt>
      <trkpt lat="43.57887" lon="3.72411">
        <ele>102.5</ele>
        <time>2011-02-20T10:50:36Z</time>
      </trkpt>
      <trkpt lat="43.57883" lon="3.7242">
        <ele>102.1</ele>
        <time>2011-02-20T10:50:38Z</time>
      </trkpt>
      <trkpt lat="43.5788" lon="3.7243">
        <ele>102.2</ele>
        <time>2011-02-20T10:50:40Z</time>
      </trkpt>
      <trkpt lat="43.57876" lon="3.72439">
        <ele>102.3</ele>
        <time>2011-02-20T10:50:42Z</time>
      </trkpt>
      <trkpt lat="43.57871" lon="3.72446">
        <ele>102.3</ele>
        <time>2011-02-20T10:50:44Z</time>
      </trkpt>
      <trkpt lat="43.57867" lon="3.72456">
        <ele>102</ele>
        <time>2011-02-20T10:50:46Z</time>
      </trkpt>
      <trkpt lat="43.57863" lon="3.72466">
        <ele>101.6</ele>
        <time>2011-02-20T10:50:48Z</time>
      </trkpt>
      <trkpt lat="43.57861" lon="3.72477">
        <ele>101.5</ele>
        <time>2011-02-20T10:50:50Z</time>
      </trkpt>
      <trkpt lat="43.57859" lon="3.72488">
        <ele>101.3</ele>
        <time>2011-02-20T10:50:52Z</time>
      </trkpt>
      <trkpt lat="43.5786" lon="3.72498">
        <ele>101.2</ele>
        <time>2011-02-20T10:50:54Z</time>
      </trkpt>
      <trkpt lat="43.57861" lon="3.72508">
        <ele>101.1</ele>
        <time>2011-02-20T10:50:56Z</time>
      </trkpt>
      <trkpt lat="43.57861" lon="3.72518">
        <ele>100.9</ele>
        <time>2011-02-20T10:50:58Z</time>
      </trkpt>
      <trkpt lat="43.5786" lon="3.72528">
        <ele>100.7</ele>
        <time>2011-02-20T10:51:00Z</time>
      </trkpt>
      <trkpt lat="43.57859" lon="3.72538">
        <ele>100.4</ele>
        <time>2011-02-20T10:51:02Z</time>
      </trkpt>
      <trkpt lat="43.57856" lon="3.72548">
        <ele>100.3</ele>
        <time>2011-02-20T10:51:04Z</time>
      </trkpt>
      <trkpt lat="43.57855" lon="3.72554">
        <ele>100.2</ele>
        <time>2011-02-20T10:51:05Z</time>
      </trkpt>
      <trkpt lat="43.57853" lon="3.72567">
        <ele>100.2</ele>
        <time>2011-02-20T10:51:07Z</time>
      </trkpt>
      <trkpt lat="43.57852" lon="3.72573">
        <ele>100.2</ele>
        <time>2011-02-20T10:51:08Z</time>
      </trkpt>
      <trkpt lat="43.57852" lon="3.72579">
        <ele>100.2</ele>
        <time>2011-02-20T10:51:09Z</time>
      </trkpt>
      <trkpt lat="43.57853" lon="3.72591">
        <ele>99.8</ele>
        <time>2011-02-20T10:51:11Z</time>
      </trkpt>
      <trkpt lat="43.57854" lon="3.72598">
        <ele>99.4</ele>
        <time>2011-02-20T10:51:12Z</time>
      </trkpt>
      <trkpt lat="43.57854" lon="3.72604">
        <ele>99.1</ele>
        <time>2011-02-20T10:51:13Z</time>
      </trkpt>
      <trkpt lat="43.57854" lon="3.72611">
        <ele>99.1</ele>
        <time>2011-02-20T10:51:14Z</time>
      </trkpt>
      <trkpt lat="43.57853" lon="3.72618">
        <ele>99.1</ele>
        <time>2011-02-20T10:51:15Z</time>
      </trkpt>
      <trkpt lat="43.57852" lon="3.72626">
        <ele>99.1</ele>
        <time>2011-02-20T10:51:16Z</time>
      </trkpt>
      <trkpt lat="43.57851" lon="3.72633">
        <ele>98.8</ele>
        <time>2011-02-20T10:51:17Z</time>
      </trkpt>
      <trkpt lat="43.57849" lon="3.7264">
        <ele>98.5</ele>
        <time>2011-02-20T10:51:18Z</time>
      </trkpt>
      <trkpt lat="43.57848" lon="3.72647">
        <ele>98.3</ele>
        <time>2011-02-20T10:51:19Z</time>
      </trkpt>
      <trkpt lat="43.57846" lon="3.72654">
        <ele>98.2</ele>
        <time>2011-02-20T10:51:20Z</time>
      </trkpt>
      <trkpt lat="43.57844" lon="3.7266">
        <ele>97.5</ele>
        <time>2011-02-20T10:51:21Z</time>
      </trkpt>
      <trkpt lat="43.57843" lon="3.72667">
        <ele>96.9</ele>
        <time>2011-02-20T10:51:22Z</time>
      </trkpt>
      <trkpt lat="43.57842" lon="3.72674">
        <ele>96.5</ele>
        <time>2011-02-20T10:51:23Z</time>
      </trkpt>
      <trkpt lat="43.57842" lon="3.72681">
        <ele>96.3</ele>
        <time>2011-02-20T10:51:24Z</time>
      </trkpt>
      <trkpt lat="43.57841" lon="3.72688">
        <ele>96.2</ele>
        <time>2011-02-20T10:51:25Z</time>
      </trkpt>
      <trkpt lat="43.57842" lon="3.72695">
        <ele>96.2</ele>
        <time>2011-02-20T10:51:26Z</time>
      </trkpt>
      <trkpt lat="43.57842" lon="3.72703">
        <ele>96.5</ele>
        <time>2011-02-20T10:51:27Z</time>
      </trkpt>
      <trkpt lat="43.57842" lon="3.7271">
        <ele>96.8</ele>
        <time>2011-02-20T10:51:28Z</time>
      </trkpt>
      <trkpt lat="43.57841" lon="3.72717">
        <ele>97</ele>
        <time>2011-02-20T10:51:29Z</time>
      </trkpt>
      <trkpt lat="43.57841" lon="3.72724">
        <ele>96.8</ele>
        <time>2011-02-20T10:51:30Z</time>
      </trkpt>
      <trkpt lat="43.5784" lon="3.72731">
        <ele>96.7</ele>
        <time>2011-02-20T10:51:31Z</time>
      </trkpt>
      <trkpt lat="43.5784" lon="3.72737">
        <ele>96.6</ele>
        <time>2011-02-20T10:51:32Z</time>
      </trkpt>
      <trkpt lat="43.57839" lon="3.72744">
        <ele>96.3</ele>
        <time>2011-02-20T10:51:33Z</time>
      </trkpt>
      <trkpt lat="43.57839" lon="3.72751">
        <ele>96</ele>
        <time>2011-02-20T10:51:34Z</time>
      </trkpt>
      <trkpt lat="43.57838" lon="3.72758">
        <ele>95.8</ele>
        <time>2011-02-20T10:51:35Z</time>
      </trkpt>
      <trkpt lat="43.57838" lon="3.72765">
        <ele>95.7</ele>
        <time>2011-02-20T10:51:36Z</time>
      </trkpt>
      <trkpt lat="43.57838" lon="3.72773">
        <ele>95</ele>
        <time>2011-02-20T10:51:37Z</time>
      </trkpt>
      <trkpt lat="43.57836" lon="3.7278">
        <ele>94.4</ele>
        <time>2011-02-20T10:51:38Z</time>
      </trkpt>
      <trkpt lat="43.57834" lon="3.72786">
        <ele>94</ele>
        <time>2011-02-20T10:51:39Z</time>
      </trkpt>
      <trkpt lat="43.57832" lon="3.72792">
        <ele>94.1</ele>
        <time>2011-02-20T10:51:40Z</time>
      </trkpt>
      <trkpt lat="43.57827" lon="3.72802">
        <ele>94.1</ele>
        <time>2011-02-20T10:51:42Z</time>
      </trkpt>
      <trkpt lat="43.57825" lon="3.72808">
        <ele>94</ele>
        <time>2011-02-20T10:51:43Z</time>
      </trkpt>
      <trkpt lat="43.57823" lon="3.72814">
        <ele>93.8</ele>
        <time>2011-02-20T10:51:44Z</time>
      </trkpt>
      <trkpt lat="43.57821" lon="3.72826">
        <ele>93.9</ele>
        <time>2011-02-20T10:51:46Z</time>
      </trkpt>
      <trkpt lat="43.57821" lon="3.72837">
        <ele>94</ele>
        <time>2011-02-20T10:51:48Z</time>
      </trkpt>
      <trkpt lat="43.57822" lon="3.72847">
        <ele>94.4</ele>
        <time>2011-02-20T10:51:50Z</time>
      </trkpt>
      <trkpt lat="43.57824" lon="3.72856">
        <ele>94.6</ele>
        <time>2011-02-20T10:51:52Z</time>
      </trkpt>
      <trkpt lat="43.57824" lon="3.72865">
        <ele>95.1</ele>
        <time>2011-02-20T10:51:54Z</time>
      </trkpt>
      <trkpt lat="43.57821" lon="3.7288">
        <ele>95</ele>
        <time>2011-02-20T10:51:57Z</time>
      </trkpt>
      <trkpt lat="43.57816" lon="3.72897">
        <ele>97</ele>
        <time>2011-02-20T10:52:01Z</time>
      </trkpt>
      <trkpt lat="43.57814" lon="3.72908">
        <ele>98.3</ele>
        <time>2011-02-20T10:52:04Z</time>
      </trkpt>
      <trkpt lat="43.57812" lon="3.72917">
        <ele>97.7</ele>
        <time>2011-02-20T10:52:06Z</time>
      </trkpt>
      <trkpt lat="43.57811" lon="3.72922">
        <ele>97.5</ele>
        <time>2011-02-20T10:52:07Z</time>
      </trkpt>
      <trkpt lat="43.57808" lon="3.72937">
        <ele>97.2</ele>
        <time>2011-02-20T10:52:10Z</time>
      </trkpt>
      <trkpt lat="43.57808" lon="3.72948">
        <ele>97.2</ele>
        <time>2011-02-20T10:52:12Z</time>
      </trkpt>
      <trkpt lat="43.5781" lon="3.72959">
        <ele>97.2</ele>
        <time>2011-02-20T10:52:14Z</time>
      </trkpt>
      <trkpt lat="43.57812" lon="3.7297">
        <ele>97.4</ele>
        <time>2011-02-20T10:52:16Z</time>
      </trkpt>
      <trkpt lat="43.57814" lon="3.72981">
        <ele>97.6</ele>
        <time>2011-02-20T10:52:18Z</time>
      </trkpt>
      <trkpt lat="43.57814" lon="3.72993">
        <ele>97.8</ele>
        <time>2011-02-20T10:52:20Z</time>
      </trkpt>
      <trkpt lat="43.57815" lon="3.73005">
        <ele>97.7</ele>
        <time>2011-02-20T10:52:22Z</time>
      </trkpt>
      <trkpt lat="43.57818" lon="3.73017">
        <ele>97.6</ele>
        <time>2011-02-20T10:52:24Z</time>
      </trkpt>
      <trkpt lat="43.57819" lon="3.73023">
        <ele>97.5</ele>
        <time>2011-02-20T10:52:25Z</time>
      </trkpt>
      <trkpt lat="43.5782" lon="3.73029">
        <ele>97.3</ele>
        <time>2011-02-20T10:52:26Z</time>
      </trkpt>
      <trkpt lat="43.57821" lon="3.73035">
        <ele>97.2</ele>
        <time>2011-02-20T10:52:27Z</time>
      </trkpt>
      <trkpt lat="43.57822" lon="3.73041">
        <ele>97.3</ele>
        <time>2011-02-20T10:52:28Z</time>
      </trkpt>
      <trkpt lat="43.57823" lon="3.73048">
        <ele>97.4</ele>
        <time>2011-02-20T10:52:29Z</time>
      </trkpt>
      <trkpt lat="43.57824" lon="3.73054">
        <ele>97.5</ele>
        <time>2011-02-20T10:52:30Z</time>
      </trkpt>
      <trkpt lat="43.57825" lon="3.7306">
        <ele>97.5</ele>
        <time>2011-02-20T10:52:31Z</time>
      </trkpt>
      <trkpt lat="43.57826" lon="3.73067">
        <ele>97.5</ele>
        <time>2011-02-20T10:52:32Z</time>
      </trkpt>
      <trkpt lat="43.57829" lon="3.73078">
        <ele>97.1</ele>
        <time>2011-02-20T10:52:34Z</time>
      </trkpt>
      <trkpt lat="43.57828" lon="3.7309">
        <ele>96.7</ele>
        <time>2011-02-20T10:52:36Z</time>
      </trkpt>
      <trkpt lat="43.57825" lon="3.73101">
        <ele>97.3</ele>
        <time>2011-02-20T10:52:38Z</time>
      </trkpt>
      <trkpt lat="43.57821" lon="3.73111">
        <ele>97.5</ele>
        <time>2011-02-20T10:52:40Z</time>
      </trkpt>
      <trkpt lat="43.57816" lon="3.7312">
        <ele>97.6</ele>
        <time>2011-02-20T10:52:42Z</time>
      </trkpt>
      <trkpt lat="43.57811" lon="3.7313">
        <ele>97.9</ele>
        <time>2011-02-20T10:52:44Z</time>
      </trkpt>
      <trkpt lat="43.57801" lon="3.7315">
        <ele>98</ele>
        <time>2011-02-20T10:52:50Z</time>
      </trkpt>
      <trkpt lat="43.57795" lon="3.73144">
        <ele>99.4</ele>
        <time>2011-02-20T10:53:41Z</time>
      </trkpt>
      <trkpt lat="43.57793" lon="3.73141">
        <ele>99.5</ele>
        <time>2011-02-20T10:53:42Z</time>
      </trkpt>
      <trkpt lat="43.5779" lon="3.73127">
        <ele>98.4</ele>
        <time>2011-02-20T10:53:45Z</time>
      </trkpt>
      <trkpt lat="43.57789" lon="3.7312">
        <ele>98</ele>
        <time>2011-02-20T10:53:46Z</time>
      </trkpt>
      <trkpt lat="43.57788" lon="3.73113">
        <ele>97.7</ele>
        <time>2011-02-20T10:53:47Z</time>
      </trkpt>
      <trkpt lat="43.57788" lon="3.73105">
        <ele>97.7</ele>
        <time>2011-02-20T10:53:48Z</time>
      </trkpt>
      <trkpt lat="43.57787" lon="3.73097">
        <ele>97.7</ele>
        <time>2011-02-20T10:53:49Z</time>
      </trkpt>
      <trkpt lat="43.57787" lon="3.73089">
        <ele>97.7</ele>
        <time>2011-02-20T10:53:50Z</time>
      </trkpt>
      <trkpt lat="43.57786" lon="3.73081">
        <ele>97.2</ele>
        <time>2011-02-20T10:53:51Z</time>
      </trkpt>
      <trkpt lat="43.57785" lon="3.73073">
        <ele>96.8</ele>
        <time>2011-02-20T10:53:52Z</time>
      </trkpt>
      <trkpt lat="43.57784" lon="3.73065">
        <ele>96.5</ele>
        <time>2011-02-20T10:53:53Z</time>
      </trkpt>
      <trkpt lat="43.57782" lon="3.73057">
        <ele>96.3</ele>
        <time>2011-02-20T10:53:54Z</time>
      </trkpt>
      <trkpt lat="43.57778" lon="3.73051">
        <ele>96.2</ele>
        <time>2011-02-20T10:53:55Z</time>
      </trkpt>
      <trkpt lat="43.57774" lon="3.73046">
        <ele>96.1</ele>
        <time>2011-02-20T10:53:56Z</time>
      </trkpt>
      <trkpt lat="43.5777" lon="3.73041">
        <ele>95.9</ele>
        <time>2011-02-20T10:53:57Z</time>
      </trkpt>
      <trkpt lat="43.57767" lon="3.73035">
        <ele>95.8</ele>
        <time>2011-02-20T10:53:58Z</time>
      </trkpt>
      <trkpt lat="43.57763" lon="3.73024">
        <ele>95.7</ele>
        <time>2011-02-20T10:54:00Z</time>
      </trkpt>
      <trkpt lat="43.57758" lon="3.73015">
        <ele>95.7</ele>
        <time>2011-02-20T10:54:02Z</time>
      </trkpt>
      <trkpt lat="43.57754" lon="3.73011">
        <ele>95.5</ele>
        <time>2011-02-20T10:54:03Z</time>
      </trkpt>
      <trkpt lat="43.5775" lon="3.73007">
        <ele>95.4</ele>
        <time>2011-02-20T10:54:04Z</time>
      </trkpt>
      <trkpt lat="43.57746" lon="3.73002">
        <ele>95.4</ele>
        <time>2011-02-20T10:54:05Z</time>
      </trkpt>
      <trkpt lat="43.57742" lon="3.72998">
        <ele>95.3</ele>
        <time>2011-02-20T10:54:06Z</time>
      </trkpt>
      <trkpt lat="43.57738" lon="3.72994">
        <ele>95.4</ele>
        <time>2011-02-20T10:54:07Z</time>
      </trkpt>
      <trkpt lat="43.57734" lon="3.72989">
        <ele>95.6</ele>
        <time>2011-02-20T10:54:08Z</time>
      </trkpt>
      <trkpt lat="43.5773" lon="3.72984">
        <ele>95.7</ele>
        <time>2011-02-20T10:54:09Z</time>
      </trkpt>
      <trkpt lat="43.57726" lon="3.72978">
        <ele>95.6</ele>
        <time>2011-02-20T10:54:10Z</time>
      </trkpt>
      <trkpt lat="43.57723" lon="3.72972">
        <ele>95.5</ele>
        <time>2011-02-20T10:54:11Z</time>
      </trkpt>
      <trkpt lat="43.57719" lon="3.72966">
        <ele>95.5</ele>
        <time>2011-02-20T10:54:12Z</time>
      </trkpt>
      <trkpt lat="43.57716" lon="3.7296">
        <ele>95.1</ele>
        <time>2011-02-20T10:54:13Z</time>
      </trkpt>
      <trkpt lat="43.57713" lon="3.72954">
        <ele>94.9</ele>
        <time>2011-02-20T10:54:14Z</time>
      </trkpt>
      <trkpt lat="43.57709" lon="3.72947">
        <ele>94.7</ele>
        <time>2011-02-20T10:54:15Z</time>
      </trkpt>
      <trkpt lat="43.57705" lon="3.72941">
        <ele>94.2</ele>
        <time>2011-02-20T10:54:16Z</time>
      </trkpt>
      <trkpt lat="43.57701" lon="3.72935">
        <ele>93.9</ele>
        <time>2011-02-20T10:54:17Z</time>
      </trkpt>
      <trkpt lat="43.57697" lon="3.7293">
        <ele>93.7</ele>
        <time>2011-02-20T10:54:18Z</time>
      </trkpt>
      <trkpt lat="43.57692" lon="3.72925">
        <ele>93.6</ele>
        <time>2011-02-20T10:54:19Z</time>
      </trkpt>
      <trkpt lat="43.57687" lon="3.72921">
        <ele>93.5</ele>
        <time>2011-02-20T10:54:20Z</time>
      </trkpt>
      <trkpt lat="43.57682" lon="3.72917">
        <ele>93.4</ele>
        <time>2011-02-20T10:54:21Z</time>
      </trkpt>
      <trkpt lat="43.57676" lon="3.72912">
        <ele>93.3</ele>
        <time>2011-02-20T10:54:22Z</time>
      </trkpt>
      <trkpt lat="43.57671" lon="3.72907">
        <ele>93.3</ele>
        <time>2011-02-20T10:54:23Z</time>
      </trkpt>
      <trkpt lat="43.57666" lon="3.72902">
        <ele>93.2</ele>
        <time>2011-02-20T10:54:24Z</time>
      </trkpt>
      <trkpt lat="43.57662" lon="3.72897">
        <ele>93.2</ele>
        <time>2011-02-20T10:54:25Z</time>
      </trkpt>
      <trkpt lat="43.57658" lon="3.72892">
        <ele>93</ele>
        <time>2011-02-20T10:54:26Z</time>
      </trkpt>
      <trkpt lat="43.57655" lon="3.72886">
        <ele>92.9</ele>
        <time>2011-02-20T10:54:27Z</time>
      </trkpt>
      <trkpt lat="43.57652" lon="3.7288">
        <ele>92.8</ele>
        <time>2011-02-20T10:54:28Z</time>
      </trkpt>
      <trkpt lat="43.57648" lon="3.72874">
        <ele>91.9</ele>
        <time>2011-02-20T10:54:29Z</time>
      </trkpt>
      <trkpt lat="43.57645" lon="3.72868">
        <ele>91.2</ele>
        <time>2011-02-20T10:54:30Z</time>
      </trkpt>
      <trkpt lat="43.57643" lon="3.72858">
        <ele>89.7</ele>
        <time>2011-02-20T10:54:32Z</time>
      </trkpt>
      <trkpt lat="43.57643" lon="3.72846">
        <ele>88.6</ele>
        <time>2011-02-20T10:54:34Z</time>
      </trkpt>
      <trkpt lat="43.57643" lon="3.72838">
        <ele>87.2</ele>
        <time>2011-02-20T10:54:35Z</time>
      </trkpt>
      <trkpt lat="43.57642" lon="3.72831">
        <ele>86.1</ele>
        <time>2011-02-20T10:54:36Z</time>
      </trkpt>
      <trkpt lat="43.57639" lon="3.72827">
        <ele>85.3</ele>
        <time>2011-02-20T10:54:37Z</time>
      </trkpt>
      <trkpt lat="43.57635" lon="3.72822">
        <ele>84.7</ele>
        <time>2011-02-20T10:54:38Z</time>
      </trkpt>
      <trkpt lat="43.57631" lon="3.72816">
        <ele>84.1</ele>
        <time>2011-02-20T10:54:39Z</time>
      </trkpt>
      <trkpt lat="43.57627" lon="3.72811">
        <ele>83.6</ele>
        <time>2011-02-20T10:54:40Z</time>
      </trkpt>
      <trkpt lat="43.57623" lon="3.72806">
        <ele>83.2</ele>
        <time>2011-02-20T10:54:41Z</time>
      </trkpt>
      <trkpt lat="43.57618" lon="3.728">
        <ele>81.7</ele>
        <time>2011-02-20T10:54:42Z</time>
      </trkpt>
      <trkpt lat="43.57614" lon="3.72793">
        <ele>80.6</ele>
        <time>2011-02-20T10:54:43Z</time>
      </trkpt>
      <trkpt lat="43.57608" lon="3.7279">
        <ele>79.7</ele>
        <time>2011-02-20T10:54:44Z</time>
      </trkpt>
      <trkpt lat="43.57602" lon="3.72787">
        <ele>78.6</ele>
        <time>2011-02-20T10:54:45Z</time>
      </trkpt>
      <trkpt lat="43.57596" lon="3.72783">
        <ele>77.8</ele>
        <time>2011-02-20T10:54:46Z</time>
      </trkpt>
      <trkpt lat="43.57591" lon="3.72779">
        <ele>77.2</ele>
        <time>2011-02-20T10:54:47Z</time>
      </trkpt>
      <trkpt lat="43.57586" lon="3.72775">
        <ele>76.6</ele>
        <time>2011-02-20T10:54:48Z</time>
      </trkpt>
      <trkpt lat="43.57582" lon="3.7277">
        <ele>76.2</ele>
        <time>2011-02-20T10:54:49Z</time>
      </trkpt>
      <trkpt lat="43.57577" lon="3.72765">
        <ele>75.9</ele>
        <time>2011-02-20T10:54:50Z</time>
      </trkpt>
      <trkpt lat="43.57571" lon="3.72761">
        <ele>75.1</ele>
        <time>2011-02-20T10:54:51Z</time>
      </trkpt>
      <trkpt lat="43.57566" lon="3.72757">
        <ele>74.6</ele>
        <time>2011-02-20T10:54:52Z</time>
      </trkpt>
      <trkpt lat="43.5756" lon="3.72752">
        <ele>74.1</ele>
        <time>2011-02-20T10:54:53Z</time>
      </trkpt>
      <trkpt lat="43.57554" lon="3.72748">
        <ele>73.8</ele>
        <time>2011-02-20T10:54:54Z</time>
      </trkpt>
      <trkpt lat="43.57549" lon="3.72743">
        <ele>73.5</ele>
        <time>2011-02-20T10:54:55Z</time>
      </trkpt>
      <trkpt lat="43.57545" lon="3.72737">
        <ele>73.3</ele>
        <time>2011-02-20T10:54:56Z</time>
      </trkpt>
      <trkpt lat="43.57543" lon="3.7273">
        <ele>73.1</ele>
        <time>2011-02-20T10:54:57Z</time>
      </trkpt>
      <trkpt lat="43.57536" lon="3.72725">
        <ele>72.5</ele>
        <time>2011-02-20T10:54:59Z</time>
      </trkpt>
      <trkpt lat="43.57529" lon="3.72729">
        <ele>72.3</ele>
        <time>2011-02-20T10:55:01Z</time>
      </trkpt>
      <trkpt lat="43.57524" lon="3.72738">
        <ele>72.3</ele>
        <time>2011-02-20T10:55:03Z</time>
      </trkpt>
      <trkpt lat="43.57519" lon="3.72749">
        <ele>71.9</ele>
        <time>2011-02-20T10:55:05Z</time>
      </trkpt>
      <trkpt lat="43.57514" lon="3.72759">
        <ele>71.6</ele>
        <time>2011-02-20T10:55:07Z</time>
      </trkpt>
      <trkpt lat="43.57509" lon="3.72768">
        <ele>71.5</ele>
        <time>2011-02-20T10:55:09Z</time>
      </trkpt>
      <trkpt lat="43.57502" lon="3.72773">
        <ele>71.6</ele>
        <time>2011-02-20T10:55:11Z</time>
      </trkpt>
      <trkpt lat="43.57496" lon="3.72777">
        <ele>71.8</ele>
        <time>2011-02-20T10:55:13Z</time>
      </trkpt>
      <trkpt lat="43.57491" lon="3.72783">
        <ele>71.5</ele>
        <time>2011-02-20T10:55:15Z</time>
      </trkpt>
      <trkpt lat="43.57486" lon="3.72789">
        <ele>71.3</ele>
        <time>2011-02-20T10:55:17Z</time>
      </trkpt>
      <trkpt lat="43.5748" lon="3.72793">
        <ele>71.1</ele>
        <time>2011-02-20T10:55:19Z</time>
      </trkpt>
      <trkpt lat="43.57476" lon="3.72795">
        <ele>71.1</ele>
        <time>2011-02-20T10:55:20Z</time>
      </trkpt>
      <trkpt lat="43.57471" lon="3.72797">
        <ele>71.1</ele>
        <time>2011-02-20T10:55:21Z</time>
      </trkpt>
      <trkpt lat="43.57466" lon="3.72799">
        <ele>71.1</ele>
        <time>2011-02-20T10:55:22Z</time>
      </trkpt>
      <trkpt lat="43.57461" lon="3.72802">
        <ele>71</ele>
        <time>2011-02-20T10:55:23Z</time>
      </trkpt>
      <trkpt lat="43.57457" lon="3.72805">
        <ele>70.9</ele>
        <time>2011-02-20T10:55:24Z</time>
      </trkpt>
      <trkpt lat="43.5745" lon="3.72811">
        <ele>70.7</ele>
        <time>2011-02-20T10:55:26Z</time>
      </trkpt>
      <trkpt lat="43.57442" lon="3.72817">
        <ele>70.2</ele>
        <time>2011-02-20T10:55:28Z</time>
      </trkpt>
      <trkpt lat="43.57434" lon="3.72823">
        <ele>70.1</ele>
        <time>2011-02-20T10:55:30Z</time>
      </trkpt>
      <trkpt lat="43.57426" lon="3.72828">
        <ele>70.1</ele>
        <time>2011-02-20T10:55:32Z</time>
      </trkpt>
      <trkpt lat="43.57422" lon="3.72831">
        <ele>70.3</ele>
        <time>2011-02-20T10:55:33Z</time>
      </trkpt>
      <trkpt lat="43.57418" lon="3.72833">
        <ele>70.4</ele>
        <time>2011-02-20T10:55:34Z</time>
      </trkpt>
      <trkpt lat="43.57413" lon="3.72836">
        <ele>70.5</ele>
        <time>2011-02-20T10:55:35Z</time>
      </trkpt>
      <trkpt lat="43.57409" lon="3.72839">
        <ele>70.3</ele>
        <time>2011-02-20T10:55:36Z</time>
      </trkpt>
      <trkpt lat="43.57404" lon="3.72843">
        <ele>70.2</ele>
        <time>2011-02-20T10:55:37Z</time>
      </trkpt>
      <trkpt lat="43.574" lon="3.72846">
        <ele>70.2</ele>
        <time>2011-02-20T10:55:38Z</time>
      </trkpt>
      <trkpt lat="43.57395" lon="3.72849">
        <ele>69.8</ele>
        <time>2011-02-20T10:55:39Z</time>
      </trkpt>
      <trkpt lat="43.57391" lon="3.72854">
        <ele>69.5</ele>
        <time>2011-02-20T10:55:40Z</time>
      </trkpt>
      <trkpt lat="43.57387" lon="3.72858">
        <ele>69.3</ele>
        <time>2011-02-20T10:55:41Z</time>
      </trkpt>
      <trkpt lat="43.57382" lon="3.72863">
        <ele>69.2</ele>
        <time>2011-02-20T10:55:42Z</time>
      </trkpt>
      <trkpt lat="43.57378" lon="3.72868">
        <ele>69.1</ele>
        <time>2011-02-20T10:55:43Z</time>
      </trkpt>
      <trkpt lat="43.57373" lon="3.72872">
        <ele>69</ele>
        <time>2011-02-20T10:55:44Z</time>
      </trkpt>
      <trkpt lat="43.57369" lon="3.72877">
        <ele>69</ele>
        <time>2011-02-20T10:55:45Z</time>
      </trkpt>
      <trkpt lat="43.57364" lon="3.72882">
        <ele>68.6</ele>
        <time>2011-02-20T10:55:46Z</time>
      </trkpt>
      <trkpt lat="43.5736" lon="3.72888">
        <ele>68.3</ele>
        <time>2011-02-20T10:55:47Z</time>
      </trkpt>
      <trkpt lat="43.57356" lon="3.72894">
        <ele>68.1</ele>
        <time>2011-02-20T10:55:48Z</time>
      </trkpt>
      <trkpt lat="43.57353" lon="3.729">
        <ele>68.1</ele>
        <time>2011-02-20T10:55:49Z</time>
      </trkpt>
      <trkpt lat="43.57349" lon="3.72907">
        <ele>68.1</ele>
        <time>2011-02-20T10:55:50Z</time>
      </trkpt>
      <trkpt lat="43.57345" lon="3.72914">
        <ele>68</ele>
        <time>2011-02-20T10:55:51Z</time>
      </trkpt>
      <trkpt lat="43.57342" lon="3.72921">
        <ele>68</ele>
        <time>2011-02-20T10:55:52Z</time>
      </trkpt>
      <trkpt lat="43.57338" lon="3.72927">
        <ele>67.9</ele>
        <time>2011-02-20T10:55:53Z</time>
      </trkpt>
      <trkpt lat="43.57334" lon="3.72932">
        <ele>67.9</ele>
        <time>2011-02-20T10:55:54Z</time>
      </trkpt>
      <trkpt lat="43.5733" lon="3.72938">
        <ele>67.6</ele>
        <time>2011-02-20T10:55:55Z</time>
      </trkpt>
      <trkpt lat="43.57327" lon="3.72943">
        <ele>67.4</ele>
        <time>2011-02-20T10:55:56Z</time>
      </trkpt>
      <trkpt lat="43.57323" lon="3.72948">
        <ele>67.3</ele>
        <time>2011-02-20T10:55:57Z</time>
      </trkpt>
      <trkpt lat="43.5732" lon="3.72955">
        <ele>67.6</ele>
        <time>2011-02-20T10:55:58Z</time>
      </trkpt>
      <trkpt lat="43.57318" lon="3.72963">
        <ele>67.8</ele>
        <time>2011-02-20T10:55:59Z</time>
      </trkpt>
      <trkpt lat="43.57318" lon="3.72971">
        <ele>68</ele>
        <time>2011-02-20T10:56:00Z</time>
      </trkpt>
      <trkpt lat="43.5732" lon="3.72979">
        <ele>68.1</ele>
        <time>2011-02-20T10:56:01Z</time>
      </trkpt>
      <trkpt lat="43.57322" lon="3.72987">
        <ele>67.4</ele>
        <time>2011-02-20T10:56:02Z</time>
      </trkpt>
      <trkpt lat="43.57324" lon="3.72996">
        <ele>66.8</ele>
        <time>2011-02-20T10:56:03Z</time>
      </trkpt>
      <trkpt lat="43.57325" lon="3.73004">
        <ele>66.4</ele>
        <time>2011-02-20T10:56:04Z</time>
      </trkpt>
      <trkpt lat="43.57327" lon="3.73012">
        <ele>65.9</ele>
        <time>2011-02-20T10:56:05Z</time>
      </trkpt>
      <trkpt lat="43.57327" lon="3.73021">
        <ele>65.4</ele>
        <time>2011-02-20T10:56:06Z</time>
      </trkpt>
      <trkpt lat="43.57328" lon="3.73029">
        <ele>65.1</ele>
        <time>2011-02-20T10:56:07Z</time>
      </trkpt>
      <trkpt lat="43.57329" lon="3.73038">
        <ele>64.6</ele>
        <time>2011-02-20T10:56:08Z</time>
      </trkpt>
      <trkpt lat="43.57331" lon="3.73046">
        <ele>64.2</ele>
        <time>2011-02-20T10:56:09Z</time>
      </trkpt>
      <trkpt lat="43.57333" lon="3.73054">
        <ele>64</ele>
        <time>2011-02-20T10:56:10Z</time>
      </trkpt>
      <trkpt lat="43.57336" lon="3.73062">
        <ele>63.5</ele>
        <time>2011-02-20T10:56:11Z</time>
      </trkpt>
      <trkpt lat="43.57338" lon="3.7307">
        <ele>63.2</ele>
        <time>2011-02-20T10:56:12Z</time>
      </trkpt>
      <trkpt lat="43.57341" lon="3.73077">
        <ele>62.9</ele>
        <time>2011-02-20T10:56:13Z</time>
      </trkpt>
      <trkpt lat="43.57344" lon="3.73084">
        <ele>63</ele>
        <time>2011-02-20T10:56:14Z</time>
      </trkpt>
      <trkpt lat="43.57347" lon="3.73091">
        <ele>63</ele>
        <time>2011-02-20T10:56:15Z</time>
      </trkpt>
      <trkpt lat="43.57349" lon="3.73098">
        <ele>63.1</ele>
        <time>2011-02-20T10:56:16Z</time>
      </trkpt>
      <trkpt lat="43.57352" lon="3.73106">
        <ele>63.1</ele>
        <time>2011-02-20T10:56:17Z</time>
      </trkpt>
      <trkpt lat="43.57354" lon="3.73113">
        <ele>63.1</ele>
        <time>2011-02-20T10:56:18Z</time>
      </trkpt>
      <trkpt lat="43.57357" lon="3.73121">
        <ele>63.1</ele>
        <time>2011-02-20T10:56:19Z</time>
      </trkpt>
      <trkpt lat="43.57359" lon="3.73129">
        <ele>63.1</ele>
        <time>2011-02-20T10:56:20Z</time>
      </trkpt>
      <trkpt lat="43.57361" lon="3.73137">
        <ele>62.7</ele>
        <time>2011-02-20T10:56:21Z</time>
      </trkpt>
      <trkpt lat="43.57362" lon="3.73146">
        <ele>62.4</ele>
        <time>2011-02-20T10:56:22Z</time>
      </trkpt>
      <trkpt lat="43.57363" lon="3.73154">
        <ele>62.2</ele>
        <time>2011-02-20T10:56:23Z</time>
      </trkpt>
      <trkpt lat="43.57363" lon="3.73163">
        <ele>62.3</ele>
        <time>2011-02-20T10:56:24Z</time>
      </trkpt>
      <trkpt lat="43.57361" lon="3.73172">
        <ele>62.3</ele>
        <time>2011-02-20T10:56:25Z</time>
      </trkpt>
      <trkpt lat="43.57358" lon="3.7318">
        <ele>62.3</ele>
        <time>2011-02-20T10:56:26Z</time>
      </trkpt>
      <trkpt lat="43.57355" lon="3.73187">
        <ele>62.4</ele>
        <time>2011-02-20T10:56:27Z</time>
      </trkpt>
      <trkpt lat="43.57351" lon="3.73194">
        <ele>62.4</ele>
        <time>2011-02-20T10:56:28Z</time>
      </trkpt>
      <trkpt lat="43.57347" lon="3.73201">
        <ele>62.5</ele>
        <time>2011-02-20T10:56:29Z</time>
      </trkpt>
      <trkpt lat="43.57343" lon="3.73208">
        <ele>62.5</ele>
        <time>2011-02-20T10:56:30Z</time>
      </trkpt>
      <trkpt lat="43.57339" lon="3.73215">
        <ele>62.5</ele>
        <time>2011-02-20T10:56:31Z</time>
      </trkpt>
      <trkpt lat="43.57335" lon="3.73222">
        <ele>62.5</ele>
        <time>2011-02-20T10:56:32Z</time>
      </trkpt>
      <trkpt lat="43.57331" lon="3.7323">
        <ele>62.5</ele>
        <time>2011-02-20T10:56:33Z</time>
      </trkpt>
      <trkpt lat="43.57327" lon="3.73238">
        <ele>62</ele>
        <time>2011-02-20T10:56:34Z</time>
      </trkpt>
      <trkpt lat="43.57324" lon="3.73245">
        <ele>61.6</ele>
        <time>2011-02-20T10:56:35Z</time>
      </trkpt>
      <trkpt lat="43.5732" lon="3.73253">
        <ele>61.3</ele>
        <time>2011-02-20T10:56:36Z</time>
      </trkpt>
      <trkpt lat="43.57318" lon="3.73262">
        <ele>61.2</ele>
        <time>2011-02-20T10:56:37Z</time>
      </trkpt>
      <trkpt lat="43.57317" lon="3.73272">
        <ele>61.1</ele>
        <time>2011-02-20T10:56:38Z</time>
      </trkpt>
      <trkpt lat="43.57316" lon="3.73281">
        <ele>61</ele>
        <time>2011-02-20T10:56:39Z</time>
      </trkpt>
      <trkpt lat="43.57313" lon="3.7329">
        <ele>60.6</ele>
        <time>2011-02-20T10:56:40Z</time>
      </trkpt>
      <trkpt lat="43.57311" lon="3.73299">
        <ele>60.4</ele>
        <time>2011-02-20T10:56:41Z</time>
      </trkpt>
      <trkpt lat="43.57308" lon="3.73307">
        <ele>60.2</ele>
        <time>2011-02-20T10:56:42Z</time>
      </trkpt>
      <trkpt lat="43.57305" lon="3.73315">
        <ele>60.2</ele>
        <time>2011-02-20T10:56:43Z</time>
      </trkpt>
      <trkpt lat="43.57301" lon="3.73323">
        <ele>60.1</ele>
        <time>2011-02-20T10:56:44Z</time>
      </trkpt>
      <trkpt lat="43.57298" lon="3.73331">
        <ele>60.1</ele>
        <time>2011-02-20T10:56:45Z</time>
      </trkpt>
      <trkpt lat="43.57294" lon="3.73339">
        <ele>59.5</ele>
        <time>2011-02-20T10:56:46Z</time>
      </trkpt>
      <trkpt lat="43.5729" lon="3.73347">
        <ele>59</ele>
        <time>2011-02-20T10:56:47Z</time>
      </trkpt>
      <trkpt lat="43.57286" lon="3.73355">
        <ele>58.7</ele>
        <time>2011-02-20T10:56:48Z</time>
      </trkpt>
      <trkpt lat="43.57282" lon="3.73363">
        <ele>58.4</ele>
        <time>2011-02-20T10:56:49Z</time>
      </trkpt>
      <trkpt lat="43.57277" lon="3.73369">
        <ele>58.8</ele>
        <time>2011-02-20T10:56:50Z</time>
      </trkpt>
      <trkpt lat="43.57272" lon="3.73376">
        <ele>59.1</ele>
        <time>2011-02-20T10:56:51Z</time>
      </trkpt>
      <trkpt lat="43.57267" lon="3.73382">
        <ele>59.3</ele>
        <time>2011-02-20T10:56:52Z</time>
      </trkpt>
      <trkpt lat="43.57262" lon="3.73388">
        <ele>59.3</ele>
        <time>2011-02-20T10:56:53Z</time>
      </trkpt>
      <trkpt lat="43.57257" lon="3.73394">
        <ele>59.3</ele>
        <time>2011-02-20T10:56:54Z</time>
      </trkpt>
      <trkpt lat="43.57253" lon="3.73401">
        <ele>59.3</ele>
        <time>2011-02-20T10:56:55Z</time>
      </trkpt>
      <trkpt lat="43.57248" lon="3.73407">
        <ele>58.9</ele>
        <time>2011-02-20T10:56:56Z</time>
      </trkpt>
      <trkpt lat="43.57244" lon="3.73414">
        <ele>58.5</ele>
        <time>2011-02-20T10:56:57Z</time>
      </trkpt>
      <trkpt lat="43.5724" lon="3.73421">
        <ele>58.3</ele>
        <time>2011-02-20T10:56:58Z</time>
      </trkpt>
      <trkpt lat="43.57236" lon="3.73427">
        <ele>58.4</ele>
        <time>2011-02-20T10:56:59Z</time>
      </trkpt>
      <trkpt lat="43.57233" lon="3.73432">
        <ele>58.5</ele>
        <time>2011-02-20T10:57:00Z</time>
      </trkpt>
      <trkpt lat="43.57228" lon="3.7344">
        <ele>58.7</ele>
        <time>2011-02-20T10:57:02Z</time>
      </trkpt>
      <trkpt lat="43.57221" lon="3.73447">
        <ele>58.9</ele>
        <time>2011-02-20T10:57:05Z</time>
      </trkpt>
      <trkpt lat="43.57212" lon="3.73448">
        <ele>59.2</ele>
        <time>2011-02-20T10:57:08Z</time>
      </trkpt>
      <trkpt lat="43.57206" lon="3.73447">
        <ele>59.1</ele>
        <time>2011-02-20T10:57:10Z</time>
      </trkpt>
      <trkpt lat="43.572" lon="3.73444">
        <ele>59</ele>
        <time>2011-02-20T10:57:12Z</time>
      </trkpt>
      <trkpt lat="43.57193" lon="3.73441">
        <ele>58.8</ele>
        <time>2011-02-20T10:57:14Z</time>
      </trkpt>
      <trkpt lat="43.57187" lon="3.73435">
        <ele>59</ele>
        <time>2011-02-20T10:57:16Z</time>
      </trkpt>
      <trkpt lat="43.57179" lon="3.73431">
        <ele>60</ele>
        <time>2011-02-20T10:57:19Z</time>
      </trkpt>
      <trkpt lat="43.57177" lon="3.73442">
        <ele>61</ele>
        <time>2011-02-20T10:59:00Z</time>
      </trkpt>
      <trkpt lat="43.57178" lon="3.73444">
        <ele>61</ele>
        <time>2011-02-20T10:59:01Z</time>
      </trkpt>
      <trkpt lat="43.57186" lon="3.73459">
        <ele>61.7</ele>
        <time>2011-02-20T10:59:08Z</time>
      </trkpt>
      <trkpt lat="43.57191" lon="3.73468">
        <ele>61.4</ele>
        <time>2011-02-20T10:59:11Z</time>
      </trkpt>
      <trkpt lat="43.57196" lon="3.73477">
        <ele>60.7</ele>
        <time>2011-02-20T10:59:14Z</time>
      </trkpt>
      <trkpt lat="43.57201" lon="3.73484">
        <ele>60.7</ele>
        <time>2011-02-20T10:59:16Z</time>
      </trkpt>
      <trkpt lat="43.57204" lon="3.73491">
        <ele>61</ele>
        <time>2011-02-20T10:59:18Z</time>
      </trkpt>
      <trkpt lat="43.57208" lon="3.73498">
        <ele>60.9</ele>
        <time>2011-02-20T10:59:20Z</time>
      </trkpt>
      <trkpt lat="43.57211" lon="3.73505">
        <ele>60.5</ele>
        <time>2011-02-20T10:59:22Z</time>
      </trkpt>
      <trkpt lat="43.57215" lon="3.73512">
        <ele>60.7</ele>
        <time>2011-02-20T10:59:24Z</time>
      </trkpt>
      <trkpt lat="43.5722" lon="3.7352">
        <ele>60.9</ele>
        <time>2011-02-20T10:59:26Z</time>
      </trkpt>
      <trkpt lat="43.57225" lon="3.73527">
        <ele>61.1</ele>
        <time>2011-02-20T10:59:28Z</time>
      </trkpt>
      <trkpt lat="43.57231" lon="3.73534">
        <ele>61</ele>
        <time>2011-02-20T10:59:30Z</time>
      </trkpt>
      <trkpt lat="43.57235" lon="3.73543">
        <ele>60.7</ele>
        <time>2011-02-20T10:59:32Z</time>
      </trkpt>
      <trkpt lat="43.57239" lon="3.73551">
        <ele>60.3</ele>
        <time>2011-02-20T10:59:34Z</time>
      </trkpt>
      <trkpt lat="43.57243" lon="3.73559">
        <ele>60.3</ele>
        <time>2011-02-20T10:59:36Z</time>
      </trkpt>
      <trkpt lat="43.57248" lon="3.73568">
        <ele>60.3</ele>
        <time>2011-02-20T10:59:38Z</time>
      </trkpt>
      <trkpt lat="43.57253" lon="3.73578">
        <ele>60.1</ele>
        <time>2011-02-20T10:59:40Z</time>
      </trkpt>
      <trkpt lat="43.57257" lon="3.73587">
        <ele>59.9</ele>
        <time>2011-02-20T10:59:42Z</time>
      </trkpt>
      <trkpt lat="43.57262" lon="3.73597">
        <ele>59.7</ele>
        <time>2011-02-20T10:59:44Z</time>
      </trkpt>
      <trkpt lat="43.57268" lon="3.73607">
        <ele>60</ele>
        <time>2011-02-20T10:59:46Z</time>
      </trkpt>
      <trkpt lat="43.5727" lon="3.73611">
        <ele>60.1</ele>
        <time>2011-02-20T10:59:47Z</time>
      </trkpt>
      <trkpt lat="43.57273" lon="3.73616">
        <ele>60.2</ele>
        <time>2011-02-20T10:59:48Z</time>
      </trkpt>
      <trkpt lat="43.57276" lon="3.73622">
        <ele>60.2</ele>
        <time>2011-02-20T10:59:49Z</time>
      </trkpt>
      <trkpt lat="43.57279" lon="3.73627">
        <ele>60.3</ele>
        <time>2011-02-20T10:59:50Z</time>
      </trkpt>
      <trkpt lat="43.57282" lon="3.73632">
        <ele>60.5</ele>
        <time>2011-02-20T10:59:51Z</time>
      </trkpt>
      <trkpt lat="43.57285" lon="3.73638">
        <ele>60.7</ele>
        <time>2011-02-20T10:59:52Z</time>
      </trkpt>
      <trkpt lat="43.57287" lon="3.73643">
        <ele>60.9</ele>
        <time>2011-02-20T10:59:53Z</time>
      </trkpt>
      <trkpt lat="43.5729" lon="3.73649">
        <ele>61</ele>
        <time>2011-02-20T10:59:54Z</time>
      </trkpt>
      <trkpt lat="43.57293" lon="3.73654">
        <ele>61.1</ele>
        <time>2011-02-20T10:59:55Z</time>
      </trkpt>
      <trkpt lat="43.57296" lon="3.73659">
        <ele>61.1</ele>
        <time>2011-02-20T10:59:56Z</time>
      </trkpt>
      <trkpt lat="43.57299" lon="3.73665">
        <ele>61.1</ele>
        <time>2011-02-20T10:59:57Z</time>
      </trkpt>
      <trkpt lat="43.57302" lon="3.7367">
        <ele>60.7</ele>
        <time>2011-02-20T10:59:58Z</time>
      </trkpt>
      <trkpt lat="43.57305" lon="3.73676">
        <ele>60.4</ele>
        <time>2011-02-20T10:59:59Z</time>
      </trkpt>
      <trkpt lat="43.57308" lon="3.73681">
        <ele>60.1</ele>
        <time>2011-02-20T11:00:00Z</time>
      </trkpt>
      <trkpt lat="43.57311" lon="3.73687">
        <ele>60.5</ele>
        <time>2011-02-20T11:00:01Z</time>
      </trkpt>
      <trkpt lat="43.57314" lon="3.73692">
        <ele>60.8</ele>
        <time>2011-02-20T11:00:02Z</time>
      </trkpt>
      <trkpt lat="43.57317" lon="3.73697">
        <ele>61</ele>
        <time>2011-02-20T11:00:03Z</time>
      </trkpt>
      <trkpt lat="43.5732" lon="3.73703">
        <ele>61.1</ele>
        <time>2011-02-20T11:00:04Z</time>
      </trkpt>
      <trkpt lat="43.57323" lon="3.73708">
        <ele>61.1</ele>
        <time>2011-02-20T11:00:05Z</time>
      </trkpt>
      <trkpt lat="43.57326" lon="3.73714">
        <ele>61.1</ele>
        <time>2011-02-20T11:00:06Z</time>
      </trkpt>
      <trkpt lat="43.57329" lon="3.73719">
        <ele>61</ele>
        <time>2011-02-20T11:00:07Z</time>
      </trkpt>
      <trkpt lat="43.57331" lon="3.73724">
        <ele>61</ele>
        <time>2011-02-20T11:00:08Z</time>
      </trkpt>
      <trkpt lat="43.57334" lon="3.7373">
        <ele>60.9</ele>
        <time>2011-02-20T11:00:09Z</time>
      </trkpt>
      <trkpt lat="43.57337" lon="3.73735">
        <ele>60.9</ele>
        <time>2011-02-20T11:00:10Z</time>
      </trkpt>
      <trkpt lat="43.5734" lon="3.7374">
        <ele>60.6</ele>
        <time>2011-02-20T11:00:11Z</time>
      </trkpt>
      <trkpt lat="43.57343" lon="3.73746">
        <ele>60.4</ele>
        <time>2011-02-20T11:00:12Z</time>
      </trkpt>
      <trkpt lat="43.57346" lon="3.73751">
        <ele>60.2</ele>
        <time>2011-02-20T11:00:13Z</time>
      </trkpt>
      <trkpt lat="43.57349" lon="3.73756">
        <ele>60</ele>
        <time>2011-02-20T11:00:14Z</time>
      </trkpt>
      <trkpt lat="43.57352" lon="3.73761">
        <ele>59.9</ele>
        <time>2011-02-20T11:00:15Z</time>
      </trkpt>
      <trkpt lat="43.57355" lon="3.73767">
        <ele>59.8</ele>
        <time>2011-02-20T11:00:16Z</time>
      </trkpt>
      <trkpt lat="43.57359" lon="3.73772">
        <ele>59.7</ele>
        <time>2011-02-20T11:00:17Z</time>
      </trkpt>
      <trkpt lat="43.57362" lon="3.73777">
        <ele>59.6</ele>
        <time>2011-02-20T11:00:18Z</time>
      </trkpt>
      <trkpt lat="43.57365" lon="3.73782">
        <ele>59.5</ele>
        <time>2011-02-20T11:00:19Z</time>
      </trkpt>
      <trkpt lat="43.57368" lon="3.73788">
        <ele>59.7</ele>
        <time>2011-02-20T11:00:20Z</time>
      </trkpt>
      <trkpt lat="43.57371" lon="3.73793">
        <ele>59.9</ele>
        <time>2011-02-20T11:00:21Z</time>
      </trkpt>
      <trkpt lat="43.57374" lon="3.73799">
        <ele>60</ele>
        <time>2011-02-20T11:00:22Z</time>
      </trkpt>
      <trkpt lat="43.57377" lon="3.73805">
        <ele>60.3</ele>
        <time>2011-02-20T11:00:23Z</time>
      </trkpt>
      <trkpt lat="43.5738" lon="3.7381">
        <ele>60.5</ele>
        <time>2011-02-20T11:00:24Z</time>
      </trkpt>
      <trkpt lat="43.57384" lon="3.73816">
        <ele>60.6</ele>
        <time>2011-02-20T11:00:25Z</time>
      </trkpt>
      <trkpt lat="43.57387" lon="3.73821">
        <ele>60.7</ele>
        <time>2011-02-20T11:00:26Z</time>
      </trkpt>
      <trkpt lat="43.5739" lon="3.73827">
        <ele>60.5</ele>
        <time>2011-02-20T11:00:27Z</time>
      </trkpt>
      <trkpt lat="43.57393" lon="3.73833">
        <ele>60.3</ele>
        <time>2011-02-20T11:00:28Z</time>
      </trkpt>
      <trkpt lat="43.57396" lon="3.73838">
        <ele>60.2</ele>
        <time>2011-02-20T11:00:29Z</time>
      </trkpt>
      <trkpt lat="43.57399" lon="3.73844">
        <ele>60.4</ele>
        <time>2011-02-20T11:00:30Z</time>
      </trkpt>
      <trkpt lat="43.57402" lon="3.73849">
        <ele>60.6</ele>
        <time>2011-02-20T11:00:31Z</time>
      </trkpt>
      <trkpt lat="43.57405" lon="3.73855">
        <ele>60.7</ele>
        <time>2011-02-20T11:00:32Z</time>
      </trkpt>
      <trkpt lat="43.57408" lon="3.73861">
        <ele>60.1</ele>
        <time>2011-02-20T11:00:33Z</time>
      </trkpt>
      <trkpt lat="43.57411" lon="3.73866">
        <ele>59.7</ele>
        <time>2011-02-20T11:00:34Z</time>
      </trkpt>
      <trkpt lat="43.57414" lon="3.73872">
        <ele>59.3</ele>
        <time>2011-02-20T11:00:35Z</time>
      </trkpt>
      <trkpt lat="43.57418" lon="3.73877">
        <ele>59.3</ele>
        <time>2011-02-20T11:00:36Z</time>
      </trkpt>
      <trkpt lat="43.57421" lon="3.73883">
        <ele>59.2</ele>
        <time>2011-02-20T11:00:37Z</time>
      </trkpt>
      <trkpt lat="43.57424" lon="3.73888">
        <ele>59.2</ele>
        <time>2011-02-20T11:00:38Z</time>
      </trkpt>
      <trkpt lat="43.57427" lon="3.73894">
        <ele>59</ele>
        <time>2011-02-20T11:00:39Z</time>
      </trkpt>
      <trkpt lat="43.5743" lon="3.73899">
        <ele>58.8</ele>
        <time>2011-02-20T11:00:40Z</time>
      </trkpt>
      <trkpt lat="43.57433" lon="3.73905">
        <ele>58.7</ele>
        <time>2011-02-20T11:00:41Z</time>
      </trkpt>
      <trkpt lat="43.57436" lon="3.7391">
        <ele>58.6</ele>
        <time>2011-02-20T11:00:42Z</time>
      </trkpt>
      <trkpt lat="43.57439" lon="3.73916">
        <ele>58.7</ele>
        <time>2011-02-20T11:00:43Z</time>
      </trkpt>
      <trkpt lat="43.57442" lon="3.73922">
        <ele>58.7</ele>
        <time>2011-02-20T11:00:44Z</time>
      </trkpt>
      <trkpt lat="43.57445" lon="3.73928">
        <ele>58.8</ele>
        <time>2011-02-20T11:00:45Z</time>
      </trkpt>
      <trkpt lat="43.57448" lon="3.73934">
        <ele>59.2</ele>
        <time>2011-02-20T11:00:46Z</time>
      </trkpt>
      <trkpt lat="43.57452" lon="3.73939">
        <ele>59.5</ele>
        <time>2011-02-20T11:00:47Z</time>
      </trkpt>
      <trkpt lat="43.57455" lon="3.73944">
        <ele>59.7</ele>
        <time>2011-02-20T11:00:48Z</time>
      </trkpt>
      <trkpt lat="43.57459" lon="3.7395">
        <ele>59.8</ele>
        <time>2011-02-20T11:00:49Z</time>
      </trkpt>
      <trkpt lat="43.57462" lon="3.73955">
        <ele>59.8</ele>
        <time>2011-02-20T11:00:50Z</time>
      </trkpt>
      <trkpt lat="43.57466" lon="3.7396">
        <ele>59.8</ele>
        <time>2011-02-20T11:00:51Z</time>
      </trkpt>
      <trkpt lat="43.57469" lon="3.73965">
        <ele>60.1</ele>
        <time>2011-02-20T11:00:52Z</time>
      </trkpt>
      <trkpt lat="43.57473" lon="3.7397">
        <ele>60.3</ele>
        <time>2011-02-20T11:00:53Z</time>
      </trkpt>
      <trkpt lat="43.57477" lon="3.73975">
        <ele>60.5</ele>
        <time>2011-02-20T11:00:54Z</time>
      </trkpt>
      <trkpt lat="43.57481" lon="3.7398">
        <ele>60.2</ele>
        <time>2011-02-20T11:00:55Z</time>
      </trkpt>
      <trkpt lat="43.57484" lon="3.73985">
        <ele>59.9</ele>
        <time>2011-02-20T11:00:56Z</time>
      </trkpt>
      <trkpt lat="43.57488" lon="3.7399">
        <ele>59.7</ele>
        <time>2011-02-20T11:00:57Z</time>
      </trkpt>
      <trkpt lat="43.57492" lon="3.73995">
        <ele>59.8</ele>
        <time>2011-02-20T11:00:58Z</time>
      </trkpt>
      <trkpt lat="43.57496" lon="3.74">
        <ele>59.8</ele>
        <time>2011-02-20T11:00:59Z</time>
      </trkpt>
      <trkpt lat="43.57499" lon="3.74004">
        <ele>59.8</ele>
        <time>2011-02-20T11:01:00Z</time>
      </trkpt>
      <trkpt lat="43.57503" lon="3.74009">
        <ele>59.8</ele>
        <time>2011-02-20T11:01:01Z</time>
      </trkpt>
      <trkpt lat="43.57507" lon="3.74014">
        <ele>59.7</ele>
        <time>2011-02-20T11:01:02Z</time>
      </trkpt>
      <trkpt lat="43.57511" lon="3.74018">
        <ele>59.5</ele>
        <time>2011-02-20T11:01:03Z</time>
      </trkpt>
      <trkpt lat="43.57515" lon="3.74023">
        <ele>59.4</ele>
        <time>2011-02-20T11:01:04Z</time>
      </trkpt>
      <trkpt lat="43.57519" lon="3.74027">
        <ele>59.3</ele>
        <time>2011-02-20T11:01:05Z</time>
      </trkpt>
      <trkpt lat="43.57522" lon="3.74032">
        <ele>59.3</ele>
        <time>2011-02-20T11:01:06Z</time>
      </trkpt>
      <trkpt lat="43.57526" lon="3.74037">
        <ele>59.2</ele>
        <time>2011-02-20T11:01:07Z</time>
      </trkpt>
      <trkpt lat="43.5753" lon="3.74041">
        <ele>59.4</ele>
        <time>2011-02-20T11:01:08Z</time>
      </trkpt>
      <trkpt lat="43.57534" lon="3.74046">
        <ele>59.5</ele>
        <time>2011-02-20T11:01:09Z</time>
      </trkpt>
      <trkpt lat="43.57538" lon="3.7405">
        <ele>59.6</ele>
        <time>2011-02-20T11:01:10Z</time>
      </trkpt>
      <trkpt lat="43.57543" lon="3.74054">
        <ele>60.1</ele>
        <time>2011-02-20T11:01:11Z</time>
      </trkpt>
      <trkpt lat="43.57547" lon="3.74059">
        <ele>60.4</ele>
        <time>2011-02-20T11:01:12Z</time>
      </trkpt>
      <trkpt lat="43.57551" lon="3.74063">
        <ele>60.7</ele>
        <time>2011-02-20T11:01:13Z</time>
      </trkpt>
      <trkpt lat="43.57554" lon="3.74068">
        <ele>60.1</ele>
        <time>2011-02-20T11:01:14Z</time>
      </trkpt>
      <trkpt lat="43.57559" lon="3.74072">
        <ele>59.7</ele>
        <time>2011-02-20T11:01:15Z</time>
      </trkpt>
      <trkpt lat="43.57563" lon="3.74077">
        <ele>59.4</ele>
        <time>2011-02-20T11:01:16Z</time>
      </trkpt>
      <trkpt lat="43.57567" lon="3.74081">
        <ele>59.1</ele>
        <time>2011-02-20T11:01:17Z</time>
      </trkpt>
      <trkpt lat="43.57571" lon="3.74086">
        <ele>59.3</ele>
        <time>2011-02-20T11:01:18Z</time>
      </trkpt>
      <trkpt lat="43.57575" lon="3.7409">
        <ele>59.4</ele>
        <time>2011-02-20T11:01:19Z</time>
      </trkpt>
      <trkpt lat="43.57579" lon="3.74095">
        <ele>59.4</ele>
        <time>2011-02-20T11:01:20Z</time>
      </trkpt>
      <trkpt lat="43.57584" lon="3.741">
        <ele>59.5</ele>
        <time>2011-02-20T11:01:21Z</time>
      </trkpt>
      <trkpt lat="43.57588" lon="3.74104">
        <ele>59.6</ele>
        <time>2011-02-20T11:01:22Z</time>
      </trkpt>
      <trkpt lat="43.57592" lon="3.74109">
        <ele>59.6</ele>
        <time>2011-02-20T11:01:23Z</time>
      </trkpt>
      <trkpt lat="43.57596" lon="3.74114">
        <ele>59.6</ele>
        <time>2011-02-20T11:01:24Z</time>
      </trkpt>
      <trkpt lat="43.57601" lon="3.74118">
        <ele>59.5</ele>
        <time>2011-02-20T11:01:25Z</time>
      </trkpt>
      <trkpt lat="43.57605" lon="3.74123">
        <ele>59.5</ele>
        <time>2011-02-20T11:01:26Z</time>
      </trkpt>
      <trkpt lat="43.57609" lon="3.74128">
        <ele>60</ele>
        <time>2011-02-20T11:01:27Z</time>
      </trkpt>
      <trkpt lat="43.57614" lon="3.74133">
        <ele>60.3</ele>
        <time>2011-02-20T11:01:28Z</time>
      </trkpt>
      <trkpt lat="43.57618" lon="3.74137">
        <ele>60.5</ele>
        <time>2011-02-20T11:01:29Z</time>
      </trkpt>
      <trkpt lat="43.57622" lon="3.74142">
        <ele>60.9</ele>
        <time>2011-02-20T11:01:30Z</time>
      </trkpt>
      <trkpt lat="43.57626" lon="3.74147">
        <ele>61.1</ele>
        <time>2011-02-20T11:01:31Z</time>
      </trkpt>
      <trkpt lat="43.5763" lon="3.74152">
        <ele>61.3</ele>
        <time>2011-02-20T11:01:32Z</time>
      </trkpt>
      <trkpt lat="43.57635" lon="3.74157">
        <ele>61.4</ele>
        <time>2011-02-20T11:01:33Z</time>
      </trkpt>
      <trkpt lat="43.57639" lon="3.74161">
        <ele>61.2</ele>
        <time>2011-02-20T11:01:34Z</time>
      </trkpt>
      <trkpt lat="43.57643" lon="3.74166">
        <ele>61</ele>
        <time>2011-02-20T11:01:35Z</time>
      </trkpt>
      <trkpt lat="43.57648" lon="3.74171">
        <ele>60.9</ele>
        <time>2011-02-20T11:01:36Z</time>
      </trkpt>
      <trkpt lat="43.57652" lon="3.74175">
        <ele>60.6</ele>
        <time>2011-02-20T11:01:37Z</time>
      </trkpt>
      <trkpt lat="43.57656" lon="3.7418">
        <ele>60.4</ele>
        <time>2011-02-20T11:01:38Z</time>
      </trkpt>
      <trkpt lat="43.57661" lon="3.74185">
        <ele>60.3</ele>
        <time>2011-02-20T11:01:39Z</time>
      </trkpt>
      <trkpt lat="43.57665" lon="3.7419">
        <ele>60.1</ele>
        <time>2011-02-20T11:01:40Z</time>
      </trkpt>
      <trkpt lat="43.57669" lon="3.74195">
        <ele>59.9</ele>
        <time>2011-02-20T11:01:41Z</time>
      </trkpt>
      <trkpt lat="43.57673" lon="3.74199">
        <ele>59.8</ele>
        <time>2011-02-20T11:01:42Z</time>
      </trkpt>
      <trkpt lat="43.57678" lon="3.74204">
        <ele>59.8</ele>
        <time>2011-02-20T11:01:43Z</time>
      </trkpt>
      <trkpt lat="43.57682" lon="3.74209">
        <ele>59.8</ele>
        <time>2011-02-20T11:01:44Z</time>
      </trkpt>
      <trkpt lat="43.57686" lon="3.74213">
        <ele>59.8</ele>
        <time>2011-02-20T11:01:45Z</time>
      </trkpt>
      <trkpt lat="43.57691" lon="3.74218">
        <ele>59.9</ele>
        <time>2011-02-20T11:01:46Z</time>
      </trkpt>
      <trkpt lat="43.57695" lon="3.74223">
        <ele>60</ele>
        <time>2011-02-20T11:01:47Z</time>
      </trkpt>
      <trkpt lat="43.57699" lon="3.74228">
        <ele>60.1</ele>
        <time>2011-02-20T11:01:48Z</time>
      </trkpt>
      <trkpt lat="43.57703" lon="3.74233">
        <ele>60.2</ele>
        <time>2011-02-20T11:01:49Z</time>
      </trkpt>
      <trkpt lat="43.57708" lon="3.74237">
        <ele>59.9</ele>
        <time>2011-02-20T11:01:50Z</time>
      </trkpt>
      <trkpt lat="43.57712" lon="3.74242">
        <ele>59.6</ele>
        <time>2011-02-20T11:01:51Z</time>
      </trkpt>
      <trkpt lat="43.57716" lon="3.74246">
        <ele>59.5</ele>
        <time>2011-02-20T11:01:52Z</time>
      </trkpt>
      <trkpt lat="43.57721" lon="3.74251">
        <ele>59.4</ele>
        <time>2011-02-20T11:01:53Z</time>
      </trkpt>
      <trkpt lat="43.57725" lon="3.74256">
        <ele>59.3</ele>
        <time>2011-02-20T11:01:54Z</time>
      </trkpt>
      <trkpt lat="43.57729" lon="3.7426">
        <ele>59.3</ele>
        <time>2011-02-20T11:01:55Z</time>
      </trkpt>
      <trkpt lat="43.57734" lon="3.74264">
        <ele>58.8</ele>
        <time>2011-02-20T11:01:56Z</time>
      </trkpt>
      <trkpt lat="43.57738" lon="3.74269">
        <ele>58.5</ele>
        <time>2011-02-20T11:01:57Z</time>
      </trkpt>
      <trkpt lat="43.57742" lon="3.74274">
        <ele>58.3</ele>
        <time>2011-02-20T11:01:58Z</time>
      </trkpt>
      <trkpt lat="43.57746" lon="3.74279">
        <ele>58.6</ele>
        <time>2011-02-20T11:01:59Z</time>
      </trkpt>
      <trkpt lat="43.5775" lon="3.74284">
        <ele>58.8</ele>
        <time>2011-02-20T11:02:00Z</time>
      </trkpt>
      <trkpt lat="43.57754" lon="3.74289">
        <ele>58.9</ele>
        <time>2011-02-20T11:02:01Z</time>
      </trkpt>
      <trkpt lat="43.57758" lon="3.74293">
        <ele>58.6</ele>
        <time>2011-02-20T11:02:02Z</time>
      </trkpt>
      <trkpt lat="43.57762" lon="3.74298">
        <ele>58.4</ele>
        <time>2011-02-20T11:02:03Z</time>
      </trkpt>
      <trkpt lat="43.57767" lon="3.74303">
        <ele>58.2</ele>
        <time>2011-02-20T11:02:04Z</time>
      </trkpt>
      <trkpt lat="43.57771" lon="3.74307">
        <ele>58.3</ele>
        <time>2011-02-20T11:02:05Z</time>
      </trkpt>
      <trkpt lat="43.57775" lon="3.74312">
        <ele>58.4</ele>
        <time>2011-02-20T11:02:06Z</time>
      </trkpt>
      <trkpt lat="43.57779" lon="3.74317">
        <ele>58.4</ele>
        <time>2011-02-20T11:02:07Z</time>
      </trkpt>
      <trkpt lat="43.57783" lon="3.74321">
        <ele>58.5</ele>
        <time>2011-02-20T11:02:08Z</time>
      </trkpt>
      <trkpt lat="43.57787" lon="3.74326">
        <ele>58.1</ele>
        <time>2011-02-20T11:02:09Z</time>
      </trkpt>
      <trkpt lat="43.57791" lon="3.74331">
        <ele>57.9</ele>
        <time>2011-02-20T11:02:10Z</time>
      </trkpt>
      <trkpt lat="43.57795" lon="3.74336">
        <ele>57.7</ele>
        <time>2011-02-20T11:02:11Z</time>
      </trkpt>
      <trkpt lat="43.57799" lon="3.74341">
        <ele>58</ele>
        <time>2011-02-20T11:02:12Z</time>
      </trkpt>
      <trkpt lat="43.57803" lon="3.74346">
        <ele>58.2</ele>
        <time>2011-02-20T11:02:13Z</time>
      </trkpt>
      <trkpt lat="43.57806" lon="3.74351">
        <ele>58.4</ele>
        <time>2011-02-20T11:02:14Z</time>
      </trkpt>
      <trkpt lat="43.5781" lon="3.74356">
        <ele>58.5</ele>
        <time>2011-02-20T11:02:15Z</time>
      </trkpt>
      <trkpt lat="43.57814" lon="3.74361">
        <ele>58.6</ele>
        <time>2011-02-20T11:02:16Z</time>
      </trkpt>
      <trkpt lat="43.57818" lon="3.74366">
        <ele>58.7</ele>
        <time>2011-02-20T11:02:17Z</time>
      </trkpt>
      <trkpt lat="43.57821" lon="3.74371">
        <ele>58.7</ele>
        <time>2011-02-20T11:02:18Z</time>
      </trkpt>
      <trkpt lat="43.57825" lon="3.74377">
        <ele>58.7</ele>
        <time>2011-02-20T11:02:19Z</time>
      </trkpt>
      <trkpt lat="43.57828" lon="3.74382">
        <ele>58.8</ele>
        <time>2011-02-20T11:02:20Z</time>
      </trkpt>
      <trkpt lat="43.57832" lon="3.74387">
        <ele>59.3</ele>
        <time>2011-02-20T11:02:21Z</time>
      </trkpt>
      <trkpt lat="43.57835" lon="3.74392">
        <ele>59.6</ele>
        <time>2011-02-20T11:02:22Z</time>
      </trkpt>
      <trkpt lat="43.57839" lon="3.74397">
        <ele>59.9</ele>
        <time>2011-02-20T11:02:23Z</time>
      </trkpt>
      <trkpt lat="43.57842" lon="3.74402">
        <ele>60.1</ele>
        <time>2011-02-20T11:02:24Z</time>
      </trkpt>
      <trkpt lat="43.57845" lon="3.74408">
        <ele>60.1</ele>
        <time>2011-02-20T11:02:25Z</time>
      </trkpt>
      <trkpt lat="43.57848" lon="3.74413">
        <ele>60.1</ele>
        <time>2011-02-20T11:02:26Z</time>
      </trkpt>
      <trkpt lat="43.57851" lon="3.74419">
        <ele>60.1</ele>
        <time>2011-02-20T11:02:27Z</time>
      </trkpt>
      <trkpt lat="43.57853" lon="3.74424">
        <ele>59.9</ele>
        <time>2011-02-20T11:02:28Z</time>
      </trkpt>
      <trkpt lat="43.57856" lon="3.7443">
        <ele>59.6</ele>
        <time>2011-02-20T11:02:29Z</time>
      </trkpt>
      <trkpt lat="43.57859" lon="3.74436">
        <ele>59.5</ele>
        <time>2011-02-20T11:02:30Z</time>
      </trkpt>
      <trkpt lat="43.57863" lon="3.74442">
        <ele>59.9</ele>
        <time>2011-02-20T11:02:31Z</time>
      </trkpt>
      <trkpt lat="43.57865" lon="3.74448">
        <ele>60.2</ele>
        <time>2011-02-20T11:02:32Z</time>
      </trkpt>
      <trkpt lat="43.57868" lon="3.74453">
        <ele>60.4</ele>
        <time>2011-02-20T11:02:33Z</time>
      </trkpt>
      <trkpt lat="43.57871" lon="3.74459">
        <ele>60.2</ele>
        <time>2011-02-20T11:02:34Z</time>
      </trkpt>
      <trkpt lat="43.57874" lon="3.74465">
        <ele>60</ele>
        <time>2011-02-20T11:02:35Z</time>
      </trkpt>
      <trkpt lat="43.57877" lon="3.74471">
        <ele>59.8</ele>
        <time>2011-02-20T11:02:36Z</time>
      </trkpt>
      <trkpt lat="43.5788" lon="3.74477">
        <ele>59.6</ele>
        <time>2011-02-20T11:02:37Z</time>
      </trkpt>
      <trkpt lat="43.57883" lon="3.74483">
        <ele>59.4</ele>
        <time>2011-02-20T11:02:38Z</time>
      </trkpt>
      <trkpt lat="43.57885" lon="3.74489">
        <ele>59.2</ele>
        <time>2011-02-20T11:02:39Z</time>
      </trkpt>
      <trkpt lat="43.57888" lon="3.74495">
        <ele>59.1</ele>
        <time>2011-02-20T11:02:40Z</time>
      </trkpt>
      <trkpt lat="43.57891" lon="3.74501">
        <ele>59.2</ele>
        <time>2011-02-20T11:02:41Z</time>
      </trkpt>
      <trkpt lat="43.57893" lon="3.74507">
        <ele>59.3</ele>
        <time>2011-02-20T11:02:42Z</time>
      </trkpt>
      <trkpt lat="43.57896" lon="3.74513">
        <ele>59.4</ele>
        <time>2011-02-20T11:02:43Z</time>
      </trkpt>
      <trkpt lat="43.57899" lon="3.7452">
        <ele>59.6</ele>
        <time>2011-02-20T11:02:44Z</time>
      </trkpt>
      <trkpt lat="43.57902" lon="3.74526">
        <ele>59.8</ele>
        <time>2011-02-20T11:02:45Z</time>
      </trkpt>
      <trkpt lat="43.57905" lon="3.74532">
        <ele>60</ele>
        <time>2011-02-20T11:02:46Z</time>
      </trkpt>
      <trkpt lat="43.57908" lon="3.74538">
        <ele>59.9</ele>
        <time>2011-02-20T11:02:47Z</time>
      </trkpt>
      <trkpt lat="43.57911" lon="3.74544">
        <ele>59.8</ele>
        <time>2011-02-20T11:02:48Z</time>
      </trkpt>
      <trkpt lat="43.57914" lon="3.7455">
        <ele>59.7</ele>
        <time>2011-02-20T11:02:49Z</time>
      </trkpt>
      <trkpt lat="43.57917" lon="3.74556">
        <ele>59.5</ele>
        <time>2011-02-20T11:02:50Z</time>
      </trkpt>
      <trkpt lat="43.57919" lon="3.74562">
        <ele>59.3</ele>
        <time>2011-02-20T11:02:51Z</time>
      </trkpt>
      <trkpt lat="43.57922" lon="3.74568">
        <ele>59.2</ele>
        <time>2011-02-20T11:02:52Z</time>
      </trkpt>
      <trkpt lat="43.57925" lon="3.74574">
        <ele>58.9</ele>
        <time>2011-02-20T11:02:53Z</time>
      </trkpt>
      <trkpt lat="43.57928" lon="3.7458">
        <ele>58.7</ele>
        <time>2011-02-20T11:02:54Z</time>
      </trkpt>
      <trkpt lat="43.57931" lon="3.74586">
        <ele>58.5</ele>
        <time>2011-02-20T11:02:55Z</time>
      </trkpt>
      <trkpt lat="43.57933" lon="3.74592">
        <ele>58.4</ele>
        <time>2011-02-20T11:02:56Z</time>
      </trkpt>
      <trkpt lat="43.57936" lon="3.74598">
        <ele>58.3</ele>
        <time>2011-02-20T11:02:57Z</time>
      </trkpt>
      <trkpt lat="43.57939" lon="3.74604">
        <ele>58.1</ele>
        <time>2011-02-20T11:02:58Z</time>
      </trkpt>
      <trkpt lat="43.57942" lon="3.7461">
        <ele>58</ele>
        <time>2011-02-20T11:02:59Z</time>
      </trkpt>
      <trkpt lat="43.57944" lon="3.74616">
        <ele>58.2</ele>
        <time>2011-02-20T11:03:00Z</time>
      </trkpt>
      <trkpt lat="43.57947" lon="3.74622">
        <ele>58.4</ele>
        <time>2011-02-20T11:03:01Z</time>
      </trkpt>
      <trkpt lat="43.5795" lon="3.74628">
        <ele>58.5</ele>
        <time>2011-02-20T11:03:02Z</time>
      </trkpt>
      <trkpt lat="43.57953" lon="3.74634">
        <ele>57.9</ele>
        <time>2011-02-20T11:03:03Z</time>
      </trkpt>
      <trkpt lat="43.57955" lon="3.7464">
        <ele>57.4</ele>
        <time>2011-02-20T11:03:04Z</time>
      </trkpt>
      <trkpt lat="43.57958" lon="3.74647">
        <ele>57.1</ele>
        <time>2011-02-20T11:03:05Z</time>
      </trkpt>
      <trkpt lat="43.57961" lon="3.74653">
        <ele>57.1</ele>
        <time>2011-02-20T11:03:06Z</time>
      </trkpt>
      <trkpt lat="43.57964" lon="3.74659">
        <ele>57.1</ele>
        <time>2011-02-20T11:03:07Z</time>
      </trkpt>
      <trkpt lat="43.57967" lon="3.74666">
        <ele>57</ele>
        <time>2011-02-20T11:03:08Z</time>
      </trkpt>
      <trkpt lat="43.5797" lon="3.74672">
        <ele>57.3</ele>
        <time>2011-02-20T11:03:09Z</time>
      </trkpt>
      <trkpt lat="43.57973" lon="3.74678">
        <ele>57.4</ele>
        <time>2011-02-20T11:03:10Z</time>
      </trkpt>
      <trkpt lat="43.57976" lon="3.74685">
        <ele>57.6</ele>
        <time>2011-02-20T11:03:11Z</time>
      </trkpt>
      <trkpt lat="43.57979" lon="3.74691">
        <ele>57.7</ele>
        <time>2011-02-20T11:03:12Z</time>
      </trkpt>
      <trkpt lat="43.57982" lon="3.74698">
        <ele>57.4</ele>
        <time>2011-02-20T11:03:13Z</time>
      </trkpt>
      <trkpt lat="43.57985" lon="3.74704">
        <ele>57.2</ele>
        <time>2011-02-20T11:03:14Z</time>
      </trkpt>
      <trkpt lat="43.57988" lon="3.74711">
        <ele>57</ele>
        <time>2011-02-20T11:03:15Z</time>
      </trkpt>
      <trkpt lat="43.57991" lon="3.74717">
        <ele>57.2</ele>
        <time>2011-02-20T11:03:16Z</time>
      </trkpt>
      <trkpt lat="43.57994" lon="3.74723">
        <ele>57.3</ele>
        <time>2011-02-20T11:03:17Z</time>
      </trkpt>
      <trkpt lat="43.57997" lon="3.74729">
        <ele>57.4</ele>
        <time>2011-02-20T11:03:18Z</time>
      </trkpt>
      <trkpt lat="43.58" lon="3.74735">
        <ele>57.3</ele>
        <time>2011-02-20T11:03:19Z</time>
      </trkpt>
      <trkpt lat="43.58003" lon="3.74741">
        <ele>57.2</ele>
        <time>2011-02-20T11:03:20Z</time>
      </trkpt>
      <trkpt lat="43.58006" lon="3.74747">
        <ele>57.1</ele>
        <time>2011-02-20T11:03:21Z</time>
      </trkpt>
      <trkpt lat="43.58012" lon="3.74755">
        <ele>57.1</ele>
        <time>2011-02-20T11:03:23Z</time>
      </trkpt>
      <trkpt lat="43.58019" lon="3.74751">
        <ele>56.8</ele>
        <time>2011-02-20T11:03:26Z</time>
      </trkpt>
      <trkpt lat="43.58026" lon="3.74744">
        <ele>58.1</ele>
        <time>2011-02-20T11:03:30Z</time>
      </trkpt>
      <trkpt lat="43.58031" lon="3.74739">
        <ele>58.6</ele>
        <time>2011-02-20T11:03:33Z</time>
      </trkpt>
      <trkpt lat="43.58037" lon="3.74736">
        <ele>58.9</ele>
        <time>2011-02-20T11:03:35Z</time>
      </trkpt>
      <trkpt lat="43.58043" lon="3.74732">
        <ele>59.2</ele>
        <time>2011-02-20T11:03:37Z</time>
      </trkpt>
      <trkpt lat="43.58049" lon="3.74724">
        <ele>60</ele>
        <time>2011-02-20T11:03:40Z</time>
      </trkpt>
      <trkpt lat="43.58048" lon="3.74712">
        <ele>60</ele>
        <time>2011-02-20T11:03:43Z</time>
      </trkpt>
      <trkpt lat="43.5805" lon="3.74701">
        <ele>60.4</ele>
        <time>2011-02-20T11:03:46Z</time>
      </trkpt>
      <trkpt lat="43.58055" lon="3.74693">
        <ele>60.8</ele>
        <time>2011-02-20T11:03:49Z</time>
      </trkpt>
      <trkpt lat="43.58061" lon="3.74685">
        <ele>62.8</ele>
        <time>2011-02-20T11:04:00Z</time>
      </trkpt>
      <trkpt lat="43.58068" lon="3.74678">
        <ele>63.9</ele>
        <time>2011-02-20T11:04:08Z</time>
      </trkpt>
      <trkpt lat="43.58069" lon="3.74677">
        <ele>64.1</ele>
        <time>2011-02-20T11:04:09Z</time>
      </trkpt>
      <trkpt lat="43.58083" lon="3.74671">
        <ele>67.6</ele>
        <time>2011-02-20T11:04:25Z</time>
      </trkpt>
      <trkpt lat="43.5809" lon="3.74679">
        <ele>69</ele>
        <time>2011-02-20T11:04:33Z</time>
      </trkpt>
      <trkpt lat="43.58097" lon="3.74686">
        <ele>70.5</ele>
        <time>2011-02-20T11:04:56Z</time>
      </trkpt>
      <trkpt lat="43.58103" lon="3.74694">
        <ele>70.6</ele>
        <time>2011-02-20T11:05:29Z</time>
      </trkpt>
    </trkseg>
  </trk>
</gpx>